<?xml version="1.0" encoding="UTF-8" standalone="no" ?>
<gpx xmlns="http://www.topografix.com/GPX/1/1" xmlns:xsi="http://www.w3.org/2001/XMLSchema-instance" xsi:schemaLocation="http://www.topografix.com/GPX/1/1 http://www.topografix.com/GPX/1/1/gpx.xsd" version="1.1" creator="VisuGPX - https://www.visugpx.com">
  <metadata>
    <name>Mens / La Chapelle en Vercors</name>
    <desc><![CDATA[De Mens à La Chapelle en Vercors par le col de Menée, Die et le col de Rouset]]></desc>
  </metadata>
  <wpt lat="44.81535" lon="5.74847">
    <ele>770</ele>
    <name><![CDATA[Mens / La Chapelle en Vercors]]></name>
    <type><![CDATA[Generic]]></type>
  </wpt>
  <trk>
    <name><![CDATA[Mens / La Chapelle en Vercors]]></name>
    <trkseg>
      <trkpt lat="44.81535" lon="5.74847">
        <ele>770</ele>
        <time>2017-10-18T21:45:42Z</time>
      </trkpt>
      <trkpt lat="44.81566" lon="5.74828">
        <ele>770</ele>
        <time>2017-10-18T21:45:55Z</time>
      </trkpt>
      <trkpt lat="44.81588" lon="5.74816">
        <ele>770</ele>
        <time>2017-10-18T21:46:04Z</time>
      </trkpt>
      <trkpt lat="44.81597" lon="5.74814">
        <ele>770</ele>
        <time>2017-10-18T21:46:24Z</time>
      </trkpt>
      <trkpt lat="44.81615" lon="5.74814">
        <ele>770</ele>
        <time>2017-10-18T21:46:37Z</time>
      </trkpt>
      <trkpt lat="44.81653" lon="5.74811">
        <ele>769</ele>
        <time>2017-10-18T21:46:55Z</time>
      </trkpt>
      <trkpt lat="44.81668" lon="5.74808">
        <ele>767</ele>
        <time>2017-10-18T21:47:06Z</time>
      </trkpt>
      <trkpt lat="44.81667" lon="5.74794">
        <ele>767</ele>
        <time>2017-10-18T21:47:17Z</time>
      </trkpt>
      <trkpt lat="44.81665" lon="5.74777">
        <ele>769</ele>
        <time>2017-10-18T21:47:30Z</time>
      </trkpt>
      <trkpt lat="44.81657" lon="5.74709">
        <ele>767</ele>
        <time>2017-10-18T21:47:49Z</time>
      </trkpt>
      <trkpt lat="44.81648" lon="5.746">
        <ele>764</ele>
        <time>2017-10-18T21:48:06Z</time>
      </trkpt>
      <trkpt lat="44.81641" lon="5.74498">
        <ele>758</ele>
        <time>2017-10-18T21:48:25Z</time>
      </trkpt>
      <trkpt lat="44.81632" lon="5.74482">
        <ele>758</ele>
        <time>2017-10-18T21:48:32Z</time>
      </trkpt>
      <trkpt lat="44.8162" lon="5.74464">
        <ele>758</ele>
        <time>2017-10-18T21:48:45Z</time>
      </trkpt>
      <trkpt lat="44.81614" lon="5.74457">
        <ele>757</ele>
        <time>2017-10-18T21:48:58Z</time>
      </trkpt>
      <trkpt lat="44.8156" lon="5.74425">
        <ele>757</ele>
        <time>2017-10-18T21:49:14Z</time>
      </trkpt>
      <trkpt lat="44.8145" lon="5.7436">
        <ele>753</ele>
        <time>2017-10-18T21:49:34Z</time>
      </trkpt>
      <trkpt lat="44.81353" lon="5.743">
        <ele>749</ele>
        <time>2017-10-18T21:49:51Z</time>
      </trkpt>
      <trkpt lat="44.81323" lon="5.74278">
        <ele>748</ele>
        <time>2017-10-18T21:49:54Z</time>
      </trkpt>
      <trkpt lat="44.81302" lon="5.74254">
        <ele>748</ele>
        <time>2017-10-18T21:50:13Z</time>
      </trkpt>
      <trkpt lat="44.81292" lon="5.7423">
        <ele>746</ele>
        <time>2017-10-18T21:50:28Z</time>
      </trkpt>
      <trkpt lat="44.81288" lon="5.74212">
        <ele>746</ele>
        <time>2017-10-18T21:50:38Z</time>
      </trkpt>
      <trkpt lat="44.81286" lon="5.74193">
        <ele>745</ele>
        <time>2017-10-18T21:50:56Z</time>
      </trkpt>
      <trkpt lat="44.81287" lon="5.74174">
        <ele>745</ele>
        <time>2017-10-18T21:51:14Z</time>
      </trkpt>
      <trkpt lat="44.81292" lon="5.74156">
        <ele>743</ele>
        <time>2017-10-18T21:51:18Z</time>
      </trkpt>
      <trkpt lat="44.81303" lon="5.74132">
        <ele>742</ele>
        <time>2017-10-18T21:51:37Z</time>
      </trkpt>
      <trkpt lat="44.81313" lon="5.74119">
        <ele>741</ele>
        <time>2017-10-18T21:51:51Z</time>
      </trkpt>
      <trkpt lat="44.81324" lon="5.74109">
        <ele>740</ele>
        <time>2017-10-18T21:52:07Z</time>
      </trkpt>
      <trkpt lat="44.81344" lon="5.74096">
        <ele>737</ele>
        <time>2017-10-18T21:52:19Z</time>
      </trkpt>
      <trkpt lat="44.81466" lon="5.74018">
        <ele>730</ele>
        <time>2017-10-18T21:52:21Z</time>
      </trkpt>
      <trkpt lat="44.81519" lon="5.73983">
        <ele>725</ele>
        <time>2017-10-18T21:52:32Z</time>
      </trkpt>
      <trkpt lat="44.81542" lon="5.7396">
        <ele>724</ele>
        <time>2017-10-18T21:52:41Z</time>
      </trkpt>
      <trkpt lat="44.81561" lon="5.7393">
        <ele>722</ele>
        <time>2017-10-18T21:53:01Z</time>
      </trkpt>
      <trkpt lat="44.81577" lon="5.73897">
        <ele>719</ele>
        <time>2017-10-18T21:53:14Z</time>
      </trkpt>
      <trkpt lat="44.81592" lon="5.73866">
        <ele>723</ele>
        <time>2017-10-18T21:53:34Z</time>
      </trkpt>
      <trkpt lat="44.81601" lon="5.73844">
        <ele>723</ele>
        <time>2017-10-18T21:53:54Z</time>
      </trkpt>
      <trkpt lat="44.81604" lon="5.73828">
        <ele>724</ele>
        <time>2017-10-18T21:53:58Z</time>
      </trkpt>
      <trkpt lat="44.81604" lon="5.73812">
        <ele>725</ele>
        <time>2017-10-18T21:54:07Z</time>
      </trkpt>
      <trkpt lat="44.81601" lon="5.73794">
        <ele>725</ele>
        <time>2017-10-18T21:54:16Z</time>
      </trkpt>
      <trkpt lat="44.81595" lon="5.73778">
        <ele>725</ele>
        <time>2017-10-18T21:54:29Z</time>
      </trkpt>
      <trkpt lat="44.81587" lon="5.73765">
        <ele>724</ele>
        <time>2017-10-18T21:54:38Z</time>
      </trkpt>
      <trkpt lat="44.81576" lon="5.73754">
        <ele>720</ele>
        <time>2017-10-18T21:54:52Z</time>
      </trkpt>
      <trkpt lat="44.81545" lon="5.73739">
        <ele>719</ele>
        <time>2017-10-18T21:55:00Z</time>
      </trkpt>
      <trkpt lat="44.81533" lon="5.73732">
        <ele>718</ele>
        <time>2017-10-18T21:55:05Z</time>
      </trkpt>
      <trkpt lat="44.81516" lon="5.73719">
        <ele>717</ele>
        <time>2017-10-18T21:55:10Z</time>
      </trkpt>
      <trkpt lat="44.81493" lon="5.73689">
        <ele>714</ele>
        <time>2017-10-18T21:55:29Z</time>
      </trkpt>
      <trkpt lat="44.81466" lon="5.73635">
        <ele>712</ele>
        <time>2017-10-18T21:55:38Z</time>
      </trkpt>
      <trkpt lat="44.8146" lon="5.73618">
        <ele>712</ele>
        <time>2017-10-18T21:55:51Z</time>
      </trkpt>
      <trkpt lat="44.81452" lon="5.73587">
        <ele>711</ele>
        <time>2017-10-18T21:56:07Z</time>
      </trkpt>
      <trkpt lat="44.81448" lon="5.73554">
        <ele>711</ele>
        <time>2017-10-18T21:56:09Z</time>
      </trkpt>
      <trkpt lat="44.81448" lon="5.73485">
        <ele>710</ele>
        <time>2017-10-18T21:56:27Z</time>
      </trkpt>
      <trkpt lat="44.81449" lon="5.7343">
        <ele>710</ele>
        <time>2017-10-18T21:56:46Z</time>
      </trkpt>
      <trkpt lat="44.81461" lon="5.73354">
        <ele>709</ele>
        <time>2017-10-18T21:56:54Z</time>
      </trkpt>
      <trkpt lat="44.81462" lon="5.7331">
        <ele>709</ele>
        <time>2017-10-18T21:57:02Z</time>
      </trkpt>
      <trkpt lat="44.81454" lon="5.73254">
        <ele>708</ele>
        <time>2017-10-18T21:57:16Z</time>
      </trkpt>
      <trkpt lat="44.81451" lon="5.7322">
        <ele>707</ele>
        <time>2017-10-18T21:57:34Z</time>
      </trkpt>
      <trkpt lat="44.81455" lon="5.73176">
        <ele>706</ele>
        <time>2017-10-18T21:57:40Z</time>
      </trkpt>
      <trkpt lat="44.81462" lon="5.73133">
        <ele>705</ele>
        <time>2017-10-18T21:57:42Z</time>
      </trkpt>
      <trkpt lat="44.81462" lon="5.73111">
        <ele>705</ele>
        <time>2017-10-18T21:57:49Z</time>
      </trkpt>
      <trkpt lat="44.81459" lon="5.73089">
        <ele>705</ele>
        <time>2017-10-18T21:57:51Z</time>
      </trkpt>
      <trkpt lat="44.81449" lon="5.73036">
        <ele>704</ele>
        <time>2017-10-18T21:57:57Z</time>
      </trkpt>
      <trkpt lat="44.81448" lon="5.7298">
        <ele>702</ele>
        <time>2017-10-18T21:58:11Z</time>
      </trkpt>
      <trkpt lat="44.81457" lon="5.72923">
        <ele>701</ele>
        <time>2017-10-18T21:58:24Z</time>
      </trkpt>
      <trkpt lat="44.81464" lon="5.72873">
        <ele>699</ele>
        <time>2017-10-18T21:58:41Z</time>
      </trkpt>
      <trkpt lat="44.81471" lon="5.72827">
        <ele>697</ele>
        <time>2017-10-18T21:58:53Z</time>
      </trkpt>
      <trkpt lat="44.81503" lon="5.72684">
        <ele>691</ele>
        <time>2017-10-18T21:59:07Z</time>
      </trkpt>
      <trkpt lat="44.81524" lon="5.72586">
        <ele>690</ele>
        <time>2017-10-18T21:59:23Z</time>
      </trkpt>
      <trkpt lat="44.81526" lon="5.72573">
        <ele>689</ele>
        <time>2017-10-18T21:59:34Z</time>
      </trkpt>
      <trkpt lat="44.81526" lon="5.72539">
        <ele>689</ele>
        <time>2017-10-18T21:59:51Z</time>
      </trkpt>
      <trkpt lat="44.81508" lon="5.72457">
        <ele>688</ele>
        <time>2017-10-18T22:00:07Z</time>
      </trkpt>
      <trkpt lat="44.81472" lon="5.72312">
        <ele>685</ele>
        <time>2017-10-18T22:00:10Z</time>
      </trkpt>
      <trkpt lat="44.81453" lon="5.72231">
        <ele>682</ele>
        <time>2017-10-18T22:00:13Z</time>
      </trkpt>
      <trkpt lat="44.81449" lon="5.72205">
        <ele>682</ele>
        <time>2017-10-18T22:00:23Z</time>
      </trkpt>
      <trkpt lat="44.81449" lon="5.72178">
        <ele>681</ele>
        <time>2017-10-18T22:00:37Z</time>
      </trkpt>
      <trkpt lat="44.81452" lon="5.72143">
        <ele>680</ele>
        <time>2017-10-18T22:00:53Z</time>
      </trkpt>
      <trkpt lat="44.81459" lon="5.7211">
        <ele>681</ele>
        <time>2017-10-18T22:01:07Z</time>
      </trkpt>
      <trkpt lat="44.81464" lon="5.7208">
        <ele>682</ele>
        <time>2017-10-18T22:01:10Z</time>
      </trkpt>
      <trkpt lat="44.81465" lon="5.72051">
        <ele>683</ele>
        <time>2017-10-18T22:01:26Z</time>
      </trkpt>
      <trkpt lat="44.81463" lon="5.72007">
        <ele>684</ele>
        <time>2017-10-18T22:01:30Z</time>
      </trkpt>
      <trkpt lat="44.81457" lon="5.71977">
        <ele>687</ele>
        <time>2017-10-18T22:01:37Z</time>
      </trkpt>
      <trkpt lat="44.81449" lon="5.71948">
        <ele>686</ele>
        <time>2017-10-18T22:01:51Z</time>
      </trkpt>
      <trkpt lat="44.81432" lon="5.71889">
        <ele>691</ele>
        <time>2017-10-18T22:02:11Z</time>
      </trkpt>
      <trkpt lat="44.81418" lon="5.71849">
        <ele>690</ele>
        <time>2017-10-18T22:02:20Z</time>
      </trkpt>
      <trkpt lat="44.81409" lon="5.71826">
        <ele>685</ele>
        <time>2017-10-18T22:02:36Z</time>
      </trkpt>
      <trkpt lat="44.814" lon="5.71809">
        <ele>686</ele>
        <time>2017-10-18T22:02:42Z</time>
      </trkpt>
      <trkpt lat="44.81388" lon="5.71792">
        <ele>687</ele>
        <time>2017-10-18T22:02:55Z</time>
      </trkpt>
      <trkpt lat="44.81362" lon="5.71762">
        <ele>684</ele>
        <time>2017-10-18T22:03:15Z</time>
      </trkpt>
      <trkpt lat="44.81343" lon="5.71731">
        <ele>687</ele>
        <time>2017-10-18T22:03:33Z</time>
      </trkpt>
      <trkpt lat="44.81325" lon="5.71695">
        <ele>680</ele>
        <time>2017-10-18T22:03:36Z</time>
      </trkpt>
      <trkpt lat="44.81264" lon="5.71532">
        <ele>680</ele>
        <time>2017-10-18T22:03:38Z</time>
      </trkpt>
      <trkpt lat="44.81248" lon="5.71486">
        <ele>672</ele>
        <time>2017-10-18T22:03:58Z</time>
      </trkpt>
      <trkpt lat="44.81233" lon="5.71421">
        <ele>673</ele>
        <time>2017-10-18T22:04:01Z</time>
      </trkpt>
      <trkpt lat="44.81227" lon="5.71381">
        <ele>675</ele>
        <time>2017-10-18T22:04:14Z</time>
      </trkpt>
      <trkpt lat="44.81225" lon="5.71359">
        <ele>675</ele>
        <time>2017-10-18T22:04:23Z</time>
      </trkpt>
      <trkpt lat="44.81226" lon="5.71339">
        <ele>675</ele>
        <time>2017-10-18T22:04:37Z</time>
      </trkpt>
      <trkpt lat="44.81231" lon="5.71296">
        <ele>677</ele>
        <time>2017-10-18T22:04:40Z</time>
      </trkpt>
      <trkpt lat="44.81228" lon="5.7126">
        <ele>678</ele>
        <time>2017-10-18T22:04:43Z</time>
      </trkpt>
      <trkpt lat="44.81223" lon="5.71208">
        <ele>678</ele>
        <time>2017-10-18T22:04:54Z</time>
      </trkpt>
      <trkpt lat="44.81224" lon="5.71166">
        <ele>678</ele>
        <time>2017-10-18T22:05:06Z</time>
      </trkpt>
      <trkpt lat="44.81233" lon="5.71122">
        <ele>678</ele>
        <time>2017-10-18T22:05:15Z</time>
      </trkpt>
      <trkpt lat="44.81238" lon="5.71085">
        <ele>679</ele>
        <time>2017-10-18T22:05:34Z</time>
      </trkpt>
      <trkpt lat="44.81235" lon="5.71041">
        <ele>679</ele>
        <time>2017-10-18T22:05:37Z</time>
      </trkpt>
      <trkpt lat="44.81231" lon="5.71023">
        <ele>679</ele>
        <time>2017-10-18T22:05:47Z</time>
      </trkpt>
      <trkpt lat="44.81224" lon="5.7098">
        <ele>677</ele>
        <time>2017-10-18T22:05:57Z</time>
      </trkpt>
      <trkpt lat="44.8122" lon="5.70934">
        <ele>676</ele>
        <time>2017-10-18T22:06:16Z</time>
      </trkpt>
      <trkpt lat="44.81215" lon="5.70914">
        <ele>676</ele>
        <time>2017-10-18T22:06:20Z</time>
      </trkpt>
      <trkpt lat="44.81202" lon="5.70895">
        <ele>673</ele>
        <time>2017-10-18T22:06:31Z</time>
      </trkpt>
      <trkpt lat="44.8116" lon="5.70872">
        <ele>660</ele>
        <time>2017-10-18T22:06:35Z</time>
      </trkpt>
      <trkpt lat="44.81154" lon="5.70865">
        <ele>659</ele>
        <time>2017-10-18T22:06:40Z</time>
      </trkpt>
      <trkpt lat="44.81149" lon="5.70853">
        <ele>659</ele>
        <time>2017-10-18T22:06:42Z</time>
      </trkpt>
      <trkpt lat="44.81148" lon="5.70838">
        <ele>659</ele>
        <time>2017-10-18T22:06:47Z</time>
      </trkpt>
      <trkpt lat="44.81151" lon="5.70797">
        <ele>657</ele>
        <time>2017-10-18T22:06:58Z</time>
      </trkpt>
      <trkpt lat="44.81158" lon="5.70751">
        <ele>656</ele>
        <time>2017-10-18T22:07:00Z</time>
      </trkpt>
      <trkpt lat="44.81156" lon="5.70726">
        <ele>655</ele>
        <time>2017-10-18T22:07:06Z</time>
      </trkpt>
      <trkpt lat="44.81136" lon="5.70676">
        <ele>655</ele>
        <time>2017-10-18T22:07:08Z</time>
      </trkpt>
      <trkpt lat="44.81094" lon="5.70596">
        <ele>647</ele>
        <time>2017-10-18T22:07:23Z</time>
      </trkpt>
      <trkpt lat="44.80981" lon="5.70383">
        <ele>642</ele>
        <time>2017-10-18T22:07:39Z</time>
      </trkpt>
      <trkpt lat="44.80949" lon="5.7032">
        <ele>644</ele>
        <time>2017-10-18T22:07:48Z</time>
      </trkpt>
      <trkpt lat="44.80935" lon="5.70304">
        <ele>644</ele>
        <time>2017-10-18T22:07:57Z</time>
      </trkpt>
      <trkpt lat="44.80911" lon="5.70291">
        <ele>639</ele>
        <time>2017-10-18T22:08:04Z</time>
      </trkpt>
      <trkpt lat="44.80894" lon="5.70287">
        <ele>639</ele>
        <time>2017-10-18T22:08:12Z</time>
      </trkpt>
      <trkpt lat="44.80873" lon="5.70276">
        <ele>639</ele>
        <time>2017-10-18T22:08:14Z</time>
      </trkpt>
      <trkpt lat="44.80862" lon="5.70259">
        <ele>637</ele>
        <time>2017-10-18T22:08:34Z</time>
      </trkpt>
      <trkpt lat="44.80855" lon="5.70238">
        <ele>636</ele>
        <time>2017-10-18T22:08:43Z</time>
      </trkpt>
      <trkpt lat="44.8085" lon="5.70202">
        <ele>637</ele>
        <time>2017-10-18T22:09:00Z</time>
      </trkpt>
      <trkpt lat="44.80851" lon="5.70162">
        <ele>635</ele>
        <time>2017-10-18T22:09:15Z</time>
      </trkpt>
      <trkpt lat="44.8086" lon="5.70081">
        <ele>635</ele>
        <time>2017-10-18T22:09:17Z</time>
      </trkpt>
      <trkpt lat="44.80861" lon="5.70052">
        <ele>636</ele>
        <time>2017-10-18T22:09:28Z</time>
      </trkpt>
      <trkpt lat="44.80859" lon="5.70029">
        <ele>635</ele>
        <time>2017-10-18T22:09:35Z</time>
      </trkpt>
      <trkpt lat="44.80852" lon="5.69997">
        <ele>632</ele>
        <time>2017-10-18T22:09:55Z</time>
      </trkpt>
      <trkpt lat="44.80839" lon="5.69944">
        <ele>633</ele>
        <time>2017-10-18T22:10:05Z</time>
      </trkpt>
      <trkpt lat="44.80838" lon="5.69928">
        <ele>632</ele>
        <time>2017-10-18T22:10:17Z</time>
      </trkpt>
      <trkpt lat="44.80841" lon="5.6991">
        <ele>632</ele>
        <time>2017-10-18T22:10:34Z</time>
      </trkpt>
      <trkpt lat="44.80862" lon="5.69844">
        <ele>633</ele>
        <time>2017-10-18T22:10:39Z</time>
      </trkpt>
      <trkpt lat="44.80894" lon="5.6975">
        <ele>631</ele>
        <time>2017-10-18T22:10:52Z</time>
      </trkpt>
      <trkpt lat="44.80929" lon="5.69671">
        <ele>631</ele>
        <time>2017-10-18T22:11:11Z</time>
      </trkpt>
      <trkpt lat="44.80968" lon="5.6959">
        <ele>634</ele>
        <time>2017-10-18T22:11:17Z</time>
      </trkpt>
      <trkpt lat="44.81004" lon="5.69524">
        <ele>632</ele>
        <time>2017-10-18T22:11:20Z</time>
      </trkpt>
      <trkpt lat="44.81107" lon="5.69375">
        <ele>628</ele>
        <time>2017-10-18T22:11:37Z</time>
      </trkpt>
      <trkpt lat="44.81138" lon="5.69325">
        <ele>625</ele>
        <time>2017-10-18T22:11:42Z</time>
      </trkpt>
      <trkpt lat="44.81152" lon="5.69279">
        <ele>625</ele>
        <time>2017-10-18T22:11:47Z</time>
      </trkpt>
      <trkpt lat="44.81163" lon="5.69252">
        <ele>622</ele>
        <time>2017-10-18T22:12:05Z</time>
      </trkpt>
      <trkpt lat="44.81176" lon="5.69244">
        <ele>621</ele>
        <time>2017-10-18T22:12:07Z</time>
      </trkpt>
      <trkpt lat="44.81201" lon="5.69238">
        <ele>622</ele>
        <time>2017-10-18T22:12:19Z</time>
      </trkpt>
      <trkpt lat="44.81218" lon="5.6923">
        <ele>622</ele>
        <time>2017-10-18T22:12:26Z</time>
      </trkpt>
      <trkpt lat="44.81228" lon="5.69219">
        <ele>622</ele>
        <time>2017-10-18T22:12:43Z</time>
      </trkpt>
      <trkpt lat="44.81241" lon="5.692">
        <ele>621</ele>
        <time>2017-10-18T22:12:47Z</time>
      </trkpt>
      <trkpt lat="44.8126" lon="5.69168">
        <ele>618</ele>
        <time>2017-10-18T22:12:56Z</time>
      </trkpt>
      <trkpt lat="44.81274" lon="5.69135">
        <ele>619</ele>
        <time>2017-10-18T22:12:59Z</time>
      </trkpt>
      <trkpt lat="44.81287" lon="5.691">
        <ele>620</ele>
        <time>2017-10-18T22:13:19Z</time>
      </trkpt>
      <trkpt lat="44.8131" lon="5.6906">
        <ele>622</ele>
        <time>2017-10-18T22:13:39Z</time>
      </trkpt>
      <trkpt lat="44.81331" lon="5.69023">
        <ele>622</ele>
        <time>2017-10-18T22:13:50Z</time>
      </trkpt>
      <trkpt lat="44.81342" lon="5.68981">
        <ele>619</ele>
        <time>2017-10-18T22:14:03Z</time>
      </trkpt>
      <trkpt lat="44.81352" lon="5.68938">
        <ele>621</ele>
        <time>2017-10-18T22:14:18Z</time>
      </trkpt>
      <trkpt lat="44.81359" lon="5.68919">
        <ele>621</ele>
        <time>2017-10-18T22:14:28Z</time>
      </trkpt>
      <trkpt lat="44.81368" lon="5.68903">
        <ele>623</ele>
        <time>2017-10-18T22:14:44Z</time>
      </trkpt>
      <trkpt lat="44.814" lon="5.68872">
        <ele>621</ele>
        <time>2017-10-18T22:15:03Z</time>
      </trkpt>
      <trkpt lat="44.81429" lon="5.68846">
        <ele>616</ele>
        <time>2017-10-18T22:15:13Z</time>
      </trkpt>
      <trkpt lat="44.81465" lon="5.68785">
        <ele>616</ele>
        <time>2017-10-18T22:15:20Z</time>
      </trkpt>
      <trkpt lat="44.81505" lon="5.68713">
        <ele>611</ele>
        <time>2017-10-18T22:15:28Z</time>
      </trkpt>
      <trkpt lat="44.81528" lon="5.68668">
        <ele>612</ele>
        <time>2017-10-18T22:15:30Z</time>
      </trkpt>
      <trkpt lat="44.81535" lon="5.68647">
        <ele>610</ele>
        <time>2017-10-18T22:15:46Z</time>
      </trkpt>
      <trkpt lat="44.81541" lon="5.6862">
        <ele>609</ele>
        <time>2017-10-18T22:15:55Z</time>
      </trkpt>
      <trkpt lat="44.81548" lon="5.68575">
        <ele>607</ele>
        <time>2017-10-18T22:16:10Z</time>
      </trkpt>
      <trkpt lat="44.81562" lon="5.68462">
        <ele>605</ele>
        <time>2017-10-18T22:16:29Z</time>
      </trkpt>
      <trkpt lat="44.81588" lon="5.68271">
        <ele>599</ele>
        <time>2017-10-18T22:16:32Z</time>
      </trkpt>
      <trkpt lat="44.81593" lon="5.68246">
        <ele>598</ele>
        <time>2017-10-18T22:16:48Z</time>
      </trkpt>
      <trkpt lat="44.81608" lon="5.68203">
        <ele>597</ele>
        <time>2017-10-18T22:17:00Z</time>
      </trkpt>
      <trkpt lat="44.81619" lon="5.68181">
        <ele>597</ele>
        <time>2017-10-18T22:17:12Z</time>
      </trkpt>
      <trkpt lat="44.81635" lon="5.6816">
        <ele>596</ele>
        <time>2017-10-18T22:17:20Z</time>
      </trkpt>
      <trkpt lat="44.81655" lon="5.68138">
        <ele>596</ele>
        <time>2017-10-18T22:17:30Z</time>
      </trkpt>
      <trkpt lat="44.81673" lon="5.68123">
        <ele>598</ele>
        <time>2017-10-18T22:17:35Z</time>
      </trkpt>
      <trkpt lat="44.8172" lon="5.68085">
        <ele>600</ele>
        <time>2017-10-18T22:17:43Z</time>
      </trkpt>
      <trkpt lat="44.81759" lon="5.6805">
        <ele>603</ele>
        <time>2017-10-18T22:17:46Z</time>
      </trkpt>
      <trkpt lat="44.81791" lon="5.68018">
        <ele>604</ele>
        <time>2017-10-18T22:17:49Z</time>
      </trkpt>
      <trkpt lat="44.81815" lon="5.6799">
        <ele>601</ele>
        <time>2017-10-18T22:17:57Z</time>
      </trkpt>
      <trkpt lat="44.81827" lon="5.67967">
        <ele>600</ele>
        <time>2017-10-18T22:18:07Z</time>
      </trkpt>
      <trkpt lat="44.81893" lon="5.67809">
        <ele>595</ele>
        <time>2017-10-18T22:18:15Z</time>
      </trkpt>
      <trkpt lat="44.81914" lon="5.67755">
        <ele>596</ele>
        <time>2017-10-18T22:18:22Z</time>
      </trkpt>
      <trkpt lat="44.8192" lon="5.67723">
        <ele>601</ele>
        <time>2017-10-18T22:18:26Z</time>
      </trkpt>
      <trkpt lat="44.81925" lon="5.67678">
        <ele>599</ele>
        <time>2017-10-18T22:18:35Z</time>
      </trkpt>
      <trkpt lat="44.81933" lon="5.67647">
        <ele>598</ele>
        <time>2017-10-18T22:18:54Z</time>
      </trkpt>
      <trkpt lat="44.81939" lon="5.67631">
        <ele>598</ele>
        <time>2017-10-18T22:18:56Z</time>
      </trkpt>
      <trkpt lat="44.81956" lon="5.67602">
        <ele>598</ele>
        <time>2017-10-18T22:19:02Z</time>
      </trkpt>
      <trkpt lat="44.81998" lon="5.67537">
        <ele>597</ele>
        <time>2017-10-18T22:19:14Z</time>
      </trkpt>
      <trkpt lat="44.82026" lon="5.67498">
        <ele>597</ele>
        <time>2017-10-18T22:19:23Z</time>
      </trkpt>
      <trkpt lat="44.82053" lon="5.67457">
        <ele>598</ele>
        <time>2017-10-18T22:19:37Z</time>
      </trkpt>
      <trkpt lat="44.82074" lon="5.6743">
        <ele>596</ele>
        <time>2017-10-18T22:19:52Z</time>
      </trkpt>
      <trkpt lat="44.82085" lon="5.6742">
        <ele>594</ele>
        <time>2017-10-18T22:19:55Z</time>
      </trkpt>
      <trkpt lat="44.821" lon="5.67414">
        <ele>593</ele>
        <time>2017-10-18T22:20:02Z</time>
      </trkpt>
      <trkpt lat="44.82117" lon="5.67411">
        <ele>593</ele>
        <time>2017-10-18T22:20:13Z</time>
      </trkpt>
      <trkpt lat="44.82137" lon="5.67407">
        <ele>593</ele>
        <time>2017-10-18T22:20:23Z</time>
      </trkpt>
      <trkpt lat="44.82154" lon="5.674">
        <ele>594</ele>
        <time>2017-10-18T22:20:33Z</time>
      </trkpt>
      <trkpt lat="44.82193" lon="5.67373">
        <ele>594</ele>
        <time>2017-10-18T22:20:49Z</time>
      </trkpt>
      <trkpt lat="44.82238" lon="5.67342">
        <ele>595</ele>
        <time>2017-10-18T22:20:59Z</time>
      </trkpt>
      <trkpt lat="44.82247" lon="5.6733">
        <ele>593</ele>
        <time>2017-10-18T22:21:15Z</time>
      </trkpt>
      <trkpt lat="44.82252" lon="5.67314">
        <ele>598</ele>
        <time>2017-10-18T22:21:32Z</time>
      </trkpt>
      <trkpt lat="44.82252" lon="5.67295">
        <ele>599</ele>
        <time>2017-10-18T22:21:51Z</time>
      </trkpt>
      <trkpt lat="44.82248" lon="5.67272">
        <ele>590</ele>
        <time>2017-10-18T22:22:05Z</time>
      </trkpt>
      <trkpt lat="44.82249" lon="5.67249">
        <ele>589</ele>
        <time>2017-10-18T22:22:22Z</time>
      </trkpt>
      <trkpt lat="44.82253" lon="5.67235">
        <ele>592</ele>
        <time>2017-10-18T22:22:40Z</time>
      </trkpt>
      <trkpt lat="44.82265" lon="5.67214">
        <ele>593</ele>
        <time>2017-10-18T22:22:59Z</time>
      </trkpt>
      <trkpt lat="44.82298" lon="5.67174">
        <ele>595</ele>
        <time>2017-10-18T22:23:08Z</time>
      </trkpt>
      <trkpt lat="44.82343" lon="5.67114">
        <ele>600</ele>
        <time>2017-10-18T22:23:11Z</time>
      </trkpt>
      <trkpt lat="44.82399" lon="5.67035">
        <ele>594</ele>
        <time>2017-10-18T22:23:15Z</time>
      </trkpt>
      <trkpt lat="44.82423" lon="5.67">
        <ele>594</ele>
        <time>2017-10-18T22:23:25Z</time>
      </trkpt>
      <trkpt lat="44.82443" lon="5.66975">
        <ele>593</ele>
        <time>2017-10-18T22:23:45Z</time>
      </trkpt>
      <trkpt lat="44.82465" lon="5.66956">
        <ele>592</ele>
        <time>2017-10-18T22:23:52Z</time>
      </trkpt>
      <trkpt lat="44.82487" lon="5.66943">
        <ele>591</ele>
        <time>2017-10-18T22:23:56Z</time>
      </trkpt>
      <trkpt lat="44.82505" lon="5.66938">
        <ele>591</ele>
        <time>2017-10-18T22:24:05Z</time>
      </trkpt>
      <trkpt lat="44.82517" lon="5.66939">
        <ele>592</ele>
        <time>2017-10-18T22:24:09Z</time>
      </trkpt>
      <trkpt lat="44.82528" lon="5.6694">
        <ele>592</ele>
        <time>2017-10-18T22:24:24Z</time>
      </trkpt>
      <trkpt lat="44.8255" lon="5.66939">
        <ele>591</ele>
        <time>2017-10-18T22:24:43Z</time>
      </trkpt>
      <trkpt lat="44.82591" lon="5.66903">
        <ele>585</ele>
        <time>2017-10-18T22:24:47Z</time>
      </trkpt>
      <trkpt lat="44.82621" lon="5.66874">
        <ele>588</ele>
        <time>2017-10-18T22:24:56Z</time>
      </trkpt>
      <trkpt lat="44.82628" lon="5.66856">
        <ele>589</ele>
        <time>2017-10-18T22:25:10Z</time>
      </trkpt>
      <trkpt lat="44.82645" lon="5.66732">
        <ele>603</ele>
        <time>2017-10-18T22:25:25Z</time>
      </trkpt>
      <trkpt lat="44.82651" lon="5.66677">
        <ele>603</ele>
        <time>2017-10-18T22:25:31Z</time>
      </trkpt>
      <trkpt lat="44.8265" lon="5.66665">
        <ele>606</ele>
        <time>2017-10-18T22:25:41Z</time>
      </trkpt>
      <trkpt lat="44.82646" lon="5.66652">
        <ele>608</ele>
        <time>2017-10-18T22:25:50Z</time>
      </trkpt>
      <trkpt lat="44.82624" lon="5.6661">
        <ele>614</ele>
        <time>2017-10-18T22:25:53Z</time>
      </trkpt>
      <trkpt lat="44.8262" lon="5.66595">
        <ele>615</ele>
        <time>2017-10-18T22:25:59Z</time>
      </trkpt>
      <trkpt lat="44.82621" lon="5.66583">
        <ele>620</ele>
        <time>2017-10-18T22:26:13Z</time>
      </trkpt>
      <trkpt lat="44.82625" lon="5.66574">
        <ele>620</ele>
        <time>2017-10-18T22:26:21Z</time>
      </trkpt>
      <trkpt lat="44.82653" lon="5.6653">
        <ele>620</ele>
        <time>2017-10-18T22:26:31Z</time>
      </trkpt>
      <trkpt lat="44.82695" lon="5.66467">
        <ele>619</ele>
        <time>2017-10-18T22:26:51Z</time>
      </trkpt>
      <trkpt lat="44.8271" lon="5.66448">
        <ele>620</ele>
        <time>2017-10-18T22:26:55Z</time>
      </trkpt>
      <trkpt lat="44.82736" lon="5.66421">
        <ele>620</ele>
        <time>2017-10-18T22:27:03Z</time>
      </trkpt>
      <trkpt lat="44.82755" lon="5.66406">
        <ele>623</ele>
        <time>2017-10-18T22:27:08Z</time>
      </trkpt>
      <trkpt lat="44.8277" lon="5.66401">
        <ele>624</ele>
        <time>2017-10-18T22:27:27Z</time>
      </trkpt>
      <trkpt lat="44.82835" lon="5.66387">
        <ele>619</ele>
        <time>2017-10-18T22:27:41Z</time>
      </trkpt>
      <trkpt lat="44.82843" lon="5.66384">
        <ele>619</ele>
        <time>2017-10-18T22:27:51Z</time>
      </trkpt>
      <trkpt lat="44.82853" lon="5.66376">
        <ele>619</ele>
        <time>2017-10-18T22:27:54Z</time>
      </trkpt>
      <trkpt lat="44.82863" lon="5.66366">
        <ele>620</ele>
        <time>2017-10-18T22:28:05Z</time>
      </trkpt>
      <trkpt lat="44.82892" lon="5.66307">
        <ele>627</ele>
        <time>2017-10-18T22:28:16Z</time>
      </trkpt>
      <trkpt lat="44.82899" lon="5.6628">
        <ele>628</ele>
        <time>2017-10-18T22:28:24Z</time>
      </trkpt>
      <trkpt lat="44.82901" lon="5.66263">
        <ele>628</ele>
        <time>2017-10-18T22:28:32Z</time>
      </trkpt>
      <trkpt lat="44.82901" lon="5.66244">
        <ele>632</ele>
        <time>2017-10-18T22:28:52Z</time>
      </trkpt>
      <trkpt lat="44.829" lon="5.66205">
        <ele>637</ele>
        <time>2017-10-18T22:29:00Z</time>
      </trkpt>
      <trkpt lat="44.82904" lon="5.66187">
        <ele>637</ele>
        <time>2017-10-18T22:29:15Z</time>
      </trkpt>
      <trkpt lat="44.82909" lon="5.66174">
        <ele>637</ele>
        <time>2017-10-18T22:29:17Z</time>
      </trkpt>
      <trkpt lat="44.82924" lon="5.66153">
        <ele>636</ele>
        <time>2017-10-18T22:29:25Z</time>
      </trkpt>
      <trkpt lat="44.82941" lon="5.66135">
        <ele>637</ele>
        <time>2017-10-18T22:29:40Z</time>
      </trkpt>
      <trkpt lat="44.82955" lon="5.6612">
        <ele>637</ele>
        <time>2017-10-18T22:29:59Z</time>
      </trkpt>
      <trkpt lat="44.82963" lon="5.66108">
        <ele>637</ele>
        <time>2017-10-18T22:30:16Z</time>
      </trkpt>
      <trkpt lat="44.82973" lon="5.66082">
        <ele>643</ele>
        <time>2017-10-18T22:30:30Z</time>
      </trkpt>
      <trkpt lat="44.82984" lon="5.6605">
        <ele>645</ele>
        <time>2017-10-18T22:30:47Z</time>
      </trkpt>
      <trkpt lat="44.82994" lon="5.66036">
        <ele>646</ele>
        <time>2017-10-18T22:31:06Z</time>
      </trkpt>
      <trkpt lat="44.83022" lon="5.6601">
        <ele>640</ele>
        <time>2017-10-18T22:31:20Z</time>
      </trkpt>
      <trkpt lat="44.83036" lon="5.65993">
        <ele>643</ele>
        <time>2017-10-18T22:31:26Z</time>
      </trkpt>
      <trkpt lat="44.83045" lon="5.65974">
        <ele>643</ele>
        <time>2017-10-18T22:31:40Z</time>
      </trkpt>
      <trkpt lat="44.8305" lon="5.6595">
        <ele>643</ele>
        <time>2017-10-18T22:31:50Z</time>
      </trkpt>
      <trkpt lat="44.83051" lon="5.6589">
        <ele>645</ele>
        <time>2017-10-18T22:32:07Z</time>
      </trkpt>
      <trkpt lat="44.83049" lon="5.65866">
        <ele>645</ele>
        <time>2017-10-18T22:32:17Z</time>
      </trkpt>
      <trkpt lat="44.83045" lon="5.65847">
        <ele>645</ele>
        <time>2017-10-18T22:32:23Z</time>
      </trkpt>
      <trkpt lat="44.83027" lon="5.65815">
        <ele>644</ele>
        <time>2017-10-18T22:32:40Z</time>
      </trkpt>
      <trkpt lat="44.83015" lon="5.65801">
        <ele>644</ele>
        <time>2017-10-18T22:32:45Z</time>
      </trkpt>
      <trkpt lat="44.82987" lon="5.65777">
        <ele>651</ele>
        <time>2017-10-18T22:32:51Z</time>
      </trkpt>
      <trkpt lat="44.8292" lon="5.65733">
        <ele>654</ele>
        <time>2017-10-18T22:32:59Z</time>
      </trkpt>
      <trkpt lat="44.829" lon="5.65712">
        <ele>660</ele>
        <time>2017-10-18T22:33:17Z</time>
      </trkpt>
      <trkpt lat="44.82867" lon="5.65665">
        <ele>657</ele>
        <time>2017-10-18T22:33:27Z</time>
      </trkpt>
      <trkpt lat="44.82852" lon="5.65642">
        <ele>657</ele>
        <time>2017-10-18T22:33:35Z</time>
      </trkpt>
      <trkpt lat="44.82837" lon="5.65625">
        <ele>657</ele>
        <time>2017-10-18T22:33:37Z</time>
      </trkpt>
      <trkpt lat="44.82776" lon="5.6559">
        <ele>667</ele>
        <time>2017-10-18T22:33:50Z</time>
      </trkpt>
      <trkpt lat="44.82736" lon="5.65561">
        <ele>671</ele>
        <time>2017-10-18T22:33:54Z</time>
      </trkpt>
      <trkpt lat="44.82711" lon="5.6554">
        <ele>672</ele>
        <time>2017-10-18T22:34:00Z</time>
      </trkpt>
      <trkpt lat="44.82698" lon="5.6552">
        <ele>673</ele>
        <time>2017-10-18T22:34:07Z</time>
      </trkpt>
      <trkpt lat="44.82692" lon="5.65501">
        <ele>674</ele>
        <time>2017-10-18T22:34:25Z</time>
      </trkpt>
      <trkpt lat="44.82691" lon="5.6548">
        <ele>673</ele>
        <time>2017-10-18T22:34:44Z</time>
      </trkpt>
      <trkpt lat="44.82704" lon="5.65393">
        <ele>672</ele>
        <time>2017-10-18T22:34:53Z</time>
      </trkpt>
      <trkpt lat="44.82707" lon="5.65365">
        <ele>671</ele>
        <time>2017-10-18T22:35:07Z</time>
      </trkpt>
      <trkpt lat="44.82706" lon="5.65343">
        <ele>671</ele>
        <time>2017-10-18T22:35:12Z</time>
      </trkpt>
      <trkpt lat="44.82692" lon="5.65275">
        <ele>676</ele>
        <time>2017-10-18T22:35:24Z</time>
      </trkpt>
      <trkpt lat="44.8269" lon="5.65248">
        <ele>681</ele>
        <time>2017-10-18T22:35:43Z</time>
      </trkpt>
      <trkpt lat="44.82691" lon="5.65216">
        <ele>680</ele>
        <time>2017-10-18T22:35:57Z</time>
      </trkpt>
      <trkpt lat="44.82694" lon="5.65126">
        <ele>683</ele>
        <time>2017-10-18T22:36:10Z</time>
      </trkpt>
      <trkpt lat="44.82693" lon="5.65078">
        <ele>684</ele>
        <time>2017-10-18T22:36:29Z</time>
      </trkpt>
      <trkpt lat="44.82689" lon="5.65042">
        <ele>683</ele>
        <time>2017-10-18T22:36:49Z</time>
      </trkpt>
      <trkpt lat="44.82681" lon="5.65009">
        <ele>686</ele>
        <time>2017-10-18T22:37:05Z</time>
      </trkpt>
      <trkpt lat="44.8264" lon="5.64878">
        <ele>698</ele>
        <time>2017-10-18T22:37:14Z</time>
      </trkpt>
      <trkpt lat="44.82633" lon="5.6485">
        <ele>699</ele>
        <time>2017-10-18T22:37:26Z</time>
      </trkpt>
      <trkpt lat="44.82634" lon="5.64836">
        <ele>698</ele>
        <time>2017-10-18T22:37:37Z</time>
      </trkpt>
      <trkpt lat="44.82637" lon="5.64821">
        <ele>701</ele>
        <time>2017-10-18T22:37:51Z</time>
      </trkpt>
      <trkpt lat="44.82644" lon="5.64808">
        <ele>701</ele>
        <time>2017-10-18T22:37:59Z</time>
      </trkpt>
      <trkpt lat="44.82657" lon="5.64794">
        <ele>701</ele>
        <time>2017-10-18T22:38:06Z</time>
      </trkpt>
      <trkpt lat="44.82673" lon="5.64782">
        <ele>689</ele>
        <time>2017-10-18T22:38:21Z</time>
      </trkpt>
      <trkpt lat="44.82686" lon="5.64771">
        <ele>689</ele>
        <time>2017-10-18T22:38:34Z</time>
      </trkpt>
      <trkpt lat="44.82694" lon="5.64758">
        <ele>689</ele>
        <time>2017-10-18T22:38:51Z</time>
      </trkpt>
      <trkpt lat="44.827" lon="5.64739">
        <ele>693</ele>
        <time>2017-10-18T22:39:11Z</time>
      </trkpt>
      <trkpt lat="44.82711" lon="5.64683">
        <ele>693</ele>
        <time>2017-10-18T22:39:16Z</time>
      </trkpt>
      <trkpt lat="44.8272" lon="5.64635">
        <ele>693</ele>
        <time>2017-10-18T22:39:23Z</time>
      </trkpt>
      <trkpt lat="44.82722" lon="5.6461">
        <ele>692</ele>
        <time>2017-10-18T22:39:27Z</time>
      </trkpt>
      <trkpt lat="44.8272" lon="5.64588">
        <ele>692</ele>
        <time>2017-10-18T22:39:30Z</time>
      </trkpt>
      <trkpt lat="44.82715" lon="5.64567">
        <ele>692</ele>
        <time>2017-10-18T22:39:40Z</time>
      </trkpt>
      <trkpt lat="44.82695" lon="5.64524">
        <ele>694</ele>
        <time>2017-10-18T22:39:59Z</time>
      </trkpt>
      <trkpt lat="44.82679" lon="5.64486">
        <ele>697</ele>
        <time>2017-10-18T22:40:09Z</time>
      </trkpt>
      <trkpt lat="44.82675" lon="5.64468">
        <ele>697</ele>
        <time>2017-10-18T22:40:29Z</time>
      </trkpt>
      <trkpt lat="44.82674" lon="5.6445">
        <ele>698</ele>
        <time>2017-10-18T22:40:47Z</time>
      </trkpt>
      <trkpt lat="44.82682" lon="5.64404">
        <ele>703</ele>
        <time>2017-10-18T22:40:52Z</time>
      </trkpt>
      <trkpt lat="44.82702" lon="5.64325">
        <ele>711</ele>
        <time>2017-10-18T22:40:57Z</time>
      </trkpt>
      <trkpt lat="44.82712" lon="5.64308">
        <ele>711</ele>
        <time>2017-10-18T22:41:12Z</time>
      </trkpt>
      <trkpt lat="44.82734" lon="5.64292">
        <ele>711</ele>
        <time>2017-10-18T22:41:23Z</time>
      </trkpt>
      <trkpt lat="44.82755" lon="5.64278">
        <ele>704</ele>
        <time>2017-10-18T22:41:29Z</time>
      </trkpt>
      <trkpt lat="44.82766" lon="5.64265">
        <ele>705</ele>
        <time>2017-10-18T22:41:41Z</time>
      </trkpt>
      <trkpt lat="44.82772" lon="5.64248">
        <ele>711</ele>
        <time>2017-10-18T22:41:59Z</time>
      </trkpt>
      <trkpt lat="44.82774" lon="5.64222">
        <ele>711</ele>
        <time>2017-10-18T22:42:05Z</time>
      </trkpt>
      <trkpt lat="44.82776" lon="5.64189">
        <ele>714</ele>
        <time>2017-10-18T22:42:12Z</time>
      </trkpt>
      <trkpt lat="44.82781" lon="5.64171">
        <ele>715</ele>
        <time>2017-10-18T22:42:15Z</time>
      </trkpt>
      <trkpt lat="44.8279" lon="5.64155">
        <ele>719</ele>
        <time>2017-10-18T22:42:21Z</time>
      </trkpt>
      <trkpt lat="44.82822" lon="5.64127">
        <ele>715</ele>
        <time>2017-10-18T22:42:24Z</time>
      </trkpt>
      <trkpt lat="44.82831" lon="5.64114">
        <ele>715</ele>
        <time>2017-10-18T22:42:26Z</time>
      </trkpt>
      <trkpt lat="44.82836" lon="5.64097">
        <ele>703</ele>
        <time>2017-10-18T22:42:36Z</time>
      </trkpt>
      <trkpt lat="44.82837" lon="5.64068">
        <ele>705</ele>
        <time>2017-10-18T22:42:40Z</time>
      </trkpt>
      <trkpt lat="44.82823" lon="5.64031">
        <ele>721</ele>
        <time>2017-10-18T22:42:44Z</time>
      </trkpt>
      <trkpt lat="44.8282" lon="5.64012">
        <ele>720</ele>
        <time>2017-10-18T22:42:47Z</time>
      </trkpt>
      <trkpt lat="44.82823" lon="5.63994">
        <ele>719</ele>
        <time>2017-10-18T22:43:02Z</time>
      </trkpt>
      <trkpt lat="44.82833" lon="5.63973">
        <ele>722</ele>
        <time>2017-10-18T22:43:15Z</time>
      </trkpt>
      <trkpt lat="44.82839" lon="5.63956">
        <ele>708</ele>
        <time>2017-10-18T22:43:19Z</time>
      </trkpt>
      <trkpt lat="44.8284" lon="5.63943">
        <ele>709</ele>
        <time>2017-10-18T22:43:38Z</time>
      </trkpt>
      <trkpt lat="44.82839" lon="5.63931">
        <ele>711</ele>
        <time>2017-10-18T22:43:41Z</time>
      </trkpt>
      <trkpt lat="44.82836" lon="5.6392">
        <ele>715</ele>
        <time>2017-10-18T22:43:58Z</time>
      </trkpt>
      <trkpt lat="44.82828" lon="5.63908">
        <ele>717</ele>
        <time>2017-10-18T22:44:10Z</time>
      </trkpt>
      <trkpt lat="44.82816" lon="5.63899">
        <ele>717</ele>
        <time>2017-10-18T22:44:16Z</time>
      </trkpt>
      <trkpt lat="44.82754" lon="5.63881">
        <ele>720</ele>
        <time>2017-10-18T22:44:32Z</time>
      </trkpt>
      <trkpt lat="44.82645" lon="5.6385">
        <ele>737</ele>
        <time>2017-10-18T22:44:47Z</time>
      </trkpt>
      <trkpt lat="44.82631" lon="5.63844">
        <ele>739</ele>
        <time>2017-10-18T22:45:05Z</time>
      </trkpt>
      <trkpt lat="44.8261" lon="5.63829">
        <ele>732</ele>
        <time>2017-10-18T22:45:19Z</time>
      </trkpt>
      <trkpt lat="44.82594" lon="5.63803">
        <ele>731</ele>
        <time>2017-10-18T22:45:26Z</time>
      </trkpt>
      <trkpt lat="44.82586" lon="5.63784">
        <ele>729</ele>
        <time>2017-10-18T22:45:31Z</time>
      </trkpt>
      <trkpt lat="44.82582" lon="5.63745">
        <ele>726</ele>
        <time>2017-10-18T22:45:36Z</time>
      </trkpt>
      <trkpt lat="44.82578" lon="5.63678">
        <ele>723</ele>
        <time>2017-10-18T22:45:51Z</time>
      </trkpt>
      <trkpt lat="44.82572" lon="5.63614">
        <ele>724</ele>
        <time>2017-10-18T22:45:57Z</time>
      </trkpt>
      <trkpt lat="44.82566" lon="5.63554">
        <ele>726</ele>
        <time>2017-10-18T22:46:09Z</time>
      </trkpt>
      <trkpt lat="44.82565" lon="5.63524">
        <ele>728</ele>
        <time>2017-10-18T22:46:22Z</time>
      </trkpt>
      <trkpt lat="44.82568" lon="5.63495">
        <ele>730</ele>
        <time>2017-10-18T22:46:40Z</time>
      </trkpt>
      <trkpt lat="44.82577" lon="5.63454">
        <ele>732</ele>
        <time>2017-10-18T22:46:46Z</time>
      </trkpt>
      <trkpt lat="44.82589" lon="5.63405">
        <ele>732</ele>
        <time>2017-10-18T22:46:50Z</time>
      </trkpt>
      <trkpt lat="44.82602" lon="5.6334">
        <ele>731</ele>
        <time>2017-10-18T22:47:04Z</time>
      </trkpt>
      <trkpt lat="44.82614" lon="5.63278">
        <ele>735</ele>
        <time>2017-10-18T22:47:15Z</time>
      </trkpt>
      <trkpt lat="44.82625" lon="5.63237">
        <ele>741</ele>
        <time>2017-10-18T22:47:35Z</time>
      </trkpt>
      <trkpt lat="44.8266" lon="5.63136">
        <ele>749</ele>
        <time>2017-10-18T22:47:41Z</time>
      </trkpt>
      <trkpt lat="44.82664" lon="5.63112">
        <ele>751</ele>
        <time>2017-10-18T22:47:55Z</time>
      </trkpt>
      <trkpt lat="44.82664" lon="5.63084">
        <ele>747</ele>
        <time>2017-10-18T22:48:08Z</time>
      </trkpt>
      <trkpt lat="44.8266" lon="5.63012">
        <ele>753</ele>
        <time>2017-10-18T22:48:24Z</time>
      </trkpt>
      <trkpt lat="44.82661" lon="5.62994">
        <ele>750</ele>
        <time>2017-10-18T22:48:32Z</time>
      </trkpt>
      <trkpt lat="44.82669" lon="5.6296">
        <ele>745</ele>
        <time>2017-10-18T22:48:48Z</time>
      </trkpt>
      <trkpt lat="44.82697" lon="5.62852">
        <ele>743</ele>
        <time>2017-10-18T22:48:55Z</time>
      </trkpt>
      <trkpt lat="44.82705" lon="5.62828">
        <ele>744</ele>
        <time>2017-10-18T22:49:06Z</time>
      </trkpt>
      <trkpt lat="44.82712" lon="5.62799">
        <ele>745</ele>
        <time>2017-10-18T22:49:24Z</time>
      </trkpt>
      <trkpt lat="44.82713" lon="5.62781">
        <ele>745</ele>
        <time>2017-10-18T22:49:31Z</time>
      </trkpt>
      <trkpt lat="44.82712" lon="5.62762">
        <ele>746</ele>
        <time>2017-10-18T22:49:42Z</time>
      </trkpt>
      <trkpt lat="44.82706" lon="5.62697">
        <ele>751</ele>
        <time>2017-10-18T22:49:51Z</time>
      </trkpt>
      <trkpt lat="44.82702" lon="5.62623">
        <ele>754</ele>
        <time>2017-10-18T22:50:08Z</time>
      </trkpt>
      <trkpt lat="44.82703" lon="5.62596">
        <ele>754</ele>
        <time>2017-10-18T22:50:13Z</time>
      </trkpt>
      <trkpt lat="44.82709" lon="5.62563">
        <ele>756</ele>
        <time>2017-10-18T22:50:22Z</time>
      </trkpt>
      <trkpt lat="44.82727" lon="5.6252">
        <ele>757</ele>
        <time>2017-10-18T22:50:32Z</time>
      </trkpt>
      <trkpt lat="44.82755" lon="5.62487">
        <ele>758</ele>
        <time>2017-10-18T22:50:36Z</time>
      </trkpt>
      <trkpt lat="44.82758" lon="5.6248">
        <ele>758</ele>
        <time>2017-10-18T22:50:39Z</time>
      </trkpt>
      <trkpt lat="44.82759" lon="5.6245">
        <ele>758</ele>
        <time>2017-10-18T22:50:58Z</time>
      </trkpt>
      <trkpt lat="44.82755" lon="5.62388">
        <ele>760</ele>
        <time>2017-10-18T22:51:18Z</time>
      </trkpt>
      <trkpt lat="44.82755" lon="5.62326">
        <ele>763</ele>
        <time>2017-10-18T22:51:38Z</time>
      </trkpt>
      <trkpt lat="44.82754" lon="5.6231">
        <ele>763</ele>
        <time>2017-10-18T22:51:53Z</time>
      </trkpt>
      <trkpt lat="44.8275" lon="5.6228">
        <ele>764</ele>
        <time>2017-10-18T22:51:58Z</time>
      </trkpt>
      <trkpt lat="44.82745" lon="5.62254">
        <ele>768</ele>
        <time>2017-10-18T22:52:01Z</time>
      </trkpt>
      <trkpt lat="44.82745" lon="5.62239">
        <ele>769</ele>
        <time>2017-10-18T22:52:04Z</time>
      </trkpt>
      <trkpt lat="44.82769" lon="5.62144">
        <ele>769</ele>
        <time>2017-10-18T22:52:15Z</time>
      </trkpt>
      <trkpt lat="44.82774" lon="5.62122">
        <ele>769</ele>
        <time>2017-10-18T22:52:23Z</time>
      </trkpt>
      <trkpt lat="44.82776" lon="5.62102">
        <ele>770</ele>
        <time>2017-10-18T22:52:37Z</time>
      </trkpt>
      <trkpt lat="44.82765" lon="5.62018">
        <ele>773</ele>
        <time>2017-10-18T22:52:57Z</time>
      </trkpt>
      <trkpt lat="44.8273" lon="5.61859">
        <ele>782</ele>
        <time>2017-10-18T22:53:16Z</time>
      </trkpt>
      <trkpt lat="44.82723" lon="5.61822">
        <ele>784</ele>
        <time>2017-10-18T22:53:32Z</time>
      </trkpt>
      <trkpt lat="44.82718" lon="5.618">
        <ele>785</ele>
        <time>2017-10-18T22:53:36Z</time>
      </trkpt>
      <trkpt lat="44.82716" lon="5.6177">
        <ele>786</ele>
        <time>2017-10-18T22:53:41Z</time>
      </trkpt>
      <trkpt lat="44.82718" lon="5.61734">
        <ele>790</ele>
        <time>2017-10-18T22:53:52Z</time>
      </trkpt>
      <trkpt lat="44.82735" lon="5.61673">
        <ele>791</ele>
        <time>2017-10-18T22:54:10Z</time>
      </trkpt>
      <trkpt lat="44.82752" lon="5.61632">
        <ele>793</ele>
        <time>2017-10-18T22:54:24Z</time>
      </trkpt>
      <trkpt lat="44.82778" lon="5.61598">
        <ele>794</ele>
        <time>2017-10-18T22:54:41Z</time>
      </trkpt>
      <trkpt lat="44.82842" lon="5.61518">
        <ele>800</ele>
        <time>2017-10-18T22:54:53Z</time>
      </trkpt>
      <trkpt lat="44.8285" lon="5.61505">
        <ele>800</ele>
        <time>2017-10-18T22:55:04Z</time>
      </trkpt>
      <trkpt lat="44.82869" lon="5.61468">
        <ele>805</ele>
        <time>2017-10-18T22:55:23Z</time>
      </trkpt>
      <trkpt lat="44.82876" lon="5.61449">
        <ele>806</ele>
        <time>2017-10-18T22:55:32Z</time>
      </trkpt>
      <trkpt lat="44.82879" lon="5.61429">
        <ele>806</ele>
        <time>2017-10-18T22:55:34Z</time>
      </trkpt>
      <trkpt lat="44.82881" lon="5.61401">
        <ele>810</ele>
        <time>2017-10-18T22:55:40Z</time>
      </trkpt>
      <trkpt lat="44.82881" lon="5.61374">
        <ele>810</ele>
        <time>2017-10-18T22:55:45Z</time>
      </trkpt>
      <trkpt lat="44.82865" lon="5.61303">
        <ele>813</ele>
        <time>2017-10-18T22:55:50Z</time>
      </trkpt>
      <trkpt lat="44.82818" lon="5.61132">
        <ele>823</ele>
        <time>2017-10-18T22:56:09Z</time>
      </trkpt>
      <trkpt lat="44.82808" lon="5.61101">
        <ele>822</ele>
        <time>2017-10-18T22:56:16Z</time>
      </trkpt>
      <trkpt lat="44.82795" lon="5.61077">
        <ele>820</ele>
        <time>2017-10-18T22:56:35Z</time>
      </trkpt>
      <trkpt lat="44.82786" lon="5.61065">
        <ele>820</ele>
        <time>2017-10-18T22:56:44Z</time>
      </trkpt>
      <trkpt lat="44.82774" lon="5.61057">
        <ele>821</ele>
        <time>2017-10-18T22:56:59Z</time>
      </trkpt>
      <trkpt lat="44.82764" lon="5.61049">
        <ele>821</ele>
        <time>2017-10-18T22:57:03Z</time>
      </trkpt>
      <trkpt lat="44.82741" lon="5.61035">
        <ele>824</ele>
        <time>2017-10-18T22:57:06Z</time>
      </trkpt>
      <trkpt lat="44.82738" lon="5.61025">
        <ele>824</ele>
        <time>2017-10-18T22:57:14Z</time>
      </trkpt>
      <trkpt lat="44.82737" lon="5.61014">
        <ele>823</ele>
        <time>2017-10-18T22:57:25Z</time>
      </trkpt>
      <trkpt lat="44.82737" lon="5.61003">
        <ele>822</ele>
        <time>2017-10-18T22:57:31Z</time>
      </trkpt>
      <trkpt lat="44.82742" lon="5.60989">
        <ele>822</ele>
        <time>2017-10-18T22:57:38Z</time>
      </trkpt>
      <trkpt lat="44.82769" lon="5.60929">
        <ele>819</ele>
        <time>2017-10-18T22:57:46Z</time>
      </trkpt>
      <trkpt lat="44.82783" lon="5.60902">
        <ele>820</ele>
        <time>2017-10-18T22:58:00Z</time>
      </trkpt>
      <trkpt lat="44.828" lon="5.60873">
        <ele>820</ele>
        <time>2017-10-18T22:58:08Z</time>
      </trkpt>
      <trkpt lat="44.82817" lon="5.6085">
        <ele>820</ele>
        <time>2017-10-18T22:58:11Z</time>
      </trkpt>
      <trkpt lat="44.82825" lon="5.60835">
        <ele>821</ele>
        <time>2017-10-18T22:58:21Z</time>
      </trkpt>
      <trkpt lat="44.82845" lon="5.60812">
        <ele>823</ele>
        <time>2017-10-18T22:58:26Z</time>
      </trkpt>
      <trkpt lat="44.82866" lon="5.60792">
        <ele>824</ele>
        <time>2017-10-18T22:58:33Z</time>
      </trkpt>
      <trkpt lat="44.82887" lon="5.60775">
        <ele>825</ele>
        <time>2017-10-18T22:58:50Z</time>
      </trkpt>
      <trkpt lat="44.82923" lon="5.60752">
        <ele>827</ele>
        <time>2017-10-18T22:59:10Z</time>
      </trkpt>
      <trkpt lat="44.82944" lon="5.60741">
        <ele>829</ele>
        <time>2017-10-18T22:59:20Z</time>
      </trkpt>
      <trkpt lat="44.82983" lon="5.60728">
        <ele>829</ele>
        <time>2017-10-18T22:59:31Z</time>
      </trkpt>
      <trkpt lat="44.83009" lon="5.60722">
        <ele>830</ele>
        <time>2017-10-18T22:59:35Z</time>
      </trkpt>
      <trkpt lat="44.83" lon="5.60686">
        <ele>831</ele>
        <time>2017-10-18T22:59:53Z</time>
      </trkpt>
      <trkpt lat="44.82955" lon="5.6054">
        <ele>835</ele>
        <time>2017-10-18T23:00:10Z</time>
      </trkpt>
      <trkpt lat="44.82858" lon="5.60231">
        <ele>850</ele>
        <time>2017-10-18T23:00:15Z</time>
      </trkpt>
      <trkpt lat="44.82852" lon="5.602">
        <ele>851</ele>
        <time>2017-10-18T23:00:32Z</time>
      </trkpt>
      <trkpt lat="44.82853" lon="5.6017">
        <ele>852</ele>
        <time>2017-10-18T23:00:47Z</time>
      </trkpt>
      <trkpt lat="44.82858" lon="5.60135">
        <ele>854</ele>
        <time>2017-10-18T23:01:06Z</time>
      </trkpt>
      <trkpt lat="44.82875" lon="5.60059">
        <ele>858</ele>
        <time>2017-10-18T23:01:24Z</time>
      </trkpt>
      <trkpt lat="44.82877" lon="5.60027">
        <ele>859</ele>
        <time>2017-10-18T23:01:39Z</time>
      </trkpt>
      <trkpt lat="44.82877" lon="5.59989">
        <ele>862</ele>
        <time>2017-10-18T23:01:49Z</time>
      </trkpt>
      <trkpt lat="44.82873" lon="5.59944">
        <ele>863</ele>
        <time>2017-10-18T23:01:54Z</time>
      </trkpt>
      <trkpt lat="44.82863" lon="5.59904">
        <ele>866</ele>
        <time>2017-10-18T23:02:05Z</time>
      </trkpt>
      <trkpt lat="44.82855" lon="5.59878">
        <ele>866</ele>
        <time>2017-10-18T23:02:19Z</time>
      </trkpt>
      <trkpt lat="44.82823" lon="5.59809">
        <ele>872</ele>
        <time>2017-10-18T23:02:38Z</time>
      </trkpt>
      <trkpt lat="44.82774" lon="5.59707">
        <ele>877</ele>
        <time>2017-10-18T23:02:55Z</time>
      </trkpt>
      <trkpt lat="44.82718" lon="5.59591">
        <ele>888</ele>
        <time>2017-10-18T23:03:08Z</time>
      </trkpt>
      <trkpt lat="44.82706" lon="5.59556">
        <ele>892</ele>
        <time>2017-10-18T23:03:23Z</time>
      </trkpt>
      <trkpt lat="44.82701" lon="5.59521">
        <ele>894</ele>
        <time>2017-10-18T23:03:37Z</time>
      </trkpt>
      <trkpt lat="44.82689" lon="5.59412">
        <ele>903</ele>
        <time>2017-10-18T23:03:41Z</time>
      </trkpt>
      <trkpt lat="44.82666" lon="5.59206">
        <ele>924</ele>
        <time>2017-10-18T23:03:55Z</time>
      </trkpt>
      <trkpt lat="44.82637" lon="5.59085">
        <ele>914</ele>
        <time>2017-10-18T23:04:15Z</time>
      </trkpt>
      <trkpt lat="44.82625" lon="5.5905">
        <ele>906</ele>
        <time>2017-10-18T23:04:26Z</time>
      </trkpt>
      <trkpt lat="44.82608" lon="5.59018">
        <ele>908</ele>
        <time>2017-10-18T23:04:39Z</time>
      </trkpt>
      <trkpt lat="44.82559" lon="5.58932">
        <ele>916</ele>
        <time>2017-10-18T23:04:59Z</time>
      </trkpt>
      <trkpt lat="44.82528" lon="5.58873">
        <ele>906</ele>
        <time>2017-10-18T23:05:06Z</time>
      </trkpt>
      <trkpt lat="44.82518" lon="5.58856">
        <ele>906</ele>
        <time>2017-10-18T23:05:22Z</time>
      </trkpt>
      <trkpt lat="44.82498" lon="5.58828">
        <ele>911</ele>
        <time>2017-10-18T23:05:38Z</time>
      </trkpt>
      <trkpt lat="44.82481" lon="5.58807">
        <ele>916</ele>
        <time>2017-10-18T23:05:52Z</time>
      </trkpt>
      <trkpt lat="44.82457" lon="5.58786">
        <ele>920</ele>
        <time>2017-10-18T23:05:57Z</time>
      </trkpt>
      <trkpt lat="44.82444" lon="5.58768">
        <ele>923</ele>
        <time>2017-10-18T23:06:08Z</time>
      </trkpt>
      <trkpt lat="44.82439" lon="5.58755">
        <ele>925</ele>
        <time>2017-10-18T23:06:14Z</time>
      </trkpt>
      <trkpt lat="44.82424" lon="5.58673">
        <ele>915</ele>
        <time>2017-10-18T23:06:28Z</time>
      </trkpt>
      <trkpt lat="44.82412" lon="5.58628">
        <ele>932</ele>
        <time>2017-10-18T23:06:35Z</time>
      </trkpt>
      <trkpt lat="44.82396" lon="5.58577">
        <ele>921</ele>
        <time>2017-10-18T23:06:55Z</time>
      </trkpt>
      <trkpt lat="44.82371" lon="5.58503">
        <ele>928</ele>
        <time>2017-10-18T23:06:59Z</time>
      </trkpt>
      <trkpt lat="44.82358" lon="5.58459">
        <ele>923</ele>
        <time>2017-10-18T23:07:16Z</time>
      </trkpt>
      <trkpt lat="44.82347" lon="5.58432">
        <ele>923</ele>
        <time>2017-10-18T23:07:21Z</time>
      </trkpt>
      <trkpt lat="44.82323" lon="5.58379">
        <ele>933</ele>
        <time>2017-10-18T23:07:39Z</time>
      </trkpt>
      <trkpt lat="44.82308" lon="5.58354">
        <ele>932</ele>
        <time>2017-10-18T23:07:48Z</time>
      </trkpt>
      <trkpt lat="44.82293" lon="5.58338">
        <ele>933</ele>
        <time>2017-10-18T23:08:00Z</time>
      </trkpt>
      <trkpt lat="44.82278" lon="5.58329">
        <ele>926</ele>
        <time>2017-10-18T23:08:02Z</time>
      </trkpt>
      <trkpt lat="44.82256" lon="5.58315">
        <ele>928</ele>
        <time>2017-10-18T23:08:17Z</time>
      </trkpt>
      <trkpt lat="44.82242" lon="5.58305">
        <ele>935</ele>
        <time>2017-10-18T23:08:19Z</time>
      </trkpt>
      <trkpt lat="44.82229" lon="5.5829">
        <ele>934</ele>
        <time>2017-10-18T23:08:32Z</time>
      </trkpt>
      <trkpt lat="44.82214" lon="5.58266">
        <ele>932</ele>
        <time>2017-10-18T23:08:36Z</time>
      </trkpt>
      <trkpt lat="44.82206" lon="5.5825">
        <ele>925</ele>
        <time>2017-10-18T23:08:46Z</time>
      </trkpt>
      <trkpt lat="44.82196" lon="5.58238">
        <ele>925</ele>
        <time>2017-10-18T23:09:03Z</time>
      </trkpt>
      <trkpt lat="44.82181" lon="5.58229">
        <ele>926</ele>
        <time>2017-10-18T23:09:17Z</time>
      </trkpt>
      <trkpt lat="44.82135" lon="5.58207">
        <ele>928</ele>
        <time>2017-10-18T23:09:35Z</time>
      </trkpt>
      <trkpt lat="44.82077" lon="5.58178">
        <ele>932</ele>
        <time>2017-10-18T23:09:39Z</time>
      </trkpt>
      <trkpt lat="44.82061" lon="5.58175">
        <ele>934</ele>
        <time>2017-10-18T23:09:59Z</time>
      </trkpt>
      <trkpt lat="44.82052" lon="5.58176">
        <ele>936</ele>
        <time>2017-10-18T23:10:03Z</time>
      </trkpt>
      <trkpt lat="44.82042" lon="5.58183">
        <ele>938</ele>
        <time>2017-10-18T23:10:10Z</time>
      </trkpt>
      <trkpt lat="44.82036" lon="5.5819">
        <ele>938</ele>
        <time>2017-10-18T23:10:13Z</time>
      </trkpt>
      <trkpt lat="44.82024" lon="5.5822">
        <ele>938</ele>
        <time>2017-10-18T23:10:23Z</time>
      </trkpt>
      <trkpt lat="44.82012" lon="5.58263">
        <ele>938</ele>
        <time>2017-10-18T23:10:40Z</time>
      </trkpt>
      <trkpt lat="44.82" lon="5.58288">
        <ele>939</ele>
        <time>2017-10-18T23:10:46Z</time>
      </trkpt>
      <trkpt lat="44.81996" lon="5.58295">
        <ele>941</ele>
        <time>2017-10-18T23:11:01Z</time>
      </trkpt>
      <trkpt lat="44.81986" lon="5.58301">
        <ele>941</ele>
        <time>2017-10-18T23:11:18Z</time>
      </trkpt>
      <trkpt lat="44.81976" lon="5.58303">
        <ele>941</ele>
        <time>2017-10-18T23:11:25Z</time>
      </trkpt>
      <trkpt lat="44.81952" lon="5.58301">
        <ele>943</ele>
        <time>2017-10-18T23:11:42Z</time>
      </trkpt>
      <trkpt lat="44.8191" lon="5.58291">
        <ele>947</ele>
        <time>2017-10-18T23:11:55Z</time>
      </trkpt>
      <trkpt lat="44.81846" lon="5.58276">
        <ele>947</ele>
        <time>2017-10-18T23:12:07Z</time>
      </trkpt>
      <trkpt lat="44.81772" lon="5.58267">
        <ele>946</ele>
        <time>2017-10-18T23:12:09Z</time>
      </trkpt>
      <trkpt lat="44.81741" lon="5.58251">
        <ele>947</ele>
        <time>2017-10-18T23:12:22Z</time>
      </trkpt>
      <trkpt lat="44.81667" lon="5.58198">
        <ele>948</ele>
        <time>2017-10-18T23:12:25Z</time>
      </trkpt>
      <trkpt lat="44.81632" lon="5.58173">
        <ele>947</ele>
        <time>2017-10-18T23:12:44Z</time>
      </trkpt>
      <trkpt lat="44.81602" lon="5.5816">
        <ele>952</ele>
        <time>2017-10-18T23:12:48Z</time>
      </trkpt>
      <trkpt lat="44.81582" lon="5.58156">
        <ele>952</ele>
        <time>2017-10-18T23:13:00Z</time>
      </trkpt>
      <trkpt lat="44.81559" lon="5.58155">
        <ele>955</ele>
        <time>2017-10-18T23:13:18Z</time>
      </trkpt>
      <trkpt lat="44.81536" lon="5.58154">
        <ele>956</ele>
        <time>2017-10-18T23:13:28Z</time>
      </trkpt>
      <trkpt lat="44.81512" lon="5.5815">
        <ele>955</ele>
        <time>2017-10-18T23:13:40Z</time>
      </trkpt>
      <trkpt lat="44.8148" lon="5.58137">
        <ele>957</ele>
        <time>2017-10-18T23:14:00Z</time>
      </trkpt>
      <trkpt lat="44.81474" lon="5.58136">
        <ele>957</ele>
        <time>2017-10-18T23:14:12Z</time>
      </trkpt>
      <trkpt lat="44.81465" lon="5.5814">
        <ele>957</ele>
        <time>2017-10-18T23:14:20Z</time>
      </trkpt>
      <trkpt lat="44.81453" lon="5.58152">
        <ele>957</ele>
        <time>2017-10-18T23:14:28Z</time>
      </trkpt>
      <trkpt lat="44.81436" lon="5.5817">
        <ele>954</ele>
        <time>2017-10-18T23:14:35Z</time>
      </trkpt>
      <trkpt lat="44.81407" lon="5.58188">
        <ele>956</ele>
        <time>2017-10-18T23:14:46Z</time>
      </trkpt>
      <trkpt lat="44.81347" lon="5.58214">
        <ele>957</ele>
        <time>2017-10-18T23:14:50Z</time>
      </trkpt>
      <trkpt lat="44.81301" lon="5.5823">
        <ele>960</ele>
        <time>2017-10-18T23:15:04Z</time>
      </trkpt>
      <trkpt lat="44.81259" lon="5.58239">
        <ele>961</ele>
        <time>2017-10-18T23:15:08Z</time>
      </trkpt>
      <trkpt lat="44.81157" lon="5.58259">
        <ele>965</ele>
        <time>2017-10-18T23:15:10Z</time>
      </trkpt>
      <trkpt lat="44.8114" lon="5.5826">
        <ele>966</ele>
        <time>2017-10-18T23:15:18Z</time>
      </trkpt>
      <trkpt lat="44.81116" lon="5.5827">
        <ele>967</ele>
        <time>2017-10-18T23:15:38Z</time>
      </trkpt>
      <trkpt lat="44.81092" lon="5.5829">
        <ele>967</ele>
        <time>2017-10-18T23:15:44Z</time>
      </trkpt>
      <trkpt lat="44.81078" lon="5.58306">
        <ele>969</ele>
        <time>2017-10-18T23:16:02Z</time>
      </trkpt>
      <trkpt lat="44.81037" lon="5.58372">
        <ele>971</ele>
        <time>2017-10-18T23:16:06Z</time>
      </trkpt>
      <trkpt lat="44.80978" lon="5.58463">
        <ele>979</ele>
        <time>2017-10-18T23:16:14Z</time>
      </trkpt>
      <trkpt lat="44.80957" lon="5.58495">
        <ele>981</ele>
        <time>2017-10-18T23:16:21Z</time>
      </trkpt>
      <trkpt lat="44.8094" lon="5.5851">
        <ele>990</ele>
        <time>2017-10-18T23:16:35Z</time>
      </trkpt>
      <trkpt lat="44.80904" lon="5.58532">
        <ele>986</ele>
        <time>2017-10-18T23:16:38Z</time>
      </trkpt>
      <trkpt lat="44.80857" lon="5.58569">
        <ele>987</ele>
        <time>2017-10-18T23:16:49Z</time>
      </trkpt>
      <trkpt lat="44.80822" lon="5.58599">
        <ele>992</ele>
        <time>2017-10-18T23:16:52Z</time>
      </trkpt>
      <trkpt lat="44.80756" lon="5.58659">
        <ele>999</ele>
        <time>2017-10-18T23:17:10Z</time>
      </trkpt>
      <trkpt lat="44.80726" lon="5.58682">
        <ele>1008</ele>
        <time>2017-10-18T23:17:14Z</time>
      </trkpt>
      <trkpt lat="44.80682" lon="5.58701">
        <ele>1010</ele>
        <time>2017-10-18T23:17:28Z</time>
      </trkpt>
      <trkpt lat="44.80629" lon="5.58719">
        <ele>1010</ele>
        <time>2017-10-18T23:17:46Z</time>
      </trkpt>
      <trkpt lat="44.80581" lon="5.58728">
        <ele>1012</ele>
        <time>2017-10-18T23:17:50Z</time>
      </trkpt>
      <trkpt lat="44.80555" lon="5.58732">
        <ele>1011</ele>
        <time>2017-10-18T23:17:53Z</time>
      </trkpt>
      <trkpt lat="44.80532" lon="5.58734">
        <ele>1010</ele>
        <time>2017-10-18T23:18:10Z</time>
      </trkpt>
      <trkpt lat="44.80511" lon="5.5874">
        <ele>1013</ele>
        <time>2017-10-18T23:18:19Z</time>
      </trkpt>
      <trkpt lat="44.80481" lon="5.58754">
        <ele>1020</ele>
        <time>2017-10-18T23:18:27Z</time>
      </trkpt>
      <trkpt lat="44.80457" lon="5.5877">
        <ele>1021</ele>
        <time>2017-10-18T23:18:32Z</time>
      </trkpt>
      <trkpt lat="44.80445" lon="5.58783">
        <ele>1021</ele>
        <time>2017-10-18T23:18:35Z</time>
      </trkpt>
      <trkpt lat="44.80437" lon="5.58796">
        <ele>1023</ele>
        <time>2017-10-18T23:18:43Z</time>
      </trkpt>
      <trkpt lat="44.80422" lon="5.58831">
        <ele>1026</ele>
        <time>2017-10-18T23:18:56Z</time>
      </trkpt>
      <trkpt lat="44.80413" lon="5.5885">
        <ele>1030</ele>
        <time>2017-10-18T23:19:01Z</time>
      </trkpt>
      <trkpt lat="44.80404" lon="5.5886">
        <ele>1031</ele>
        <time>2017-10-18T23:19:13Z</time>
      </trkpt>
      <trkpt lat="44.80377" lon="5.58881">
        <ele>1032</ele>
        <time>2017-10-18T23:19:19Z</time>
      </trkpt>
      <trkpt lat="44.80355" lon="5.58894">
        <ele>1033</ele>
        <time>2017-10-18T23:19:24Z</time>
      </trkpt>
      <trkpt lat="44.80286" lon="5.58937">
        <ele>1040</ele>
        <time>2017-10-18T23:19:28Z</time>
      </trkpt>
      <trkpt lat="44.80257" lon="5.58956">
        <ele>1041</ele>
        <time>2017-10-18T23:19:39Z</time>
      </trkpt>
      <trkpt lat="44.8023" lon="5.58988">
        <ele>1041</ele>
        <time>2017-10-18T23:19:51Z</time>
      </trkpt>
      <trkpt lat="44.80217" lon="5.59003">
        <ele>1052</ele>
        <time>2017-10-18T23:19:59Z</time>
      </trkpt>
      <trkpt lat="44.80202" lon="5.59016">
        <ele>1052</ele>
        <time>2017-10-18T23:20:18Z</time>
      </trkpt>
      <trkpt lat="44.80172" lon="5.59038">
        <ele>1053</ele>
        <time>2017-10-18T23:20:29Z</time>
      </trkpt>
      <trkpt lat="44.80139" lon="5.59057">
        <ele>1053</ele>
        <time>2017-10-18T23:20:45Z</time>
      </trkpt>
      <trkpt lat="44.80124" lon="5.59071">
        <ele>1053</ele>
        <time>2017-10-18T23:20:56Z</time>
      </trkpt>
      <trkpt lat="44.80108" lon="5.5909">
        <ele>1062</ele>
        <time>2017-10-18T23:21:13Z</time>
      </trkpt>
      <trkpt lat="44.80095" lon="5.59101">
        <ele>1062</ele>
        <time>2017-10-18T23:21:19Z</time>
      </trkpt>
      <trkpt lat="44.80084" lon="5.59107">
        <ele>1062</ele>
        <time>2017-10-18T23:21:35Z</time>
      </trkpt>
      <trkpt lat="44.80068" lon="5.59108">
        <ele>1068</ele>
        <time>2017-10-18T23:21:46Z</time>
      </trkpt>
      <trkpt lat="44.80044" lon="5.59109">
        <ele>1072</ele>
        <time>2017-10-18T23:21:56Z</time>
      </trkpt>
      <trkpt lat="44.80024" lon="5.59101">
        <ele>1074</ele>
        <time>2017-10-18T23:22:13Z</time>
      </trkpt>
      <trkpt lat="44.80016" lon="5.5909">
        <ele>1076</ele>
        <time>2017-10-18T23:22:29Z</time>
      </trkpt>
      <trkpt lat="44.8001" lon="5.59064">
        <ele>1069</ele>
        <time>2017-10-18T23:22:46Z</time>
      </trkpt>
      <trkpt lat="44.80003" lon="5.59042">
        <ele>1066</ele>
        <time>2017-10-18T23:22:58Z</time>
      </trkpt>
      <trkpt lat="44.79984" lon="5.59015">
        <ele>1079</ele>
        <time>2017-10-18T23:23:16Z</time>
      </trkpt>
      <trkpt lat="44.79957" lon="5.58962">
        <ele>1074</ele>
        <time>2017-10-18T23:23:20Z</time>
      </trkpt>
      <trkpt lat="44.7994" lon="5.58927">
        <ele>1075</ele>
        <time>2017-10-18T23:23:35Z</time>
      </trkpt>
      <trkpt lat="44.7993" lon="5.58916">
        <ele>1072</ele>
        <time>2017-10-18T23:23:47Z</time>
      </trkpt>
      <trkpt lat="44.79919" lon="5.58911">
        <ele>1075</ele>
        <time>2017-10-18T23:23:51Z</time>
      </trkpt>
      <trkpt lat="44.79907" lon="5.58909">
        <ele>1074</ele>
        <time>2017-10-18T23:23:54Z</time>
      </trkpt>
      <trkpt lat="44.79901" lon="5.5891">
        <ele>1073</ele>
        <time>2017-10-18T23:23:56Z</time>
      </trkpt>
      <trkpt lat="44.79878" lon="5.5892">
        <ele>1082</ele>
        <time>2017-10-18T23:24:13Z</time>
      </trkpt>
      <trkpt lat="44.79849" lon="5.58939">
        <ele>1082</ele>
        <time>2017-10-18T23:24:22Z</time>
      </trkpt>
      <trkpt lat="44.79815" lon="5.58978">
        <ele>1084</ele>
        <time>2017-10-18T23:24:28Z</time>
      </trkpt>
      <trkpt lat="44.79785" lon="5.59004">
        <ele>1096</ele>
        <time>2017-10-18T23:24:38Z</time>
      </trkpt>
      <trkpt lat="44.79751" lon="5.59025">
        <ele>1095</ele>
        <time>2017-10-18T23:24:58Z</time>
      </trkpt>
      <trkpt lat="44.79734" lon="5.59038">
        <ele>1089</ele>
        <time>2017-10-18T23:25:08Z</time>
      </trkpt>
      <trkpt lat="44.79719" lon="5.59061">
        <ele>1092</ele>
        <time>2017-10-18T23:25:23Z</time>
      </trkpt>
      <trkpt lat="44.797" lon="5.59086">
        <ele>1105</ele>
        <time>2017-10-18T23:25:26Z</time>
      </trkpt>
      <trkpt lat="44.79678" lon="5.59104">
        <ele>1104</ele>
        <time>2017-10-18T23:25:30Z</time>
      </trkpt>
      <trkpt lat="44.79579" lon="5.59175">
        <ele>1106</ele>
        <time>2017-10-18T23:25:44Z</time>
      </trkpt>
      <trkpt lat="44.79536" lon="5.59217">
        <ele>1108</ele>
        <time>2017-10-18T23:25:53Z</time>
      </trkpt>
      <trkpt lat="44.79515" lon="5.59244">
        <ele>1109</ele>
        <time>2017-10-18T23:26:10Z</time>
      </trkpt>
      <trkpt lat="44.79507" lon="5.59267">
        <ele>1118</ele>
        <time>2017-10-18T23:26:15Z</time>
      </trkpt>
      <trkpt lat="44.79499" lon="5.593">
        <ele>1117</ele>
        <time>2017-10-18T23:26:17Z</time>
      </trkpt>
      <trkpt lat="44.79491" lon="5.59315">
        <ele>1120</ele>
        <time>2017-10-18T23:26:29Z</time>
      </trkpt>
      <trkpt lat="44.79476" lon="5.59335">
        <ele>1130</ele>
        <time>2017-10-18T23:26:33Z</time>
      </trkpt>
      <trkpt lat="44.79459" lon="5.59351">
        <ele>1131</ele>
        <time>2017-10-18T23:26:46Z</time>
      </trkpt>
      <trkpt lat="44.79448" lon="5.5936">
        <ele>1132</ele>
        <time>2017-10-18T23:26:57Z</time>
      </trkpt>
      <trkpt lat="44.79428" lon="5.59366">
        <ele>1132</ele>
        <time>2017-10-18T23:27:07Z</time>
      </trkpt>
      <trkpt lat="44.79405" lon="5.5936">
        <ele>1131</ele>
        <time>2017-10-18T23:27:25Z</time>
      </trkpt>
      <trkpt lat="44.79394" lon="5.5935">
        <ele>1131</ele>
        <time>2017-10-18T23:27:37Z</time>
      </trkpt>
      <trkpt lat="44.79387" lon="5.5934">
        <ele>1131</ele>
        <time>2017-10-18T23:27:57Z</time>
      </trkpt>
      <trkpt lat="44.79373" lon="5.59327">
        <ele>1118</ele>
        <time>2017-10-18T23:28:05Z</time>
      </trkpt>
      <trkpt lat="44.79361" lon="5.59325">
        <ele>1119</ele>
        <time>2017-10-18T23:28:25Z</time>
      </trkpt>
      <trkpt lat="44.79332" lon="5.59333">
        <ele>1127</ele>
        <time>2017-10-18T23:28:33Z</time>
      </trkpt>
      <trkpt lat="44.79287" lon="5.59356">
        <ele>1134</ele>
        <time>2017-10-18T23:28:48Z</time>
      </trkpt>
      <trkpt lat="44.79228" lon="5.59396">
        <ele>1134</ele>
        <time>2017-10-18T23:29:06Z</time>
      </trkpt>
      <trkpt lat="44.79155" lon="5.59447">
        <ele>1145</ele>
        <time>2017-10-18T23:29:09Z</time>
      </trkpt>
      <trkpt lat="44.79115" lon="5.59479">
        <ele>1149</ele>
        <time>2017-10-18T23:29:15Z</time>
      </trkpt>
      <trkpt lat="44.79087" lon="5.595">
        <ele>1154</ele>
        <time>2017-10-18T23:29:27Z</time>
      </trkpt>
      <trkpt lat="44.79068" lon="5.59509">
        <ele>1159</ele>
        <time>2017-10-18T23:29:47Z</time>
      </trkpt>
      <trkpt lat="44.79048" lon="5.59511">
        <ele>1160</ele>
        <time>2017-10-18T23:29:51Z</time>
      </trkpt>
      <trkpt lat="44.79016" lon="5.59504">
        <ele>1157</ele>
        <time>2017-10-18T23:30:02Z</time>
      </trkpt>
      <trkpt lat="44.79003" lon="5.59504">
        <ele>1153</ele>
        <time>2017-10-18T23:30:13Z</time>
      </trkpt>
      <trkpt lat="44.78984" lon="5.59525">
        <ele>1155</ele>
        <time>2017-10-18T23:30:24Z</time>
      </trkpt>
      <trkpt lat="44.78975" lon="5.59539">
        <ele>1157</ele>
        <time>2017-10-18T23:30:27Z</time>
      </trkpt>
      <trkpt lat="44.78913" lon="5.59587">
        <ele>1163</ele>
        <time>2017-10-18T23:30:35Z</time>
      </trkpt>
      <trkpt lat="44.78895" lon="5.59611">
        <ele>1166</ele>
        <time>2017-10-18T23:30:37Z</time>
      </trkpt>
      <trkpt lat="44.78859" lon="5.59674">
        <ele>1180</ele>
        <time>2017-10-18T23:30:40Z</time>
      </trkpt>
      <trkpt lat="44.78831" lon="5.59721">
        <ele>1177</ele>
        <time>2017-10-18T23:30:48Z</time>
      </trkpt>
      <trkpt lat="44.7881" lon="5.59746">
        <ele>1178</ele>
        <time>2017-10-18T23:31:05Z</time>
      </trkpt>
      <trkpt lat="44.78787" lon="5.59772">
        <ele>1185</ele>
        <time>2017-10-18T23:31:11Z</time>
      </trkpt>
      <trkpt lat="44.78779" lon="5.59787">
        <ele>1186</ele>
        <time>2017-10-18T23:31:20Z</time>
      </trkpt>
      <trkpt lat="44.78766" lon="5.59818">
        <ele>1188</ele>
        <time>2017-10-18T23:31:29Z</time>
      </trkpt>
      <trkpt lat="44.78749" lon="5.59834">
        <ele>1188</ele>
        <time>2017-10-18T23:31:49Z</time>
      </trkpt>
      <trkpt lat="44.7872" lon="5.59857">
        <ele>1192</ele>
        <time>2017-10-18T23:32:00Z</time>
      </trkpt>
      <trkpt lat="44.78696" lon="5.59867">
        <ele>1192</ele>
        <time>2017-10-18T23:32:19Z</time>
      </trkpt>
      <trkpt lat="44.78663" lon="5.59874">
        <ele>1193</ele>
        <time>2017-10-18T23:32:23Z</time>
      </trkpt>
      <trkpt lat="44.78616" lon="5.59875">
        <ele>1195</ele>
        <time>2017-10-18T23:32:33Z</time>
      </trkpt>
      <trkpt lat="44.78566" lon="5.59874">
        <ele>1200</ele>
        <time>2017-10-18T23:32:42Z</time>
      </trkpt>
      <trkpt lat="44.78522" lon="5.59874">
        <ele>1201</ele>
        <time>2017-10-18T23:32:49Z</time>
      </trkpt>
      <trkpt lat="44.78507" lon="5.59866">
        <ele>1201</ele>
        <time>2017-10-18T23:33:02Z</time>
      </trkpt>
      <trkpt lat="44.78489" lon="5.5984">
        <ele>1201</ele>
        <time>2017-10-18T23:33:04Z</time>
      </trkpt>
      <trkpt lat="44.78469" lon="5.59804">
        <ele>1203</ele>
        <time>2017-10-18T23:33:07Z</time>
      </trkpt>
      <trkpt lat="44.78447" lon="5.59777">
        <ele>1204</ele>
        <time>2017-10-18T23:33:20Z</time>
      </trkpt>
      <trkpt lat="44.78431" lon="5.59765">
        <ele>1205</ele>
        <time>2017-10-18T23:33:40Z</time>
      </trkpt>
      <trkpt lat="44.78392" lon="5.59742">
        <ele>1207</ele>
        <time>2017-10-18T23:33:45Z</time>
      </trkpt>
      <trkpt lat="44.78374" lon="5.59729">
        <ele>1207</ele>
        <time>2017-10-18T23:34:01Z</time>
      </trkpt>
      <trkpt lat="44.78364" lon="5.59718">
        <ele>1207</ele>
        <time>2017-10-18T23:34:15Z</time>
      </trkpt>
      <trkpt lat="44.78355" lon="5.59704">
        <ele>1207</ele>
        <time>2017-10-18T23:34:22Z</time>
      </trkpt>
      <trkpt lat="44.78344" lon="5.59671">
        <ele>1208</ele>
        <time>2017-10-18T23:34:38Z</time>
      </trkpt>
      <trkpt lat="44.78325" lon="5.59598">
        <ele>1215</ele>
        <time>2017-10-18T23:34:44Z</time>
      </trkpt>
      <trkpt lat="44.78324" lon="5.59545">
        <ele>1225</ele>
        <time>2017-10-18T23:34:59Z</time>
      </trkpt>
      <trkpt lat="44.78328" lon="5.59495">
        <ele>1233</ele>
        <time>2017-10-18T23:35:02Z</time>
      </trkpt>
      <trkpt lat="44.78325" lon="5.5946">
        <ele>1240</ele>
        <time>2017-10-18T23:35:04Z</time>
      </trkpt>
      <trkpt lat="44.78318" lon="5.59453">
        <ele>1241</ele>
        <time>2017-10-18T23:35:17Z</time>
      </trkpt>
      <trkpt lat="44.78307" lon="5.59453">
        <ele>1242</ele>
        <time>2017-10-18T23:35:30Z</time>
      </trkpt>
      <trkpt lat="44.78297" lon="5.5946">
        <ele>1241</ele>
        <time>2017-10-18T23:35:34Z</time>
      </trkpt>
      <trkpt lat="44.78285" lon="5.59476">
        <ele>1240</ele>
        <time>2017-10-18T23:35:46Z</time>
      </trkpt>
      <trkpt lat="44.7827" lon="5.59496">
        <ele>1239</ele>
        <time>2017-10-18T23:35:52Z</time>
      </trkpt>
      <trkpt lat="44.7826" lon="5.5951">
        <ele>1231</ele>
        <time>2017-10-18T23:36:09Z</time>
      </trkpt>
      <trkpt lat="44.78244" lon="5.59531">
        <ele>1230</ele>
        <time>2017-10-18T23:36:28Z</time>
      </trkpt>
      <trkpt lat="44.78222" lon="5.59549">
        <ele>1228</ele>
        <time>2017-10-18T23:36:47Z</time>
      </trkpt>
      <trkpt lat="44.78176" lon="5.59589">
        <ele>1221</ele>
        <time>2017-10-18T23:37:01Z</time>
      </trkpt>
      <trkpt lat="44.78167" lon="5.59595">
        <ele>1221</ele>
        <time>2017-10-18T23:37:13Z</time>
      </trkpt>
      <trkpt lat="44.78157" lon="5.59598">
        <ele>1221</ele>
        <time>2017-10-18T23:37:26Z</time>
      </trkpt>
      <trkpt lat="44.78144" lon="5.59594">
        <ele>1220</ele>
        <time>2017-10-18T23:37:32Z</time>
      </trkpt>
      <trkpt lat="44.78135" lon="5.59585">
        <ele>1219</ele>
        <time>2017-10-18T23:37:39Z</time>
      </trkpt>
      <trkpt lat="44.78129" lon="5.5957">
        <ele>1228</ele>
        <time>2017-10-18T23:37:48Z</time>
      </trkpt>
      <trkpt lat="44.78125" lon="5.5954">
        <ele>1229</ele>
        <time>2017-10-18T23:37:57Z</time>
      </trkpt>
      <trkpt lat="44.78125" lon="5.59495">
        <ele>1239</ele>
        <time>2017-10-18T23:38:11Z</time>
      </trkpt>
      <trkpt lat="44.78121" lon="5.59476">
        <ele>1239</ele>
        <time>2017-10-18T23:38:20Z</time>
      </trkpt>
      <trkpt lat="44.78114" lon="5.59448">
        <ele>1240</ele>
        <time>2017-10-18T23:38:31Z</time>
      </trkpt>
      <trkpt lat="44.78093" lon="5.5936">
        <ele>1252</ele>
        <time>2017-10-18T23:38:35Z</time>
      </trkpt>
      <trkpt lat="44.78086" lon="5.59346">
        <ele>1253</ele>
        <time>2017-10-18T23:38:44Z</time>
      </trkpt>
      <trkpt lat="44.78079" lon="5.59344">
        <ele>1254</ele>
        <time>2017-10-18T23:38:55Z</time>
      </trkpt>
      <trkpt lat="44.78072" lon="5.59351">
        <ele>1254</ele>
        <time>2017-10-18T23:39:13Z</time>
      </trkpt>
      <trkpt lat="44.78066" lon="5.59372">
        <ele>1253</ele>
        <time>2017-10-18T23:39:28Z</time>
      </trkpt>
      <trkpt lat="44.78062" lon="5.594">
        <ele>1249</ele>
        <time>2017-10-18T23:39:47Z</time>
      </trkpt>
      <trkpt lat="44.78043" lon="5.59442">
        <ele>1245</ele>
        <time>2017-10-18T23:39:51Z</time>
      </trkpt>
      <trkpt lat="44.78027" lon="5.59474">
        <ele>1247</ele>
        <time>2017-10-18T23:40:08Z</time>
      </trkpt>
      <trkpt lat="44.78012" lon="5.59516">
        <ele>1243</ele>
        <time>2017-10-18T23:40:15Z</time>
      </trkpt>
      <trkpt lat="44.77992" lon="5.59598">
        <ele>1234</ele>
        <time>2017-10-18T23:40:28Z</time>
      </trkpt>
      <trkpt lat="44.77983" lon="5.59635">
        <ele>1229</ele>
        <time>2017-10-18T23:40:37Z</time>
      </trkpt>
      <trkpt lat="44.77975" lon="5.59648">
        <ele>1228</ele>
        <time>2017-10-18T23:40:42Z</time>
      </trkpt>
      <trkpt lat="44.77968" lon="5.5965">
        <ele>1228</ele>
        <time>2017-10-18T23:40:51Z</time>
      </trkpt>
      <trkpt lat="44.77962" lon="5.59647">
        <ele>1227</ele>
        <time>2017-10-18T23:41:04Z</time>
      </trkpt>
      <trkpt lat="44.77953" lon="5.59634">
        <ele>1228</ele>
        <time>2017-10-18T23:41:08Z</time>
      </trkpt>
      <trkpt lat="44.77946" lon="5.59603">
        <ele>1229</ele>
        <time>2017-10-18T23:41:15Z</time>
      </trkpt>
      <trkpt lat="44.7793" lon="5.59514">
        <ele>1240</ele>
        <time>2017-10-18T23:41:20Z</time>
      </trkpt>
      <trkpt lat="44.77914" lon="5.59437">
        <ele>1237</ele>
        <time>2017-10-18T23:41:27Z</time>
      </trkpt>
      <trkpt lat="44.77913" lon="5.59402">
        <ele>1242</ele>
        <time>2017-10-18T23:41:35Z</time>
      </trkpt>
      <trkpt lat="44.77916" lon="5.59373">
        <ele>1241</ele>
        <time>2017-10-18T23:41:40Z</time>
      </trkpt>
      <trkpt lat="44.77914" lon="5.59348">
        <ele>1245</ele>
        <time>2017-10-18T23:41:49Z</time>
      </trkpt>
      <trkpt lat="44.77905" lon="5.59325">
        <ele>1249</ele>
        <time>2017-10-18T23:42:08Z</time>
      </trkpt>
      <trkpt lat="44.77894" lon="5.59302">
        <ele>1246</ele>
        <time>2017-10-18T23:42:21Z</time>
      </trkpt>
      <trkpt lat="44.77895" lon="5.59277">
        <ele>1248</ele>
        <time>2017-10-18T23:42:23Z</time>
      </trkpt>
      <trkpt lat="44.779" lon="5.59248">
        <ele>1258</ele>
        <time>2017-10-18T23:42:33Z</time>
      </trkpt>
      <trkpt lat="44.77905" lon="5.59215">
        <ele>1258</ele>
        <time>2017-10-18T23:42:37Z</time>
      </trkpt>
      <trkpt lat="44.77902" lon="5.59176">
        <ele>1262</ele>
        <time>2017-10-18T23:42:50Z</time>
      </trkpt>
      <trkpt lat="44.77898" lon="5.5915">
        <ele>1270</ele>
        <time>2017-10-18T23:42:55Z</time>
      </trkpt>
      <trkpt lat="44.77886" lon="5.59132">
        <ele>1272</ele>
        <time>2017-10-18T23:43:14Z</time>
      </trkpt>
      <trkpt lat="44.77879" lon="5.59124">
        <ele>1273</ele>
        <time>2017-10-18T23:43:25Z</time>
      </trkpt>
      <trkpt lat="44.77873" lon="5.59124">
        <ele>1272</ele>
        <time>2017-10-18T23:43:31Z</time>
      </trkpt>
      <trkpt lat="44.77864" lon="5.59128">
        <ele>1271</ele>
        <time>2017-10-18T23:43:33Z</time>
      </trkpt>
      <trkpt lat="44.7786" lon="5.59136">
        <ele>1270</ele>
        <time>2017-10-18T23:43:48Z</time>
      </trkpt>
      <trkpt lat="44.77854" lon="5.59151">
        <ele>1267</ele>
        <time>2017-10-18T23:44:05Z</time>
      </trkpt>
      <trkpt lat="44.77849" lon="5.59156">
        <ele>1266</ele>
        <time>2017-10-18T23:44:16Z</time>
      </trkpt>
      <trkpt lat="44.77842" lon="5.59158">
        <ele>1264</ele>
        <time>2017-10-18T23:44:26Z</time>
      </trkpt>
      <trkpt lat="44.7783" lon="5.5916">
        <ele>1261</ele>
        <time>2017-10-18T23:44:29Z</time>
      </trkpt>
      <trkpt lat="44.77821" lon="5.59163">
        <ele>1262</ele>
        <time>2017-10-18T23:44:36Z</time>
      </trkpt>
      <trkpt lat="44.77803" lon="5.59179">
        <ele>1251</ele>
        <time>2017-10-18T23:44:56Z</time>
      </trkpt>
      <trkpt lat="44.77793" lon="5.59185">
        <ele>1250</ele>
        <time>2017-10-18T23:45:06Z</time>
      </trkpt>
      <trkpt lat="44.77789" lon="5.59184">
        <ele>1250</ele>
        <time>2017-10-18T23:45:21Z</time>
      </trkpt>
      <trkpt lat="44.77782" lon="5.59178">
        <ele>1251</ele>
        <time>2017-10-18T23:45:34Z</time>
      </trkpt>
      <trkpt lat="44.77772" lon="5.59157">
        <ele>1262</ele>
        <time>2017-10-18T23:45:51Z</time>
      </trkpt>
      <trkpt lat="44.77759" lon="5.59127">
        <ele>1267</ele>
        <time>2017-10-18T23:46:09Z</time>
      </trkpt>
      <trkpt lat="44.77747" lon="5.59107">
        <ele>1271</ele>
        <time>2017-10-18T23:46:16Z</time>
      </trkpt>
      <trkpt lat="44.7774" lon="5.59099">
        <ele>1272</ele>
        <time>2017-10-18T23:46:27Z</time>
      </trkpt>
      <trkpt lat="44.77722" lon="5.59084">
        <ele>1272</ele>
        <time>2017-10-18T23:46:34Z</time>
      </trkpt>
      <trkpt lat="44.77704" lon="5.59074">
        <ele>1284</ele>
        <time>2017-10-18T23:46:45Z</time>
      </trkpt>
      <trkpt lat="44.77687" lon="5.59062">
        <ele>1283</ele>
        <time>2017-10-18T23:46:49Z</time>
      </trkpt>
      <trkpt lat="44.77677" lon="5.59061">
        <ele>1282</ele>
        <time>2017-10-18T23:46:53Z</time>
      </trkpt>
      <trkpt lat="44.7767" lon="5.59062">
        <ele>1281</ele>
        <time>2017-10-18T23:47:09Z</time>
      </trkpt>
      <trkpt lat="44.77665" lon="5.59068">
        <ele>1282</ele>
        <time>2017-10-18T23:47:25Z</time>
      </trkpt>
      <trkpt lat="44.7766" lon="5.5908">
        <ele>1278</ele>
        <time>2017-10-18T23:47:30Z</time>
      </trkpt>
      <trkpt lat="44.77661" lon="5.59106">
        <ele>1276</ele>
        <time>2017-10-18T23:47:40Z</time>
      </trkpt>
      <trkpt lat="44.77664" lon="5.59124">
        <ele>1276</ele>
        <time>2017-10-18T23:47:45Z</time>
      </trkpt>
      <trkpt lat="44.77663" lon="5.59134">
        <ele>1275</ele>
        <time>2017-10-18T23:47:50Z</time>
      </trkpt>
      <trkpt lat="44.77659" lon="5.59143">
        <ele>1274</ele>
        <time>2017-10-18T23:47:58Z</time>
      </trkpt>
      <trkpt lat="44.7765" lon="5.59147">
        <ele>1275</ele>
        <time>2017-10-18T23:48:16Z</time>
      </trkpt>
      <trkpt lat="44.77641" lon="5.59145">
        <ele>1277</ele>
        <time>2017-10-18T23:48:36Z</time>
      </trkpt>
      <trkpt lat="44.77634" lon="5.5914">
        <ele>1279</ele>
        <time>2017-10-18T23:48:44Z</time>
      </trkpt>
      <trkpt lat="44.77626" lon="5.5913">
        <ele>1280</ele>
        <time>2017-10-18T23:48:56Z</time>
      </trkpt>
      <trkpt lat="44.7762" lon="5.59126">
        <ele>1281</ele>
        <time>2017-10-18T23:49:11Z</time>
      </trkpt>
      <trkpt lat="44.77613" lon="5.59128">
        <ele>1282</ele>
        <time>2017-10-18T23:49:30Z</time>
      </trkpt>
      <trkpt lat="44.77608" lon="5.59135">
        <ele>1283</ele>
        <time>2017-10-18T23:49:50Z</time>
      </trkpt>
      <trkpt lat="44.77605" lon="5.59151">
        <ele>1284</ele>
        <time>2017-10-18T23:49:52Z</time>
      </trkpt>
      <trkpt lat="44.77606" lon="5.59172">
        <ele>1281</ele>
        <time>2017-10-18T23:49:56Z</time>
      </trkpt>
      <trkpt lat="44.77609" lon="5.59199">
        <ele>1279</ele>
        <time>2017-10-18T23:50:16Z</time>
      </trkpt>
      <trkpt lat="44.77621" lon="5.59247">
        <ele>1276</ele>
        <time>2017-10-18T23:50:25Z</time>
      </trkpt>
      <trkpt lat="44.77627" lon="5.59273">
        <ele>1271</ele>
        <time>2017-10-18T23:50:45Z</time>
      </trkpt>
      <trkpt lat="44.77627" lon="5.59285">
        <ele>1270</ele>
        <time>2017-10-18T23:50:53Z</time>
      </trkpt>
      <trkpt lat="44.77625" lon="5.59295">
        <ele>1270</ele>
        <time>2017-10-18T23:51:04Z</time>
      </trkpt>
      <trkpt lat="44.77616" lon="5.59305">
        <ele>1272</ele>
        <time>2017-10-18T23:51:23Z</time>
      </trkpt>
      <trkpt lat="44.77598" lon="5.59316">
        <ele>1275</ele>
        <time>2017-10-18T23:51:27Z</time>
      </trkpt>
      <trkpt lat="44.77592" lon="5.59325">
        <ele>1276</ele>
        <time>2017-10-18T23:51:33Z</time>
      </trkpt>
      <trkpt lat="44.77584" lon="5.59342">
        <ele>1275</ele>
        <time>2017-10-18T23:51:52Z</time>
      </trkpt>
      <trkpt lat="44.77572" lon="5.59391">
        <ele>1269</ele>
        <time>2017-10-18T23:52:02Z</time>
      </trkpt>
      <trkpt lat="44.77565" lon="5.59399">
        <ele>1268</ele>
        <time>2017-10-18T23:52:04Z</time>
      </trkpt>
      <trkpt lat="44.7756" lon="5.594">
        <ele>1268</ele>
        <time>2017-10-18T23:52:16Z</time>
      </trkpt>
      <trkpt lat="44.77555" lon="5.59395">
        <ele>1267</ele>
        <time>2017-10-18T23:52:28Z</time>
      </trkpt>
      <trkpt lat="44.7755" lon="5.59385">
        <ele>1268</ele>
        <time>2017-10-18T23:52:38Z</time>
      </trkpt>
      <trkpt lat="44.77545" lon="5.59359">
        <ele>1269</ele>
        <time>2017-10-18T23:52:44Z</time>
      </trkpt>
      <trkpt lat="44.77539" lon="5.59327">
        <ele>1279</ele>
        <time>2017-10-18T23:53:02Z</time>
      </trkpt>
      <trkpt lat="44.7753" lon="5.5931">
        <ele>1280</ele>
        <time>2017-10-18T23:53:17Z</time>
      </trkpt>
      <trkpt lat="44.77493" lon="5.59274">
        <ele>1273</ele>
        <time>2017-10-18T23:53:22Z</time>
      </trkpt>
      <trkpt lat="44.77489" lon="5.59261">
        <ele>1277</ele>
        <time>2017-10-18T23:53:42Z</time>
      </trkpt>
      <trkpt lat="44.77488" lon="5.59248">
        <ele>1286</ele>
        <time>2017-10-18T23:53:56Z</time>
      </trkpt>
      <trkpt lat="44.77485" lon="5.59232">
        <ele>1284</ele>
        <time>2017-10-18T23:54:05Z</time>
      </trkpt>
      <trkpt lat="44.77475" lon="5.59214">
        <ele>1284</ele>
        <time>2017-10-18T23:54:24Z</time>
      </trkpt>
      <trkpt lat="44.77456" lon="5.59181">
        <ele>1283</ele>
        <time>2017-10-18T23:54:37Z</time>
      </trkpt>
      <trkpt lat="44.77447" lon="5.59153">
        <ele>1294</ele>
        <time>2017-10-18T23:54:53Z</time>
      </trkpt>
      <trkpt lat="44.77442" lon="5.59129">
        <ele>1296</ele>
        <time>2017-10-18T23:55:06Z</time>
      </trkpt>
      <trkpt lat="44.77433" lon="5.59112">
        <ele>1298</ele>
        <time>2017-10-18T23:55:20Z</time>
      </trkpt>
      <trkpt lat="44.77417" lon="5.59098">
        <ele>1298</ele>
        <time>2017-10-18T23:55:37Z</time>
      </trkpt>
      <trkpt lat="44.77397" lon="5.59086">
        <ele>1286</ele>
        <time>2017-10-18T23:55:48Z</time>
      </trkpt>
      <trkpt lat="44.77377" lon="5.59081">
        <ele>1291</ele>
        <time>2017-10-18T23:55:51Z</time>
      </trkpt>
      <trkpt lat="44.77364" lon="5.59073">
        <ele>1288</ele>
        <time>2017-10-18T23:55:58Z</time>
      </trkpt>
      <trkpt lat="44.77358" lon="5.59063">
        <ele>1288</ele>
        <time>2017-10-18T23:56:08Z</time>
      </trkpt>
      <trkpt lat="44.77352" lon="5.59042">
        <ele>1290</ele>
        <time>2017-10-18T23:56:12Z</time>
      </trkpt>
      <trkpt lat="44.77346" lon="5.59013">
        <ele>1290</ele>
        <time>2017-10-18T23:56:27Z</time>
      </trkpt>
      <trkpt lat="44.77345" lon="5.59">
        <ele>1293</ele>
        <time>2017-10-18T23:56:41Z</time>
      </trkpt>
      <trkpt lat="44.77347" lon="5.58989">
        <ele>1295</ele>
        <time>2017-10-18T23:56:55Z</time>
      </trkpt>
      <trkpt lat="44.77357" lon="5.58965">
        <ele>1301</ele>
        <time>2017-10-18T23:57:07Z</time>
      </trkpt>
      <trkpt lat="44.77358" lon="5.58952">
        <ele>1302</ele>
        <time>2017-10-18T23:57:09Z</time>
      </trkpt>
      <trkpt lat="44.77353" lon="5.58926">
        <ele>1299</ele>
        <time>2017-10-18T23:57:25Z</time>
      </trkpt>
      <trkpt lat="44.77353" lon="5.5889">
        <ele>1308</ele>
        <time>2017-10-18T23:57:34Z</time>
      </trkpt>
      <trkpt lat="44.77348" lon="5.58861">
        <ele>1310</ele>
        <time>2017-10-18T23:57:46Z</time>
      </trkpt>
      <trkpt lat="44.77343" lon="5.58833">
        <ele>1311</ele>
        <time>2017-10-18T23:57:51Z</time>
      </trkpt>
      <trkpt lat="44.77327" lon="5.58783">
        <ele>1317</ele>
        <time>2017-10-18T23:58:10Z</time>
      </trkpt>
      <trkpt lat="44.7732" lon="5.58777">
        <ele>1318</ele>
        <time>2017-10-18T23:58:20Z</time>
      </trkpt>
      <trkpt lat="44.77308" lon="5.58777">
        <ele>1320</ele>
        <time>2017-10-18T23:58:30Z</time>
      </trkpt>
      <trkpt lat="44.77301" lon="5.5878">
        <ele>1321</ele>
        <time>2017-10-18T23:58:50Z</time>
      </trkpt>
      <trkpt lat="44.77298" lon="5.58785">
        <ele>1321</ele>
        <time>2017-10-18T23:58:55Z</time>
      </trkpt>
      <trkpt lat="44.77295" lon="5.58793">
        <ele>1321</ele>
        <time>2017-10-18T23:59:05Z</time>
      </trkpt>
      <trkpt lat="44.77299" lon="5.58816">
        <ele>1318</ele>
        <time>2017-10-18T23:59:11Z</time>
      </trkpt>
      <trkpt lat="44.77299" lon="5.58831">
        <ele>1317</ele>
        <time>2017-10-18T23:59:27Z</time>
      </trkpt>
      <trkpt lat="44.77287" lon="5.58866">
        <ele>1308</ele>
        <time>2017-10-18T23:59:46Z</time>
      </trkpt>
      <trkpt lat="44.77284" lon="5.58898">
        <ele>1306</ele>
        <time>2017-10-19T00:00:06Z</time>
      </trkpt>
      <trkpt lat="44.77283" lon="5.58914">
        <ele>1305</ele>
        <time>2017-10-19T00:00:19Z</time>
      </trkpt>
      <trkpt lat="44.7728" lon="5.58925">
        <ele>1299</ele>
        <time>2017-10-19T00:00:34Z</time>
      </trkpt>
      <trkpt lat="44.77275" lon="5.58937">
        <ele>1299</ele>
        <time>2017-10-19T00:00:53Z</time>
      </trkpt>
      <trkpt lat="44.7727" lon="5.58942">
        <ele>1299</ele>
        <time>2017-10-19T00:01:04Z</time>
      </trkpt>
      <trkpt lat="44.77265" lon="5.58943">
        <ele>1299</ele>
        <time>2017-10-19T00:01:09Z</time>
      </trkpt>
      <trkpt lat="44.77254" lon="5.58932">
        <ele>1303</ele>
        <time>2017-10-19T00:01:28Z</time>
      </trkpt>
      <trkpt lat="44.77243" lon="5.58924">
        <ele>1315</ele>
        <time>2017-10-19T00:01:36Z</time>
      </trkpt>
      <trkpt lat="44.77236" lon="5.58927">
        <ele>1318</ele>
        <time>2017-10-19T00:01:46Z</time>
      </trkpt>
      <trkpt lat="44.77231" lon="5.58934">
        <ele>1320</ele>
        <time>2017-10-19T00:01:51Z</time>
      </trkpt>
      <trkpt lat="44.77229" lon="5.58942">
        <ele>1321</ele>
        <time>2017-10-19T00:02:08Z</time>
      </trkpt>
      <trkpt lat="44.77223" lon="5.58959">
        <ele>1322</ele>
        <time>2017-10-19T00:02:14Z</time>
      </trkpt>
      <trkpt lat="44.77213" lon="5.58976">
        <ele>1323</ele>
        <time>2017-10-19T00:02:24Z</time>
      </trkpt>
      <trkpt lat="44.77209" lon="5.58987">
        <ele>1323</ele>
        <time>2017-10-19T00:02:44Z</time>
      </trkpt>
      <trkpt lat="44.77208" lon="5.59">
        <ele>1323</ele>
        <time>2017-10-19T00:02:54Z</time>
      </trkpt>
      <trkpt lat="44.77207" lon="5.59048">
        <ele>1308</ele>
        <time>2017-10-19T00:03:09Z</time>
      </trkpt>
      <trkpt lat="44.77203" lon="5.59079">
        <ele>1307</ele>
        <time>2017-10-19T00:03:28Z</time>
      </trkpt>
      <trkpt lat="44.77195" lon="5.59105">
        <ele>1298</ele>
        <time>2017-10-19T00:03:30Z</time>
      </trkpt>
      <trkpt lat="44.77191" lon="5.59113">
        <ele>1297</ele>
        <time>2017-10-19T00:03:40Z</time>
      </trkpt>
      <trkpt lat="44.77186" lon="5.59117">
        <ele>1297</ele>
        <time>2017-10-19T00:03:44Z</time>
      </trkpt>
      <trkpt lat="44.7718" lon="5.59116">
        <ele>1298</ele>
        <time>2017-10-19T00:04:04Z</time>
      </trkpt>
      <trkpt lat="44.77171" lon="5.59105">
        <ele>1302</ele>
        <time>2017-10-19T00:04:13Z</time>
      </trkpt>
      <trkpt lat="44.77161" lon="5.59083">
        <ele>1316</ele>
        <time>2017-10-19T00:04:19Z</time>
      </trkpt>
      <trkpt lat="44.77152" lon="5.59067">
        <ele>1320</ele>
        <time>2017-10-19T00:04:22Z</time>
      </trkpt>
      <trkpt lat="44.77133" lon="5.59046">
        <ele>1323</ele>
        <time>2017-10-19T00:04:33Z</time>
      </trkpt>
      <trkpt lat="44.77124" lon="5.59031">
        <ele>1325</ele>
        <time>2017-10-19T00:04:53Z</time>
      </trkpt>
      <trkpt lat="44.77118" lon="5.59022">
        <ele>1326</ele>
        <time>2017-10-19T00:05:12Z</time>
      </trkpt>
      <trkpt lat="44.77111" lon="5.59018">
        <ele>1326</ele>
        <time>2017-10-19T00:05:22Z</time>
      </trkpt>
      <trkpt lat="44.77103" lon="5.59018">
        <ele>1326</ele>
        <time>2017-10-19T00:05:30Z</time>
      </trkpt>
      <trkpt lat="44.77094" lon="5.59015">
        <ele>1327</ele>
        <time>2017-10-19T00:05:42Z</time>
      </trkpt>
      <trkpt lat="44.77087" lon="5.5901">
        <ele>1329</ele>
        <time>2017-10-19T00:05:57Z</time>
      </trkpt>
      <trkpt lat="44.77077" lon="5.58995">
        <ele>1336</ele>
        <time>2017-10-19T00:06:13Z</time>
      </trkpt>
      <trkpt lat="44.77069" lon="5.5898">
        <ele>1341</ele>
        <time>2017-10-19T00:06:27Z</time>
      </trkpt>
      <trkpt lat="44.77064" lon="5.58973">
        <ele>1342</ele>
        <time>2017-10-19T00:06:32Z</time>
      </trkpt>
      <trkpt lat="44.77055" lon="5.5897">
        <ele>1344</ele>
        <time>2017-10-19T00:06:47Z</time>
      </trkpt>
      <trkpt lat="44.77049" lon="5.58972">
        <ele>1344</ele>
        <time>2017-10-19T00:06:59Z</time>
      </trkpt>
      <trkpt lat="44.77044" lon="5.58978">
        <ele>1343</ele>
        <time>2017-10-19T00:07:18Z</time>
      </trkpt>
      <trkpt lat="44.77036" lon="5.58998">
        <ele>1342</ele>
        <time>2017-10-19T00:07:32Z</time>
      </trkpt>
      <trkpt lat="44.7703" lon="5.59007">
        <ele>1328</ele>
        <time>2017-10-19T00:07:34Z</time>
      </trkpt>
      <trkpt lat="44.77024" lon="5.59011">
        <ele>1328</ele>
        <time>2017-10-19T00:07:43Z</time>
      </trkpt>
      <trkpt lat="44.77008" lon="5.59009">
        <ele>1332</ele>
        <time>2017-10-19T00:07:55Z</time>
      </trkpt>
      <trkpt lat="44.76999" lon="5.5901">
        <ele>1337</ele>
        <time>2017-10-19T00:07:57Z</time>
      </trkpt>
      <trkpt lat="44.7699" lon="5.59014">
        <ele>1336</ele>
        <time>2017-10-19T00:08:04Z</time>
      </trkpt>
      <trkpt lat="44.76975" lon="5.5903">
        <ele>1336</ele>
        <time>2017-10-19T00:08:19Z</time>
      </trkpt>
      <trkpt lat="44.76965" lon="5.59041">
        <ele>1336</ele>
        <time>2017-10-19T00:08:27Z</time>
      </trkpt>
      <trkpt lat="44.76952" lon="5.59043">
        <ele>1337</ele>
        <time>2017-10-19T00:08:39Z</time>
      </trkpt>
      <trkpt lat="44.76942" lon="5.59045">
        <ele>1338</ele>
        <time>2017-10-19T00:08:44Z</time>
      </trkpt>
      <trkpt lat="44.76935" lon="5.59052">
        <ele>1337</ele>
        <time>2017-10-19T00:09:00Z</time>
      </trkpt>
      <trkpt lat="44.76928" lon="5.59066">
        <ele>1336</ele>
        <time>2017-10-19T00:09:15Z</time>
      </trkpt>
      <trkpt lat="44.76922" lon="5.59072">
        <ele>1335</ele>
        <time>2017-10-19T00:09:17Z</time>
      </trkpt>
      <trkpt lat="44.76914" lon="5.59075">
        <ele>1341</ele>
        <time>2017-10-19T00:09:27Z</time>
      </trkpt>
      <trkpt lat="44.76899" lon="5.59068">
        <ele>1349</ele>
        <time>2017-10-19T00:09:45Z</time>
      </trkpt>
      <trkpt lat="44.76883" lon="5.59057">
        <ele>1355</ele>
        <time>2017-10-19T00:09:51Z</time>
      </trkpt>
      <trkpt lat="44.76875" lon="5.59054">
        <ele>1356</ele>
        <time>2017-10-19T00:10:01Z</time>
      </trkpt>
      <trkpt lat="44.76866" lon="5.59057">
        <ele>1357</ele>
        <time>2017-10-19T00:10:18Z</time>
      </trkpt>
      <trkpt lat="44.76861" lon="5.59067">
        <ele>1357</ele>
        <time>2017-10-19T00:10:26Z</time>
      </trkpt>
      <trkpt lat="44.76859" lon="5.59082">
        <ele>1356</ele>
        <time>2017-10-19T00:10:42Z</time>
      </trkpt>
      <trkpt lat="44.76859" lon="5.59103">
        <ele>1341</ele>
        <time>2017-10-19T00:11:01Z</time>
      </trkpt>
      <trkpt lat="44.76854" lon="5.59112">
        <ele>1340</ele>
        <time>2017-10-19T00:11:05Z</time>
      </trkpt>
      <trkpt lat="44.76848" lon="5.5912">
        <ele>1339</ele>
        <time>2017-10-19T00:11:18Z</time>
      </trkpt>
      <trkpt lat="44.7684" lon="5.59127">
        <ele>1338</ele>
        <time>2017-10-19T00:11:32Z</time>
      </trkpt>
      <trkpt lat="44.76816" lon="5.59158">
        <ele>1351</ele>
        <time>2017-10-19T00:11:52Z</time>
      </trkpt>
      <trkpt lat="44.76788" lon="5.59213">
        <ele>1338</ele>
        <time>2017-10-19T00:11:58Z</time>
      </trkpt>
      <trkpt lat="44.76774" lon="5.59232">
        <ele>1337</ele>
        <time>2017-10-19T00:12:13Z</time>
      </trkpt>
      <trkpt lat="44.76766" lon="5.59238">
        <ele>1337</ele>
        <time>2017-10-19T00:12:30Z</time>
      </trkpt>
      <trkpt lat="44.76742" lon="5.59238">
        <ele>1339</ele>
        <time>2017-10-19T00:12:39Z</time>
      </trkpt>
      <trkpt lat="44.76727" lon="5.59233">
        <ele>1339</ele>
        <time>2017-10-19T00:12:44Z</time>
      </trkpt>
      <trkpt lat="44.76717" lon="5.59224">
        <ele>1340</ele>
        <time>2017-10-19T00:12:56Z</time>
      </trkpt>
      <trkpt lat="44.76706" lon="5.59211">
        <ele>1340</ele>
        <time>2017-10-19T00:13:04Z</time>
      </trkpt>
      <trkpt lat="44.76686" lon="5.59187">
        <ele>1342</ele>
        <time>2017-10-19T00:13:20Z</time>
      </trkpt>
      <trkpt lat="44.76673" lon="5.59167">
        <ele>1344</ele>
        <time>2017-10-19T00:13:34Z</time>
      </trkpt>
      <trkpt lat="44.76658" lon="5.59137">
        <ele>1354</ele>
        <time>2017-10-19T00:13:40Z</time>
      </trkpt>
      <trkpt lat="44.76638" lon="5.59096">
        <ele>1361</ele>
        <time>2017-10-19T00:13:46Z</time>
      </trkpt>
      <trkpt lat="44.76625" lon="5.59062">
        <ele>1380</ele>
        <time>2017-10-19T00:13:55Z</time>
      </trkpt>
      <trkpt lat="44.76613" lon="5.59044">
        <ele>1381</ele>
        <time>2017-10-19T00:14:06Z</time>
      </trkpt>
      <trkpt lat="44.76607" lon="5.59042">
        <ele>1380</ele>
        <time>2017-10-19T00:14:12Z</time>
      </trkpt>
      <trkpt lat="44.76598" lon="5.59042">
        <ele>1379</ele>
        <time>2017-10-19T00:14:15Z</time>
      </trkpt>
      <trkpt lat="44.76592" lon="5.59046">
        <ele>1378</ele>
        <time>2017-10-19T00:14:28Z</time>
      </trkpt>
      <trkpt lat="44.76575" lon="5.59065">
        <ele>1373</ele>
        <time>2017-10-19T00:14:32Z</time>
      </trkpt>
      <trkpt lat="44.76565" lon="5.59092">
        <ele>1365</ele>
        <time>2017-10-19T00:14:38Z</time>
      </trkpt>
      <trkpt lat="44.76559" lon="5.59121">
        <ele>1366</ele>
        <time>2017-10-19T00:14:48Z</time>
      </trkpt>
      <trkpt lat="44.76553" lon="5.59137">
        <ele>1366</ele>
        <time>2017-10-19T00:15:04Z</time>
      </trkpt>
      <trkpt lat="44.76552" lon="5.59153">
        <ele>1364</ele>
        <time>2017-10-19T00:15:24Z</time>
      </trkpt>
      <trkpt lat="44.76557" lon="5.59171">
        <ele>1357</ele>
        <time>2017-10-19T00:15:35Z</time>
      </trkpt>
      <trkpt lat="44.76556" lon="5.5919">
        <ele>1359</ele>
        <time>2017-10-19T00:15:47Z</time>
      </trkpt>
      <trkpt lat="44.76545" lon="5.59224">
        <ele>1362</ele>
        <time>2017-10-19T00:16:00Z</time>
      </trkpt>
      <trkpt lat="44.76537" lon="5.59259">
        <ele>1364</ele>
        <time>2017-10-19T00:16:19Z</time>
      </trkpt>
      <trkpt lat="44.76525" lon="5.59331">
        <ele>1370</ele>
        <time>2017-10-19T00:16:38Z</time>
      </trkpt>
      <trkpt lat="44.76506" lon="5.594">
        <ele>1360</ele>
        <time>2017-10-19T00:16:43Z</time>
      </trkpt>
      <trkpt lat="44.76497" lon="5.59436">
        <ele>1373</ele>
        <time>2017-10-19T00:16:54Z</time>
      </trkpt>
      <trkpt lat="44.76489" lon="5.5945">
        <ele>1374</ele>
        <time>2017-10-19T00:17:13Z</time>
      </trkpt>
      <trkpt lat="44.76483" lon="5.59457">
        <ele>1374</ele>
        <time>2017-10-19T00:17:19Z</time>
      </trkpt>
      <trkpt lat="44.76466" lon="5.59461">
        <ele>1377</ele>
        <time>2017-10-19T00:17:32Z</time>
      </trkpt>
      <trkpt lat="44.76438" lon="5.5947">
        <ele>1384</ele>
        <time>2017-10-19T00:17:36Z</time>
      </trkpt>
      <trkpt lat="44.76418" lon="5.59483">
        <ele>1387</ele>
        <time>2017-10-19T00:17:41Z</time>
      </trkpt>
      <trkpt lat="44.764" lon="5.595">
        <ele>1411</ele>
        <time>2017-10-19T00:18:00Z</time>
      </trkpt>
      <trkpt lat="44.76394" lon="5.59512">
        <ele>1403</ele>
        <time>2017-10-19T00:18:14Z</time>
      </trkpt>
      <trkpt lat="44.7639" lon="5.59525">
        <ele>1405</ele>
        <time>2017-10-19T00:18:16Z</time>
      </trkpt>
      <trkpt lat="44.76386" lon="5.59551">
        <ele>1403</ele>
        <time>2017-10-19T00:18:27Z</time>
      </trkpt>
      <trkpt lat="44.76387" lon="5.59569">
        <ele>1399</ele>
        <time>2017-10-19T00:18:41Z</time>
      </trkpt>
      <trkpt lat="44.76395" lon="5.59591">
        <ele>1383</ele>
        <time>2017-10-19T00:18:59Z</time>
      </trkpt>
      <trkpt lat="44.76401" lon="5.59604">
        <ele>1382</ele>
        <time>2017-10-19T00:19:06Z</time>
      </trkpt>
      <trkpt lat="44.76403" lon="5.59615">
        <ele>1382</ele>
        <time>2017-10-19T00:19:13Z</time>
      </trkpt>
      <trkpt lat="44.76401" lon="5.59626">
        <ele>1382</ele>
        <time>2017-10-19T00:19:30Z</time>
      </trkpt>
      <trkpt lat="44.76371" lon="5.59683">
        <ele>1378</ele>
        <time>2017-10-19T00:19:39Z</time>
      </trkpt>
      <trkpt lat="44.7632" lon="5.59776">
        <ele>1393</ele>
        <time>2017-10-19T00:19:48Z</time>
      </trkpt>
      <trkpt lat="44.76275" lon="5.59864">
        <ele>1380</ele>
        <time>2017-10-19T00:20:04Z</time>
      </trkpt>
      <trkpt lat="44.76268" lon="5.59873">
        <ele>1381</ele>
        <time>2017-10-19T00:20:18Z</time>
      </trkpt>
      <trkpt lat="44.76259" lon="5.59879">
        <ele>1381</ele>
        <time>2017-10-19T00:20:26Z</time>
      </trkpt>
      <trkpt lat="44.7625" lon="5.59883">
        <ele>1382</ele>
        <time>2017-10-19T00:20:32Z</time>
      </trkpt>
      <trkpt lat="44.76242" lon="5.5989">
        <ele>1410</ele>
        <time>2017-10-19T00:20:40Z</time>
      </trkpt>
      <trkpt lat="44.76237" lon="5.59908">
        <ele>1404</ele>
        <time>2017-10-19T00:20:51Z</time>
      </trkpt>
      <trkpt lat="44.76238" lon="5.5993">
        <ele>1396</ele>
        <time>2017-10-19T00:21:07Z</time>
      </trkpt>
      <trkpt lat="44.76243" lon="5.59957">
        <ele>1395</ele>
        <time>2017-10-19T00:21:21Z</time>
      </trkpt>
      <trkpt lat="44.76243" lon="5.59972">
        <ele>1392</ele>
        <time>2017-10-19T00:21:36Z</time>
      </trkpt>
      <trkpt lat="44.7624" lon="5.59984">
        <ele>1388</ele>
        <time>2017-10-19T00:21:46Z</time>
      </trkpt>
      <trkpt lat="44.76236" lon="5.59991">
        <ele>1387</ele>
        <time>2017-10-19T00:21:57Z</time>
      </trkpt>
      <trkpt lat="44.76225" lon="5.60001">
        <ele>1381</ele>
        <time>2017-10-19T00:22:09Z</time>
      </trkpt>
      <trkpt lat="44.76211" lon="5.6001">
        <ele>1385</ele>
        <time>2017-10-19T00:22:29Z</time>
      </trkpt>
      <trkpt lat="44.76201" lon="5.60019">
        <ele>1388</ele>
        <time>2017-10-19T00:22:39Z</time>
      </trkpt>
      <trkpt lat="44.76193" lon="5.60032">
        <ele>1388</ele>
        <time>2017-10-19T00:22:43Z</time>
      </trkpt>
      <trkpt lat="44.76187" lon="5.60048">
        <ele>1387</ele>
        <time>2017-10-19T00:22:57Z</time>
      </trkpt>
      <trkpt lat="44.76178" lon="5.60071">
        <ele>1389</ele>
        <time>2017-10-19T00:23:12Z</time>
      </trkpt>
      <trkpt lat="44.76151" lon="5.60097">
        <ele>1404</ele>
        <time>2017-10-19T00:23:29Z</time>
      </trkpt>
      <trkpt lat="44.76144" lon="5.60109">
        <ele>1407</ele>
        <time>2017-10-19T00:23:33Z</time>
      </trkpt>
      <trkpt lat="44.7614" lon="5.60127">
        <ele>1407</ele>
        <time>2017-10-19T00:23:35Z</time>
      </trkpt>
      <trkpt lat="44.76131" lon="5.60145">
        <ele>1408</ele>
        <time>2017-10-19T00:23:49Z</time>
      </trkpt>
      <trkpt lat="44.7613" lon="5.60156">
        <ele>1408</ele>
        <time>2017-10-19T00:24:05Z</time>
      </trkpt>
      <trkpt lat="44.76135" lon="5.6017">
        <ele>1402</ele>
        <time>2017-10-19T00:24:18Z</time>
      </trkpt>
      <trkpt lat="44.76149" lon="5.60195">
        <ele>1399</ele>
        <time>2017-10-19T00:24:31Z</time>
      </trkpt>
      <trkpt lat="44.76153" lon="5.60213">
        <ele>1398</ele>
        <time>2017-10-19T00:24:33Z</time>
      </trkpt>
      <trkpt lat="44.76152" lon="5.60233">
        <ele>1395</ele>
        <time>2017-10-19T00:24:42Z</time>
      </trkpt>
      <trkpt lat="44.76145" lon="5.60252">
        <ele>1393</ele>
        <time>2017-10-19T00:24:56Z</time>
      </trkpt>
      <trkpt lat="44.76136" lon="5.60264">
        <ele>1397</ele>
        <time>2017-10-19T00:25:00Z</time>
      </trkpt>
      <trkpt lat="44.7613" lon="5.60289">
        <ele>1399</ele>
        <time>2017-10-19T00:25:05Z</time>
      </trkpt>
      <trkpt lat="44.76128" lon="5.60323">
        <ele>1397</ele>
        <time>2017-10-19T00:25:12Z</time>
      </trkpt>
      <trkpt lat="44.76123" lon="5.60367">
        <ele>1390</ele>
        <time>2017-10-19T00:25:20Z</time>
      </trkpt>
      <trkpt lat="44.76118" lon="5.60413">
        <ele>1390</ele>
        <time>2017-10-19T00:25:22Z</time>
      </trkpt>
      <trkpt lat="44.76098" lon="5.60457">
        <ele>1381</ele>
        <time>2017-10-19T00:25:27Z</time>
      </trkpt>
      <trkpt lat="44.76089" lon="5.60468">
        <ele>1381</ele>
        <time>2017-10-19T00:25:39Z</time>
      </trkpt>
      <trkpt lat="44.76079" lon="5.60471">
        <ele>1394</ele>
        <time>2017-10-19T00:25:50Z</time>
      </trkpt>
      <trkpt lat="44.76072" lon="5.60472">
        <ele>1394</ele>
        <time>2017-10-19T00:25:56Z</time>
      </trkpt>
      <trkpt lat="44.76062" lon="5.60462">
        <ele>1396</ele>
        <time>2017-10-19T00:25:58Z</time>
      </trkpt>
      <trkpt lat="44.76059" lon="5.60445">
        <ele>1399</ele>
        <time>2017-10-19T00:26:03Z</time>
      </trkpt>
      <trkpt lat="44.7606" lon="5.60426">
        <ele>1401</ele>
        <time>2017-10-19T00:26:21Z</time>
      </trkpt>
      <trkpt lat="44.76059" lon="5.60412">
        <ele>1413</ele>
        <time>2017-10-19T00:26:40Z</time>
      </trkpt>
      <trkpt lat="44.76053" lon="5.604">
        <ele>1416</ele>
        <time>2017-10-19T00:26:45Z</time>
      </trkpt>
      <trkpt lat="44.76045" lon="5.60395">
        <ele>1417</ele>
        <time>2017-10-19T00:26:47Z</time>
      </trkpt>
      <trkpt lat="44.76041" lon="5.60393">
        <ele>1418</ele>
        <time>2017-10-19T00:26:50Z</time>
      </trkpt>
      <trkpt lat="44.76035" lon="5.60394">
        <ele>1418</ele>
        <time>2017-10-19T00:26:56Z</time>
      </trkpt>
      <trkpt lat="44.76019" lon="5.60401">
        <ele>1418</ele>
        <time>2017-10-19T00:26:58Z</time>
      </trkpt>
      <trkpt lat="44.75999" lon="5.60414">
        <ele>1416</ele>
        <time>2017-10-19T00:27:10Z</time>
      </trkpt>
      <trkpt lat="44.7594" lon="5.60448">
        <ele>1416</ele>
        <time>2017-10-19T00:27:23Z</time>
      </trkpt>
      <trkpt lat="44.75912" lon="5.60479">
        <ele>1425</ele>
        <time>2017-10-19T00:27:34Z</time>
      </trkpt>
      <trkpt lat="44.75907" lon="5.60483">
        <ele>1424</ele>
        <time>2017-10-19T00:27:46Z</time>
      </trkpt>
      <trkpt lat="44.75902" lon="5.60483">
        <ele>1425</ele>
        <time>2017-10-19T00:28:03Z</time>
      </trkpt>
      <trkpt lat="44.75895" lon="5.60481">
        <ele>1427</ele>
        <time>2017-10-19T00:28:10Z</time>
      </trkpt>
      <trkpt lat="44.75846" lon="5.60414">
        <ele>1450</ele>
        <time>2017-10-19T00:28:20Z</time>
      </trkpt>
      <trkpt lat="44.75763" lon="5.603">
        <ele>1447</ele>
        <time>2017-10-19T00:28:33Z</time>
      </trkpt>
      <trkpt lat="44.75718" lon="5.60234">
        <ele>1412</ele>
        <time>2017-10-19T00:28:44Z</time>
      </trkpt>
      <trkpt lat="44.75709" lon="5.60208">
        <ele>1409</ele>
        <time>2017-10-19T00:29:00Z</time>
      </trkpt>
      <trkpt lat="44.75688" lon="5.60039">
        <ele>1403</ele>
        <time>2017-10-19T00:29:16Z</time>
      </trkpt>
      <trkpt lat="44.75681" lon="5.6001">
        <ele>1398</ele>
        <time>2017-10-19T00:29:18Z</time>
      </trkpt>
      <trkpt lat="44.75672" lon="5.59997">
        <ele>1394</ele>
        <time>2017-10-19T00:29:26Z</time>
      </trkpt>
      <trkpt lat="44.75647" lon="5.59971">
        <ele>1378</ele>
        <time>2017-10-19T00:29:43Z</time>
      </trkpt>
      <trkpt lat="44.75642" lon="5.59961">
        <ele>1377</ele>
        <time>2017-10-19T00:29:59Z</time>
      </trkpt>
      <trkpt lat="44.75635" lon="5.59927">
        <ele>1380</ele>
        <time>2017-10-19T00:30:09Z</time>
      </trkpt>
      <trkpt lat="44.75614" lon="5.59869">
        <ele>1385</ele>
        <time>2017-10-19T00:30:15Z</time>
      </trkpt>
      <trkpt lat="44.75601" lon="5.59846">
        <ele>1382</ele>
        <time>2017-10-19T00:30:34Z</time>
      </trkpt>
      <trkpt lat="44.75577" lon="5.59814">
        <ele>1366</ele>
        <time>2017-10-19T00:30:43Z</time>
      </trkpt>
      <trkpt lat="44.75572" lon="5.59803">
        <ele>1364</ele>
        <time>2017-10-19T00:30:51Z</time>
      </trkpt>
      <trkpt lat="44.75569" lon="5.59781">
        <ele>1365</ele>
        <time>2017-10-19T00:31:11Z</time>
      </trkpt>
      <trkpt lat="44.7559" lon="5.59682">
        <ele>1384</ele>
        <time>2017-10-19T00:31:28Z</time>
      </trkpt>
      <trkpt lat="44.75593" lon="5.5964">
        <ele>1383</ele>
        <time>2017-10-19T00:31:44Z</time>
      </trkpt>
      <trkpt lat="44.75588" lon="5.59601">
        <ele>1379</ele>
        <time>2017-10-19T00:31:52Z</time>
      </trkpt>
      <trkpt lat="44.75556" lon="5.59513">
        <ele>1364</ele>
        <time>2017-10-19T00:32:05Z</time>
      </trkpt>
      <trkpt lat="44.75542" lon="5.59487">
        <ele>1363</ele>
        <time>2017-10-19T00:32:14Z</time>
      </trkpt>
      <trkpt lat="44.75493" lon="5.59436">
        <ele>1348</ele>
        <time>2017-10-19T00:32:24Z</time>
      </trkpt>
      <trkpt lat="44.7548" lon="5.59401">
        <ele>1345</ele>
        <time>2017-10-19T00:32:37Z</time>
      </trkpt>
      <trkpt lat="44.75473" lon="5.59357">
        <ele>1341</ele>
        <time>2017-10-19T00:32:47Z</time>
      </trkpt>
      <trkpt lat="44.75478" lon="5.59328">
        <ele>1340</ele>
        <time>2017-10-19T00:32:49Z</time>
      </trkpt>
      <trkpt lat="44.75498" lon="5.59297">
        <ele>1339</ele>
        <time>2017-10-19T00:32:59Z</time>
      </trkpt>
      <trkpt lat="44.75503" lon="5.59284">
        <ele>1356</ele>
        <time>2017-10-19T00:33:14Z</time>
      </trkpt>
      <trkpt lat="44.75505" lon="5.59267">
        <ele>1353</ele>
        <time>2017-10-19T00:33:24Z</time>
      </trkpt>
      <trkpt lat="44.755" lon="5.59232">
        <ele>1355</ele>
        <time>2017-10-19T00:33:27Z</time>
      </trkpt>
      <trkpt lat="44.75495" lon="5.59217">
        <ele>1338</ele>
        <time>2017-10-19T00:33:30Z</time>
      </trkpt>
      <trkpt lat="44.75484" lon="5.59197">
        <ele>1339</ele>
        <time>2017-10-19T00:33:40Z</time>
      </trkpt>
      <trkpt lat="44.75464" lon="5.59167">
        <ele>1336</ele>
        <time>2017-10-19T00:33:48Z</time>
      </trkpt>
      <trkpt lat="44.7546" lon="5.59155">
        <ele>1338</ele>
        <time>2017-10-19T00:33:51Z</time>
      </trkpt>
      <trkpt lat="44.75457" lon="5.59123">
        <ele>1337</ele>
        <time>2017-10-19T00:34:09Z</time>
      </trkpt>
      <trkpt lat="44.75458" lon="5.59098">
        <ele>1338</ele>
        <time>2017-10-19T00:34:20Z</time>
      </trkpt>
      <trkpt lat="44.75456" lon="5.59018">
        <ele>1342</ele>
        <time>2017-10-19T00:34:26Z</time>
      </trkpt>
      <trkpt lat="44.75456" lon="5.58988">
        <ele>1345</ele>
        <time>2017-10-19T00:34:37Z</time>
      </trkpt>
      <trkpt lat="44.75458" lon="5.5897">
        <ele>1346</ele>
        <time>2017-10-19T00:34:47Z</time>
      </trkpt>
      <trkpt lat="44.75472" lon="5.58918">
        <ele>1350</ele>
        <time>2017-10-19T00:35:04Z</time>
      </trkpt>
      <trkpt lat="44.75478" lon="5.58882">
        <ele>1357</ele>
        <time>2017-10-19T00:35:18Z</time>
      </trkpt>
      <trkpt lat="44.75474" lon="5.58866">
        <ele>1358</ele>
        <time>2017-10-19T00:35:33Z</time>
      </trkpt>
      <trkpt lat="44.75469" lon="5.5886">
        <ele>1358</ele>
        <time>2017-10-19T00:35:41Z</time>
      </trkpt>
      <trkpt lat="44.75461" lon="5.58856">
        <ele>1359</ele>
        <time>2017-10-19T00:35:57Z</time>
      </trkpt>
      <trkpt lat="44.75446" lon="5.58859">
        <ele>1358</ele>
        <time>2017-10-19T00:36:12Z</time>
      </trkpt>
      <trkpt lat="44.75425" lon="5.58878">
        <ele>1354</ele>
        <time>2017-10-19T00:36:30Z</time>
      </trkpt>
      <trkpt lat="44.75391" lon="5.58901">
        <ele>1348</ele>
        <time>2017-10-19T00:36:38Z</time>
      </trkpt>
      <trkpt lat="44.75373" lon="5.58915">
        <ele>1348</ele>
        <time>2017-10-19T00:36:54Z</time>
      </trkpt>
      <trkpt lat="44.75321" lon="5.58973">
        <ele>1319</ele>
        <time>2017-10-19T00:37:02Z</time>
      </trkpt>
      <trkpt lat="44.75309" lon="5.58986">
        <ele>1317</ele>
        <time>2017-10-19T00:37:09Z</time>
      </trkpt>
      <trkpt lat="44.75301" lon="5.5899">
        <ele>1316</ele>
        <time>2017-10-19T00:37:16Z</time>
      </trkpt>
      <trkpt lat="44.75284" lon="5.58991">
        <ele>1315</ele>
        <time>2017-10-19T00:37:20Z</time>
      </trkpt>
      <trkpt lat="44.75273" lon="5.58985">
        <ele>1314</ele>
        <time>2017-10-19T00:37:34Z</time>
      </trkpt>
      <trkpt lat="44.75266" lon="5.58974">
        <ele>1315</ele>
        <time>2017-10-19T00:37:36Z</time>
      </trkpt>
      <trkpt lat="44.75206" lon="5.5885">
        <ele>1319</ele>
        <time>2017-10-19T00:37:53Z</time>
      </trkpt>
      <trkpt lat="44.75157" lon="5.5877">
        <ele>1314</ele>
        <time>2017-10-19T00:38:03Z</time>
      </trkpt>
      <trkpt lat="44.75136" lon="5.58741">
        <ele>1324</ele>
        <time>2017-10-19T00:38:19Z</time>
      </trkpt>
      <trkpt lat="44.75072" lon="5.58681">
        <ele>1301</ele>
        <time>2017-10-19T00:38:39Z</time>
      </trkpt>
      <trkpt lat="44.75064" lon="5.58667">
        <ele>1301</ele>
        <time>2017-10-19T00:38:58Z</time>
      </trkpt>
      <trkpt lat="44.75051" lon="5.58625">
        <ele>1307</ele>
        <time>2017-10-19T00:39:17Z</time>
      </trkpt>
      <trkpt lat="44.75047" lon="5.58616">
        <ele>1307</ele>
        <time>2017-10-19T00:39:34Z</time>
      </trkpt>
      <trkpt lat="44.75039" lon="5.5861">
        <ele>1305</ele>
        <time>2017-10-19T00:39:54Z</time>
      </trkpt>
      <trkpt lat="44.75034" lon="5.58619">
        <ele>1303</ele>
        <time>2017-10-19T00:40:11Z</time>
      </trkpt>
      <trkpt lat="44.75034" lon="5.58627">
        <ele>1302</ele>
        <time>2017-10-19T00:40:15Z</time>
      </trkpt>
      <trkpt lat="44.75038" lon="5.58638">
        <ele>1302</ele>
        <time>2017-10-19T00:40:26Z</time>
      </trkpt>
      <trkpt lat="44.75053" lon="5.58668">
        <ele>1295</ele>
        <time>2017-10-19T00:40:32Z</time>
      </trkpt>
      <trkpt lat="44.75068" lon="5.58704">
        <ele>1293</ele>
        <time>2017-10-19T00:40:47Z</time>
      </trkpt>
      <trkpt lat="44.75083" lon="5.5873">
        <ele>1291</ele>
        <time>2017-10-19T00:41:01Z</time>
      </trkpt>
      <trkpt lat="44.75112" lon="5.58769">
        <ele>1301</ele>
        <time>2017-10-19T00:41:08Z</time>
      </trkpt>
      <trkpt lat="44.75134" lon="5.58806">
        <ele>1302</ele>
        <time>2017-10-19T00:41:27Z</time>
      </trkpt>
      <trkpt lat="44.75169" lon="5.58885">
        <ele>1307</ele>
        <time>2017-10-19T00:41:46Z</time>
      </trkpt>
      <trkpt lat="44.75183" lon="5.58925">
        <ele>1291</ele>
        <time>2017-10-19T00:42:05Z</time>
      </trkpt>
      <trkpt lat="44.75193" lon="5.58963">
        <ele>1291</ele>
        <time>2017-10-19T00:42:17Z</time>
      </trkpt>
      <trkpt lat="44.75215" lon="5.59046">
        <ele>1274</ele>
        <time>2017-10-19T00:42:24Z</time>
      </trkpt>
      <trkpt lat="44.75222" lon="5.59074">
        <ele>1274</ele>
        <time>2017-10-19T00:42:33Z</time>
      </trkpt>
      <trkpt lat="44.7523" lon="5.59091">
        <ele>1264</ele>
        <time>2017-10-19T00:42:35Z</time>
      </trkpt>
      <trkpt lat="44.75238" lon="5.59098">
        <ele>1265</ele>
        <time>2017-10-19T00:42:47Z</time>
      </trkpt>
      <trkpt lat="44.75248" lon="5.59101">
        <ele>1266</ele>
        <time>2017-10-19T00:42:53Z</time>
      </trkpt>
      <trkpt lat="44.7526" lon="5.591">
        <ele>1276</ele>
        <time>2017-10-19T00:43:11Z</time>
      </trkpt>
      <trkpt lat="44.7528" lon="5.59092">
        <ele>1276</ele>
        <time>2017-10-19T00:43:31Z</time>
      </trkpt>
      <trkpt lat="44.75319" lon="5.5908">
        <ele>1287</ele>
        <time>2017-10-19T00:43:43Z</time>
      </trkpt>
      <trkpt lat="44.75343" lon="5.59076">
        <ele>1292</ele>
        <time>2017-10-19T00:43:52Z</time>
      </trkpt>
      <trkpt lat="44.75349" lon="5.5908">
        <ele>1294</ele>
        <time>2017-10-19T00:44:00Z</time>
      </trkpt>
      <trkpt lat="44.75353" lon="5.59088">
        <ele>1291</ele>
        <time>2017-10-19T00:44:04Z</time>
      </trkpt>
      <trkpt lat="44.75351" lon="5.59097">
        <ele>1291</ele>
        <time>2017-10-19T00:44:07Z</time>
      </trkpt>
      <trkpt lat="44.75345" lon="5.59103">
        <ele>1291</ele>
        <time>2017-10-19T00:44:12Z</time>
      </trkpt>
      <trkpt lat="44.75337" lon="5.59105">
        <ele>1290</ele>
        <time>2017-10-19T00:44:26Z</time>
      </trkpt>
      <trkpt lat="44.75325" lon="5.59102">
        <ele>1278</ele>
        <time>2017-10-19T00:44:43Z</time>
      </trkpt>
      <trkpt lat="44.75308" lon="5.59098">
        <ele>1277</ele>
        <time>2017-10-19T00:45:02Z</time>
      </trkpt>
      <trkpt lat="44.75291" lon="5.59102">
        <ele>1276</ele>
        <time>2017-10-19T00:45:06Z</time>
      </trkpt>
      <trkpt lat="44.7526" lon="5.59123">
        <ele>1272</ele>
        <time>2017-10-19T00:45:17Z</time>
      </trkpt>
      <trkpt lat="44.75245" lon="5.59127">
        <ele>1257</ele>
        <time>2017-10-19T00:45:32Z</time>
      </trkpt>
      <trkpt lat="44.75228" lon="5.59124">
        <ele>1256</ele>
        <time>2017-10-19T00:45:36Z</time>
      </trkpt>
      <trkpt lat="44.75211" lon="5.59114">
        <ele>1254</ele>
        <time>2017-10-19T00:45:39Z</time>
      </trkpt>
      <trkpt lat="44.75202" lon="5.591">
        <ele>1253</ele>
        <time>2017-10-19T00:45:51Z</time>
      </trkpt>
      <trkpt lat="44.75192" lon="5.59075">
        <ele>1264</ele>
        <time>2017-10-19T00:45:56Z</time>
      </trkpt>
      <trkpt lat="44.75184" lon="5.59062">
        <ele>1264</ele>
        <time>2017-10-19T00:46:13Z</time>
      </trkpt>
      <trkpt lat="44.75166" lon="5.59045">
        <ele>1246</ele>
        <time>2017-10-19T00:46:27Z</time>
      </trkpt>
      <trkpt lat="44.75153" lon="5.59028">
        <ele>1248</ele>
        <time>2017-10-19T00:46:34Z</time>
      </trkpt>
      <trkpt lat="44.75145" lon="5.5901">
        <ele>1251</ele>
        <time>2017-10-19T00:46:42Z</time>
      </trkpt>
      <trkpt lat="44.7513" lon="5.5898">
        <ele>1262</ele>
        <time>2017-10-19T00:46:48Z</time>
      </trkpt>
      <trkpt lat="44.75119" lon="5.58964">
        <ele>1262</ele>
        <time>2017-10-19T00:46:50Z</time>
      </trkpt>
      <trkpt lat="44.75103" lon="5.58949">
        <ele>1262</ele>
        <time>2017-10-19T00:47:06Z</time>
      </trkpt>
      <trkpt lat="44.75091" lon="5.58945">
        <ele>1261</ele>
        <time>2017-10-19T00:47:18Z</time>
      </trkpt>
      <trkpt lat="44.75082" lon="5.5895">
        <ele>1247</ele>
        <time>2017-10-19T00:47:22Z</time>
      </trkpt>
      <trkpt lat="44.75076" lon="5.58963">
        <ele>1244</ele>
        <time>2017-10-19T00:47:41Z</time>
      </trkpt>
      <trkpt lat="44.75073" lon="5.58972">
        <ele>1243</ele>
        <time>2017-10-19T00:47:58Z</time>
      </trkpt>
      <trkpt lat="44.75069" lon="5.58978">
        <ele>1242</ele>
        <time>2017-10-19T00:48:00Z</time>
      </trkpt>
      <trkpt lat="44.75063" lon="5.5898">
        <ele>1241</ele>
        <time>2017-10-19T00:48:03Z</time>
      </trkpt>
      <trkpt lat="44.75057" lon="5.58979">
        <ele>1241</ele>
        <time>2017-10-19T00:48:21Z</time>
      </trkpt>
      <trkpt lat="44.75037" lon="5.58964">
        <ele>1241</ele>
        <time>2017-10-19T00:48:23Z</time>
      </trkpt>
      <trkpt lat="44.75006" lon="5.58934">
        <ele>1243</ele>
        <time>2017-10-19T00:48:34Z</time>
      </trkpt>
      <trkpt lat="44.74957" lon="5.58878">
        <ele>1233</ele>
        <time>2017-10-19T00:48:40Z</time>
      </trkpt>
      <trkpt lat="44.74946" lon="5.5886">
        <ele>1232</ele>
        <time>2017-10-19T00:49:00Z</time>
      </trkpt>
      <trkpt lat="44.74937" lon="5.58837">
        <ele>1230</ele>
        <time>2017-10-19T00:49:13Z</time>
      </trkpt>
      <trkpt lat="44.74931" lon="5.5882">
        <ele>1234</ele>
        <time>2017-10-19T00:49:18Z</time>
      </trkpt>
      <trkpt lat="44.74931" lon="5.58803">
        <ele>1237</ele>
        <time>2017-10-19T00:49:20Z</time>
      </trkpt>
      <trkpt lat="44.74935" lon="5.58776">
        <ele>1237</ele>
        <time>2017-10-19T00:49:36Z</time>
      </trkpt>
      <trkpt lat="44.74934" lon="5.58754">
        <ele>1234</ele>
        <time>2017-10-19T00:49:45Z</time>
      </trkpt>
      <trkpt lat="44.74922" lon="5.58684">
        <ele>1237</ele>
        <time>2017-10-19T00:49:59Z</time>
      </trkpt>
      <trkpt lat="44.74911" lon="5.58598">
        <ele>1221</ele>
        <time>2017-10-19T00:50:04Z</time>
      </trkpt>
      <trkpt lat="44.74902" lon="5.58532">
        <ele>1219</ele>
        <time>2017-10-19T00:50:21Z</time>
      </trkpt>
      <trkpt lat="44.74901" lon="5.58487">
        <ele>1221</ele>
        <time>2017-10-19T00:50:38Z</time>
      </trkpt>
      <trkpt lat="44.74907" lon="5.5842">
        <ele>1222</ele>
        <time>2017-10-19T00:50:46Z</time>
      </trkpt>
      <trkpt lat="44.74902" lon="5.58358">
        <ele>1215</ele>
        <time>2017-10-19T00:51:05Z</time>
      </trkpt>
      <trkpt lat="44.74896" lon="5.58303">
        <ele>1212</ele>
        <time>2017-10-19T00:51:08Z</time>
      </trkpt>
      <trkpt lat="44.74897" lon="5.58288">
        <ele>1212</ele>
        <time>2017-10-19T00:51:16Z</time>
      </trkpt>
      <trkpt lat="44.74901" lon="5.58271">
        <ele>1214</ele>
        <time>2017-10-19T00:51:20Z</time>
      </trkpt>
      <trkpt lat="44.74901" lon="5.58264">
        <ele>1215</ele>
        <time>2017-10-19T00:51:25Z</time>
      </trkpt>
      <trkpt lat="44.74898" lon="5.58248">
        <ele>1217</ele>
        <time>2017-10-19T00:51:33Z</time>
      </trkpt>
      <trkpt lat="44.74881" lon="5.58226">
        <ele>1213</ele>
        <time>2017-10-19T00:51:39Z</time>
      </trkpt>
      <trkpt lat="44.74876" lon="5.58214">
        <ele>1212</ele>
        <time>2017-10-19T00:51:41Z</time>
      </trkpt>
      <trkpt lat="44.7487" lon="5.58187">
        <ele>1212</ele>
        <time>2017-10-19T00:51:55Z</time>
      </trkpt>
      <trkpt lat="44.74861" lon="5.58123">
        <ele>1219</ele>
        <time>2017-10-19T00:52:07Z</time>
      </trkpt>
      <trkpt lat="44.74851" lon="5.58097">
        <ele>1218</ele>
        <time>2017-10-19T00:52:24Z</time>
      </trkpt>
      <trkpt lat="44.74843" lon="5.58092">
        <ele>1216</ele>
        <time>2017-10-19T00:52:41Z</time>
      </trkpt>
      <trkpt lat="44.74834" lon="5.5809">
        <ele>1215</ele>
        <time>2017-10-19T00:52:55Z</time>
      </trkpt>
      <trkpt lat="44.74826" lon="5.58091">
        <ele>1207</ele>
        <time>2017-10-19T00:53:12Z</time>
      </trkpt>
      <trkpt lat="44.74817" lon="5.58096">
        <ele>1203</ele>
        <time>2017-10-19T00:53:25Z</time>
      </trkpt>
      <trkpt lat="44.74794" lon="5.58115">
        <ele>1197</ele>
        <time>2017-10-19T00:53:36Z</time>
      </trkpt>
      <trkpt lat="44.74782" lon="5.5812">
        <ele>1195</ele>
        <time>2017-10-19T00:53:46Z</time>
      </trkpt>
      <trkpt lat="44.74772" lon="5.58121">
        <ele>1193</ele>
        <time>2017-10-19T00:53:57Z</time>
      </trkpt>
      <trkpt lat="44.74767" lon="5.58119">
        <ele>1193</ele>
        <time>2017-10-19T00:54:03Z</time>
      </trkpt>
      <trkpt lat="44.74761" lon="5.58104">
        <ele>1193</ele>
        <time>2017-10-19T00:54:10Z</time>
      </trkpt>
      <trkpt lat="44.74755" lon="5.58069">
        <ele>1199</ele>
        <time>2017-10-19T00:54:30Z</time>
      </trkpt>
      <trkpt lat="44.74751" lon="5.5805">
        <ele>1204</ele>
        <time>2017-10-19T00:54:45Z</time>
      </trkpt>
      <trkpt lat="44.74744" lon="5.58034">
        <ele>1189</ele>
        <time>2017-10-19T00:54:58Z</time>
      </trkpt>
      <trkpt lat="44.74723" lon="5.58">
        <ele>1195</ele>
        <time>2017-10-19T00:55:18Z</time>
      </trkpt>
      <trkpt lat="44.74687" lon="5.57954">
        <ele>1193</ele>
        <time>2017-10-19T00:55:32Z</time>
      </trkpt>
      <trkpt lat="44.74674" lon="5.57938">
        <ele>1193</ele>
        <time>2017-10-19T00:55:35Z</time>
      </trkpt>
      <trkpt lat="44.74659" lon="5.57927">
        <ele>1183</ele>
        <time>2017-10-19T00:55:37Z</time>
      </trkpt>
      <trkpt lat="44.74632" lon="5.57914">
        <ele>1185</ele>
        <time>2017-10-19T00:55:57Z</time>
      </trkpt>
      <trkpt lat="44.74594" lon="5.57899">
        <ele>1180</ele>
        <time>2017-10-19T00:55:59Z</time>
      </trkpt>
      <trkpt lat="44.74564" lon="5.57878">
        <ele>1164</ele>
        <time>2017-10-19T00:56:07Z</time>
      </trkpt>
      <trkpt lat="44.74545" lon="5.5786">
        <ele>1162</ele>
        <time>2017-10-19T00:56:10Z</time>
      </trkpt>
      <trkpt lat="44.74536" lon="5.5785">
        <ele>1162</ele>
        <time>2017-10-19T00:56:17Z</time>
      </trkpt>
      <trkpt lat="44.7453" lon="5.57839">
        <ele>1161</ele>
        <time>2017-10-19T00:56:27Z</time>
      </trkpt>
      <trkpt lat="44.74527" lon="5.57827">
        <ele>1166</ele>
        <time>2017-10-19T00:56:37Z</time>
      </trkpt>
      <trkpt lat="44.74528" lon="5.57815">
        <ele>1166</ele>
        <time>2017-10-19T00:56:39Z</time>
      </trkpt>
      <trkpt lat="44.74531" lon="5.57804">
        <ele>1167</ele>
        <time>2017-10-19T00:56:43Z</time>
      </trkpt>
      <trkpt lat="44.74536" lon="5.57795">
        <ele>1167</ele>
        <time>2017-10-19T00:56:49Z</time>
      </trkpt>
      <trkpt lat="44.74542" lon="5.57787">
        <ele>1168</ele>
        <time>2017-10-19T00:57:09Z</time>
      </trkpt>
      <trkpt lat="44.74549" lon="5.57782">
        <ele>1168</ele>
        <time>2017-10-19T00:57:28Z</time>
      </trkpt>
      <trkpt lat="44.74562" lon="5.57777">
        <ele>1169</ele>
        <time>2017-10-19T00:57:35Z</time>
      </trkpt>
      <trkpt lat="44.74566" lon="5.57773">
        <ele>1169</ele>
        <time>2017-10-19T00:57:40Z</time>
      </trkpt>
      <trkpt lat="44.74567" lon="5.57765">
        <ele>1169</ele>
        <time>2017-10-19T00:57:42Z</time>
      </trkpt>
      <trkpt lat="44.74564" lon="5.57758">
        <ele>1168</ele>
        <time>2017-10-19T00:58:02Z</time>
      </trkpt>
      <trkpt lat="44.74558" lon="5.57753">
        <ele>1168</ele>
        <time>2017-10-19T00:58:06Z</time>
      </trkpt>
      <trkpt lat="44.74538" lon="5.5775">
        <ele>1163</ele>
        <time>2017-10-19T00:58:21Z</time>
      </trkpt>
      <trkpt lat="44.74523" lon="5.57755">
        <ele>1166</ele>
        <time>2017-10-19T00:58:40Z</time>
      </trkpt>
      <trkpt lat="44.74513" lon="5.57761">
        <ele>1165</ele>
        <time>2017-10-19T00:58:57Z</time>
      </trkpt>
      <trkpt lat="44.7449" lon="5.57779">
        <ele>1151</ele>
        <time>2017-10-19T00:59:03Z</time>
      </trkpt>
      <trkpt lat="44.74481" lon="5.57784">
        <ele>1149</ele>
        <time>2017-10-19T00:59:08Z</time>
      </trkpt>
      <trkpt lat="44.74471" lon="5.57784">
        <ele>1147</ele>
        <time>2017-10-19T00:59:16Z</time>
      </trkpt>
      <trkpt lat="44.74462" lon="5.5778">
        <ele>1146</ele>
        <time>2017-10-19T00:59:36Z</time>
      </trkpt>
      <trkpt lat="44.74452" lon="5.57769">
        <ele>1146</ele>
        <time>2017-10-19T00:59:52Z</time>
      </trkpt>
      <trkpt lat="44.74426" lon="5.57728">
        <ele>1149</ele>
        <time>2017-10-19T01:00:07Z</time>
      </trkpt>
      <trkpt lat="44.7442" lon="5.57714">
        <ele>1149</ele>
        <time>2017-10-19T01:00:19Z</time>
      </trkpt>
      <trkpt lat="44.74418" lon="5.57703">
        <ele>1149</ele>
        <time>2017-10-19T01:00:31Z</time>
      </trkpt>
      <trkpt lat="44.74418" lon="5.57691">
        <ele>1149</ele>
        <time>2017-10-19T01:00:43Z</time>
      </trkpt>
      <trkpt lat="44.74421" lon="5.57675">
        <ele>1147</ele>
        <time>2017-10-19T01:00:46Z</time>
      </trkpt>
      <trkpt lat="44.74441" lon="5.57623">
        <ele>1142</ele>
        <time>2017-10-19T01:01:06Z</time>
      </trkpt>
      <trkpt lat="44.74454" lon="5.576">
        <ele>1142</ele>
        <time>2017-10-19T01:01:21Z</time>
      </trkpt>
      <trkpt lat="44.74473" lon="5.57574">
        <ele>1133</ele>
        <time>2017-10-19T01:01:30Z</time>
      </trkpt>
      <trkpt lat="44.74517" lon="5.57524">
        <ele>1138</ele>
        <time>2017-10-19T01:01:39Z</time>
      </trkpt>
      <trkpt lat="44.74537" lon="5.57507">
        <ele>1138</ele>
        <time>2017-10-19T01:01:46Z</time>
      </trkpt>
      <trkpt lat="44.7455" lon="5.57502">
        <ele>1138</ele>
        <time>2017-10-19T01:02:04Z</time>
      </trkpt>
      <trkpt lat="44.74571" lon="5.57503">
        <ele>1138</ele>
        <time>2017-10-19T01:02:22Z</time>
      </trkpt>
      <trkpt lat="44.74587" lon="5.57506">
        <ele>1140</ele>
        <time>2017-10-19T01:02:29Z</time>
      </trkpt>
      <trkpt lat="44.74617" lon="5.57508">
        <ele>1147</ele>
        <time>2017-10-19T01:02:45Z</time>
      </trkpt>
      <trkpt lat="44.74657" lon="5.575">
        <ele>1147</ele>
        <time>2017-10-19T01:03:04Z</time>
      </trkpt>
      <trkpt lat="44.7467" lon="5.57492">
        <ele>1149</ele>
        <time>2017-10-19T01:03:08Z</time>
      </trkpt>
      <trkpt lat="44.74677" lon="5.57482">
        <ele>1153</ele>
        <time>2017-10-19T01:03:28Z</time>
      </trkpt>
      <trkpt lat="44.74681" lon="5.57463">
        <ele>1156</ele>
        <time>2017-10-19T01:03:43Z</time>
      </trkpt>
      <trkpt lat="44.74675" lon="5.57438">
        <ele>1151</ele>
        <time>2017-10-19T01:03:48Z</time>
      </trkpt>
      <trkpt lat="44.74663" lon="5.57411">
        <ele>1134</ele>
        <time>2017-10-19T01:04:02Z</time>
      </trkpt>
      <trkpt lat="44.74607" lon="5.5729">
        <ele>1136</ele>
        <time>2017-10-19T01:04:15Z</time>
      </trkpt>
      <trkpt lat="44.74591" lon="5.57256">
        <ele>1129</ele>
        <time>2017-10-19T01:04:29Z</time>
      </trkpt>
      <trkpt lat="44.74485" lon="5.57061">
        <ele>1123</ele>
        <time>2017-10-19T01:04:32Z</time>
      </trkpt>
      <trkpt lat="44.74394" lon="5.56941">
        <ele>1101</ele>
        <time>2017-10-19T01:04:42Z</time>
      </trkpt>
      <trkpt lat="44.74379" lon="5.56912">
        <ele>1097</ele>
        <time>2017-10-19T01:05:01Z</time>
      </trkpt>
      <trkpt lat="44.74373" lon="5.56894">
        <ele>1093</ele>
        <time>2017-10-19T01:05:10Z</time>
      </trkpt>
      <trkpt lat="44.74372" lon="5.56869">
        <ele>1092</ele>
        <time>2017-10-19T01:05:28Z</time>
      </trkpt>
      <trkpt lat="44.74377" lon="5.56833">
        <ele>1083</ele>
        <time>2017-10-19T01:05:48Z</time>
      </trkpt>
      <trkpt lat="44.7439" lon="5.56814">
        <ele>1086</ele>
        <time>2017-10-19T01:05:53Z</time>
      </trkpt>
      <trkpt lat="44.74401" lon="5.56805">
        <ele>1088</ele>
        <time>2017-10-19T01:06:08Z</time>
      </trkpt>
      <trkpt lat="44.74434" lon="5.56788">
        <ele>1107</ele>
        <time>2017-10-19T01:06:27Z</time>
      </trkpt>
      <trkpt lat="44.74459" lon="5.56781">
        <ele>1109</ele>
        <time>2017-10-19T01:06:45Z</time>
      </trkpt>
      <trkpt lat="44.74471" lon="5.56779">
        <ele>1110</ele>
        <time>2017-10-19T01:07:01Z</time>
      </trkpt>
      <trkpt lat="44.74479" lon="5.56775">
        <ele>1110</ele>
        <time>2017-10-19T01:07:06Z</time>
      </trkpt>
      <trkpt lat="44.74484" lon="5.56767">
        <ele>1110</ele>
        <time>2017-10-19T01:07:12Z</time>
      </trkpt>
      <trkpt lat="44.74486" lon="5.56755">
        <ele>1110</ele>
        <time>2017-10-19T01:07:17Z</time>
      </trkpt>
      <trkpt lat="44.7448" lon="5.5673">
        <ele>1100</ele>
        <time>2017-10-19T01:07:27Z</time>
      </trkpt>
      <trkpt lat="44.74469" lon="5.56705">
        <ele>1097</ele>
        <time>2017-10-19T01:07:29Z</time>
      </trkpt>
      <trkpt lat="44.74459" lon="5.56655">
        <ele>1094</ele>
        <time>2017-10-19T01:07:31Z</time>
      </trkpt>
      <trkpt lat="44.74451" lon="5.566">
        <ele>1093</ele>
        <time>2017-10-19T01:07:36Z</time>
      </trkpt>
      <trkpt lat="44.74447" lon="5.56559">
        <ele>1092</ele>
        <time>2017-10-19T01:07:41Z</time>
      </trkpt>
      <trkpt lat="44.74449" lon="5.56532">
        <ele>1092</ele>
        <time>2017-10-19T01:07:45Z</time>
      </trkpt>
      <trkpt lat="44.74458" lon="5.56493">
        <ele>1087</ele>
        <time>2017-10-19T01:08:01Z</time>
      </trkpt>
      <trkpt lat="44.74478" lon="5.56424">
        <ele>1090</ele>
        <time>2017-10-19T01:08:03Z</time>
      </trkpt>
      <trkpt lat="44.74486" lon="5.56387">
        <ele>1080</ele>
        <time>2017-10-19T01:08:07Z</time>
      </trkpt>
      <trkpt lat="44.74496" lon="5.56333">
        <ele>1083</ele>
        <time>2017-10-19T01:08:17Z</time>
      </trkpt>
      <trkpt lat="44.74512" lon="5.56269">
        <ele>1093</ele>
        <time>2017-10-19T01:08:19Z</time>
      </trkpt>
      <trkpt lat="44.74514" lon="5.56237">
        <ele>1087</ele>
        <time>2017-10-19T01:08:30Z</time>
      </trkpt>
      <trkpt lat="44.74513" lon="5.5621">
        <ele>1092</ele>
        <time>2017-10-19T01:08:46Z</time>
      </trkpt>
      <trkpt lat="44.74505" lon="5.56184">
        <ele>1087</ele>
        <time>2017-10-19T01:09:02Z</time>
      </trkpt>
      <trkpt lat="44.7449" lon="5.56145">
        <ele>1070</ele>
        <time>2017-10-19T01:09:22Z</time>
      </trkpt>
      <trkpt lat="44.74474" lon="5.56099">
        <ele>1071</ele>
        <time>2017-10-19T01:09:33Z</time>
      </trkpt>
      <trkpt lat="44.74456" lon="5.56063">
        <ele>1071</ele>
        <time>2017-10-19T01:09:50Z</time>
      </trkpt>
      <trkpt lat="44.74439" lon="5.56031">
        <ele>1069</ele>
        <time>2017-10-19T01:10:02Z</time>
      </trkpt>
      <trkpt lat="44.74431" lon="5.56007">
        <ele>1066</ele>
        <time>2017-10-19T01:10:21Z</time>
      </trkpt>
      <trkpt lat="44.74428" lon="5.55983">
        <ele>1069</ele>
        <time>2017-10-19T01:10:24Z</time>
      </trkpt>
      <trkpt lat="44.74426" lon="5.55947">
        <ele>1072</ele>
        <time>2017-10-19T01:10:42Z</time>
      </trkpt>
      <trkpt lat="44.74419" lon="5.55923">
        <ele>1068</ele>
        <time>2017-10-19T01:10:45Z</time>
      </trkpt>
      <trkpt lat="44.74414" lon="5.55917">
        <ele>1065</ele>
        <time>2017-10-19T01:10:49Z</time>
      </trkpt>
      <trkpt lat="44.74405" lon="5.55911">
        <ele>1064</ele>
        <time>2017-10-19T01:11:07Z</time>
      </trkpt>
      <trkpt lat="44.74381" lon="5.55902">
        <ele>1060</ele>
        <time>2017-10-19T01:11:16Z</time>
      </trkpt>
      <trkpt lat="44.74372" lon="5.55898">
        <ele>1059</ele>
        <time>2017-10-19T01:11:35Z</time>
      </trkpt>
      <trkpt lat="44.74361" lon="5.55889">
        <ele>1058</ele>
        <time>2017-10-19T01:11:54Z</time>
      </trkpt>
      <trkpt lat="44.7434" lon="5.55859">
        <ele>1058</ele>
        <time>2017-10-19T01:11:56Z</time>
      </trkpt>
      <trkpt lat="44.74326" lon="5.5583">
        <ele>1051</ele>
        <time>2017-10-19T01:11:59Z</time>
      </trkpt>
      <trkpt lat="44.74301" lon="5.5574">
        <ele>1052</ele>
        <time>2017-10-19T01:12:01Z</time>
      </trkpt>
      <trkpt lat="44.74286" lon="5.55697">
        <ele>1050</ele>
        <time>2017-10-19T01:12:14Z</time>
      </trkpt>
      <trkpt lat="44.74272" lon="5.55666">
        <ele>1052</ele>
        <time>2017-10-19T01:12:29Z</time>
      </trkpt>
      <trkpt lat="44.7426" lon="5.55622">
        <ele>1054</ele>
        <time>2017-10-19T01:12:32Z</time>
      </trkpt>
      <trkpt lat="44.74252" lon="5.55574">
        <ele>1050</ele>
        <time>2017-10-19T01:12:44Z</time>
      </trkpt>
      <trkpt lat="44.74246" lon="5.55528">
        <ele>1033</ele>
        <time>2017-10-19T01:12:53Z</time>
      </trkpt>
      <trkpt lat="44.74243" lon="5.55489">
        <ele>1037</ele>
        <time>2017-10-19T01:13:11Z</time>
      </trkpt>
      <trkpt lat="44.74247" lon="5.55443">
        <ele>1033</ele>
        <time>2017-10-19T01:13:28Z</time>
      </trkpt>
      <trkpt lat="44.74254" lon="5.55392">
        <ele>1044</ele>
        <time>2017-10-19T01:13:32Z</time>
      </trkpt>
      <trkpt lat="44.74269" lon="5.55327">
        <ele>1036</ele>
        <time>2017-10-19T01:13:45Z</time>
      </trkpt>
      <trkpt lat="44.7428" lon="5.55293">
        <ele>1038</ele>
        <time>2017-10-19T01:14:01Z</time>
      </trkpt>
      <trkpt lat="44.74289" lon="5.55255">
        <ele>1038</ele>
        <time>2017-10-19T01:14:09Z</time>
      </trkpt>
      <trkpt lat="44.74293" lon="5.55216">
        <ele>1035</ele>
        <time>2017-10-19T01:14:15Z</time>
      </trkpt>
      <trkpt lat="44.74294" lon="5.55186">
        <ele>1035</ele>
        <time>2017-10-19T01:14:35Z</time>
      </trkpt>
      <trkpt lat="44.74292" lon="5.55163">
        <ele>1033</ele>
        <time>2017-10-19T01:14:41Z</time>
      </trkpt>
      <trkpt lat="44.74274" lon="5.55103">
        <ele>1028</ele>
        <time>2017-10-19T01:14:51Z</time>
      </trkpt>
      <trkpt lat="44.74274" lon="5.55082">
        <ele>1022</ele>
        <time>2017-10-19T01:14:54Z</time>
      </trkpt>
      <trkpt lat="44.74285" lon="5.5504">
        <ele>1022</ele>
        <time>2017-10-19T01:15:10Z</time>
      </trkpt>
      <trkpt lat="44.74297" lon="5.55004">
        <ele>1022</ele>
        <time>2017-10-19T01:15:26Z</time>
      </trkpt>
      <trkpt lat="44.74308" lon="5.54992">
        <ele>1011</ele>
        <time>2017-10-19T01:15:29Z</time>
      </trkpt>
      <trkpt lat="44.7433" lon="5.54976">
        <ele>1013</ele>
        <time>2017-10-19T01:15:45Z</time>
      </trkpt>
      <trkpt lat="44.74349" lon="5.54949">
        <ele>1028</ele>
        <time>2017-10-19T01:16:01Z</time>
      </trkpt>
      <trkpt lat="44.7437" lon="5.54918">
        <ele>1029</ele>
        <time>2017-10-19T01:16:17Z</time>
      </trkpt>
      <trkpt lat="44.74382" lon="5.54891">
        <ele>1010</ele>
        <time>2017-10-19T01:16:19Z</time>
      </trkpt>
      <trkpt lat="44.74393" lon="5.5487">
        <ele>1007</ele>
        <time>2017-10-19T01:16:28Z</time>
      </trkpt>
      <trkpt lat="44.74415" lon="5.54848">
        <ele>1006</ele>
        <time>2017-10-19T01:16:45Z</time>
      </trkpt>
      <trkpt lat="44.74444" lon="5.54816">
        <ele>1005</ele>
        <time>2017-10-19T01:16:55Z</time>
      </trkpt>
      <trkpt lat="44.7447" lon="5.54785">
        <ele>1004</ele>
        <time>2017-10-19T01:17:08Z</time>
      </trkpt>
      <trkpt lat="44.74489" lon="5.54769">
        <ele>1003</ele>
        <time>2017-10-19T01:17:15Z</time>
      </trkpt>
      <trkpt lat="44.74506" lon="5.54753">
        <ele>1010</ele>
        <time>2017-10-19T01:17:24Z</time>
      </trkpt>
      <trkpt lat="44.7452" lon="5.5473">
        <ele>1004</ele>
        <time>2017-10-19T01:17:34Z</time>
      </trkpt>
      <trkpt lat="44.74538" lon="5.54703">
        <ele>1004</ele>
        <time>2017-10-19T01:17:53Z</time>
      </trkpt>
      <trkpt lat="44.74565" lon="5.54662">
        <ele>993</ele>
        <time>2017-10-19T01:18:03Z</time>
      </trkpt>
      <trkpt lat="44.74586" lon="5.54625">
        <ele>1008</ele>
        <time>2017-10-19T01:18:23Z</time>
      </trkpt>
      <trkpt lat="44.74599" lon="5.54602">
        <ele>1001</ele>
        <time>2017-10-19T01:18:35Z</time>
      </trkpt>
      <trkpt lat="44.74614" lon="5.54585">
        <ele>1004</ele>
        <time>2017-10-19T01:18:52Z</time>
      </trkpt>
      <trkpt lat="44.74633" lon="5.54568">
        <ele>992</ele>
        <time>2017-10-19T01:19:04Z</time>
      </trkpt>
      <trkpt lat="44.74655" lon="5.5454">
        <ele>991</ele>
        <time>2017-10-19T01:19:22Z</time>
      </trkpt>
      <trkpt lat="44.74669" lon="5.5451">
        <ele>999</ele>
        <time>2017-10-19T01:19:24Z</time>
      </trkpt>
      <trkpt lat="44.74675" lon="5.54492">
        <ele>994</ele>
        <time>2017-10-19T01:19:41Z</time>
      </trkpt>
      <trkpt lat="44.74675" lon="5.54473">
        <ele>999</ele>
        <time>2017-10-19T01:19:44Z</time>
      </trkpt>
      <trkpt lat="44.74671" lon="5.54457">
        <ele>1000</ele>
        <time>2017-10-19T01:19:56Z</time>
      </trkpt>
      <trkpt lat="44.74652" lon="5.54429">
        <ele>986</ele>
        <time>2017-10-19T01:20:13Z</time>
      </trkpt>
      <trkpt lat="44.7464" lon="5.54416">
        <ele>993</ele>
        <time>2017-10-19T01:20:16Z</time>
      </trkpt>
      <trkpt lat="44.74633" lon="5.54412">
        <ele>992</ele>
        <time>2017-10-19T01:20:27Z</time>
      </trkpt>
      <trkpt lat="44.74612" lon="5.54406">
        <ele>990</ele>
        <time>2017-10-19T01:20:31Z</time>
      </trkpt>
      <trkpt lat="44.74596" lon="5.54396">
        <ele>989</ele>
        <time>2017-10-19T01:20:37Z</time>
      </trkpt>
      <trkpt lat="44.74585" lon="5.54387">
        <ele>990</ele>
        <time>2017-10-19T01:20:52Z</time>
      </trkpt>
      <trkpt lat="44.74573" lon="5.54381">
        <ele>987</ele>
        <time>2017-10-19T01:20:58Z</time>
      </trkpt>
      <trkpt lat="44.74562" lon="5.54377">
        <ele>988</ele>
        <time>2017-10-19T01:21:09Z</time>
      </trkpt>
      <trkpt lat="44.74549" lon="5.54377">
        <ele>988</ele>
        <time>2017-10-19T01:21:15Z</time>
      </trkpt>
      <trkpt lat="44.74518" lon="5.54385">
        <ele>985</ele>
        <time>2017-10-19T01:21:20Z</time>
      </trkpt>
      <trkpt lat="44.74496" lon="5.5439">
        <ele>982</ele>
        <time>2017-10-19T01:21:25Z</time>
      </trkpt>
      <trkpt lat="44.74484" lon="5.54402">
        <ele>980</ele>
        <time>2017-10-19T01:21:40Z</time>
      </trkpt>
      <trkpt lat="44.74467" lon="5.54422">
        <ele>964</ele>
        <time>2017-10-19T01:21:52Z</time>
      </trkpt>
      <trkpt lat="44.74448" lon="5.54434">
        <ele>963</ele>
        <time>2017-10-19T01:22:12Z</time>
      </trkpt>
      <trkpt lat="44.74425" lon="5.54436">
        <ele>965</ele>
        <time>2017-10-19T01:22:21Z</time>
      </trkpt>
      <trkpt lat="44.74413" lon="5.54433">
        <ele>964</ele>
        <time>2017-10-19T01:22:36Z</time>
      </trkpt>
      <trkpt lat="44.74403" lon="5.54427">
        <ele>964</ele>
        <time>2017-10-19T01:22:45Z</time>
      </trkpt>
      <trkpt lat="44.7438" lon="5.54413">
        <ele>982</ele>
        <time>2017-10-19T01:22:55Z</time>
      </trkpt>
      <trkpt lat="44.74355" lon="5.54414">
        <ele>979</ele>
        <time>2017-10-19T01:22:58Z</time>
      </trkpt>
      <trkpt lat="44.74302" lon="5.54429">
        <ele>958</ele>
        <time>2017-10-19T01:23:01Z</time>
      </trkpt>
      <trkpt lat="44.7428" lon="5.54432">
        <ele>957</ele>
        <time>2017-10-19T01:23:04Z</time>
      </trkpt>
      <trkpt lat="44.74259" lon="5.54428">
        <ele>961</ele>
        <time>2017-10-19T01:23:13Z</time>
      </trkpt>
      <trkpt lat="44.74234" lon="5.54428">
        <ele>959</ele>
        <time>2017-10-19T01:23:19Z</time>
      </trkpt>
      <trkpt lat="44.74216" lon="5.54437">
        <ele>955</ele>
        <time>2017-10-19T01:23:24Z</time>
      </trkpt>
      <trkpt lat="44.74196" lon="5.54453">
        <ele>952</ele>
        <time>2017-10-19T01:23:27Z</time>
      </trkpt>
      <trkpt lat="44.74184" lon="5.54457">
        <ele>951</ele>
        <time>2017-10-19T01:23:43Z</time>
      </trkpt>
      <trkpt lat="44.74167" lon="5.5445">
        <ele>953</ele>
        <time>2017-10-19T01:23:51Z</time>
      </trkpt>
      <trkpt lat="44.74144" lon="5.54437">
        <ele>956</ele>
        <time>2017-10-19T01:24:04Z</time>
      </trkpt>
      <trkpt lat="44.74121" lon="5.54435">
        <ele>956</ele>
        <time>2017-10-19T01:24:23Z</time>
      </trkpt>
      <trkpt lat="44.74104" lon="5.54441">
        <ele>957</ele>
        <time>2017-10-19T01:24:35Z</time>
      </trkpt>
      <trkpt lat="44.74092" lon="5.54447">
        <ele>956</ele>
        <time>2017-10-19T01:24:49Z</time>
      </trkpt>
      <trkpt lat="44.74065" lon="5.54468">
        <ele>955</ele>
        <time>2017-10-19T01:25:05Z</time>
      </trkpt>
      <trkpt lat="44.74038" lon="5.54484">
        <ele>954</ele>
        <time>2017-10-19T01:25:20Z</time>
      </trkpt>
      <trkpt lat="44.7401" lon="5.54495">
        <ele>951</ele>
        <time>2017-10-19T01:25:40Z</time>
      </trkpt>
      <trkpt lat="44.73976" lon="5.54504">
        <ele>945</ele>
        <time>2017-10-19T01:25:43Z</time>
      </trkpt>
      <trkpt lat="44.73964" lon="5.54506">
        <ele>946</ele>
        <time>2017-10-19T01:25:57Z</time>
      </trkpt>
      <trkpt lat="44.73961" lon="5.54512">
        <ele>946</ele>
        <time>2017-10-19T01:26:04Z</time>
      </trkpt>
      <trkpt lat="44.73962" lon="5.5452">
        <ele>945</ele>
        <time>2017-10-19T01:26:07Z</time>
      </trkpt>
      <trkpt lat="44.73963" lon="5.54524">
        <ele>944</ele>
        <time>2017-10-19T01:26:16Z</time>
      </trkpt>
      <trkpt lat="44.73965" lon="5.54525">
        <ele>943</ele>
        <time>2017-10-19T01:26:22Z</time>
      </trkpt>
      <trkpt lat="44.73985" lon="5.54517">
        <ele>943</ele>
        <time>2017-10-19T01:26:36Z</time>
      </trkpt>
      <trkpt lat="44.74057" lon="5.54493">
        <ele>949</ele>
        <time>2017-10-19T01:26:53Z</time>
      </trkpt>
      <trkpt lat="44.74082" lon="5.54482">
        <ele>946</ele>
        <time>2017-10-19T01:27:05Z</time>
      </trkpt>
      <trkpt lat="44.741" lon="5.54477">
        <ele>946</ele>
        <time>2017-10-19T01:27:17Z</time>
      </trkpt>
      <trkpt lat="44.74117" lon="5.54475">
        <ele>947</ele>
        <time>2017-10-19T01:27:28Z</time>
      </trkpt>
      <trkpt lat="44.7413" lon="5.54477">
        <ele>947</ele>
        <time>2017-10-19T01:27:38Z</time>
      </trkpt>
      <trkpt lat="44.74144" lon="5.54484">
        <ele>944</ele>
        <time>2017-10-19T01:27:57Z</time>
      </trkpt>
      <trkpt lat="44.74173" lon="5.54507">
        <ele>927</ele>
        <time>2017-10-19T01:28:11Z</time>
      </trkpt>
      <trkpt lat="44.74186" lon="5.54514">
        <ele>924</ele>
        <time>2017-10-19T01:28:27Z</time>
      </trkpt>
      <trkpt lat="44.74203" lon="5.54519">
        <ele>923</ele>
        <time>2017-10-19T01:28:46Z</time>
      </trkpt>
      <trkpt lat="44.74222" lon="5.54521">
        <ele>924</ele>
        <time>2017-10-19T01:28:58Z</time>
      </trkpt>
      <trkpt lat="44.74241" lon="5.54518">
        <ele>927</ele>
        <time>2017-10-19T01:29:18Z</time>
      </trkpt>
      <trkpt lat="44.74276" lon="5.54507">
        <ele>930</ele>
        <time>2017-10-19T01:29:29Z</time>
      </trkpt>
      <trkpt lat="44.74302" lon="5.54505">
        <ele>931</ele>
        <time>2017-10-19T01:29:35Z</time>
      </trkpt>
      <trkpt lat="44.74312" lon="5.54511">
        <ele>931</ele>
        <time>2017-10-19T01:29:44Z</time>
      </trkpt>
      <trkpt lat="44.74316" lon="5.54517">
        <ele>931</ele>
        <time>2017-10-19T01:29:56Z</time>
      </trkpt>
      <trkpt lat="44.74321" lon="5.54532">
        <ele>929</ele>
        <time>2017-10-19T01:30:08Z</time>
      </trkpt>
      <trkpt lat="44.74328" lon="5.54588">
        <ele>919</ele>
        <time>2017-10-19T01:30:22Z</time>
      </trkpt>
      <trkpt lat="44.74331" lon="5.54624">
        <ele>916</ele>
        <time>2017-10-19T01:30:25Z</time>
      </trkpt>
      <trkpt lat="44.7433" lon="5.54654">
        <ele>918</ele>
        <time>2017-10-19T01:30:39Z</time>
      </trkpt>
      <trkpt lat="44.74325" lon="5.54675">
        <ele>920</ele>
        <time>2017-10-19T01:30:49Z</time>
      </trkpt>
      <trkpt lat="44.74317" lon="5.54705">
        <ele>920</ele>
        <time>2017-10-19T01:31:07Z</time>
      </trkpt>
      <trkpt lat="44.74308" lon="5.54723">
        <ele>920</ele>
        <time>2017-10-19T01:31:18Z</time>
      </trkpt>
      <trkpt lat="44.74288" lon="5.54737">
        <ele>917</ele>
        <time>2017-10-19T01:31:38Z</time>
      </trkpt>
      <trkpt lat="44.74271" lon="5.54747">
        <ele>913</ele>
        <time>2017-10-19T01:31:50Z</time>
      </trkpt>
      <trkpt lat="44.74221" lon="5.54809">
        <ele>905</ele>
        <time>2017-10-19T01:32:08Z</time>
      </trkpt>
      <trkpt lat="44.74193" lon="5.54834">
        <ele>913</ele>
        <time>2017-10-19T01:32:11Z</time>
      </trkpt>
      <trkpt lat="44.74175" lon="5.54859">
        <ele>913</ele>
        <time>2017-10-19T01:32:27Z</time>
      </trkpt>
      <trkpt lat="44.74152" lon="5.54892">
        <ele>897</ele>
        <time>2017-10-19T01:32:43Z</time>
      </trkpt>
      <trkpt lat="44.74138" lon="5.54919">
        <ele>909</ele>
        <time>2017-10-19T01:32:48Z</time>
      </trkpt>
      <trkpt lat="44.7412" lon="5.54951">
        <ele>906</ele>
        <time>2017-10-19T01:32:52Z</time>
      </trkpt>
      <trkpt lat="44.74099" lon="5.54978">
        <ele>903</ele>
        <time>2017-10-19T01:33:06Z</time>
      </trkpt>
      <trkpt lat="44.74081" lon="5.55013">
        <ele>896</ele>
        <time>2017-10-19T01:33:22Z</time>
      </trkpt>
      <trkpt lat="44.74066" lon="5.55033">
        <ele>897</ele>
        <time>2017-10-19T01:33:30Z</time>
      </trkpt>
      <trkpt lat="44.7405" lon="5.55048">
        <ele>897</ele>
        <time>2017-10-19T01:33:49Z</time>
      </trkpt>
      <trkpt lat="44.7403" lon="5.55066">
        <ele>895</ele>
        <time>2017-10-19T01:34:05Z</time>
      </trkpt>
      <trkpt lat="44.74002" lon="5.55079">
        <ele>891</ele>
        <time>2017-10-19T01:34:20Z</time>
      </trkpt>
      <trkpt lat="44.7398" lon="5.55094">
        <ele>892</ele>
        <time>2017-10-19T01:34:28Z</time>
      </trkpt>
      <trkpt lat="44.73971" lon="5.55101">
        <ele>892</ele>
        <time>2017-10-19T01:34:40Z</time>
      </trkpt>
      <trkpt lat="44.73938" lon="5.5514">
        <ele>894</ele>
        <time>2017-10-19T01:34:48Z</time>
      </trkpt>
      <trkpt lat="44.73921" lon="5.55155">
        <ele>894</ele>
        <time>2017-10-19T01:35:06Z</time>
      </trkpt>
      <trkpt lat="44.73908" lon="5.55164">
        <ele>885</ele>
        <time>2017-10-19T01:35:16Z</time>
      </trkpt>
      <trkpt lat="44.7387" lon="5.55187">
        <ele>894</ele>
        <time>2017-10-19T01:35:23Z</time>
      </trkpt>
      <trkpt lat="44.73834" lon="5.55199">
        <ele>891</ele>
        <time>2017-10-19T01:35:31Z</time>
      </trkpt>
      <trkpt lat="44.73811" lon="5.55202">
        <ele>875</ele>
        <time>2017-10-19T01:35:40Z</time>
      </trkpt>
      <trkpt lat="44.73798" lon="5.55206">
        <ele>874</ele>
        <time>2017-10-19T01:35:44Z</time>
      </trkpt>
      <trkpt lat="44.7378" lon="5.55221">
        <ele>874</ele>
        <time>2017-10-19T01:35:52Z</time>
      </trkpt>
      <trkpt lat="44.73764" lon="5.55242">
        <ele>873</ele>
        <time>2017-10-19T01:36:12Z</time>
      </trkpt>
      <trkpt lat="44.7376" lon="5.55259">
        <ele>878</ele>
        <time>2017-10-19T01:36:28Z</time>
      </trkpt>
      <trkpt lat="44.73772" lon="5.55354">
        <ele>881</ele>
        <time>2017-10-19T01:36:44Z</time>
      </trkpt>
      <trkpt lat="44.73777" lon="5.55393">
        <ele>880</ele>
        <time>2017-10-19T01:36:47Z</time>
      </trkpt>
      <trkpt lat="44.73782" lon="5.55409">
        <ele>880</ele>
        <time>2017-10-19T01:36:50Z</time>
      </trkpt>
      <trkpt lat="44.73794" lon="5.55431">
        <ele>875</ele>
        <time>2017-10-19T01:37:07Z</time>
      </trkpt>
      <trkpt lat="44.73809" lon="5.55458">
        <ele>874</ele>
        <time>2017-10-19T01:37:27Z</time>
      </trkpt>
      <trkpt lat="44.73814" lon="5.5547">
        <ele>873</ele>
        <time>2017-10-19T01:37:45Z</time>
      </trkpt>
      <trkpt lat="44.73813" lon="5.55481">
        <ele>873</ele>
        <time>2017-10-19T01:37:47Z</time>
      </trkpt>
      <trkpt lat="44.73802" lon="5.55495">
        <ele>872</ele>
        <time>2017-10-19T01:37:56Z</time>
      </trkpt>
      <trkpt lat="44.73785" lon="5.55513">
        <ele>868</ele>
        <time>2017-10-19T01:38:10Z</time>
      </trkpt>
      <trkpt lat="44.73779" lon="5.55517">
        <ele>867</ele>
        <time>2017-10-19T01:38:24Z</time>
      </trkpt>
      <trkpt lat="44.7377" lon="5.5552">
        <ele>867</ele>
        <time>2017-10-19T01:38:29Z</time>
      </trkpt>
      <trkpt lat="44.7376" lon="5.55521">
        <ele>867</ele>
        <time>2017-10-19T01:38:46Z</time>
      </trkpt>
      <trkpt lat="44.73755" lon="5.5552">
        <ele>867</ele>
        <time>2017-10-19T01:39:06Z</time>
      </trkpt>
      <trkpt lat="44.73747" lon="5.55515">
        <ele>868</ele>
        <time>2017-10-19T01:39:15Z</time>
      </trkpt>
      <trkpt lat="44.73726" lon="5.55492">
        <ele>866</ele>
        <time>2017-10-19T01:39:23Z</time>
      </trkpt>
      <trkpt lat="44.737" lon="5.55448">
        <ele>865</ele>
        <time>2017-10-19T01:39:32Z</time>
      </trkpt>
      <trkpt lat="44.73686" lon="5.55423">
        <ele>863</ele>
        <time>2017-10-19T01:39:47Z</time>
      </trkpt>
      <trkpt lat="44.7366" lon="5.55371">
        <ele>856</ele>
        <time>2017-10-19T01:40:06Z</time>
      </trkpt>
      <trkpt lat="44.73644" lon="5.55322">
        <ele>851</ele>
        <time>2017-10-19T01:40:22Z</time>
      </trkpt>
      <trkpt lat="44.73638" lon="5.55298">
        <ele>850</ele>
        <time>2017-10-19T01:40:39Z</time>
      </trkpt>
      <trkpt lat="44.73636" lon="5.55221">
        <ele>843</ele>
        <time>2017-10-19T01:40:47Z</time>
      </trkpt>
      <trkpt lat="44.73638" lon="5.55205">
        <ele>842</ele>
        <time>2017-10-19T01:40:49Z</time>
      </trkpt>
      <trkpt lat="44.7364" lon="5.552">
        <ele>842</ele>
        <time>2017-10-19T01:40:54Z</time>
      </trkpt>
      <trkpt lat="44.73647" lon="5.55193">
        <ele>842</ele>
        <time>2017-10-19T01:41:13Z</time>
      </trkpt>
      <trkpt lat="44.73657" lon="5.55188">
        <ele>841</ele>
        <time>2017-10-19T01:41:15Z</time>
      </trkpt>
      <trkpt lat="44.73696" lon="5.55188">
        <ele>851</ele>
        <time>2017-10-19T01:41:24Z</time>
      </trkpt>
      <trkpt lat="44.73714" lon="5.55181">
        <ele>852</ele>
        <time>2017-10-19T01:41:44Z</time>
      </trkpt>
      <trkpt lat="44.73736" lon="5.55162">
        <ele>845</ele>
        <time>2017-10-19T01:41:57Z</time>
      </trkpt>
      <trkpt lat="44.73782" lon="5.55105">
        <ele>846</ele>
        <time>2017-10-19T01:41:59Z</time>
      </trkpt>
      <trkpt lat="44.73828" lon="5.55045">
        <ele>834</ele>
        <time>2017-10-19T01:42:05Z</time>
      </trkpt>
      <trkpt lat="44.73845" lon="5.55012">
        <ele>838</ele>
        <time>2017-10-19T01:42:17Z</time>
      </trkpt>
      <trkpt lat="44.73874" lon="5.54939">
        <ele>830</ele>
        <time>2017-10-19T01:42:19Z</time>
      </trkpt>
      <trkpt lat="44.73887" lon="5.54916">
        <ele>828</ele>
        <time>2017-10-19T01:42:33Z</time>
      </trkpt>
      <trkpt lat="44.73905" lon="5.54892">
        <ele>830</ele>
        <time>2017-10-19T01:42:38Z</time>
      </trkpt>
      <trkpt lat="44.7392" lon="5.54875">
        <ele>840</ele>
        <time>2017-10-19T01:42:46Z</time>
      </trkpt>
      <trkpt lat="44.73925" lon="5.54858">
        <ele>840</ele>
        <time>2017-10-19T01:42:59Z</time>
      </trkpt>
      <trkpt lat="44.73925" lon="5.54849">
        <ele>840</ele>
        <time>2017-10-19T01:43:04Z</time>
      </trkpt>
      <trkpt lat="44.7392" lon="5.54838">
        <ele>838</ele>
        <time>2017-10-19T01:43:11Z</time>
      </trkpt>
      <trkpt lat="44.73912" lon="5.54833">
        <ele>838</ele>
        <time>2017-10-19T01:43:30Z</time>
      </trkpt>
      <trkpt lat="44.73887" lon="5.54825">
        <ele>843</ele>
        <time>2017-10-19T01:43:40Z</time>
      </trkpt>
      <trkpt lat="44.73863" lon="5.54818">
        <ele>842</ele>
        <time>2017-10-19T01:43:49Z</time>
      </trkpt>
      <trkpt lat="44.73843" lon="5.54821">
        <ele>837</ele>
        <time>2017-10-19T01:44:01Z</time>
      </trkpt>
      <trkpt lat="44.73773" lon="5.5485">
        <ele>821</ele>
        <time>2017-10-19T01:44:10Z</time>
      </trkpt>
      <trkpt lat="44.73757" lon="5.54852">
        <ele>822</ele>
        <time>2017-10-19T01:44:26Z</time>
      </trkpt>
      <trkpt lat="44.73739" lon="5.54847">
        <ele>820</ele>
        <time>2017-10-19T01:44:32Z</time>
      </trkpt>
      <trkpt lat="44.73705" lon="5.54845">
        <ele>817</ele>
        <time>2017-10-19T01:44:45Z</time>
      </trkpt>
      <trkpt lat="44.7367" lon="5.54852">
        <ele>819</ele>
        <time>2017-10-19T01:44:54Z</time>
      </trkpt>
      <trkpt lat="44.73654" lon="5.54856">
        <ele>811</ele>
        <time>2017-10-19T01:45:03Z</time>
      </trkpt>
      <trkpt lat="44.73638" lon="5.54856">
        <ele>809</ele>
        <time>2017-10-19T01:45:15Z</time>
      </trkpt>
      <trkpt lat="44.7362" lon="5.54849">
        <ele>807</ele>
        <time>2017-10-19T01:45:27Z</time>
      </trkpt>
      <trkpt lat="44.73606" lon="5.54839">
        <ele>807</ele>
        <time>2017-10-19T01:45:46Z</time>
      </trkpt>
      <trkpt lat="44.73589" lon="5.54826">
        <ele>817</ele>
        <time>2017-10-19T01:46:03Z</time>
      </trkpt>
      <trkpt lat="44.73568" lon="5.54817">
        <ele>813</ele>
        <time>2017-10-19T01:46:18Z</time>
      </trkpt>
      <trkpt lat="44.73552" lon="5.54805">
        <ele>814</ele>
        <time>2017-10-19T01:46:21Z</time>
      </trkpt>
      <trkpt lat="44.73535" lon="5.54789">
        <ele>815</ele>
        <time>2017-10-19T01:46:35Z</time>
      </trkpt>
      <trkpt lat="44.73514" lon="5.54776">
        <ele>816</ele>
        <time>2017-10-19T01:46:53Z</time>
      </trkpt>
      <trkpt lat="44.73496" lon="5.5477">
        <ele>808</ele>
        <time>2017-10-19T01:47:11Z</time>
      </trkpt>
      <trkpt lat="44.7344" lon="5.54755">
        <ele>802</ele>
        <time>2017-10-19T01:47:29Z</time>
      </trkpt>
      <trkpt lat="44.73417" lon="5.54753">
        <ele>805</ele>
        <time>2017-10-19T01:47:46Z</time>
      </trkpt>
      <trkpt lat="44.73394" lon="5.54748">
        <ele>816</ele>
        <time>2017-10-19T01:47:51Z</time>
      </trkpt>
      <trkpt lat="44.73374" lon="5.54747">
        <ele>818</ele>
        <time>2017-10-19T01:48:07Z</time>
      </trkpt>
      <trkpt lat="44.73356" lon="5.54751">
        <ele>798</ele>
        <time>2017-10-19T01:48:10Z</time>
      </trkpt>
      <trkpt lat="44.73335" lon="5.54762">
        <ele>800</ele>
        <time>2017-10-19T01:48:19Z</time>
      </trkpt>
      <trkpt lat="44.73319" lon="5.54776">
        <ele>797</ele>
        <time>2017-10-19T01:48:24Z</time>
      </trkpt>
      <trkpt lat="44.73302" lon="5.54789">
        <ele>794</ele>
        <time>2017-10-19T01:48:35Z</time>
      </trkpt>
      <trkpt lat="44.73289" lon="5.54792">
        <ele>794</ele>
        <time>2017-10-19T01:48:50Z</time>
      </trkpt>
      <trkpt lat="44.7328" lon="5.54798">
        <ele>794</ele>
        <time>2017-10-19T01:49:05Z</time>
      </trkpt>
      <trkpt lat="44.73245" lon="5.54821">
        <ele>788</ele>
        <time>2017-10-19T01:49:16Z</time>
      </trkpt>
      <trkpt lat="44.73234" lon="5.54835">
        <ele>780</ele>
        <time>2017-10-19T01:49:31Z</time>
      </trkpt>
      <trkpt lat="44.73228" lon="5.54843">
        <ele>779</ele>
        <time>2017-10-19T01:49:48Z</time>
      </trkpt>
      <trkpt lat="44.73219" lon="5.54849">
        <ele>778</ele>
        <time>2017-10-19T01:50:07Z</time>
      </trkpt>
      <trkpt lat="44.73209" lon="5.54851">
        <ele>777</ele>
        <time>2017-10-19T01:50:14Z</time>
      </trkpt>
      <trkpt lat="44.73198" lon="5.5485">
        <ele>777</ele>
        <time>2017-10-19T01:50:28Z</time>
      </trkpt>
      <trkpt lat="44.73182" lon="5.5484">
        <ele>777</ele>
        <time>2017-10-19T01:50:36Z</time>
      </trkpt>
      <trkpt lat="44.73151" lon="5.54813">
        <ele>781</ele>
        <time>2017-10-19T01:50:55Z</time>
      </trkpt>
      <trkpt lat="44.73101" lon="5.54776">
        <ele>784</ele>
        <time>2017-10-19T01:51:14Z</time>
      </trkpt>
      <trkpt lat="44.7309" lon="5.54771">
        <ele>784</ele>
        <time>2017-10-19T01:51:18Z</time>
      </trkpt>
      <trkpt lat="44.73068" lon="5.54772">
        <ele>780</ele>
        <time>2017-10-19T01:51:21Z</time>
      </trkpt>
      <trkpt lat="44.72987" lon="5.5479">
        <ele>775</ele>
        <time>2017-10-19T01:51:36Z</time>
      </trkpt>
      <trkpt lat="44.72953" lon="5.54807">
        <ele>771</ele>
        <time>2017-10-19T01:51:40Z</time>
      </trkpt>
      <trkpt lat="44.72939" lon="5.54808">
        <ele>769</ele>
        <time>2017-10-19T01:51:47Z</time>
      </trkpt>
      <trkpt lat="44.72919" lon="5.54804">
        <ele>769</ele>
        <time>2017-10-19T01:52:03Z</time>
      </trkpt>
      <trkpt lat="44.72871" lon="5.54791">
        <ele>766</ele>
        <time>2017-10-19T01:52:16Z</time>
      </trkpt>
      <trkpt lat="44.72811" lon="5.54783">
        <ele>755</ele>
        <time>2017-10-19T01:52:31Z</time>
      </trkpt>
      <trkpt lat="44.72792" lon="5.54775">
        <ele>754</ele>
        <time>2017-10-19T01:52:37Z</time>
      </trkpt>
      <trkpt lat="44.72771" lon="5.54758">
        <ele>755</ele>
        <time>2017-10-19T01:52:43Z</time>
      </trkpt>
      <trkpt lat="44.72747" lon="5.54741">
        <ele>762</ele>
        <time>2017-10-19T01:52:49Z</time>
      </trkpt>
      <trkpt lat="44.7269" lon="5.54714">
        <ele>765</ele>
        <time>2017-10-19T01:52:59Z</time>
      </trkpt>
      <trkpt lat="44.72674" lon="5.54708">
        <ele>765</ele>
        <time>2017-10-19T01:53:12Z</time>
      </trkpt>
      <trkpt lat="44.72659" lon="5.54706">
        <ele>755</ele>
        <time>2017-10-19T01:53:25Z</time>
      </trkpt>
      <trkpt lat="44.72639" lon="5.54711">
        <ele>752</ele>
        <time>2017-10-19T01:53:44Z</time>
      </trkpt>
      <trkpt lat="44.72618" lon="5.5471">
        <ele>751</ele>
        <time>2017-10-19T01:53:56Z</time>
      </trkpt>
      <trkpt lat="44.72577" lon="5.54697">
        <ele>741</ele>
        <time>2017-10-19T01:54:03Z</time>
      </trkpt>
      <trkpt lat="44.72559" lon="5.54686">
        <ele>741</ele>
        <time>2017-10-19T01:54:19Z</time>
      </trkpt>
      <trkpt lat="44.7255" lon="5.54678">
        <ele>740</ele>
        <time>2017-10-19T01:54:31Z</time>
      </trkpt>
      <trkpt lat="44.72544" lon="5.54669">
        <ele>739</ele>
        <time>2017-10-19T01:54:49Z</time>
      </trkpt>
      <trkpt lat="44.72517" lon="5.54643">
        <ele>753</ele>
        <time>2017-10-19T01:54:51Z</time>
      </trkpt>
      <trkpt lat="44.72484" lon="5.54611">
        <ele>734</ele>
        <time>2017-10-19T01:55:06Z</time>
      </trkpt>
      <trkpt lat="44.72473" lon="5.54595">
        <ele>734</ele>
        <time>2017-10-19T01:55:22Z</time>
      </trkpt>
      <trkpt lat="44.72467" lon="5.54581">
        <ele>740</ele>
        <time>2017-10-19T01:55:29Z</time>
      </trkpt>
      <trkpt lat="44.72463" lon="5.54564">
        <ele>738</ele>
        <time>2017-10-19T01:55:33Z</time>
      </trkpt>
      <trkpt lat="44.72459" lon="5.54515">
        <ele>740</ele>
        <time>2017-10-19T01:55:47Z</time>
      </trkpt>
      <trkpt lat="44.72452" lon="5.54412">
        <ele>752</ele>
        <time>2017-10-19T01:55:49Z</time>
      </trkpt>
      <trkpt lat="44.72448" lon="5.54391">
        <ele>753</ele>
        <time>2017-10-19T01:56:08Z</time>
      </trkpt>
      <trkpt lat="44.72438" lon="5.54369">
        <ele>752</ele>
        <time>2017-10-19T01:56:28Z</time>
      </trkpt>
      <trkpt lat="44.72423" lon="5.54317">
        <ele>754</ele>
        <time>2017-10-19T01:56:48Z</time>
      </trkpt>
      <trkpt lat="44.72416" lon="5.54298">
        <ele>731</ele>
        <time>2017-10-19T01:57:08Z</time>
      </trkpt>
      <trkpt lat="44.72404" lon="5.54285">
        <ele>731</ele>
        <time>2017-10-19T01:57:12Z</time>
      </trkpt>
      <trkpt lat="44.72386" lon="5.54261">
        <ele>731</ele>
        <time>2017-10-19T01:57:32Z</time>
      </trkpt>
      <trkpt lat="44.72377" lon="5.54243">
        <ele>738</ele>
        <time>2017-10-19T01:57:51Z</time>
      </trkpt>
      <trkpt lat="44.72371" lon="5.54221">
        <ele>738</ele>
        <time>2017-10-19T01:58:06Z</time>
      </trkpt>
      <trkpt lat="44.72367" lon="5.54199">
        <ele>738</ele>
        <time>2017-10-19T01:58:15Z</time>
      </trkpt>
      <trkpt lat="44.72359" lon="5.54182">
        <ele>737</ele>
        <time>2017-10-19T01:58:20Z</time>
      </trkpt>
      <trkpt lat="44.72344" lon="5.54164">
        <ele>736</ele>
        <time>2017-10-19T01:58:35Z</time>
      </trkpt>
      <trkpt lat="44.72328" lon="5.5413">
        <ele>720</ele>
        <time>2017-10-19T01:58:45Z</time>
      </trkpt>
      <trkpt lat="44.72312" lon="5.54098">
        <ele>723</ele>
        <time>2017-10-19T01:58:58Z</time>
      </trkpt>
      <trkpt lat="44.72309" lon="5.54094">
        <ele>723</ele>
        <time>2017-10-19T01:59:03Z</time>
      </trkpt>
      <trkpt lat="44.72304" lon="5.54092">
        <ele>721</ele>
        <time>2017-10-19T01:59:20Z</time>
      </trkpt>
      <trkpt lat="44.72299" lon="5.54094">
        <ele>719</ele>
        <time>2017-10-19T01:59:32Z</time>
      </trkpt>
      <trkpt lat="44.72298" lon="5.54105">
        <ele>718</ele>
        <time>2017-10-19T01:59:36Z</time>
      </trkpt>
      <trkpt lat="44.72303" lon="5.54116">
        <ele>718</ele>
        <time>2017-10-19T01:59:55Z</time>
      </trkpt>
      <trkpt lat="44.72315" lon="5.54135">
        <ele>718</ele>
        <time>2017-10-19T01:59:59Z</time>
      </trkpt>
      <trkpt lat="44.72342" lon="5.542">
        <ele>733</ele>
        <time>2017-10-19T02:00:11Z</time>
      </trkpt>
      <trkpt lat="44.72365" lon="5.54274">
        <ele>721</ele>
        <time>2017-10-19T02:00:24Z</time>
      </trkpt>
      <trkpt lat="44.7238" lon="5.54319">
        <ele>722</ele>
        <time>2017-10-19T02:00:43Z</time>
      </trkpt>
      <trkpt lat="44.72389" lon="5.54364">
        <ele>715</ele>
        <time>2017-10-19T02:01:02Z</time>
      </trkpt>
      <trkpt lat="44.72394" lon="5.54401">
        <ele>716</ele>
        <time>2017-10-19T02:01:10Z</time>
      </trkpt>
      <trkpt lat="44.72404" lon="5.54433">
        <ele>716</ele>
        <time>2017-10-19T02:01:18Z</time>
      </trkpt>
      <trkpt lat="44.7241" lon="5.54453">
        <ele>714</ele>
        <time>2017-10-19T02:01:24Z</time>
      </trkpt>
      <trkpt lat="44.7241" lon="5.54459">
        <ele>713</ele>
        <time>2017-10-19T02:01:35Z</time>
      </trkpt>
      <trkpt lat="44.72408" lon="5.54467">
        <ele>713</ele>
        <time>2017-10-19T02:01:42Z</time>
      </trkpt>
      <trkpt lat="44.72404" lon="5.5447">
        <ele>713</ele>
        <time>2017-10-19T02:01:44Z</time>
      </trkpt>
      <trkpt lat="44.72398" lon="5.54462">
        <ele>712</ele>
        <time>2017-10-19T02:01:53Z</time>
      </trkpt>
      <trkpt lat="44.72377" lon="5.54399">
        <ele>711</ele>
        <time>2017-10-19T02:01:57Z</time>
      </trkpt>
      <trkpt lat="44.72342" lon="5.54298">
        <ele>714</ele>
        <time>2017-10-19T02:02:16Z</time>
      </trkpt>
      <trkpt lat="44.72335" lon="5.54284">
        <ele>715</ele>
        <time>2017-10-19T02:02:24Z</time>
      </trkpt>
      <trkpt lat="44.72316" lon="5.54259">
        <ele>700</ele>
        <time>2017-10-19T02:02:38Z</time>
      </trkpt>
      <trkpt lat="44.72303" lon="5.54236">
        <ele>701</ele>
        <time>2017-10-19T02:02:40Z</time>
      </trkpt>
      <trkpt lat="44.72293" lon="5.54208">
        <ele>701</ele>
        <time>2017-10-19T02:02:53Z</time>
      </trkpt>
      <trkpt lat="44.7227" lon="5.54166">
        <ele>703</ele>
        <time>2017-10-19T02:03:06Z</time>
      </trkpt>
      <trkpt lat="44.72241" lon="5.54124">
        <ele>692</ele>
        <time>2017-10-19T02:03:12Z</time>
      </trkpt>
      <trkpt lat="44.72219" lon="5.54105">
        <ele>692</ele>
        <time>2017-10-19T02:03:28Z</time>
      </trkpt>
      <trkpt lat="44.72209" lon="5.54094">
        <ele>691</ele>
        <time>2017-10-19T02:03:40Z</time>
      </trkpt>
      <trkpt lat="44.72198" lon="5.54071">
        <ele>697</ele>
        <time>2017-10-19T02:03:54Z</time>
      </trkpt>
      <trkpt lat="44.72189" lon="5.54055">
        <ele>698</ele>
        <time>2017-10-19T02:04:02Z</time>
      </trkpt>
      <trkpt lat="44.72178" lon="5.54041">
        <ele>698</ele>
        <time>2017-10-19T02:04:15Z</time>
      </trkpt>
      <trkpt lat="44.72162" lon="5.54019">
        <ele>691</ele>
        <time>2017-10-19T02:04:24Z</time>
      </trkpt>
      <trkpt lat="44.72144" lon="5.53973">
        <ele>691</ele>
        <time>2017-10-19T02:04:39Z</time>
      </trkpt>
      <trkpt lat="44.72138" lon="5.53951">
        <ele>691</ele>
        <time>2017-10-19T02:04:44Z</time>
      </trkpt>
      <trkpt lat="44.72135" lon="5.53931">
        <ele>692</ele>
        <time>2017-10-19T02:04:48Z</time>
      </trkpt>
      <trkpt lat="44.7213" lon="5.5385">
        <ele>692</ele>
        <time>2017-10-19T02:04:51Z</time>
      </trkpt>
      <trkpt lat="44.72131" lon="5.53826">
        <ele>692</ele>
        <time>2017-10-19T02:05:02Z</time>
      </trkpt>
      <trkpt lat="44.72138" lon="5.53785">
        <ele>693</ele>
        <time>2017-10-19T02:05:07Z</time>
      </trkpt>
      <trkpt lat="44.72139" lon="5.53772">
        <ele>694</ele>
        <time>2017-10-19T02:05:15Z</time>
      </trkpt>
      <trkpt lat="44.72137" lon="5.53753">
        <ele>694</ele>
        <time>2017-10-19T02:05:34Z</time>
      </trkpt>
      <trkpt lat="44.7213" lon="5.53727">
        <ele>697</ele>
        <time>2017-10-19T02:05:44Z</time>
      </trkpt>
      <trkpt lat="44.72112" lon="5.5369">
        <ele>695</ele>
        <time>2017-10-19T02:05:57Z</time>
      </trkpt>
      <trkpt lat="44.72082" lon="5.53642">
        <ele>684</ele>
        <time>2017-10-19T02:06:15Z</time>
      </trkpt>
      <trkpt lat="44.72065" lon="5.53624">
        <ele>687</ele>
        <time>2017-10-19T02:06:35Z</time>
      </trkpt>
      <trkpt lat="44.72047" lon="5.53611">
        <ele>687</ele>
        <time>2017-10-19T02:06:48Z</time>
      </trkpt>
      <trkpt lat="44.72013" lon="5.53598">
        <ele>680</ele>
        <time>2017-10-19T02:07:00Z</time>
      </trkpt>
      <trkpt lat="44.72" lon="5.53589">
        <ele>675</ele>
        <time>2017-10-19T02:07:04Z</time>
      </trkpt>
      <trkpt lat="44.71988" lon="5.53568">
        <ele>679</ele>
        <time>2017-10-19T02:07:17Z</time>
      </trkpt>
      <trkpt lat="44.71958" lon="5.53513">
        <ele>682</ele>
        <time>2017-10-19T02:07:33Z</time>
      </trkpt>
      <trkpt lat="44.71939" lon="5.53496">
        <ele>690</ele>
        <time>2017-10-19T02:07:53Z</time>
      </trkpt>
      <trkpt lat="44.71915" lon="5.53481">
        <ele>675</ele>
        <time>2017-10-19T02:08:07Z</time>
      </trkpt>
      <trkpt lat="44.71891" lon="5.5347">
        <ele>677</ele>
        <time>2017-10-19T02:08:23Z</time>
      </trkpt>
      <trkpt lat="44.71872" lon="5.53462">
        <ele>676</ele>
        <time>2017-10-19T02:08:41Z</time>
      </trkpt>
      <trkpt lat="44.71851" lon="5.53457">
        <ele>674</ele>
        <time>2017-10-19T02:08:50Z</time>
      </trkpt>
      <trkpt lat="44.71822" lon="5.53449">
        <ele>666</ele>
        <time>2017-10-19T02:08:53Z</time>
      </trkpt>
      <trkpt lat="44.71807" lon="5.53441">
        <ele>666</ele>
        <time>2017-10-19T02:09:10Z</time>
      </trkpt>
      <trkpt lat="44.71797" lon="5.53427">
        <ele>666</ele>
        <time>2017-10-19T02:09:18Z</time>
      </trkpt>
      <trkpt lat="44.71756" lon="5.53359">
        <ele>677</ele>
        <time>2017-10-19T02:09:23Z</time>
      </trkpt>
      <trkpt lat="44.71738" lon="5.53328">
        <ele>674</ele>
        <time>2017-10-19T02:09:32Z</time>
      </trkpt>
      <trkpt lat="44.71705" lon="5.53285">
        <ele>671</ele>
        <time>2017-10-19T02:09:47Z</time>
      </trkpt>
      <trkpt lat="44.71686" lon="5.53264">
        <ele>667</ele>
        <time>2017-10-19T02:09:55Z</time>
      </trkpt>
      <trkpt lat="44.71667" lon="5.53238">
        <ele>670</ele>
        <time>2017-10-19T02:10:06Z</time>
      </trkpt>
      <trkpt lat="44.71652" lon="5.53222">
        <ele>660</ele>
        <time>2017-10-19T02:10:23Z</time>
      </trkpt>
      <trkpt lat="44.71625" lon="5.53199">
        <ele>660</ele>
        <time>2017-10-19T02:10:35Z</time>
      </trkpt>
      <trkpt lat="44.71606" lon="5.53182">
        <ele>657</ele>
        <time>2017-10-19T02:10:51Z</time>
      </trkpt>
      <trkpt lat="44.71598" lon="5.53167">
        <ele>655</ele>
        <time>2017-10-19T02:11:06Z</time>
      </trkpt>
      <trkpt lat="44.71588" lon="5.53129">
        <ele>663</ele>
        <time>2017-10-19T02:11:08Z</time>
      </trkpt>
      <trkpt lat="44.71569" lon="5.53051">
        <ele>652</ele>
        <time>2017-10-19T02:11:28Z</time>
      </trkpt>
      <trkpt lat="44.71552" lon="5.52967">
        <ele>646</ele>
        <time>2017-10-19T02:11:46Z</time>
      </trkpt>
      <trkpt lat="44.71533" lon="5.52898">
        <ele>642</ele>
        <time>2017-10-19T02:12:03Z</time>
      </trkpt>
      <trkpt lat="44.71516" lon="5.52842">
        <ele>642</ele>
        <time>2017-10-19T02:12:18Z</time>
      </trkpt>
      <trkpt lat="44.71507" lon="5.52829">
        <ele>647</ele>
        <time>2017-10-19T02:12:38Z</time>
      </trkpt>
      <trkpt lat="44.71474" lon="5.52831">
        <ele>653</ele>
        <time>2017-10-19T02:12:42Z</time>
      </trkpt>
      <trkpt lat="44.71415" lon="5.52818">
        <ele>654</ele>
        <time>2017-10-19T02:12:45Z</time>
      </trkpt>
      <trkpt lat="44.71396" lon="5.52818">
        <ele>658</ele>
        <time>2017-10-19T02:12:47Z</time>
      </trkpt>
      <trkpt lat="44.71369" lon="5.52822">
        <ele>660</ele>
        <time>2017-10-19T02:12:55Z</time>
      </trkpt>
      <trkpt lat="44.7132" lon="5.52827">
        <ele>660</ele>
        <time>2017-10-19T02:13:05Z</time>
      </trkpt>
      <trkpt lat="44.71266" lon="5.52846">
        <ele>650</ele>
        <time>2017-10-19T02:13:18Z</time>
      </trkpt>
      <trkpt lat="44.71218" lon="5.52851">
        <ele>651</ele>
        <time>2017-10-19T02:13:30Z</time>
      </trkpt>
      <trkpt lat="44.71177" lon="5.52853">
        <ele>653</ele>
        <time>2017-10-19T02:13:46Z</time>
      </trkpt>
      <trkpt lat="44.71122" lon="5.52854">
        <ele>650</ele>
        <time>2017-10-19T02:13:53Z</time>
      </trkpt>
      <trkpt lat="44.71091" lon="5.52853">
        <ele>652</ele>
        <time>2017-10-19T02:14:08Z</time>
      </trkpt>
      <trkpt lat="44.71062" lon="5.52843">
        <ele>647</ele>
        <time>2017-10-19T02:14:21Z</time>
      </trkpt>
      <trkpt lat="44.71028" lon="5.52826">
        <ele>660</ele>
        <time>2017-10-19T02:14:25Z</time>
      </trkpt>
      <trkpt lat="44.70999" lon="5.52821">
        <ele>645</ele>
        <time>2017-10-19T02:14:35Z</time>
      </trkpt>
      <trkpt lat="44.70972" lon="5.52816">
        <ele>648</ele>
        <time>2017-10-19T02:14:40Z</time>
      </trkpt>
      <trkpt lat="44.7095" lon="5.52802">
        <ele>649</ele>
        <time>2017-10-19T02:14:57Z</time>
      </trkpt>
      <trkpt lat="44.70907" lon="5.5276">
        <ele>648</ele>
        <time>2017-10-19T02:15:11Z</time>
      </trkpt>
      <trkpt lat="44.70896" lon="5.52752">
        <ele>646</ele>
        <time>2017-10-19T02:15:15Z</time>
      </trkpt>
      <trkpt lat="44.70877" lon="5.52748">
        <ele>661</ele>
        <time>2017-10-19T02:15:30Z</time>
      </trkpt>
      <trkpt lat="44.70815" lon="5.52754">
        <ele>638</ele>
        <time>2017-10-19T02:15:35Z</time>
      </trkpt>
      <trkpt lat="44.70776" lon="5.52747">
        <ele>651</ele>
        <time>2017-10-19T02:15:38Z</time>
      </trkpt>
      <trkpt lat="44.70705" lon="5.52728">
        <ele>651</ele>
        <time>2017-10-19T02:15:44Z</time>
      </trkpt>
      <trkpt lat="44.70656" lon="5.52719">
        <ele>650</ele>
        <time>2017-10-19T02:15:58Z</time>
      </trkpt>
      <trkpt lat="44.70627" lon="5.52721">
        <ele>652</ele>
        <time>2017-10-19T02:16:14Z</time>
      </trkpt>
      <trkpt lat="44.7059" lon="5.52742">
        <ele>643</ele>
        <time>2017-10-19T02:16:29Z</time>
      </trkpt>
      <trkpt lat="44.7055" lon="5.52766">
        <ele>630</ele>
        <time>2017-10-19T02:16:48Z</time>
      </trkpt>
      <trkpt lat="44.70536" lon="5.52771">
        <ele>630</ele>
        <time>2017-10-19T02:16:54Z</time>
      </trkpt>
      <trkpt lat="44.70522" lon="5.52772">
        <ele>630</ele>
        <time>2017-10-19T02:17:04Z</time>
      </trkpt>
      <trkpt lat="44.7051" lon="5.52769">
        <ele>630</ele>
        <time>2017-10-19T02:17:10Z</time>
      </trkpt>
      <trkpt lat="44.705" lon="5.52763">
        <ele>630</ele>
        <time>2017-10-19T02:17:21Z</time>
      </trkpt>
      <trkpt lat="44.70488" lon="5.52754">
        <ele>630</ele>
        <time>2017-10-19T02:17:36Z</time>
      </trkpt>
      <trkpt lat="44.70478" lon="5.5275">
        <ele>640</ele>
        <time>2017-10-19T02:17:41Z</time>
      </trkpt>
      <trkpt lat="44.7042" lon="5.52744">
        <ele>631</ele>
        <time>2017-10-19T02:17:53Z</time>
      </trkpt>
      <trkpt lat="44.70361" lon="5.52728">
        <ele>632</ele>
        <time>2017-10-19T02:18:01Z</time>
      </trkpt>
      <trkpt lat="44.70346" lon="5.52718">
        <ele>633</ele>
        <time>2017-10-19T02:18:04Z</time>
      </trkpt>
      <trkpt lat="44.70329" lon="5.52699">
        <ele>630</ele>
        <time>2017-10-19T02:18:24Z</time>
      </trkpt>
      <trkpt lat="44.70316" lon="5.52684">
        <ele>632</ele>
        <time>2017-10-19T02:18:30Z</time>
      </trkpt>
      <trkpt lat="44.703" lon="5.5267">
        <ele>630</ele>
        <time>2017-10-19T02:18:37Z</time>
      </trkpt>
      <trkpt lat="44.70278" lon="5.52664">
        <ele>637</ele>
        <time>2017-10-19T02:18:49Z</time>
      </trkpt>
      <trkpt lat="44.70232" lon="5.52648">
        <ele>629</ele>
        <time>2017-10-19T02:18:51Z</time>
      </trkpt>
      <trkpt lat="44.70154" lon="5.52604">
        <ele>627</ele>
        <time>2017-10-19T02:19:05Z</time>
      </trkpt>
      <trkpt lat="44.70139" lon="5.52594">
        <ele>626</ele>
        <time>2017-10-19T02:19:09Z</time>
      </trkpt>
      <trkpt lat="44.70103" lon="5.52561">
        <ele>635</ele>
        <time>2017-10-19T02:19:19Z</time>
      </trkpt>
      <trkpt lat="44.7001" lon="5.5247">
        <ele>635</ele>
        <time>2017-10-19T02:19:29Z</time>
      </trkpt>
      <trkpt lat="44.69978" lon="5.5244">
        <ele>627</ele>
        <time>2017-10-19T02:19:38Z</time>
      </trkpt>
      <trkpt lat="44.69957" lon="5.52424">
        <ele>626</ele>
        <time>2017-10-19T02:19:50Z</time>
      </trkpt>
      <trkpt lat="44.69934" lon="5.52412">
        <ele>635</ele>
        <time>2017-10-19T02:20:03Z</time>
      </trkpt>
      <trkpt lat="44.6991" lon="5.52397">
        <ele>625</ele>
        <time>2017-10-19T02:20:17Z</time>
      </trkpt>
      <trkpt lat="44.69902" lon="5.52389">
        <ele>626</ele>
        <time>2017-10-19T02:20:21Z</time>
      </trkpt>
      <trkpt lat="44.69885" lon="5.52368">
        <ele>627</ele>
        <time>2017-10-19T02:20:23Z</time>
      </trkpt>
      <trkpt lat="44.69869" lon="5.5235">
        <ele>627</ele>
        <time>2017-10-19T02:20:41Z</time>
      </trkpt>
      <trkpt lat="44.69846" lon="5.52335">
        <ele>623</ele>
        <time>2017-10-19T02:20:43Z</time>
      </trkpt>
      <trkpt lat="44.69808" lon="5.52317">
        <ele>625</ele>
        <time>2017-10-19T02:20:51Z</time>
      </trkpt>
      <trkpt lat="44.69768" lon="5.52301">
        <ele>626</ele>
        <time>2017-10-19T02:21:02Z</time>
      </trkpt>
      <trkpt lat="44.69747" lon="5.52296">
        <ele>623</ele>
        <time>2017-10-19T02:21:08Z</time>
      </trkpt>
      <trkpt lat="44.6972" lon="5.52295">
        <ele>623</ele>
        <time>2017-10-19T02:21:13Z</time>
      </trkpt>
      <trkpt lat="44.69698" lon="5.52298">
        <ele>622</ele>
        <time>2017-10-19T02:21:16Z</time>
      </trkpt>
      <trkpt lat="44.69672" lon="5.52305">
        <ele>619</ele>
        <time>2017-10-19T02:21:29Z</time>
      </trkpt>
      <trkpt lat="44.69652" lon="5.52302">
        <ele>617</ele>
        <time>2017-10-19T02:21:47Z</time>
      </trkpt>
      <trkpt lat="44.69622" lon="5.52289">
        <ele>618</ele>
        <time>2017-10-19T02:22:00Z</time>
      </trkpt>
      <trkpt lat="44.69604" lon="5.52285">
        <ele>618</ele>
        <time>2017-10-19T02:22:06Z</time>
      </trkpt>
      <trkpt lat="44.69566" lon="5.52295">
        <ele>614</ele>
        <time>2017-10-19T02:22:12Z</time>
      </trkpt>
      <trkpt lat="44.69559" lon="5.52295">
        <ele>614</ele>
        <time>2017-10-19T02:22:32Z</time>
      </trkpt>
      <trkpt lat="44.69546" lon="5.52291">
        <ele>614</ele>
        <time>2017-10-19T02:22:44Z</time>
      </trkpt>
      <trkpt lat="44.69528" lon="5.52281">
        <ele>614</ele>
        <time>2017-10-19T02:23:02Z</time>
      </trkpt>
      <trkpt lat="44.69473" lon="5.52233">
        <ele>615</ele>
        <time>2017-10-19T02:23:17Z</time>
      </trkpt>
      <trkpt lat="44.69442" lon="5.52205">
        <ele>617</ele>
        <time>2017-10-19T02:23:25Z</time>
      </trkpt>
      <trkpt lat="44.69425" lon="5.52198">
        <ele>618</ele>
        <time>2017-10-19T02:23:28Z</time>
      </trkpt>
      <trkpt lat="44.69408" lon="5.52197">
        <ele>613</ele>
        <time>2017-10-19T02:23:48Z</time>
      </trkpt>
      <trkpt lat="44.69391" lon="5.52201">
        <ele>612</ele>
        <time>2017-10-19T02:24:07Z</time>
      </trkpt>
      <trkpt lat="44.69372" lon="5.52203">
        <ele>611</ele>
        <time>2017-10-19T02:24:09Z</time>
      </trkpt>
      <trkpt lat="44.69358" lon="5.52201">
        <ele>611</ele>
        <time>2017-10-19T02:24:11Z</time>
      </trkpt>
      <trkpt lat="44.69335" lon="5.52183">
        <ele>611</ele>
        <time>2017-10-19T02:24:28Z</time>
      </trkpt>
      <trkpt lat="44.69319" lon="5.52165">
        <ele>612</ele>
        <time>2017-10-19T02:24:34Z</time>
      </trkpt>
      <trkpt lat="44.69304" lon="5.52143">
        <ele>614</ele>
        <time>2017-10-19T02:24:43Z</time>
      </trkpt>
      <trkpt lat="44.69285" lon="5.52104">
        <ele>615</ele>
        <time>2017-10-19T02:24:57Z</time>
      </trkpt>
      <trkpt lat="44.69277" lon="5.52086">
        <ele>613</ele>
        <time>2017-10-19T02:25:06Z</time>
      </trkpt>
      <trkpt lat="44.69266" lon="5.52073">
        <ele>622</ele>
        <time>2017-10-19T02:25:15Z</time>
      </trkpt>
      <trkpt lat="44.69248" lon="5.52058">
        <ele>611</ele>
        <time>2017-10-19T02:25:33Z</time>
      </trkpt>
      <trkpt lat="44.69205" lon="5.52033">
        <ele>612</ele>
        <time>2017-10-19T02:25:46Z</time>
      </trkpt>
      <trkpt lat="44.69174" lon="5.52007">
        <ele>609</ele>
        <time>2017-10-19T02:25:49Z</time>
      </trkpt>
      <trkpt lat="44.69142" lon="5.51978">
        <ele>616</ele>
        <time>2017-10-19T02:25:59Z</time>
      </trkpt>
      <trkpt lat="44.69098" lon="5.51942">
        <ele>618</ele>
        <time>2017-10-19T02:26:02Z</time>
      </trkpt>
      <trkpt lat="44.69076" lon="5.51932">
        <ele>614</ele>
        <time>2017-10-19T02:26:12Z</time>
      </trkpt>
      <trkpt lat="44.69048" lon="5.51926">
        <ele>611</ele>
        <time>2017-10-19T02:26:31Z</time>
      </trkpt>
      <trkpt lat="44.69014" lon="5.5192">
        <ele>610</ele>
        <time>2017-10-19T02:26:51Z</time>
      </trkpt>
      <trkpt lat="44.68983" lon="5.5191">
        <ele>616</ele>
        <time>2017-10-19T02:27:01Z</time>
      </trkpt>
      <trkpt lat="44.68931" lon="5.51882">
        <ele>616</ele>
        <time>2017-10-19T02:27:13Z</time>
      </trkpt>
      <trkpt lat="44.68904" lon="5.51863">
        <ele>608</ele>
        <time>2017-10-19T02:27:18Z</time>
      </trkpt>
      <trkpt lat="44.68895" lon="5.51853">
        <ele>609</ele>
        <time>2017-10-19T02:27:22Z</time>
      </trkpt>
      <trkpt lat="44.68875" lon="5.51826">
        <ele>617</ele>
        <time>2017-10-19T02:27:31Z</time>
      </trkpt>
      <trkpt lat="44.68838" lon="5.51771">
        <ele>613</ele>
        <time>2017-10-19T02:27:40Z</time>
      </trkpt>
      <trkpt lat="44.68825" lon="5.51747">
        <ele>605</ele>
        <time>2017-10-19T02:27:55Z</time>
      </trkpt>
      <trkpt lat="44.68819" lon="5.51729">
        <ele>604</ele>
        <time>2017-10-19T02:28:01Z</time>
      </trkpt>
      <trkpt lat="44.68808" lon="5.51682">
        <ele>606</ele>
        <time>2017-10-19T02:28:20Z</time>
      </trkpt>
      <trkpt lat="44.68797" lon="5.51619">
        <ele>607</ele>
        <time>2017-10-19T02:28:24Z</time>
      </trkpt>
      <trkpt lat="44.68792" lon="5.5157">
        <ele>603</ele>
        <time>2017-10-19T02:28:38Z</time>
      </trkpt>
      <trkpt lat="44.68793" lon="5.51547">
        <ele>602</ele>
        <time>2017-10-19T02:28:55Z</time>
      </trkpt>
      <trkpt lat="44.68801" lon="5.51516">
        <ele>601</ele>
        <time>2017-10-19T02:29:10Z</time>
      </trkpt>
      <trkpt lat="44.68811" lon="5.51496">
        <ele>597</ele>
        <time>2017-10-19T02:29:26Z</time>
      </trkpt>
      <trkpt lat="44.68844" lon="5.51449">
        <ele>611</ele>
        <time>2017-10-19T02:29:39Z</time>
      </trkpt>
      <trkpt lat="44.6886" lon="5.51425">
        <ele>611</ele>
        <time>2017-10-19T02:29:44Z</time>
      </trkpt>
      <trkpt lat="44.68867" lon="5.5141">
        <ele>606</ele>
        <time>2017-10-19T02:30:02Z</time>
      </trkpt>
      <trkpt lat="44.68875" lon="5.51373">
        <ele>607</ele>
        <time>2017-10-19T02:30:20Z</time>
      </trkpt>
      <trkpt lat="44.68885" lon="5.51322">
        <ele>604</ele>
        <time>2017-10-19T02:30:38Z</time>
      </trkpt>
      <trkpt lat="44.68903" lon="5.51263">
        <ele>602</ele>
        <time>2017-10-19T02:30:49Z</time>
      </trkpt>
      <trkpt lat="44.68913" lon="5.51242">
        <ele>600</ele>
        <time>2017-10-19T02:30:55Z</time>
      </trkpt>
      <trkpt lat="44.68925" lon="5.51224">
        <ele>607</ele>
        <time>2017-10-19T02:31:13Z</time>
      </trkpt>
      <trkpt lat="44.68964" lon="5.5118">
        <ele>608</ele>
        <time>2017-10-19T02:31:15Z</time>
      </trkpt>
      <trkpt lat="44.68975" lon="5.51166">
        <ele>599</ele>
        <time>2017-10-19T02:31:29Z</time>
      </trkpt>
      <trkpt lat="44.68984" lon="5.51148">
        <ele>599</ele>
        <time>2017-10-19T02:31:46Z</time>
      </trkpt>
      <trkpt lat="44.69" lon="5.5111">
        <ele>595</ele>
        <time>2017-10-19T02:32:03Z</time>
      </trkpt>
      <trkpt lat="44.69011" lon="5.51086">
        <ele>603</ele>
        <time>2017-10-19T02:32:11Z</time>
      </trkpt>
      <trkpt lat="44.6902" lon="5.51072">
        <ele>598</ele>
        <time>2017-10-19T02:32:15Z</time>
      </trkpt>
      <trkpt lat="44.69041" lon="5.51045">
        <ele>601</ele>
        <time>2017-10-19T02:32:34Z</time>
      </trkpt>
      <trkpt lat="44.69066" lon="5.51012">
        <ele>603</ele>
        <time>2017-10-19T02:32:41Z</time>
      </trkpt>
      <trkpt lat="44.69078" lon="5.50985">
        <ele>599</ele>
        <time>2017-10-19T02:32:51Z</time>
      </trkpt>
      <trkpt lat="44.6908" lon="5.50965">
        <ele>595</ele>
        <time>2017-10-19T02:32:58Z</time>
      </trkpt>
      <trkpt lat="44.6908" lon="5.50935">
        <ele>594</ele>
        <time>2017-10-19T02:33:03Z</time>
      </trkpt>
      <trkpt lat="44.69081" lon="5.50911">
        <ele>593</ele>
        <time>2017-10-19T02:33:10Z</time>
      </trkpt>
      <trkpt lat="44.69086" lon="5.50894">
        <ele>602</ele>
        <time>2017-10-19T02:33:17Z</time>
      </trkpt>
      <trkpt lat="44.69094" lon="5.50869">
        <ele>602</ele>
        <time>2017-10-19T02:33:20Z</time>
      </trkpt>
      <trkpt lat="44.69107" lon="5.50809">
        <ele>596</ele>
        <time>2017-10-19T02:33:25Z</time>
      </trkpt>
      <trkpt lat="44.69117" lon="5.50754">
        <ele>595</ele>
        <time>2017-10-19T02:33:28Z</time>
      </trkpt>
      <trkpt lat="44.69128" lon="5.50711">
        <ele>593</ele>
        <time>2017-10-19T02:33:44Z</time>
      </trkpt>
      <trkpt lat="44.69142" lon="5.50674">
        <ele>595</ele>
        <time>2017-10-19T02:33:54Z</time>
      </trkpt>
      <trkpt lat="44.6917" lon="5.50614">
        <ele>609</ele>
        <time>2017-10-19T02:34:11Z</time>
      </trkpt>
      <trkpt lat="44.69179" lon="5.50586">
        <ele>604</ele>
        <time>2017-10-19T02:34:18Z</time>
      </trkpt>
      <trkpt lat="44.69186" lon="5.50537">
        <ele>605</ele>
        <time>2017-10-19T02:34:36Z</time>
      </trkpt>
      <trkpt lat="44.69192" lon="5.50502">
        <ele>603</ele>
        <time>2017-10-19T02:34:52Z</time>
      </trkpt>
      <trkpt lat="44.69199" lon="5.50468">
        <ele>601</ele>
        <time>2017-10-19T02:34:57Z</time>
      </trkpt>
      <trkpt lat="44.69223" lon="5.50405">
        <ele>603</ele>
        <time>2017-10-19T02:35:13Z</time>
      </trkpt>
      <trkpt lat="44.69227" lon="5.50387">
        <ele>602</ele>
        <time>2017-10-19T02:35:32Z</time>
      </trkpt>
      <trkpt lat="44.69229" lon="5.50366">
        <ele>601</ele>
        <time>2017-10-19T02:35:34Z</time>
      </trkpt>
      <trkpt lat="44.69227" lon="5.50346">
        <ele>601</ele>
        <time>2017-10-19T02:35:44Z</time>
      </trkpt>
      <trkpt lat="44.69221" lon="5.50325">
        <ele>599</ele>
        <time>2017-10-19T02:35:56Z</time>
      </trkpt>
      <trkpt lat="44.69209" lon="5.50289">
        <ele>596</ele>
        <time>2017-10-19T02:36:06Z</time>
      </trkpt>
      <trkpt lat="44.69206" lon="5.50256">
        <ele>596</ele>
        <time>2017-10-19T02:36:11Z</time>
      </trkpt>
      <trkpt lat="44.69209" lon="5.50223">
        <ele>596</ele>
        <time>2017-10-19T02:36:15Z</time>
      </trkpt>
      <trkpt lat="44.69219" lon="5.50188">
        <ele>598</ele>
        <time>2017-10-19T02:36:22Z</time>
      </trkpt>
      <trkpt lat="44.69227" lon="5.50151">
        <ele>600</ele>
        <time>2017-10-19T02:36:33Z</time>
      </trkpt>
      <trkpt lat="44.6923" lon="5.50113">
        <ele>599</ele>
        <time>2017-10-19T02:36:36Z</time>
      </trkpt>
      <trkpt lat="44.69229" lon="5.50082">
        <ele>600</ele>
        <time>2017-10-19T02:36:50Z</time>
      </trkpt>
      <trkpt lat="44.69221" lon="5.50013">
        <ele>598</ele>
        <time>2017-10-19T02:36:56Z</time>
      </trkpt>
      <trkpt lat="44.69216" lon="5.49977">
        <ele>593</ele>
        <time>2017-10-19T02:37:06Z</time>
      </trkpt>
      <trkpt lat="44.69215" lon="5.49962">
        <ele>591</ele>
        <time>2017-10-19T02:37:14Z</time>
      </trkpt>
      <trkpt lat="44.69221" lon="5.49937">
        <ele>591</ele>
        <time>2017-10-19T02:37:19Z</time>
      </trkpt>
      <trkpt lat="44.69262" lon="5.49846">
        <ele>596</ele>
        <time>2017-10-19T02:37:36Z</time>
      </trkpt>
      <trkpt lat="44.69326" lon="5.4971">
        <ele>583</ele>
        <time>2017-10-19T02:37:52Z</time>
      </trkpt>
      <trkpt lat="44.6935" lon="5.49658">
        <ele>590</ele>
        <time>2017-10-19T02:37:57Z</time>
      </trkpt>
      <trkpt lat="44.69361" lon="5.49624">
        <ele>593</ele>
        <time>2017-10-19T02:38:04Z</time>
      </trkpt>
      <trkpt lat="44.69367" lon="5.4958">
        <ele>587</ele>
        <time>2017-10-19T02:38:14Z</time>
      </trkpt>
      <trkpt lat="44.69376" lon="5.49474">
        <ele>584</ele>
        <time>2017-10-19T02:38:26Z</time>
      </trkpt>
      <trkpt lat="44.69396" lon="5.49256">
        <ele>573</ele>
        <time>2017-10-19T02:38:35Z</time>
      </trkpt>
      <trkpt lat="44.69404" lon="5.49177">
        <ele>571</ele>
        <time>2017-10-19T02:38:53Z</time>
      </trkpt>
      <trkpt lat="44.69411" lon="5.49086">
        <ele>571</ele>
        <time>2017-10-19T02:39:04Z</time>
      </trkpt>
      <trkpt lat="44.69411" lon="5.49057">
        <ele>569</ele>
        <time>2017-10-19T02:39:17Z</time>
      </trkpt>
      <trkpt lat="44.69411" lon="5.49051">
        <ele>568</ele>
        <time>2017-10-19T02:39:32Z</time>
      </trkpt>
      <trkpt lat="44.69419" lon="5.49036">
        <ele>573</ele>
        <time>2017-10-19T02:39:49Z</time>
      </trkpt>
      <trkpt lat="44.69425" lon="5.49025">
        <ele>572</ele>
        <time>2017-10-19T02:40:02Z</time>
      </trkpt>
      <trkpt lat="44.69432" lon="5.49005">
        <ele>571</ele>
        <time>2017-10-19T02:40:18Z</time>
      </trkpt>
      <trkpt lat="44.6944" lon="5.48976">
        <ele>571</ele>
        <time>2017-10-19T02:40:30Z</time>
      </trkpt>
      <trkpt lat="44.69446" lon="5.4893">
        <ele>571</ele>
        <time>2017-10-19T02:40:32Z</time>
      </trkpt>
      <trkpt lat="44.69449" lon="5.48884">
        <ele>569</ele>
        <time>2017-10-19T02:40:50Z</time>
      </trkpt>
      <trkpt lat="44.69449" lon="5.48844">
        <ele>568</ele>
        <time>2017-10-19T02:41:01Z</time>
      </trkpt>
      <trkpt lat="44.69447" lon="5.48784">
        <ele>568</ele>
        <time>2017-10-19T02:41:07Z</time>
      </trkpt>
      <trkpt lat="44.6944" lon="5.48681">
        <ele>568</ele>
        <time>2017-10-19T02:41:10Z</time>
      </trkpt>
      <trkpt lat="44.69429" lon="5.48535">
        <ele>576</ele>
        <time>2017-10-19T02:41:26Z</time>
      </trkpt>
      <trkpt lat="44.69425" lon="5.48501">
        <ele>575</ele>
        <time>2017-10-19T02:41:31Z</time>
      </trkpt>
      <trkpt lat="44.69421" lon="5.48449">
        <ele>579</ele>
        <time>2017-10-19T02:41:43Z</time>
      </trkpt>
      <trkpt lat="44.69416" lon="5.48422">
        <ele>573</ele>
        <time>2017-10-19T02:41:58Z</time>
      </trkpt>
      <trkpt lat="44.69406" lon="5.48371">
        <ele>570</ele>
        <time>2017-10-19T02:42:10Z</time>
      </trkpt>
      <trkpt lat="44.69394" lon="5.48326">
        <ele>572</ele>
        <time>2017-10-19T02:42:14Z</time>
      </trkpt>
      <trkpt lat="44.6937" lon="5.48247">
        <ele>576</ele>
        <time>2017-10-19T02:42:34Z</time>
      </trkpt>
      <trkpt lat="44.69265" lon="5.47865">
        <ele>567</ele>
        <time>2017-10-19T02:42:54Z</time>
      </trkpt>
      <trkpt lat="44.69248" lon="5.47806">
        <ele>558</ele>
        <time>2017-10-19T02:42:57Z</time>
      </trkpt>
      <trkpt lat="44.69169" lon="5.47598">
        <ele>555</ele>
        <time>2017-10-19T02:43:07Z</time>
      </trkpt>
      <trkpt lat="44.69013" lon="5.47197">
        <ele>548</ele>
        <time>2017-10-19T02:43:12Z</time>
      </trkpt>
      <trkpt lat="44.68974" lon="5.47093">
        <ele>547</ele>
        <time>2017-10-19T02:43:25Z</time>
      </trkpt>
      <trkpt lat="44.6897" lon="5.47069">
        <ele>548</ele>
        <time>2017-10-19T02:43:32Z</time>
      </trkpt>
      <trkpt lat="44.68964" lon="5.47053">
        <ele>547</ele>
        <time>2017-10-19T02:43:49Z</time>
      </trkpt>
      <trkpt lat="44.68931" lon="5.46969">
        <ele>547</ele>
        <time>2017-10-19T02:43:57Z</time>
      </trkpt>
      <trkpt lat="44.68908" lon="5.46913">
        <ele>547</ele>
        <time>2017-10-19T02:44:08Z</time>
      </trkpt>
      <trkpt lat="44.68869" lon="5.46806">
        <ele>543</ele>
        <time>2017-10-19T02:44:11Z</time>
      </trkpt>
      <trkpt lat="44.68857" lon="5.46777">
        <ele>543</ele>
        <time>2017-10-19T02:44:17Z</time>
      </trkpt>
      <trkpt lat="44.68845" lon="5.46756">
        <ele>542</ele>
        <time>2017-10-19T02:44:35Z</time>
      </trkpt>
      <trkpt lat="44.68761" lon="5.46543">
        <ele>539</ele>
        <time>2017-10-19T02:44:47Z</time>
      </trkpt>
      <trkpt lat="44.68728" lon="5.46466">
        <ele>537</ele>
        <time>2017-10-19T02:45:05Z</time>
      </trkpt>
      <trkpt lat="44.6872" lon="5.46439">
        <ele>537</ele>
        <time>2017-10-19T02:45:07Z</time>
      </trkpt>
      <trkpt lat="44.68714" lon="5.46411">
        <ele>538</ele>
        <time>2017-10-19T02:45:22Z</time>
      </trkpt>
      <trkpt lat="44.68706" lon="5.46353">
        <ele>538</ele>
        <time>2017-10-19T02:45:36Z</time>
      </trkpt>
      <trkpt lat="44.68671" lon="5.46083">
        <ele>537</ele>
        <time>2017-10-19T02:45:54Z</time>
      </trkpt>
      <trkpt lat="44.68658" lon="5.46036">
        <ele>535</ele>
        <time>2017-10-19T02:45:58Z</time>
      </trkpt>
      <trkpt lat="44.68626" lon="5.45959">
        <ele>535</ele>
        <time>2017-10-19T02:46:08Z</time>
      </trkpt>
      <trkpt lat="44.68567" lon="5.45821">
        <ele>533</ele>
        <time>2017-10-19T02:46:12Z</time>
      </trkpt>
      <trkpt lat="44.68546" lon="5.45754">
        <ele>532</ele>
        <time>2017-10-19T02:46:19Z</time>
      </trkpt>
      <trkpt lat="44.68522" lon="5.45655">
        <ele>531</ele>
        <time>2017-10-19T02:46:35Z</time>
      </trkpt>
      <trkpt lat="44.68514" lon="5.45611">
        <ele>531</ele>
        <time>2017-10-19T02:46:48Z</time>
      </trkpt>
      <trkpt lat="44.68508" lon="5.45555">
        <ele>531</ele>
        <time>2017-10-19T02:47:02Z</time>
      </trkpt>
      <trkpt lat="44.68503" lon="5.45464">
        <ele>530</ele>
        <time>2017-10-19T02:47:16Z</time>
      </trkpt>
      <trkpt lat="44.68495" lon="5.45408">
        <ele>527</ele>
        <time>2017-10-19T02:47:23Z</time>
      </trkpt>
      <trkpt lat="44.68472" lon="5.45309">
        <ele>525</ele>
        <time>2017-10-19T02:47:41Z</time>
      </trkpt>
      <trkpt lat="44.68459" lon="5.45221">
        <ele>525</ele>
        <time>2017-10-19T02:47:52Z</time>
      </trkpt>
      <trkpt lat="44.68447" lon="5.45104">
        <ele>526</ele>
        <time>2017-10-19T02:48:08Z</time>
      </trkpt>
      <trkpt lat="44.68435" lon="5.44879">
        <ele>524</ele>
        <time>2017-10-19T02:48:16Z</time>
      </trkpt>
      <trkpt lat="44.6843" lon="5.4481">
        <ele>524</ele>
        <time>2017-10-19T02:48:23Z</time>
      </trkpt>
      <trkpt lat="44.68385" lon="5.44459">
        <ele>520</ele>
        <time>2017-10-19T02:48:38Z</time>
      </trkpt>
      <trkpt lat="44.68381" lon="5.44405">
        <ele>520</ele>
        <time>2017-10-19T02:48:42Z</time>
      </trkpt>
      <trkpt lat="44.68381" lon="5.44378">
        <ele>520</ele>
        <time>2017-10-19T02:48:48Z</time>
      </trkpt>
      <trkpt lat="44.68384" lon="5.44352">
        <ele>521</ele>
        <time>2017-10-19T02:48:51Z</time>
      </trkpt>
      <trkpt lat="44.68394" lon="5.44302">
        <ele>521</ele>
        <time>2017-10-19T02:48:59Z</time>
      </trkpt>
      <trkpt lat="44.68442" lon="5.4414">
        <ele>525</ele>
        <time>2017-10-19T02:49:19Z</time>
      </trkpt>
      <trkpt lat="44.68464" lon="5.44064">
        <ele>525</ele>
        <time>2017-10-19T02:49:32Z</time>
      </trkpt>
      <trkpt lat="44.6851" lon="5.43907">
        <ele>531</ele>
        <time>2017-10-19T02:49:50Z</time>
      </trkpt>
      <trkpt lat="44.68535" lon="5.43842">
        <ele>533</ele>
        <time>2017-10-19T02:49:59Z</time>
      </trkpt>
      <trkpt lat="44.68558" lon="5.43793">
        <ele>533</ele>
        <time>2017-10-19T02:50:06Z</time>
      </trkpt>
      <trkpt lat="44.68591" lon="5.43734">
        <ele>536</ele>
        <time>2017-10-19T02:50:18Z</time>
      </trkpt>
      <trkpt lat="44.68637" lon="5.4367">
        <ele>538</ele>
        <time>2017-10-19T02:50:31Z</time>
      </trkpt>
      <trkpt lat="44.68689" lon="5.43615">
        <ele>539</ele>
        <time>2017-10-19T02:50:36Z</time>
      </trkpt>
      <trkpt lat="44.68841" lon="5.43468">
        <ele>534</ele>
        <time>2017-10-19T02:50:43Z</time>
      </trkpt>
      <trkpt lat="44.68955" lon="5.43354">
        <ele>532</ele>
        <time>2017-10-19T02:51:00Z</time>
      </trkpt>
      <trkpt lat="44.68996" lon="5.43313">
        <ele>528</ele>
        <time>2017-10-19T02:51:10Z</time>
      </trkpt>
      <trkpt lat="44.69042" lon="5.43266">
        <ele>528</ele>
        <time>2017-10-19T02:51:22Z</time>
      </trkpt>
      <trkpt lat="44.69063" lon="5.43244">
        <ele>526</ele>
        <time>2017-10-19T02:51:33Z</time>
      </trkpt>
      <trkpt lat="44.69072" lon="5.43229">
        <ele>526</ele>
        <time>2017-10-19T02:51:48Z</time>
      </trkpt>
      <trkpt lat="44.69092" lon="5.43202">
        <ele>526</ele>
        <time>2017-10-19T02:52:06Z</time>
      </trkpt>
      <trkpt lat="44.69112" lon="5.43169">
        <ele>525</ele>
        <time>2017-10-19T02:52:17Z</time>
      </trkpt>
      <trkpt lat="44.6913" lon="5.43136">
        <ele>522</ele>
        <time>2017-10-19T02:52:29Z</time>
      </trkpt>
      <trkpt lat="44.69158" lon="5.43072">
        <ele>519</ele>
        <time>2017-10-19T02:52:36Z</time>
      </trkpt>
      <trkpt lat="44.69181" lon="5.4302">
        <ele>522</ele>
        <time>2017-10-19T02:52:56Z</time>
      </trkpt>
      <trkpt lat="44.69187" lon="5.43009">
        <ele>522</ele>
        <time>2017-10-19T02:53:03Z</time>
      </trkpt>
      <trkpt lat="44.69191" lon="5.43005">
        <ele>523</ele>
        <time>2017-10-19T02:53:09Z</time>
      </trkpt>
      <trkpt lat="44.69194" lon="5.43001">
        <ele>523</ele>
        <time>2017-10-19T02:53:29Z</time>
      </trkpt>
      <trkpt lat="44.69198" lon="5.42997">
        <ele>521</ele>
        <time>2017-10-19T02:53:33Z</time>
      </trkpt>
      <trkpt lat="44.692" lon="5.42997">
        <ele>521</ele>
        <time>2017-10-19T02:53:40Z</time>
      </trkpt>
      <trkpt lat="44.69204" lon="5.42993">
        <ele>522</ele>
        <time>2017-10-19T02:53:59Z</time>
      </trkpt>
      <trkpt lat="44.69207" lon="5.42983">
        <ele>522</ele>
        <time>2017-10-19T02:54:08Z</time>
      </trkpt>
      <trkpt lat="44.69207" lon="5.4298">
        <ele>522</ele>
        <time>2017-10-19T02:54:25Z</time>
      </trkpt>
      <trkpt lat="44.69216" lon="5.42943">
        <ele>521</ele>
        <time>2017-10-19T02:54:29Z</time>
      </trkpt>
      <trkpt lat="44.69362" lon="5.42621">
        <ele>513</ele>
        <time>2017-10-19T02:54:35Z</time>
      </trkpt>
      <trkpt lat="44.6948" lon="5.42371">
        <ele>503</ele>
        <time>2017-10-19T02:54:43Z</time>
      </trkpt>
      <trkpt lat="44.69586" lon="5.42146">
        <ele>495</ele>
        <time>2017-10-19T02:54:59Z</time>
      </trkpt>
      <trkpt lat="44.69604" lon="5.42112">
        <ele>496</ele>
        <time>2017-10-19T02:55:03Z</time>
      </trkpt>
      <trkpt lat="44.69618" lon="5.4209">
        <ele>495</ele>
        <time>2017-10-19T02:55:13Z</time>
      </trkpt>
      <trkpt lat="44.69654" lon="5.42041">
        <ele>499</ele>
        <time>2017-10-19T02:55:23Z</time>
      </trkpt>
      <trkpt lat="44.69683" lon="5.42007">
        <ele>494</ele>
        <time>2017-10-19T02:55:36Z</time>
      </trkpt>
      <trkpt lat="44.69705" lon="5.41983">
        <ele>496</ele>
        <time>2017-10-19T02:55:48Z</time>
      </trkpt>
      <trkpt lat="44.69736" lon="5.41954">
        <ele>495</ele>
        <time>2017-10-19T02:55:54Z</time>
      </trkpt>
      <trkpt lat="44.69821" lon="5.41882">
        <ele>490</ele>
        <time>2017-10-19T02:56:06Z</time>
      </trkpt>
      <trkpt lat="44.69881" lon="5.41829">
        <ele>486</ele>
        <time>2017-10-19T02:56:10Z</time>
      </trkpt>
      <trkpt lat="44.69905" lon="5.41801">
        <ele>485</ele>
        <time>2017-10-19T02:56:28Z</time>
      </trkpt>
      <trkpt lat="44.69919" lon="5.41779">
        <ele>486</ele>
        <time>2017-10-19T02:56:48Z</time>
      </trkpt>
      <trkpt lat="44.69925" lon="5.41767">
        <ele>485</ele>
        <time>2017-10-19T02:56:58Z</time>
      </trkpt>
      <trkpt lat="44.69936" lon="5.41735">
        <ele>482</ele>
        <time>2017-10-19T02:57:01Z</time>
      </trkpt>
      <trkpt lat="44.69964" lon="5.41641">
        <ele>482</ele>
        <time>2017-10-19T02:57:10Z</time>
      </trkpt>
      <trkpt lat="44.69979" lon="5.41605">
        <ele>481</ele>
        <time>2017-10-19T02:57:28Z</time>
      </trkpt>
      <trkpt lat="44.7" lon="5.41568">
        <ele>477</ele>
        <time>2017-10-19T02:57:45Z</time>
      </trkpt>
      <trkpt lat="44.70099" lon="5.41415">
        <ele>472</ele>
        <time>2017-10-19T02:57:48Z</time>
      </trkpt>
      <trkpt lat="44.70159" lon="5.4132">
        <ele>470</ele>
        <time>2017-10-19T02:58:01Z</time>
      </trkpt>
      <trkpt lat="44.70179" lon="5.41286">
        <ele>469</ele>
        <time>2017-10-19T02:58:21Z</time>
      </trkpt>
      <trkpt lat="44.7021" lon="5.41214">
        <ele>470</ele>
        <time>2017-10-19T02:58:25Z</time>
      </trkpt>
      <trkpt lat="44.70283" lon="5.41033">
        <ele>466</ele>
        <time>2017-10-19T02:58:29Z</time>
      </trkpt>
      <trkpt lat="44.70354" lon="5.4086">
        <ele>461</ele>
        <time>2017-10-19T02:58:32Z</time>
      </trkpt>
      <trkpt lat="44.70361" lon="5.40834">
        <ele>461</ele>
        <time>2017-10-19T02:58:43Z</time>
      </trkpt>
      <trkpt lat="44.70367" lon="5.40797">
        <ele>462</ele>
        <time>2017-10-19T02:58:54Z</time>
      </trkpt>
      <trkpt lat="44.70375" lon="5.4073">
        <ele>463</ele>
        <time>2017-10-19T02:58:59Z</time>
      </trkpt>
      <trkpt lat="44.70378" lon="5.40682">
        <ele>463</ele>
        <time>2017-10-19T02:59:10Z</time>
      </trkpt>
      <trkpt lat="44.70377" lon="5.40623">
        <ele>463</ele>
        <time>2017-10-19T02:59:22Z</time>
      </trkpt>
      <trkpt lat="44.70377" lon="5.40599">
        <ele>463</ele>
        <time>2017-10-19T02:59:34Z</time>
      </trkpt>
      <trkpt lat="44.70382" lon="5.40556">
        <ele>461</ele>
        <time>2017-10-19T02:59:50Z</time>
      </trkpt>
      <trkpt lat="44.70384" lon="5.40521">
        <ele>460</ele>
        <time>2017-10-19T02:59:57Z</time>
      </trkpt>
      <trkpt lat="44.70382" lon="5.40453">
        <ele>457</ele>
        <time>2017-10-19T03:00:02Z</time>
      </trkpt>
      <trkpt lat="44.70387" lon="5.40424">
        <ele>456</ele>
        <time>2017-10-19T03:00:08Z</time>
      </trkpt>
      <trkpt lat="44.70399" lon="5.40369">
        <ele>452</ele>
        <time>2017-10-19T03:00:23Z</time>
      </trkpt>
      <trkpt lat="44.70413" lon="5.40311">
        <ele>447</ele>
        <time>2017-10-19T03:00:34Z</time>
      </trkpt>
      <trkpt lat="44.7042" lon="5.40291">
        <ele>447</ele>
        <time>2017-10-19T03:00:36Z</time>
      </trkpt>
      <trkpt lat="44.70427" lon="5.40278">
        <ele>446</ele>
        <time>2017-10-19T03:00:54Z</time>
      </trkpt>
      <trkpt lat="44.70437" lon="5.40267">
        <ele>445</ele>
        <time>2017-10-19T03:00:57Z</time>
      </trkpt>
      <trkpt lat="44.70449" lon="5.40261">
        <ele>446</ele>
        <time>2017-10-19T03:01:09Z</time>
      </trkpt>
      <trkpt lat="44.70461" lon="5.40259">
        <ele>446</ele>
        <time>2017-10-19T03:01:17Z</time>
      </trkpt>
      <trkpt lat="44.7048" lon="5.40263">
        <ele>446</ele>
        <time>2017-10-19T03:01:20Z</time>
      </trkpt>
      <trkpt lat="44.70541" lon="5.40287">
        <ele>448</ele>
        <time>2017-10-19T03:01:30Z</time>
      </trkpt>
      <trkpt lat="44.70574" lon="5.40289">
        <ele>448</ele>
        <time>2017-10-19T03:01:38Z</time>
      </trkpt>
      <trkpt lat="44.70628" lon="5.40285">
        <ele>449</ele>
        <time>2017-10-19T03:01:46Z</time>
      </trkpt>
      <trkpt lat="44.70653" lon="5.40283">
        <ele>449</ele>
        <time>2017-10-19T03:01:54Z</time>
      </trkpt>
      <trkpt lat="44.70664" lon="5.40279">
        <ele>448</ele>
        <time>2017-10-19T03:02:08Z</time>
      </trkpt>
      <trkpt lat="44.70689" lon="5.40263">
        <ele>455</ele>
        <time>2017-10-19T03:02:11Z</time>
      </trkpt>
      <trkpt lat="44.70718" lon="5.40242">
        <ele>450</ele>
        <time>2017-10-19T03:02:27Z</time>
      </trkpt>
      <trkpt lat="44.7073" lon="5.40228">
        <ele>450</ele>
        <time>2017-10-19T03:02:42Z</time>
      </trkpt>
      <trkpt lat="44.70758" lon="5.40186">
        <ele>449</ele>
        <time>2017-10-19T03:02:55Z</time>
      </trkpt>
      <trkpt lat="44.70782" lon="5.40141">
        <ele>443</ele>
        <time>2017-10-19T03:03:13Z</time>
      </trkpt>
      <trkpt lat="44.70789" lon="5.40129">
        <ele>443</ele>
        <time>2017-10-19T03:03:25Z</time>
      </trkpt>
      <trkpt lat="44.70796" lon="5.40118">
        <ele>443</ele>
        <time>2017-10-19T03:03:29Z</time>
      </trkpt>
      <trkpt lat="44.70801" lon="5.40116">
        <ele>443</ele>
        <time>2017-10-19T03:03:42Z</time>
      </trkpt>
      <trkpt lat="44.70816" lon="5.4011">
        <ele>443</ele>
        <time>2017-10-19T03:03:52Z</time>
      </trkpt>
      <trkpt lat="44.70819" lon="5.40115">
        <ele>443</ele>
        <time>2017-10-19T03:04:04Z</time>
      </trkpt>
      <trkpt lat="44.70829" lon="5.40125">
        <ele>443</ele>
        <time>2017-10-19T03:04:09Z</time>
      </trkpt>
      <trkpt lat="44.70914" lon="5.40159">
        <ele>445</ele>
        <time>2017-10-19T03:04:21Z</time>
      </trkpt>
      <trkpt lat="44.70968" lon="5.40178">
        <ele>445</ele>
        <time>2017-10-19T03:04:23Z</time>
      </trkpt>
      <trkpt lat="44.71043" lon="5.40195">
        <ele>443</ele>
        <time>2017-10-19T03:04:35Z</time>
      </trkpt>
      <trkpt lat="44.71097" lon="5.40199">
        <ele>443</ele>
        <time>2017-10-19T03:04:41Z</time>
      </trkpt>
      <trkpt lat="44.71125" lon="5.40198">
        <ele>444</ele>
        <time>2017-10-19T03:04:45Z</time>
      </trkpt>
      <trkpt lat="44.71184" lon="5.40188">
        <ele>444</ele>
        <time>2017-10-19T03:04:51Z</time>
      </trkpt>
      <trkpt lat="44.71203" lon="5.40185">
        <ele>444</ele>
        <time>2017-10-19T03:05:07Z</time>
      </trkpt>
      <trkpt lat="44.71211" lon="5.40183">
        <ele>445</ele>
        <time>2017-10-19T03:05:11Z</time>
      </trkpt>
      <trkpt lat="44.71212" lon="5.40184">
        <ele>445</ele>
        <time>2017-10-19T03:05:20Z</time>
      </trkpt>
      <trkpt lat="44.71214" lon="5.40185">
        <ele>445</ele>
        <time>2017-10-19T03:05:23Z</time>
      </trkpt>
      <trkpt lat="44.71217" lon="5.40184">
        <ele>445</ele>
        <time>2017-10-19T03:05:40Z</time>
      </trkpt>
      <trkpt lat="44.71219" lon="5.40182">
        <ele>445</ele>
        <time>2017-10-19T03:05:54Z</time>
      </trkpt>
      <trkpt lat="44.7122" lon="5.40181">
        <ele>445</ele>
        <time>2017-10-19T03:06:08Z</time>
      </trkpt>
      <trkpt lat="44.71233" lon="5.40177">
        <ele>445</ele>
        <time>2017-10-19T03:06:17Z</time>
      </trkpt>
      <trkpt lat="44.71256" lon="5.40168">
        <ele>445</ele>
        <time>2017-10-19T03:06:24Z</time>
      </trkpt>
      <trkpt lat="44.7139" lon="5.40125">
        <ele>442</ele>
        <time>2017-10-19T03:06:31Z</time>
      </trkpt>
      <trkpt lat="44.715" lon="5.40088">
        <ele>443</ele>
        <time>2017-10-19T03:06:36Z</time>
      </trkpt>
      <trkpt lat="44.71635" lon="5.40044">
        <ele>441</ele>
        <time>2017-10-19T03:06:54Z</time>
      </trkpt>
      <trkpt lat="44.71683" lon="5.40035">
        <ele>441</ele>
        <time>2017-10-19T03:07:07Z</time>
      </trkpt>
      <trkpt lat="44.71719" lon="5.40022">
        <ele>440</ele>
        <time>2017-10-19T03:07:19Z</time>
      </trkpt>
      <trkpt lat="44.71765" lon="5.40002">
        <ele>439</ele>
        <time>2017-10-19T03:07:30Z</time>
      </trkpt>
      <trkpt lat="44.71883" lon="5.39965">
        <ele>438</ele>
        <time>2017-10-19T03:07:35Z</time>
      </trkpt>
      <trkpt lat="44.72019" lon="5.3992">
        <ele>436</ele>
        <time>2017-10-19T03:07:53Z</time>
      </trkpt>
      <trkpt lat="44.72145" lon="5.39887">
        <ele>432</ele>
        <time>2017-10-19T03:07:58Z</time>
      </trkpt>
      <trkpt lat="44.72245" lon="5.3986">
        <ele>430</ele>
        <time>2017-10-19T03:08:07Z</time>
      </trkpt>
      <trkpt lat="44.72399" lon="5.39818">
        <ele>428</ele>
        <time>2017-10-19T03:08:26Z</time>
      </trkpt>
      <trkpt lat="44.72433" lon="5.39803">
        <ele>428</ele>
        <time>2017-10-19T03:08:29Z</time>
      </trkpt>
      <trkpt lat="44.72477" lon="5.39776">
        <ele>428</ele>
        <time>2017-10-19T03:08:31Z</time>
      </trkpt>
      <trkpt lat="44.72515" lon="5.39744">
        <ele>428</ele>
        <time>2017-10-19T03:08:48Z</time>
      </trkpt>
      <trkpt lat="44.72535" lon="5.39722">
        <ele>429</ele>
        <time>2017-10-19T03:09:01Z</time>
      </trkpt>
      <trkpt lat="44.7257" lon="5.39675">
        <ele>429</ele>
        <time>2017-10-19T03:09:17Z</time>
      </trkpt>
      <trkpt lat="44.72589" lon="5.39644">
        <ele>432</ele>
        <time>2017-10-19T03:09:24Z</time>
      </trkpt>
      <trkpt lat="44.72626" lon="5.39576">
        <ele>430</ele>
        <time>2017-10-19T03:09:31Z</time>
      </trkpt>
      <trkpt lat="44.72641" lon="5.39552">
        <ele>430</ele>
        <time>2017-10-19T03:09:34Z</time>
      </trkpt>
      <trkpt lat="44.72652" lon="5.39541">
        <ele>429</ele>
        <time>2017-10-19T03:09:36Z</time>
      </trkpt>
      <trkpt lat="44.72669" lon="5.39534">
        <ele>435</ele>
        <time>2017-10-19T03:09:53Z</time>
      </trkpt>
      <trkpt lat="44.72675" lon="5.3953">
        <ele>434</ele>
        <time>2017-10-19T03:10:11Z</time>
      </trkpt>
      <trkpt lat="44.72683" lon="5.39522">
        <ele>434</ele>
        <time>2017-10-19T03:10:19Z</time>
      </trkpt>
      <trkpt lat="44.72689" lon="5.3951">
        <ele>434</ele>
        <time>2017-10-19T03:10:33Z</time>
      </trkpt>
      <trkpt lat="44.72693" lon="5.39495">
        <ele>429</ele>
        <time>2017-10-19T03:10:51Z</time>
      </trkpt>
      <trkpt lat="44.72698" lon="5.39459">
        <ele>429</ele>
        <time>2017-10-19T03:10:54Z</time>
      </trkpt>
      <trkpt lat="44.72701" lon="5.39448">
        <ele>429</ele>
        <time>2017-10-19T03:11:02Z</time>
      </trkpt>
      <trkpt lat="44.72717" lon="5.39414">
        <ele>427</ele>
        <time>2017-10-19T03:11:19Z</time>
      </trkpt>
      <trkpt lat="44.72806" lon="5.39254">
        <ele>427</ele>
        <time>2017-10-19T03:11:37Z</time>
      </trkpt>
      <trkpt lat="44.72823" lon="5.39229">
        <ele>425</ele>
        <time>2017-10-19T03:11:44Z</time>
      </trkpt>
      <trkpt lat="44.72841" lon="5.39215">
        <ele>426</ele>
        <time>2017-10-19T03:11:53Z</time>
      </trkpt>
      <trkpt lat="44.72855" lon="5.39209">
        <ele>426</ele>
        <time>2017-10-19T03:12:11Z</time>
      </trkpt>
      <trkpt lat="44.72869" lon="5.39206">
        <ele>426</ele>
        <time>2017-10-19T03:12:29Z</time>
      </trkpt>
      <trkpt lat="44.72879" lon="5.39207">
        <ele>427</ele>
        <time>2017-10-19T03:12:43Z</time>
      </trkpt>
      <trkpt lat="44.72919" lon="5.39213">
        <ele>428</ele>
        <time>2017-10-19T03:12:46Z</time>
      </trkpt>
      <trkpt lat="44.72946" lon="5.39219">
        <ele>427</ele>
        <time>2017-10-19T03:13:03Z</time>
      </trkpt>
      <trkpt lat="44.72962" lon="5.39221">
        <ele>427</ele>
        <time>2017-10-19T03:13:20Z</time>
      </trkpt>
      <trkpt lat="44.72993" lon="5.39219">
        <ele>427</ele>
        <time>2017-10-19T03:13:24Z</time>
      </trkpt>
      <trkpt lat="44.7301" lon="5.39215">
        <ele>425</ele>
        <time>2017-10-19T03:13:39Z</time>
      </trkpt>
      <trkpt lat="44.73052" lon="5.39196">
        <ele>425</ele>
        <time>2017-10-19T03:13:52Z</time>
      </trkpt>
      <trkpt lat="44.73185" lon="5.39124">
        <ele>423</ele>
        <time>2017-10-19T03:13:54Z</time>
      </trkpt>
      <trkpt lat="44.73576" lon="5.38915">
        <ele>419</ele>
        <time>2017-10-19T03:14:10Z</time>
      </trkpt>
      <trkpt lat="44.73714" lon="5.3884">
        <ele>421</ele>
        <time>2017-10-19T03:14:20Z</time>
      </trkpt>
      <trkpt lat="44.7382" lon="5.38785">
        <ele>421</ele>
        <time>2017-10-19T03:14:25Z</time>
      </trkpt>
      <trkpt lat="44.73975" lon="5.38701">
        <ele>419</ele>
        <time>2017-10-19T03:14:42Z</time>
      </trkpt>
      <trkpt lat="44.74016" lon="5.3868">
        <ele>418</ele>
        <time>2017-10-19T03:14:56Z</time>
      </trkpt>
      <trkpt lat="44.74044" lon="5.38668">
        <ele>418</ele>
        <time>2017-10-19T03:15:11Z</time>
      </trkpt>
      <trkpt lat="44.74075" lon="5.38659">
        <ele>416</ele>
        <time>2017-10-19T03:15:25Z</time>
      </trkpt>
      <trkpt lat="44.74161" lon="5.38634">
        <ele>415</ele>
        <time>2017-10-19T03:15:30Z</time>
      </trkpt>
      <trkpt lat="44.74349" lon="5.3858">
        <ele>408</ele>
        <time>2017-10-19T03:15:42Z</time>
      </trkpt>
      <trkpt lat="44.74433" lon="5.38556">
        <ele>408</ele>
        <time>2017-10-19T03:15:45Z</time>
      </trkpt>
      <trkpt lat="44.74471" lon="5.3854">
        <ele>408</ele>
        <time>2017-10-19T03:15:58Z</time>
      </trkpt>
      <trkpt lat="44.74499" lon="5.3853">
        <ele>408</ele>
        <time>2017-10-19T03:16:03Z</time>
      </trkpt>
      <trkpt lat="44.74554" lon="5.38491">
        <ele>408</ele>
        <time>2017-10-19T03:16:06Z</time>
      </trkpt>
      <trkpt lat="44.74609" lon="5.38441">
        <ele>408</ele>
        <time>2017-10-19T03:16:10Z</time>
      </trkpt>
      <trkpt lat="44.74615" lon="5.38435">
        <ele>408</ele>
        <time>2017-10-19T03:16:27Z</time>
      </trkpt>
      <trkpt lat="44.74661" lon="5.38367">
        <ele>406</ele>
        <time>2017-10-19T03:16:44Z</time>
      </trkpt>
      <trkpt lat="44.74671" lon="5.38343">
        <ele>407</ele>
        <time>2017-10-19T03:17:04Z</time>
      </trkpt>
      <trkpt lat="44.74724" lon="5.38249">
        <ele>407</ele>
        <time>2017-10-19T03:17:20Z</time>
      </trkpt>
      <trkpt lat="44.7482" lon="5.38081">
        <ele>406</ele>
        <time>2017-10-19T03:17:27Z</time>
      </trkpt>
      <trkpt lat="44.74829" lon="5.38059">
        <ele>406</ele>
        <time>2017-10-19T03:17:33Z</time>
      </trkpt>
      <trkpt lat="44.74843" lon="5.37976">
        <ele>405</ele>
        <time>2017-10-19T03:17:37Z</time>
      </trkpt>
      <trkpt lat="44.7485" lon="5.37971">
        <ele>405</ele>
        <time>2017-10-19T03:17:46Z</time>
      </trkpt>
      <trkpt lat="44.74855" lon="5.37962">
        <ele>405</ele>
        <time>2017-10-19T03:17:57Z</time>
      </trkpt>
      <trkpt lat="44.74868" lon="5.37957">
        <ele>405</ele>
        <time>2017-10-19T03:18:11Z</time>
      </trkpt>
      <trkpt lat="44.74881" lon="5.37955">
        <ele>405</ele>
        <time>2017-10-19T03:18:23Z</time>
      </trkpt>
      <trkpt lat="44.74886" lon="5.37955">
        <ele>405</ele>
        <time>2017-10-19T03:18:33Z</time>
      </trkpt>
      <trkpt lat="44.74899" lon="5.37944">
        <ele>406</ele>
        <time>2017-10-19T03:18:44Z</time>
      </trkpt>
      <trkpt lat="44.74971" lon="5.37829">
        <ele>409</ele>
        <time>2017-10-19T03:18:49Z</time>
      </trkpt>
      <trkpt lat="44.75007" lon="5.37768">
        <ele>416</ele>
        <time>2017-10-19T03:18:54Z</time>
      </trkpt>
      <trkpt lat="44.7505" lon="5.37696">
        <ele>415</ele>
        <time>2017-10-19T03:19:09Z</time>
      </trkpt>
      <trkpt lat="44.75066" lon="5.37671">
        <ele>415</ele>
        <time>2017-10-19T03:19:13Z</time>
      </trkpt>
      <trkpt lat="44.7508" lon="5.37654">
        <ele>415</ele>
        <time>2017-10-19T03:19:16Z</time>
      </trkpt>
      <trkpt lat="44.75153" lon="5.37553">
        <ele>415</ele>
        <time>2017-10-19T03:19:18Z</time>
      </trkpt>
      <trkpt lat="44.75168" lon="5.37531">
        <ele>415</ele>
        <time>2017-10-19T03:19:28Z</time>
      </trkpt>
      <trkpt lat="44.75202" lon="5.37493">
        <ele>413</ele>
        <time>2017-10-19T03:19:31Z</time>
      </trkpt>
      <trkpt lat="44.75205" lon="5.37497">
        <ele>413</ele>
        <time>2017-10-19T03:19:33Z</time>
      </trkpt>
      <trkpt lat="44.75208" lon="5.37497">
        <ele>413</ele>
        <time>2017-10-19T03:19:53Z</time>
      </trkpt>
      <trkpt lat="44.7521" lon="5.37496">
        <ele>413</ele>
        <time>2017-10-19T03:20:00Z</time>
      </trkpt>
      <trkpt lat="44.75211" lon="5.37491">
        <ele>413</ele>
        <time>2017-10-19T03:20:08Z</time>
      </trkpt>
      <trkpt lat="44.75209" lon="5.37483">
        <ele>413</ele>
        <time>2017-10-19T03:20:25Z</time>
      </trkpt>
      <trkpt lat="44.7521" lon="5.37478">
        <ele>413</ele>
        <time>2017-10-19T03:20:32Z</time>
      </trkpt>
      <trkpt lat="44.75219" lon="5.37466">
        <ele>412</ele>
        <time>2017-10-19T03:20:37Z</time>
      </trkpt>
      <trkpt lat="44.75288" lon="5.3738">
        <ele>415</ele>
        <time>2017-10-19T03:20:42Z</time>
      </trkpt>
      <trkpt lat="44.75316" lon="5.37344">
        <ele>417</ele>
        <time>2017-10-19T03:20:50Z</time>
      </trkpt>
      <trkpt lat="44.75342" lon="5.37309">
        <ele>424</ele>
        <time>2017-10-19T03:21:02Z</time>
      </trkpt>
      <trkpt lat="44.75351" lon="5.37293">
        <ele>425</ele>
        <time>2017-10-19T03:21:08Z</time>
      </trkpt>
      <trkpt lat="44.75367" lon="5.37235">
        <ele>425</ele>
        <time>2017-10-19T03:21:28Z</time>
      </trkpt>
      <trkpt lat="44.75376" lon="5.37202">
        <ele>424</ele>
        <time>2017-10-19T03:21:44Z</time>
      </trkpt>
      <trkpt lat="44.75397" lon="5.37149">
        <ele>422</ele>
        <time>2017-10-19T03:22:02Z</time>
      </trkpt>
      <trkpt lat="44.75488" lon="5.36999">
        <ele>420</ele>
        <time>2017-10-19T03:22:10Z</time>
      </trkpt>
      <trkpt lat="44.75513" lon="5.36953">
        <ele>418</ele>
        <time>2017-10-19T03:22:14Z</time>
      </trkpt>
      <trkpt lat="44.75515" lon="5.36941">
        <ele>418</ele>
        <time>2017-10-19T03:22:22Z</time>
      </trkpt>
      <trkpt lat="44.75535" lon="5.36922">
        <ele>418</ele>
        <time>2017-10-19T03:22:32Z</time>
      </trkpt>
      <trkpt lat="44.75621" lon="5.36764">
        <ele>409</ele>
        <time>2017-10-19T03:22:45Z</time>
      </trkpt>
      <trkpt lat="44.75677" lon="5.36669">
        <ele>406</ele>
        <time>2017-10-19T03:22:53Z</time>
      </trkpt>
      <trkpt lat="44.75799" lon="5.36453">
        <ele>399</ele>
        <time>2017-10-19T03:22:58Z</time>
      </trkpt>
      <trkpt lat="44.75823" lon="5.36411">
        <ele>398</ele>
        <time>2017-10-19T03:23:11Z</time>
      </trkpt>
      <trkpt lat="44.75893" lon="5.36288">
        <ele>397</ele>
        <time>2017-10-19T03:23:14Z</time>
      </trkpt>
      <trkpt lat="44.75899" lon="5.36275">
        <ele>397</ele>
        <time>2017-10-19T03:23:31Z</time>
      </trkpt>
      <trkpt lat="44.75934" lon="5.36195">
        <ele>397</ele>
        <time>2017-10-19T03:23:38Z</time>
      </trkpt>
      <trkpt lat="44.75939" lon="5.36181">
        <ele>397</ele>
        <time>2017-10-19T03:23:46Z</time>
      </trkpt>
      <trkpt lat="44.75965" lon="5.36156">
        <ele>397</ele>
        <time>2017-10-19T03:23:56Z</time>
      </trkpt>
      <trkpt lat="44.76019" lon="5.3609">
        <ele>397</ele>
        <time>2017-10-19T03:24:13Z</time>
      </trkpt>
      <trkpt lat="44.76062" lon="5.36035">
        <ele>398</ele>
        <time>2017-10-19T03:24:28Z</time>
      </trkpt>
      <trkpt lat="44.76082" lon="5.36014">
        <ele>398</ele>
        <time>2017-10-19T03:24:40Z</time>
      </trkpt>
      <trkpt lat="44.76096" lon="5.36015">
        <ele>398</ele>
        <time>2017-10-19T03:24:44Z</time>
      </trkpt>
      <trkpt lat="44.76103" lon="5.36016">
        <ele>398</ele>
        <time>2017-10-19T03:24:58Z</time>
      </trkpt>
      <trkpt lat="44.76113" lon="5.36024">
        <ele>398</ele>
        <time>2017-10-19T03:25:14Z</time>
      </trkpt>
      <trkpt lat="44.76144" lon="5.36062">
        <ele>398</ele>
        <time>2017-10-19T03:25:24Z</time>
      </trkpt>
      <trkpt lat="44.76228" lon="5.36141">
        <ele>400</ele>
        <time>2017-10-19T03:25:27Z</time>
      </trkpt>
      <trkpt lat="44.76248" lon="5.36155">
        <ele>401</ele>
        <time>2017-10-19T03:25:43Z</time>
      </trkpt>
      <trkpt lat="44.76275" lon="5.36172">
        <ele>402</ele>
        <time>2017-10-19T03:25:48Z</time>
      </trkpt>
      <trkpt lat="44.76331" lon="5.36208">
        <ele>403</ele>
        <time>2017-10-19T03:26:06Z</time>
      </trkpt>
      <trkpt lat="44.76351" lon="5.3622">
        <ele>405</ele>
        <time>2017-10-19T03:26:10Z</time>
      </trkpt>
      <trkpt lat="44.76379" lon="5.36232">
        <ele>406</ele>
        <time>2017-10-19T03:26:16Z</time>
      </trkpt>
      <trkpt lat="44.76407" lon="5.36235">
        <ele>407</ele>
        <time>2017-10-19T03:26:26Z</time>
      </trkpt>
      <trkpt lat="44.76437" lon="5.36238">
        <ele>408</ele>
        <time>2017-10-19T03:26:30Z</time>
      </trkpt>
      <trkpt lat="44.76519" lon="5.36246">
        <ele>409</ele>
        <time>2017-10-19T03:26:42Z</time>
      </trkpt>
      <trkpt lat="44.76589" lon="5.36253">
        <ele>410</ele>
        <time>2017-10-19T03:26:44Z</time>
      </trkpt>
      <trkpt lat="44.76651" lon="5.36259">
        <ele>412</ele>
        <time>2017-10-19T03:27:01Z</time>
      </trkpt>
      <trkpt lat="44.76668" lon="5.36258">
        <ele>412</ele>
        <time>2017-10-19T03:27:14Z</time>
      </trkpt>
      <trkpt lat="44.76685" lon="5.36255">
        <ele>412</ele>
        <time>2017-10-19T03:27:28Z</time>
      </trkpt>
      <trkpt lat="44.76702" lon="5.36248">
        <ele>412</ele>
        <time>2017-10-19T03:27:43Z</time>
      </trkpt>
      <trkpt lat="44.76718" lon="5.36238">
        <ele>412</ele>
        <time>2017-10-19T03:27:48Z</time>
      </trkpt>
      <trkpt lat="44.76751" lon="5.36219">
        <ele>412</ele>
        <time>2017-10-19T03:28:08Z</time>
      </trkpt>
      <trkpt lat="44.76783" lon="5.36199">
        <ele>411</ele>
        <time>2017-10-19T03:28:27Z</time>
      </trkpt>
      <trkpt lat="44.76844" lon="5.36165">
        <ele>407</ele>
        <time>2017-10-19T03:28:36Z</time>
      </trkpt>
      <trkpt lat="44.76875" lon="5.36153">
        <ele>407</ele>
        <time>2017-10-19T03:28:44Z</time>
      </trkpt>
      <trkpt lat="44.76907" lon="5.36144">
        <ele>406</ele>
        <time>2017-10-19T03:28:48Z</time>
      </trkpt>
      <trkpt lat="44.76983" lon="5.36124">
        <ele>407</ele>
        <time>2017-10-19T03:28:53Z</time>
      </trkpt>
      <trkpt lat="44.77017" lon="5.36115">
        <ele>408</ele>
        <time>2017-10-19T03:29:10Z</time>
      </trkpt>
      <trkpt lat="44.77052" lon="5.36108">
        <ele>408</ele>
        <time>2017-10-19T03:29:13Z</time>
      </trkpt>
      <trkpt lat="44.77069" lon="5.36106">
        <ele>408</ele>
        <time>2017-10-19T03:29:22Z</time>
      </trkpt>
      <trkpt lat="44.77086" lon="5.36106">
        <ele>409</ele>
        <time>2017-10-19T03:29:40Z</time>
      </trkpt>
      <trkpt lat="44.77104" lon="5.3611">
        <ele>409</ele>
        <time>2017-10-19T03:30:00Z</time>
      </trkpt>
      <trkpt lat="44.7712" lon="5.36115">
        <ele>409</ele>
        <time>2017-10-19T03:30:19Z</time>
      </trkpt>
      <trkpt lat="44.77151" lon="5.36134">
        <ele>410</ele>
        <time>2017-10-19T03:30:32Z</time>
      </trkpt>
      <trkpt lat="44.77182" lon="5.36157">
        <ele>412</ele>
        <time>2017-10-19T03:30:50Z</time>
      </trkpt>
      <trkpt lat="44.77243" lon="5.36203">
        <ele>417</ele>
        <time>2017-10-19T03:31:06Z</time>
      </trkpt>
      <trkpt lat="44.77276" lon="5.36223">
        <ele>417</ele>
        <time>2017-10-19T03:31:08Z</time>
      </trkpt>
      <trkpt lat="44.77311" lon="5.36237">
        <ele>418</ele>
        <time>2017-10-19T03:31:20Z</time>
      </trkpt>
      <trkpt lat="44.77371" lon="5.36257">
        <ele>426</ele>
        <time>2017-10-19T03:31:25Z</time>
      </trkpt>
      <trkpt lat="44.77445" lon="5.36282">
        <ele>428</ele>
        <time>2017-10-19T03:31:44Z</time>
      </trkpt>
      <trkpt lat="44.77462" lon="5.36291">
        <ele>429</ele>
        <time>2017-10-19T03:31:55Z</time>
      </trkpt>
      <trkpt lat="44.77479" lon="5.36304">
        <ele>430</ele>
        <time>2017-10-19T03:31:59Z</time>
      </trkpt>
      <trkpt lat="44.77509" lon="5.36335">
        <ele>436</ele>
        <time>2017-10-19T03:32:09Z</time>
      </trkpt>
      <trkpt lat="44.77566" lon="5.36402">
        <ele>441</ele>
        <time>2017-10-19T03:32:17Z</time>
      </trkpt>
      <trkpt lat="44.77592" lon="5.36433">
        <ele>445</ele>
        <time>2017-10-19T03:32:19Z</time>
      </trkpt>
      <trkpt lat="44.77608" lon="5.36448">
        <ele>447</ele>
        <time>2017-10-19T03:32:22Z</time>
      </trkpt>
      <trkpt lat="44.77627" lon="5.36458">
        <ele>447</ele>
        <time>2017-10-19T03:32:33Z</time>
      </trkpt>
      <trkpt lat="44.77659" lon="5.36467">
        <ele>448</ele>
        <time>2017-10-19T03:32:50Z</time>
      </trkpt>
      <trkpt lat="44.77675" lon="5.36474">
        <ele>446</ele>
        <time>2017-10-19T03:32:54Z</time>
      </trkpt>
      <trkpt lat="44.7769" lon="5.36485">
        <ele>446</ele>
        <time>2017-10-19T03:33:12Z</time>
      </trkpt>
      <trkpt lat="44.7772" lon="5.36507">
        <ele>457</ele>
        <time>2017-10-19T03:33:22Z</time>
      </trkpt>
      <trkpt lat="44.77739" lon="5.36517">
        <ele>456</ele>
        <time>2017-10-19T03:33:36Z</time>
      </trkpt>
      <trkpt lat="44.77768" lon="5.36523">
        <ele>457</ele>
        <time>2017-10-19T03:33:42Z</time>
      </trkpt>
      <trkpt lat="44.77802" lon="5.3653">
        <ele>457</ele>
        <time>2017-10-19T03:33:49Z</time>
      </trkpt>
      <trkpt lat="44.77818" lon="5.36538">
        <ele>458</ele>
        <time>2017-10-19T03:34:02Z</time>
      </trkpt>
      <trkpt lat="44.77834" lon="5.36549">
        <ele>456</ele>
        <time>2017-10-19T03:34:11Z</time>
      </trkpt>
      <trkpt lat="44.77862" lon="5.36577">
        <ele>458</ele>
        <time>2017-10-19T03:34:31Z</time>
      </trkpt>
      <trkpt lat="44.77889" lon="5.36605">
        <ele>473</ele>
        <time>2017-10-19T03:34:35Z</time>
      </trkpt>
      <trkpt lat="44.77928" lon="5.36644">
        <ele>471</ele>
        <time>2017-10-19T03:34:51Z</time>
      </trkpt>
      <trkpt lat="44.77941" lon="5.36655">
        <ele>472</ele>
        <time>2017-10-19T03:35:10Z</time>
      </trkpt>
      <trkpt lat="44.77953" lon="5.36663">
        <ele>471</ele>
        <time>2017-10-19T03:35:28Z</time>
      </trkpt>
      <trkpt lat="44.77966" lon="5.36668">
        <ele>490</ele>
        <time>2017-10-19T03:35:30Z</time>
      </trkpt>
      <trkpt lat="44.7798" lon="5.36669">
        <ele>486</ele>
        <time>2017-10-19T03:35:46Z</time>
      </trkpt>
      <trkpt lat="44.7801" lon="5.3667">
        <ele>480</ele>
        <time>2017-10-19T03:35:55Z</time>
      </trkpt>
      <trkpt lat="44.7804" lon="5.36673">
        <ele>482</ele>
        <time>2017-10-19T03:36:12Z</time>
      </trkpt>
      <trkpt lat="44.78069" lon="5.36681">
        <ele>478</ele>
        <time>2017-10-19T03:36:31Z</time>
      </trkpt>
      <trkpt lat="44.78128" lon="5.36699">
        <ele>484</ele>
        <time>2017-10-19T03:36:35Z</time>
      </trkpt>
      <trkpt lat="44.78181" lon="5.36706">
        <ele>484</ele>
        <time>2017-10-19T03:36:38Z</time>
      </trkpt>
      <trkpt lat="44.78196" lon="5.36711">
        <ele>485</ele>
        <time>2017-10-19T03:36:53Z</time>
      </trkpt>
      <trkpt lat="44.7821" lon="5.36718">
        <ele>486</ele>
        <time>2017-10-19T03:37:06Z</time>
      </trkpt>
      <trkpt lat="44.78237" lon="5.36734">
        <ele>491</ele>
        <time>2017-10-19T03:37:12Z</time>
      </trkpt>
      <trkpt lat="44.7825" lon="5.3674">
        <ele>494</ele>
        <time>2017-10-19T03:37:15Z</time>
      </trkpt>
      <trkpt lat="44.78265" lon="5.36744">
        <ele>491</ele>
        <time>2017-10-19T03:37:27Z</time>
      </trkpt>
      <trkpt lat="44.78279" lon="5.36749">
        <ele>488</ele>
        <time>2017-10-19T03:37:36Z</time>
      </trkpt>
      <trkpt lat="44.78291" lon="5.36756">
        <ele>514</ele>
        <time>2017-10-19T03:37:42Z</time>
      </trkpt>
      <trkpt lat="44.78315" lon="5.36773">
        <ele>514</ele>
        <time>2017-10-19T03:37:46Z</time>
      </trkpt>
      <trkpt lat="44.78327" lon="5.36778">
        <ele>514</ele>
        <time>2017-10-19T03:38:03Z</time>
      </trkpt>
      <trkpt lat="44.78339" lon="5.3678">
        <ele>505</ele>
        <time>2017-10-19T03:38:16Z</time>
      </trkpt>
      <trkpt lat="44.78351" lon="5.36778">
        <ele>505</ele>
        <time>2017-10-19T03:38:32Z</time>
      </trkpt>
      <trkpt lat="44.78362" lon="5.36772">
        <ele>503</ele>
        <time>2017-10-19T03:38:46Z</time>
      </trkpt>
      <trkpt lat="44.78381" lon="5.36757">
        <ele>499</ele>
        <time>2017-10-19T03:39:02Z</time>
      </trkpt>
      <trkpt lat="44.78391" lon="5.36754">
        <ele>497</ele>
        <time>2017-10-19T03:39:05Z</time>
      </trkpt>
      <trkpt lat="44.78401" lon="5.36756">
        <ele>494</ele>
        <time>2017-10-19T03:39:08Z</time>
      </trkpt>
      <trkpt lat="44.7841" lon="5.36762">
        <ele>493</ele>
        <time>2017-10-19T03:39:10Z</time>
      </trkpt>
      <trkpt lat="44.78418" lon="5.36771">
        <ele>489</ele>
        <time>2017-10-19T03:39:18Z</time>
      </trkpt>
      <trkpt lat="44.78435" lon="5.36798">
        <ele>495</ele>
        <time>2017-10-19T03:39:35Z</time>
      </trkpt>
      <trkpt lat="44.7845" lon="5.3683">
        <ele>498</ele>
        <time>2017-10-19T03:39:44Z</time>
      </trkpt>
      <trkpt lat="44.78464" lon="5.3686">
        <ele>513</ele>
        <time>2017-10-19T03:40:02Z</time>
      </trkpt>
      <trkpt lat="44.78473" lon="5.36871">
        <ele>514</ele>
        <time>2017-10-19T03:40:17Z</time>
      </trkpt>
      <trkpt lat="44.78484" lon="5.36876">
        <ele>514</ele>
        <time>2017-10-19T03:40:34Z</time>
      </trkpt>
      <trkpt lat="44.78495" lon="5.36875">
        <ele>513</ele>
        <time>2017-10-19T03:40:40Z</time>
      </trkpt>
      <trkpt lat="44.78506" lon="5.36868">
        <ele>517</ele>
        <time>2017-10-19T03:40:47Z</time>
      </trkpt>
      <trkpt lat="44.78515" lon="5.36856">
        <ele>515</ele>
        <time>2017-10-19T03:40:49Z</time>
      </trkpt>
      <trkpt lat="44.78523" lon="5.36842">
        <ele>514</ele>
        <time>2017-10-19T03:40:51Z</time>
      </trkpt>
      <trkpt lat="44.78532" lon="5.36827">
        <ele>501</ele>
        <time>2017-10-19T03:41:03Z</time>
      </trkpt>
      <trkpt lat="44.78543" lon="5.36814">
        <ele>502</ele>
        <time>2017-10-19T03:41:23Z</time>
      </trkpt>
      <trkpt lat="44.78557" lon="5.36806">
        <ele>504</ele>
        <time>2017-10-19T03:41:36Z</time>
      </trkpt>
      <trkpt lat="44.78572" lon="5.36799">
        <ele>504</ele>
        <time>2017-10-19T03:41:54Z</time>
      </trkpt>
      <trkpt lat="44.78602" lon="5.36781">
        <ele>518</ele>
        <time>2017-10-19T03:42:00Z</time>
      </trkpt>
      <trkpt lat="44.7863" lon="5.36759">
        <ele>521</ele>
        <time>2017-10-19T03:42:06Z</time>
      </trkpt>
      <trkpt lat="44.78653" lon="5.36729">
        <ele>512</ele>
        <time>2017-10-19T03:42:18Z</time>
      </trkpt>
      <trkpt lat="44.78671" lon="5.36695">
        <ele>520</ele>
        <time>2017-10-19T03:42:32Z</time>
      </trkpt>
      <trkpt lat="44.78689" lon="5.36666">
        <ele>512</ele>
        <time>2017-10-19T03:42:39Z</time>
      </trkpt>
      <trkpt lat="44.787" lon="5.36657">
        <ele>513</ele>
        <time>2017-10-19T03:42:41Z</time>
      </trkpt>
      <trkpt lat="44.78711" lon="5.36652">
        <ele>513</ele>
        <time>2017-10-19T03:42:48Z</time>
      </trkpt>
      <trkpt lat="44.78724" lon="5.36651">
        <ele>514</ele>
        <time>2017-10-19T03:43:03Z</time>
      </trkpt>
      <trkpt lat="44.78737" lon="5.36652">
        <ele>515</ele>
        <time>2017-10-19T03:43:22Z</time>
      </trkpt>
      <trkpt lat="44.78764" lon="5.36657">
        <ele>519</ele>
        <time>2017-10-19T03:43:28Z</time>
      </trkpt>
      <trkpt lat="44.78822" lon="5.36651">
        <ele>522</ele>
        <time>2017-10-19T03:43:48Z</time>
      </trkpt>
      <trkpt lat="44.78849" lon="5.3664">
        <ele>522</ele>
        <time>2017-10-19T03:43:57Z</time>
      </trkpt>
      <trkpt lat="44.78862" lon="5.36634">
        <ele>522</ele>
        <time>2017-10-19T03:44:08Z</time>
      </trkpt>
      <trkpt lat="44.78874" lon="5.36631">
        <ele>522</ele>
        <time>2017-10-19T03:44:15Z</time>
      </trkpt>
      <trkpt lat="44.78887" lon="5.36633">
        <ele>522</ele>
        <time>2017-10-19T03:44:26Z</time>
      </trkpt>
      <trkpt lat="44.789" lon="5.36638">
        <ele>523</ele>
        <time>2017-10-19T03:44:40Z</time>
      </trkpt>
      <trkpt lat="44.78926" lon="5.36652">
        <ele>524</ele>
        <time>2017-10-19T03:44:53Z</time>
      </trkpt>
      <trkpt lat="44.78954" lon="5.36664">
        <ele>521</ele>
        <time>2017-10-19T03:44:57Z</time>
      </trkpt>
      <trkpt lat="44.78981" lon="5.3668">
        <ele>530</ele>
        <time>2017-10-19T03:45:13Z</time>
      </trkpt>
      <trkpt lat="44.78994" lon="5.36688">
        <ele>530</ele>
        <time>2017-10-19T03:45:25Z</time>
      </trkpt>
      <trkpt lat="44.79006" lon="5.36698">
        <ele>524</ele>
        <time>2017-10-19T03:45:45Z</time>
      </trkpt>
      <trkpt lat="44.79026" lon="5.36725">
        <ele>527</ele>
        <time>2017-10-19T03:45:55Z</time>
      </trkpt>
      <trkpt lat="44.79056" lon="5.3678">
        <ele>536</ele>
        <time>2017-10-19T03:46:03Z</time>
      </trkpt>
      <trkpt lat="44.79093" lon="5.36846">
        <ele>537</ele>
        <time>2017-10-19T03:46:12Z</time>
      </trkpt>
      <trkpt lat="44.79114" lon="5.36876">
        <ele>537</ele>
        <time>2017-10-19T03:46:25Z</time>
      </trkpt>
      <trkpt lat="44.7914" lon="5.36902">
        <ele>536</ele>
        <time>2017-10-19T03:46:35Z</time>
      </trkpt>
      <trkpt lat="44.79166" lon="5.36928">
        <ele>540</ele>
        <time>2017-10-19T03:46:52Z</time>
      </trkpt>
      <trkpt lat="44.79191" lon="5.36955">
        <ele>534</ele>
        <time>2017-10-19T03:46:55Z</time>
      </trkpt>
      <trkpt lat="44.79211" lon="5.36986">
        <ele>534</ele>
        <time>2017-10-19T03:47:10Z</time>
      </trkpt>
      <trkpt lat="44.7923" lon="5.37021">
        <ele>542</ele>
        <time>2017-10-19T03:47:20Z</time>
      </trkpt>
      <trkpt lat="44.79271" lon="5.37087">
        <ele>540</ele>
        <time>2017-10-19T03:47:35Z</time>
      </trkpt>
      <trkpt lat="44.7929" lon="5.37121">
        <ele>538</ele>
        <time>2017-10-19T03:47:38Z</time>
      </trkpt>
      <trkpt lat="44.79305" lon="5.37159">
        <ele>537</ele>
        <time>2017-10-19T03:47:45Z</time>
      </trkpt>
      <trkpt lat="44.79325" lon="5.37243">
        <ele>544</ele>
        <time>2017-10-19T03:47:54Z</time>
      </trkpt>
      <trkpt lat="44.79342" lon="5.37332">
        <ele>541</ele>
        <time>2017-10-19T03:48:01Z</time>
      </trkpt>
      <trkpt lat="44.79348" lon="5.37378">
        <ele>536</ele>
        <time>2017-10-19T03:48:08Z</time>
      </trkpt>
      <trkpt lat="44.79351" lon="5.37424">
        <ele>540</ele>
        <time>2017-10-19T03:48:13Z</time>
      </trkpt>
      <trkpt lat="44.79353" lon="5.3747">
        <ele>538</ele>
        <time>2017-10-19T03:48:16Z</time>
      </trkpt>
      <trkpt lat="44.79359" lon="5.37515">
        <ele>539</ele>
        <time>2017-10-19T03:48:35Z</time>
      </trkpt>
      <trkpt lat="44.79374" lon="5.37605">
        <ele>540</ele>
        <time>2017-10-19T03:48:54Z</time>
      </trkpt>
      <trkpt lat="44.79384" lon="5.37648">
        <ele>539</ele>
        <time>2017-10-19T03:49:10Z</time>
      </trkpt>
      <trkpt lat="44.79393" lon="5.37677">
        <ele>538</ele>
        <time>2017-10-19T03:49:29Z</time>
      </trkpt>
      <trkpt lat="44.79406" lon="5.37717">
        <ele>539</ele>
        <time>2017-10-19T03:49:48Z</time>
      </trkpt>
      <trkpt lat="44.79412" lon="5.37758">
        <ele>535</ele>
        <time>2017-10-19T03:50:08Z</time>
      </trkpt>
      <trkpt lat="44.79418" lon="5.37802">
        <ele>530</ele>
        <time>2017-10-19T03:50:24Z</time>
      </trkpt>
      <trkpt lat="44.79418" lon="5.37848">
        <ele>532</ele>
        <time>2017-10-19T03:50:35Z</time>
      </trkpt>
      <trkpt lat="44.79416" lon="5.37941">
        <ele>539</ele>
        <time>2017-10-19T03:50:45Z</time>
      </trkpt>
      <trkpt lat="44.79421" lon="5.37988">
        <ele>530</ele>
        <time>2017-10-19T03:50:53Z</time>
      </trkpt>
      <trkpt lat="44.79431" lon="5.38032">
        <ele>530</ele>
        <time>2017-10-19T03:51:09Z</time>
      </trkpt>
      <trkpt lat="44.79461" lon="5.38132">
        <ele>536</ele>
        <time>2017-10-19T03:51:26Z</time>
      </trkpt>
      <trkpt lat="44.79468" lon="5.38154">
        <ele>535</ele>
        <time>2017-10-19T03:51:31Z</time>
      </trkpt>
      <trkpt lat="44.79485" lon="5.38193">
        <ele>539</ele>
        <time>2017-10-19T03:51:47Z</time>
      </trkpt>
      <trkpt lat="44.795" lon="5.3823">
        <ele>534</ele>
        <time>2017-10-19T03:51:55Z</time>
      </trkpt>
      <trkpt lat="44.7951" lon="5.38265">
        <ele>535</ele>
        <time>2017-10-19T03:51:57Z</time>
      </trkpt>
      <trkpt lat="44.79516" lon="5.3828">
        <ele>535</ele>
        <time>2017-10-19T03:52:13Z</time>
      </trkpt>
      <trkpt lat="44.79524" lon="5.38291">
        <ele>534</ele>
        <time>2017-10-19T03:52:29Z</time>
      </trkpt>
      <trkpt lat="44.79537" lon="5.38299">
        <ele>534</ele>
        <time>2017-10-19T03:52:31Z</time>
      </trkpt>
      <trkpt lat="44.79545" lon="5.383">
        <ele>533</ele>
        <time>2017-10-19T03:52:47Z</time>
      </trkpt>
      <trkpt lat="44.79573" lon="5.38297">
        <ele>532</ele>
        <time>2017-10-19T03:52:53Z</time>
      </trkpt>
      <trkpt lat="44.79619" lon="5.38293">
        <ele>531</ele>
        <time>2017-10-19T03:53:09Z</time>
      </trkpt>
      <trkpt lat="44.79659" lon="5.38296">
        <ele>532</ele>
        <time>2017-10-19T03:53:28Z</time>
      </trkpt>
      <trkpt lat="44.79692" lon="5.38303">
        <ele>536</ele>
        <time>2017-10-19T03:53:39Z</time>
      </trkpt>
      <trkpt lat="44.79711" lon="5.38308">
        <ele>537</ele>
        <time>2017-10-19T03:53:52Z</time>
      </trkpt>
      <trkpt lat="44.79731" lon="5.38323">
        <ele>538</ele>
        <time>2017-10-19T03:54:02Z</time>
      </trkpt>
      <trkpt lat="44.79744" lon="5.38328">
        <ele>539</ele>
        <time>2017-10-19T03:54:09Z</time>
      </trkpt>
      <trkpt lat="44.79757" lon="5.38328">
        <ele>541</ele>
        <time>2017-10-19T03:54:28Z</time>
      </trkpt>
      <trkpt lat="44.79772" lon="5.38321">
        <ele>542</ele>
        <time>2017-10-19T03:54:31Z</time>
      </trkpt>
      <trkpt lat="44.7979" lon="5.38326">
        <ele>544</ele>
        <time>2017-10-19T03:54:35Z</time>
      </trkpt>
      <trkpt lat="44.79817" lon="5.38337">
        <ele>545</ele>
        <time>2017-10-19T03:54:42Z</time>
      </trkpt>
      <trkpt lat="44.79833" lon="5.38343">
        <ele>545</ele>
        <time>2017-10-19T03:54:46Z</time>
      </trkpt>
      <trkpt lat="44.79845" lon="5.38349">
        <ele>548</ele>
        <time>2017-10-19T03:54:57Z</time>
      </trkpt>
      <trkpt lat="44.79855" lon="5.38358">
        <ele>548</ele>
        <time>2017-10-19T03:55:15Z</time>
      </trkpt>
      <trkpt lat="44.79877" lon="5.38384">
        <ele>548</ele>
        <time>2017-10-19T03:55:26Z</time>
      </trkpt>
      <trkpt lat="44.79908" lon="5.38418">
        <ele>549</ele>
        <time>2017-10-19T03:55:36Z</time>
      </trkpt>
      <trkpt lat="44.79915" lon="5.38427">
        <ele>549</ele>
        <time>2017-10-19T03:55:48Z</time>
      </trkpt>
      <trkpt lat="44.79926" lon="5.38458">
        <ele>554</ele>
        <time>2017-10-19T03:55:56Z</time>
      </trkpt>
      <trkpt lat="44.79939" lon="5.3848">
        <ele>554</ele>
        <time>2017-10-19T03:56:00Z</time>
      </trkpt>
      <trkpt lat="44.79962" lon="5.38506">
        <ele>554</ele>
        <time>2017-10-19T03:56:11Z</time>
      </trkpt>
      <trkpt lat="44.80027" lon="5.38581">
        <ele>565</ele>
        <time>2017-10-19T03:56:20Z</time>
      </trkpt>
      <trkpt lat="44.80087" lon="5.38642">
        <ele>569</ele>
        <time>2017-10-19T03:56:22Z</time>
      </trkpt>
      <trkpt lat="44.8011" lon="5.38661">
        <ele>570</ele>
        <time>2017-10-19T03:56:29Z</time>
      </trkpt>
      <trkpt lat="44.80131" lon="5.38676">
        <ele>563</ele>
        <time>2017-10-19T03:56:33Z</time>
      </trkpt>
      <trkpt lat="44.8015" lon="5.38686">
        <ele>565</ele>
        <time>2017-10-19T03:56:48Z</time>
      </trkpt>
      <trkpt lat="44.80169" lon="5.38691">
        <ele>572</ele>
        <time>2017-10-19T03:57:08Z</time>
      </trkpt>
      <trkpt lat="44.80216" lon="5.38683">
        <ele>576</ele>
        <time>2017-10-19T03:57:10Z</time>
      </trkpt>
      <trkpt lat="44.80229" lon="5.38684">
        <ele>578</ele>
        <time>2017-10-19T03:57:24Z</time>
      </trkpt>
      <trkpt lat="44.80236" lon="5.38689">
        <ele>578</ele>
        <time>2017-10-19T03:57:36Z</time>
      </trkpt>
      <trkpt lat="44.80238" lon="5.38702">
        <ele>577</ele>
        <time>2017-10-19T03:57:41Z</time>
      </trkpt>
      <trkpt lat="44.80219" lon="5.38763">
        <ele>573</ele>
        <time>2017-10-19T03:57:50Z</time>
      </trkpt>
      <trkpt lat="44.80218" lon="5.38776">
        <ele>573</ele>
        <time>2017-10-19T03:58:01Z</time>
      </trkpt>
      <trkpt lat="44.80221" lon="5.38795">
        <ele>573</ele>
        <time>2017-10-19T03:58:09Z</time>
      </trkpt>
      <trkpt lat="44.80228" lon="5.38827">
        <ele>576</ele>
        <time>2017-10-19T03:58:29Z</time>
      </trkpt>
      <trkpt lat="44.80242" lon="5.3885">
        <ele>576</ele>
        <time>2017-10-19T03:58:42Z</time>
      </trkpt>
      <trkpt lat="44.80259" lon="5.3888">
        <ele>588</ele>
        <time>2017-10-19T03:58:58Z</time>
      </trkpt>
      <trkpt lat="44.80269" lon="5.38907">
        <ele>585</ele>
        <time>2017-10-19T03:59:04Z</time>
      </trkpt>
      <trkpt lat="44.8028" lon="5.38935">
        <ele>582</ele>
        <time>2017-10-19T03:59:06Z</time>
      </trkpt>
      <trkpt lat="44.80289" lon="5.38948">
        <ele>583</ele>
        <time>2017-10-19T03:59:20Z</time>
      </trkpt>
      <trkpt lat="44.80312" lon="5.38968">
        <ele>585</ele>
        <time>2017-10-19T03:59:34Z</time>
      </trkpt>
      <trkpt lat="44.8032" lon="5.3898">
        <ele>586</ele>
        <time>2017-10-19T03:59:46Z</time>
      </trkpt>
      <trkpt lat="44.80328" lon="5.39005">
        <ele>587</ele>
        <time>2017-10-19T03:59:56Z</time>
      </trkpt>
      <trkpt lat="44.80335" lon="5.39025">
        <ele>594</ele>
        <time>2017-10-19T04:00:13Z</time>
      </trkpt>
      <trkpt lat="44.8038" lon="5.39092">
        <ele>585</ele>
        <time>2017-10-19T04:00:32Z</time>
      </trkpt>
      <trkpt lat="44.80391" lon="5.39102">
        <ele>586</ele>
        <time>2017-10-19T04:00:42Z</time>
      </trkpt>
      <trkpt lat="44.80405" lon="5.39108">
        <ele>588</ele>
        <time>2017-10-19T04:01:00Z</time>
      </trkpt>
      <trkpt lat="44.80453" lon="5.39111">
        <ele>597</ele>
        <time>2017-10-19T04:01:18Z</time>
      </trkpt>
      <trkpt lat="44.805" lon="5.39108">
        <ele>602</ele>
        <time>2017-10-19T04:01:32Z</time>
      </trkpt>
      <trkpt lat="44.80521" lon="5.39102">
        <ele>606</ele>
        <time>2017-10-19T04:01:42Z</time>
      </trkpt>
      <trkpt lat="44.8054" lon="5.39091">
        <ele>606</ele>
        <time>2017-10-19T04:01:47Z</time>
      </trkpt>
      <trkpt lat="44.80581" lon="5.39059">
        <ele>623</ele>
        <time>2017-10-19T04:01:56Z</time>
      </trkpt>
      <trkpt lat="44.80623" lon="5.39036">
        <ele>632</ele>
        <time>2017-10-19T04:02:02Z</time>
      </trkpt>
      <trkpt lat="44.80646" lon="5.3903">
        <ele>633</ele>
        <time>2017-10-19T04:02:21Z</time>
      </trkpt>
      <trkpt lat="44.80652" lon="5.39033">
        <ele>633</ele>
        <time>2017-10-19T04:02:41Z</time>
      </trkpt>
      <trkpt lat="44.80656" lon="5.39037">
        <ele>633</ele>
        <time>2017-10-19T04:02:43Z</time>
      </trkpt>
      <trkpt lat="44.80659" lon="5.39052">
        <ele>631</ele>
        <time>2017-10-19T04:02:46Z</time>
      </trkpt>
      <trkpt lat="44.80656" lon="5.39074">
        <ele>629</ele>
        <time>2017-10-19T04:02:57Z</time>
      </trkpt>
      <trkpt lat="44.80644" lon="5.39107">
        <ele>619</ele>
        <time>2017-10-19T04:03:10Z</time>
      </trkpt>
      <trkpt lat="44.80642" lon="5.39124">
        <ele>618</ele>
        <time>2017-10-19T04:03:22Z</time>
      </trkpt>
      <trkpt lat="44.80649" lon="5.39179">
        <ele>616</ele>
        <time>2017-10-19T04:03:40Z</time>
      </trkpt>
      <trkpt lat="44.80653" lon="5.39202">
        <ele>612</ele>
        <time>2017-10-19T04:03:58Z</time>
      </trkpt>
      <trkpt lat="44.80657" lon="5.39215">
        <ele>612</ele>
        <time>2017-10-19T04:04:07Z</time>
      </trkpt>
      <trkpt lat="44.80684" lon="5.39283">
        <ele>625</ele>
        <time>2017-10-19T04:04:15Z</time>
      </trkpt>
      <trkpt lat="44.80696" lon="5.39296">
        <ele>624</ele>
        <time>2017-10-19T04:04:33Z</time>
      </trkpt>
      <trkpt lat="44.80703" lon="5.39298">
        <ele>625</ele>
        <time>2017-10-19T04:04:44Z</time>
      </trkpt>
      <trkpt lat="44.80731" lon="5.39296">
        <ele>631</ele>
        <time>2017-10-19T04:05:01Z</time>
      </trkpt>
      <trkpt lat="44.80754" lon="5.39298">
        <ele>650</ele>
        <time>2017-10-19T04:05:16Z</time>
      </trkpt>
      <trkpt lat="44.80773" lon="5.39305">
        <ele>650</ele>
        <time>2017-10-19T04:05:20Z</time>
      </trkpt>
      <trkpt lat="44.80797" lon="5.39321">
        <ele>650</ele>
        <time>2017-10-19T04:05:39Z</time>
      </trkpt>
      <trkpt lat="44.80804" lon="5.39326">
        <ele>650</ele>
        <time>2017-10-19T04:05:52Z</time>
      </trkpt>
      <trkpt lat="44.80823" lon="5.39338">
        <ele>632</ele>
        <time>2017-10-19T04:05:54Z</time>
      </trkpt>
      <trkpt lat="44.8084" lon="5.3934">
        <ele>639</ele>
        <time>2017-10-19T04:05:56Z</time>
      </trkpt>
      <trkpt lat="44.80877" lon="5.3934">
        <ele>637</ele>
        <time>2017-10-19T04:06:03Z</time>
      </trkpt>
      <trkpt lat="44.80956" lon="5.39368">
        <ele>645</ele>
        <time>2017-10-19T04:06:11Z</time>
      </trkpt>
      <trkpt lat="44.8098" lon="5.39372">
        <ele>646</ele>
        <time>2017-10-19T04:06:13Z</time>
      </trkpt>
      <trkpt lat="44.81028" lon="5.39374">
        <ele>653</ele>
        <time>2017-10-19T04:06:15Z</time>
      </trkpt>
      <trkpt lat="44.81049" lon="5.39377">
        <ele>654</ele>
        <time>2017-10-19T04:06:18Z</time>
      </trkpt>
      <trkpt lat="44.81065" lon="5.39382">
        <ele>653</ele>
        <time>2017-10-19T04:06:37Z</time>
      </trkpt>
      <trkpt lat="44.81158" lon="5.39435">
        <ele>645</ele>
        <time>2017-10-19T04:06:47Z</time>
      </trkpt>
      <trkpt lat="44.81173" lon="5.39441">
        <ele>646</ele>
        <time>2017-10-19T04:07:06Z</time>
      </trkpt>
      <trkpt lat="44.8119" lon="5.39442">
        <ele>645</ele>
        <time>2017-10-19T04:07:19Z</time>
      </trkpt>
      <trkpt lat="44.81207" lon="5.39435">
        <ele>644</ele>
        <time>2017-10-19T04:07:33Z</time>
      </trkpt>
      <trkpt lat="44.81223" lon="5.39414">
        <ele>653</ele>
        <time>2017-10-19T04:07:52Z</time>
      </trkpt>
      <trkpt lat="44.81229" lon="5.39403">
        <ele>653</ele>
        <time>2017-10-19T04:08:08Z</time>
      </trkpt>
      <trkpt lat="44.81234" lon="5.3938">
        <ele>656</ele>
        <time>2017-10-19T04:08:27Z</time>
      </trkpt>
      <trkpt lat="44.81242" lon="5.39343">
        <ele>659</ele>
        <time>2017-10-19T04:08:44Z</time>
      </trkpt>
      <trkpt lat="44.81256" lon="5.39313">
        <ele>661</ele>
        <time>2017-10-19T04:09:02Z</time>
      </trkpt>
      <trkpt lat="44.81319" lon="5.3922">
        <ele>682</ele>
        <time>2017-10-19T04:09:13Z</time>
      </trkpt>
      <trkpt lat="44.81329" lon="5.39212">
        <ele>683</ele>
        <time>2017-10-19T04:09:21Z</time>
      </trkpt>
      <trkpt lat="44.81337" lon="5.39211">
        <ele>679</ele>
        <time>2017-10-19T04:09:28Z</time>
      </trkpt>
      <trkpt lat="44.81347" lon="5.39213">
        <ele>679</ele>
        <time>2017-10-19T04:09:47Z</time>
      </trkpt>
      <trkpt lat="44.81354" lon="5.39219">
        <ele>679</ele>
        <time>2017-10-19T04:09:49Z</time>
      </trkpt>
      <trkpt lat="44.81361" lon="5.39236">
        <ele>677</ele>
        <time>2017-10-19T04:10:09Z</time>
      </trkpt>
      <trkpt lat="44.8137" lon="5.39252">
        <ele>660</ele>
        <time>2017-10-19T04:10:12Z</time>
      </trkpt>
      <trkpt lat="44.81375" lon="5.39257">
        <ele>660</ele>
        <time>2017-10-19T04:10:15Z</time>
      </trkpt>
      <trkpt lat="44.8139" lon="5.39263">
        <ele>662</ele>
        <time>2017-10-19T04:10:29Z</time>
      </trkpt>
      <trkpt lat="44.81455" lon="5.39248">
        <ele>690</ele>
        <time>2017-10-19T04:10:33Z</time>
      </trkpt>
      <trkpt lat="44.81562" lon="5.39219">
        <ele>700</ele>
        <time>2017-10-19T04:10:35Z</time>
      </trkpt>
      <trkpt lat="44.81588" lon="5.39216">
        <ele>701</ele>
        <time>2017-10-19T04:10:55Z</time>
      </trkpt>
      <trkpt lat="44.81616" lon="5.39217">
        <ele>702</ele>
        <time>2017-10-19T04:11:05Z</time>
      </trkpt>
      <trkpt lat="44.81659" lon="5.39227">
        <ele>698</ele>
        <time>2017-10-19T04:11:14Z</time>
      </trkpt>
      <trkpt lat="44.8172" lon="5.39246">
        <ele>703</ele>
        <time>2017-10-19T04:11:29Z</time>
      </trkpt>
      <trkpt lat="44.81786" lon="5.39261">
        <ele>689</ele>
        <time>2017-10-19T04:11:49Z</time>
      </trkpt>
      <trkpt lat="44.81828" lon="5.39268">
        <ele>693</ele>
        <time>2017-10-19T04:12:04Z</time>
      </trkpt>
      <trkpt lat="44.81865" lon="5.39268">
        <ele>692</ele>
        <time>2017-10-19T04:12:16Z</time>
      </trkpt>
      <trkpt lat="44.8188" lon="5.3926">
        <ele>692</ele>
        <time>2017-10-19T04:12:28Z</time>
      </trkpt>
      <trkpt lat="44.81898" lon="5.39246">
        <ele>709</ele>
        <time>2017-10-19T04:12:44Z</time>
      </trkpt>
      <trkpt lat="44.81946" lon="5.39185">
        <ele>723</ele>
        <time>2017-10-19T04:13:01Z</time>
      </trkpt>
      <trkpt lat="44.81958" lon="5.39175">
        <ele>722</ele>
        <time>2017-10-19T04:13:20Z</time>
      </trkpt>
      <trkpt lat="44.81966" lon="5.39174">
        <ele>722</ele>
        <time>2017-10-19T04:13:26Z</time>
      </trkpt>
      <trkpt lat="44.81978" lon="5.3918">
        <ele>721</ele>
        <time>2017-10-19T04:13:29Z</time>
      </trkpt>
      <trkpt lat="44.82002" lon="5.39229">
        <ele>719</ele>
        <time>2017-10-19T04:13:46Z</time>
      </trkpt>
      <trkpt lat="44.82022" lon="5.3925">
        <ele>712</ele>
        <time>2017-10-19T04:14:02Z</time>
      </trkpt>
      <trkpt lat="44.82043" lon="5.39263">
        <ele>717</ele>
        <time>2017-10-19T04:14:20Z</time>
      </trkpt>
      <trkpt lat="44.82056" lon="5.39278">
        <ele>719</ele>
        <time>2017-10-19T04:14:35Z</time>
      </trkpt>
      <trkpt lat="44.82072" lon="5.39315">
        <ele>719</ele>
        <time>2017-10-19T04:14:47Z</time>
      </trkpt>
      <trkpt lat="44.82082" lon="5.3936">
        <ele>716</ele>
        <time>2017-10-19T04:14:57Z</time>
      </trkpt>
      <trkpt lat="44.82079" lon="5.39392">
        <ele>717</ele>
        <time>2017-10-19T04:15:17Z</time>
      </trkpt>
      <trkpt lat="44.82072" lon="5.39414">
        <ele>720</ele>
        <time>2017-10-19T04:15:30Z</time>
      </trkpt>
      <trkpt lat="44.82063" lon="5.39431">
        <ele>721</ele>
        <time>2017-10-19T04:15:41Z</time>
      </trkpt>
      <trkpt lat="44.82029" lon="5.39466">
        <ele>718</ele>
        <time>2017-10-19T04:15:58Z</time>
      </trkpt>
      <trkpt lat="44.8202" lon="5.39487">
        <ele>718</ele>
        <time>2017-10-19T04:16:10Z</time>
      </trkpt>
      <trkpt lat="44.82017" lon="5.39506">
        <ele>717</ele>
        <time>2017-10-19T04:16:16Z</time>
      </trkpt>
      <trkpt lat="44.82022" lon="5.39529">
        <ele>717</ele>
        <time>2017-10-19T04:16:26Z</time>
      </trkpt>
      <trkpt lat="44.82025" lon="5.39533">
        <ele>717</ele>
        <time>2017-10-19T04:16:39Z</time>
      </trkpt>
      <trkpt lat="44.82045" lon="5.39549">
        <ele>718</ele>
        <time>2017-10-19T04:16:46Z</time>
      </trkpt>
      <trkpt lat="44.82078" lon="5.39561">
        <ele>719</ele>
        <time>2017-10-19T04:17:02Z</time>
      </trkpt>
      <trkpt lat="44.82095" lon="5.3956">
        <ele>723</ele>
        <time>2017-10-19T04:17:18Z</time>
      </trkpt>
      <trkpt lat="44.82118" lon="5.39547">
        <ele>724</ele>
        <time>2017-10-19T04:17:27Z</time>
      </trkpt>
      <trkpt lat="44.8214" lon="5.39533">
        <ele>726</ele>
        <time>2017-10-19T04:17:35Z</time>
      </trkpt>
      <trkpt lat="44.82176" lon="5.39512">
        <ele>734</ele>
        <time>2017-10-19T04:17:40Z</time>
      </trkpt>
      <trkpt lat="44.82202" lon="5.39499">
        <ele>749</ele>
        <time>2017-10-19T04:17:51Z</time>
      </trkpt>
      <trkpt lat="44.82221" lon="5.39496">
        <ele>750</ele>
        <time>2017-10-19T04:18:07Z</time>
      </trkpt>
      <trkpt lat="44.82262" lon="5.39501">
        <ele>744</ele>
        <time>2017-10-19T04:18:22Z</time>
      </trkpt>
      <trkpt lat="44.8229" lon="5.39507">
        <ele>743</ele>
        <time>2017-10-19T04:18:28Z</time>
      </trkpt>
      <trkpt lat="44.82334" lon="5.39524">
        <ele>753</ele>
        <time>2017-10-19T04:18:41Z</time>
      </trkpt>
      <trkpt lat="44.82404" lon="5.39531">
        <ele>755</ele>
        <time>2017-10-19T04:19:01Z</time>
      </trkpt>
      <trkpt lat="44.82406" lon="5.39528">
        <ele>756</ele>
        <time>2017-10-19T04:19:05Z</time>
      </trkpt>
      <trkpt lat="44.82405" lon="5.39517">
        <ele>761</ele>
        <time>2017-10-19T04:19:18Z</time>
      </trkpt>
      <trkpt lat="44.82397" lon="5.39509">
        <ele>762</ele>
        <time>2017-10-19T04:19:24Z</time>
      </trkpt>
      <trkpt lat="44.82373" lon="5.39509">
        <ele>756</ele>
        <time>2017-10-19T04:19:34Z</time>
      </trkpt>
      <trkpt lat="44.82331" lon="5.39497">
        <ele>764</ele>
        <time>2017-10-19T04:19:53Z</time>
      </trkpt>
      <trkpt lat="44.82304" lon="5.39484">
        <ele>767</ele>
        <time>2017-10-19T04:20:05Z</time>
      </trkpt>
      <trkpt lat="44.82273" lon="5.39463">
        <ele>767</ele>
        <time>2017-10-19T04:20:13Z</time>
      </trkpt>
      <trkpt lat="44.82233" lon="5.39424">
        <ele>762</ele>
        <time>2017-10-19T04:20:28Z</time>
      </trkpt>
      <trkpt lat="44.82207" lon="5.39393">
        <ele>767</ele>
        <time>2017-10-19T04:20:31Z</time>
      </trkpt>
      <trkpt lat="44.82195" lon="5.39371">
        <ele>767</ele>
        <time>2017-10-19T04:20:35Z</time>
      </trkpt>
      <trkpt lat="44.82185" lon="5.39339">
        <ele>764</ele>
        <time>2017-10-19T04:20:47Z</time>
      </trkpt>
      <trkpt lat="44.82175" lon="5.39279">
        <ele>778</ele>
        <time>2017-10-19T04:20:59Z</time>
      </trkpt>
      <trkpt lat="44.82166" lon="5.39244">
        <ele>771</ele>
        <time>2017-10-19T04:21:06Z</time>
      </trkpt>
      <trkpt lat="44.8215" lon="5.392">
        <ele>772</ele>
        <time>2017-10-19T04:21:25Z</time>
      </trkpt>
      <trkpt lat="44.82144" lon="5.39186">
        <ele>773</ele>
        <time>2017-10-19T04:21:33Z</time>
      </trkpt>
      <trkpt lat="44.82144" lon="5.39174">
        <ele>776</ele>
        <time>2017-10-19T04:21:37Z</time>
      </trkpt>
      <trkpt lat="44.82151" lon="5.39167">
        <ele>782</ele>
        <time>2017-10-19T04:21:40Z</time>
      </trkpt>
      <trkpt lat="44.82156" lon="5.3917">
        <ele>785</ele>
        <time>2017-10-19T04:21:58Z</time>
      </trkpt>
      <trkpt lat="44.82168" lon="5.39212">
        <ele>796</ele>
        <time>2017-10-19T04:22:14Z</time>
      </trkpt>
      <trkpt lat="44.82201" lon="5.39299">
        <ele>781</ele>
        <time>2017-10-19T04:22:29Z</time>
      </trkpt>
      <trkpt lat="44.82219" lon="5.39334">
        <ele>774</ele>
        <time>2017-10-19T04:22:36Z</time>
      </trkpt>
      <trkpt lat="44.8226" lon="5.39372">
        <ele>792</ele>
        <time>2017-10-19T04:22:41Z</time>
      </trkpt>
      <trkpt lat="44.82279" lon="5.39397">
        <ele>791</ele>
        <time>2017-10-19T04:22:48Z</time>
      </trkpt>
      <trkpt lat="44.82301" lon="5.39417">
        <ele>778</ele>
        <time>2017-10-19T04:22:57Z</time>
      </trkpt>
      <trkpt lat="44.82326" lon="5.39429">
        <ele>784</ele>
        <time>2017-10-19T04:23:10Z</time>
      </trkpt>
      <trkpt lat="44.82357" lon="5.39437">
        <ele>791</ele>
        <time>2017-10-19T04:23:16Z</time>
      </trkpt>
      <trkpt lat="44.82412" lon="5.39448">
        <ele>795</ele>
        <time>2017-10-19T04:23:26Z</time>
      </trkpt>
      <trkpt lat="44.82439" lon="5.3947">
        <ele>803</ele>
        <time>2017-10-19T04:23:45Z</time>
      </trkpt>
      <trkpt lat="44.82466" lon="5.39486">
        <ele>804</ele>
        <time>2017-10-19T04:23:54Z</time>
      </trkpt>
      <trkpt lat="44.82503" lon="5.39499">
        <ele>803</ele>
        <time>2017-10-19T04:24:05Z</time>
      </trkpt>
      <trkpt lat="44.82525" lon="5.39501">
        <ele>792</ele>
        <time>2017-10-19T04:24:23Z</time>
      </trkpt>
      <trkpt lat="44.82567" lon="5.39499">
        <ele>821</ele>
        <time>2017-10-19T04:24:42Z</time>
      </trkpt>
      <trkpt lat="44.82583" lon="5.39504">
        <ele>809</ele>
        <time>2017-10-19T04:24:44Z</time>
      </trkpt>
      <trkpt lat="44.82618" lon="5.39509">
        <ele>809</ele>
        <time>2017-10-19T04:24:50Z</time>
      </trkpt>
      <trkpt lat="44.8267" lon="5.39516">
        <ele>825</ele>
        <time>2017-10-19T04:24:52Z</time>
      </trkpt>
      <trkpt lat="44.82694" lon="5.39526">
        <ele>826</ele>
        <time>2017-10-19T04:25:12Z</time>
      </trkpt>
      <trkpt lat="44.82715" lon="5.39543">
        <ele>827</ele>
        <time>2017-10-19T04:25:28Z</time>
      </trkpt>
      <trkpt lat="44.82721" lon="5.39552">
        <ele>826</ele>
        <time>2017-10-19T04:25:47Z</time>
      </trkpt>
      <trkpt lat="44.82726" lon="5.39567">
        <ele>826</ele>
        <time>2017-10-19T04:26:02Z</time>
      </trkpt>
      <trkpt lat="44.82721" lon="5.39588">
        <ele>826</ele>
        <time>2017-10-19T04:26:04Z</time>
      </trkpt>
      <trkpt lat="44.82702" lon="5.39612">
        <ele>824</ele>
        <time>2017-10-19T04:26:11Z</time>
      </trkpt>
      <trkpt lat="44.82676" lon="5.39633">
        <ele>824</ele>
        <time>2017-10-19T04:26:14Z</time>
      </trkpt>
      <trkpt lat="44.8266" lon="5.3965">
        <ele>811</ele>
        <time>2017-10-19T04:26:16Z</time>
      </trkpt>
      <trkpt lat="44.82636" lon="5.39681">
        <ele>819</ele>
        <time>2017-10-19T04:26:24Z</time>
      </trkpt>
      <trkpt lat="44.8262" lon="5.39712">
        <ele>820</ele>
        <time>2017-10-19T04:26:35Z</time>
      </trkpt>
      <trkpt lat="44.82605" lon="5.39734">
        <ele>820</ele>
        <time>2017-10-19T04:26:53Z</time>
      </trkpt>
      <trkpt lat="44.82592" lon="5.39745">
        <ele>818</ele>
        <time>2017-10-19T04:27:13Z</time>
      </trkpt>
      <trkpt lat="44.82575" lon="5.39751">
        <ele>812</ele>
        <time>2017-10-19T04:27:15Z</time>
      </trkpt>
      <trkpt lat="44.82563" lon="5.39758">
        <ele>807</ele>
        <time>2017-10-19T04:27:35Z</time>
      </trkpt>
      <trkpt lat="44.8256" lon="5.39764">
        <ele>806</ele>
        <time>2017-10-19T04:27:43Z</time>
      </trkpt>
      <trkpt lat="44.82559" lon="5.39776">
        <ele>805</ele>
        <time>2017-10-19T04:27:57Z</time>
      </trkpt>
      <trkpt lat="44.82563" lon="5.39786">
        <ele>805</ele>
        <time>2017-10-19T04:28:11Z</time>
      </trkpt>
      <trkpt lat="44.8257" lon="5.39787">
        <ele>806</ele>
        <time>2017-10-19T04:28:14Z</time>
      </trkpt>
      <trkpt lat="44.82582" lon="5.39776">
        <ele>808</ele>
        <time>2017-10-19T04:28:22Z</time>
      </trkpt>
      <trkpt lat="44.82599" lon="5.39756">
        <ele>826</ele>
        <time>2017-10-19T04:28:32Z</time>
      </trkpt>
      <trkpt lat="44.8262" lon="5.39741">
        <ele>823</ele>
        <time>2017-10-19T04:28:41Z</time>
      </trkpt>
      <trkpt lat="44.82644" lon="5.39705">
        <ele>823</ele>
        <time>2017-10-19T04:28:48Z</time>
      </trkpt>
      <trkpt lat="44.82659" lon="5.39689">
        <ele>823</ele>
        <time>2017-10-19T04:29:03Z</time>
      </trkpt>
      <trkpt lat="44.82697" lon="5.39661">
        <ele>828</ele>
        <time>2017-10-19T04:29:12Z</time>
      </trkpt>
      <trkpt lat="44.82735" lon="5.39633">
        <ele>832</ele>
        <time>2017-10-19T04:29:26Z</time>
      </trkpt>
      <trkpt lat="44.82782" lon="5.39588">
        <ele>847</ele>
        <time>2017-10-19T04:29:30Z</time>
      </trkpt>
      <trkpt lat="44.82805" lon="5.3957">
        <ele>848</ele>
        <time>2017-10-19T04:29:34Z</time>
      </trkpt>
      <trkpt lat="44.82814" lon="5.39559">
        <ele>849</ele>
        <time>2017-10-19T04:29:43Z</time>
      </trkpt>
      <trkpt lat="44.82818" lon="5.39537">
        <ele>851</ele>
        <time>2017-10-19T04:30:03Z</time>
      </trkpt>
      <trkpt lat="44.82812" lon="5.39519">
        <ele>852</ele>
        <time>2017-10-19T04:30:07Z</time>
      </trkpt>
      <trkpt lat="44.82796" lon="5.39502">
        <ele>850</ele>
        <time>2017-10-19T04:30:12Z</time>
      </trkpt>
      <trkpt lat="44.82739" lon="5.3948">
        <ele>856</ele>
        <time>2017-10-19T04:30:29Z</time>
      </trkpt>
      <trkpt lat="44.82693" lon="5.3947">
        <ele>857</ele>
        <time>2017-10-19T04:30:35Z</time>
      </trkpt>
      <trkpt lat="44.8268" lon="5.3946">
        <ele>859</ele>
        <time>2017-10-19T04:30:44Z</time>
      </trkpt>
      <trkpt lat="44.82668" lon="5.39452">
        <ele>863</ele>
        <time>2017-10-19T04:30:55Z</time>
      </trkpt>
      <trkpt lat="44.8261" lon="5.39446">
        <ele>852</ele>
        <time>2017-10-19T04:31:11Z</time>
      </trkpt>
      <trkpt lat="44.82596" lon="5.3944">
        <ele>855</ele>
        <time>2017-10-19T04:31:15Z</time>
      </trkpt>
      <trkpt lat="44.8256" lon="5.39412">
        <ele>871</ele>
        <time>2017-10-19T04:31:20Z</time>
      </trkpt>
      <trkpt lat="44.82526" lon="5.39386">
        <ele>869</ele>
        <time>2017-10-19T04:31:35Z</time>
      </trkpt>
      <trkpt lat="44.82512" lon="5.3937">
        <ele>871</ele>
        <time>2017-10-19T04:31:39Z</time>
      </trkpt>
      <trkpt lat="44.82475" lon="5.39318">
        <ele>876</ele>
        <time>2017-10-19T04:31:48Z</time>
      </trkpt>
      <trkpt lat="44.82461" lon="5.39303">
        <ele>876</ele>
        <time>2017-10-19T04:31:53Z</time>
      </trkpt>
      <trkpt lat="44.82449" lon="5.39292">
        <ele>876</ele>
        <time>2017-10-19T04:32:08Z</time>
      </trkpt>
      <trkpt lat="44.82412" lon="5.39262">
        <ele>866</ele>
        <time>2017-10-19T04:32:15Z</time>
      </trkpt>
      <trkpt lat="44.824" lon="5.39245">
        <ele>874</ele>
        <time>2017-10-19T04:32:24Z</time>
      </trkpt>
      <trkpt lat="44.82384" lon="5.39211">
        <ele>874</ele>
        <time>2017-10-19T04:32:29Z</time>
      </trkpt>
      <trkpt lat="44.82372" lon="5.39181">
        <ele>875</ele>
        <time>2017-10-19T04:32:41Z</time>
      </trkpt>
      <trkpt lat="44.8236" lon="5.39161">
        <ele>885</ele>
        <time>2017-10-19T04:32:57Z</time>
      </trkpt>
      <trkpt lat="44.82313" lon="5.39081">
        <ele>878</ele>
        <time>2017-10-19T04:33:14Z</time>
      </trkpt>
      <trkpt lat="44.82297" lon="5.39026">
        <ele>874</ele>
        <time>2017-10-19T04:33:30Z</time>
      </trkpt>
      <trkpt lat="44.82297" lon="5.39002">
        <ele>875</ele>
        <time>2017-10-19T04:33:38Z</time>
      </trkpt>
      <trkpt lat="44.82304" lon="5.38977">
        <ele>875</ele>
        <time>2017-10-19T04:33:41Z</time>
      </trkpt>
      <trkpt lat="44.82316" lon="5.38946">
        <ele>877</ele>
        <time>2017-10-19T04:33:44Z</time>
      </trkpt>
      <trkpt lat="44.82325" lon="5.3891">
        <ele>886</ele>
        <time>2017-10-19T04:33:56Z</time>
      </trkpt>
      <trkpt lat="44.82326" lon="5.38871">
        <ele>881</ele>
        <time>2017-10-19T04:33:58Z</time>
      </trkpt>
      <trkpt lat="44.8232" lon="5.38837">
        <ele>889</ele>
        <time>2017-10-19T04:34:17Z</time>
      </trkpt>
      <trkpt lat="44.82309" lon="5.38793">
        <ele>894</ele>
        <time>2017-10-19T04:34:30Z</time>
      </trkpt>
      <trkpt lat="44.82308" lon="5.3878">
        <ele>896</ele>
        <time>2017-10-19T04:34:38Z</time>
      </trkpt>
      <trkpt lat="44.82311" lon="5.38773">
        <ele>898</ele>
        <time>2017-10-19T04:34:48Z</time>
      </trkpt>
      <trkpt lat="44.82314" lon="5.38769">
        <ele>899</ele>
        <time>2017-10-19T04:35:02Z</time>
      </trkpt>
      <trkpt lat="44.82319" lon="5.38769">
        <ele>901</ele>
        <time>2017-10-19T04:35:11Z</time>
      </trkpt>
      <trkpt lat="44.82325" lon="5.38781">
        <ele>899</ele>
        <time>2017-10-19T04:35:17Z</time>
      </trkpt>
      <trkpt lat="44.82325" lon="5.38802">
        <ele>896</ele>
        <time>2017-10-19T04:35:36Z</time>
      </trkpt>
      <trkpt lat="44.8233" lon="5.38829">
        <ele>900</ele>
        <time>2017-10-19T04:35:41Z</time>
      </trkpt>
      <trkpt lat="44.82338" lon="5.38868">
        <ele>917</ele>
        <time>2017-10-19T04:35:54Z</time>
      </trkpt>
      <trkpt lat="44.82338" lon="5.38894">
        <ele>913</ele>
        <time>2017-10-19T04:36:07Z</time>
      </trkpt>
      <trkpt lat="44.82334" lon="5.38929">
        <ele>904</ele>
        <time>2017-10-19T04:36:15Z</time>
      </trkpt>
      <trkpt lat="44.82329" lon="5.38954">
        <ele>879</ele>
        <time>2017-10-19T04:36:22Z</time>
      </trkpt>
      <trkpt lat="44.82327" lon="5.3898">
        <ele>883</ele>
        <time>2017-10-19T04:36:42Z</time>
      </trkpt>
      <trkpt lat="44.82327" lon="5.38996">
        <ele>890</ele>
        <time>2017-10-19T04:36:51Z</time>
      </trkpt>
      <trkpt lat="44.82332" lon="5.3902">
        <ele>884</ele>
        <time>2017-10-19T04:37:04Z</time>
      </trkpt>
      <trkpt lat="44.82343" lon="5.39045">
        <ele>905</ele>
        <time>2017-10-19T04:37:18Z</time>
      </trkpt>
      <trkpt lat="44.82356" lon="5.39064">
        <ele>904</ele>
        <time>2017-10-19T04:37:22Z</time>
      </trkpt>
      <trkpt lat="44.82398" lon="5.39109">
        <ele>901</ele>
        <time>2017-10-19T04:37:37Z</time>
      </trkpt>
      <trkpt lat="44.82409" lon="5.39123">
        <ele>900</ele>
        <time>2017-10-19T04:37:39Z</time>
      </trkpt>
      <trkpt lat="44.82424" lon="5.3915">
        <ele>915</ele>
        <time>2017-10-19T04:37:51Z</time>
      </trkpt>
      <trkpt lat="44.82441" lon="5.39177">
        <ele>905</ele>
        <time>2017-10-19T04:37:55Z</time>
      </trkpt>
      <trkpt lat="44.82467" lon="5.39197">
        <ele>909</ele>
        <time>2017-10-19T04:38:14Z</time>
      </trkpt>
      <trkpt lat="44.82482" lon="5.39203">
        <ele>911</ele>
        <time>2017-10-19T04:38:16Z</time>
      </trkpt>
      <trkpt lat="44.82517" lon="5.39224">
        <ele>929</ele>
        <time>2017-10-19T04:38:33Z</time>
      </trkpt>
      <trkpt lat="44.82552" lon="5.39276">
        <ele>911</ele>
        <time>2017-10-19T04:38:37Z</time>
      </trkpt>
      <trkpt lat="44.82598" lon="5.39313">
        <ele>921</ele>
        <time>2017-10-19T04:38:53Z</time>
      </trkpt>
      <trkpt lat="44.8262" lon="5.39332">
        <ele>922</ele>
        <time>2017-10-19T04:39:08Z</time>
      </trkpt>
      <trkpt lat="44.82634" lon="5.39339">
        <ele>902</ele>
        <time>2017-10-19T04:39:25Z</time>
      </trkpt>
      <trkpt lat="44.82649" lon="5.39337">
        <ele>907</ele>
        <time>2017-10-19T04:39:41Z</time>
      </trkpt>
      <trkpt lat="44.82666" lon="5.3932">
        <ele>924</ele>
        <time>2017-10-19T04:39:48Z</time>
      </trkpt>
      <trkpt lat="44.82681" lon="5.39303">
        <ele>940</ele>
        <time>2017-10-19T04:40:01Z</time>
      </trkpt>
      <trkpt lat="44.82696" lon="5.39298">
        <ele>944</ele>
        <time>2017-10-19T04:40:11Z</time>
      </trkpt>
      <trkpt lat="44.8271" lon="5.39302">
        <ele>945</ele>
        <time>2017-10-19T04:40:23Z</time>
      </trkpt>
      <trkpt lat="44.82725" lon="5.3931">
        <ele>944</ele>
        <time>2017-10-19T04:40:29Z</time>
      </trkpt>
      <trkpt lat="44.82745" lon="5.39332">
        <ele>939</ele>
        <time>2017-10-19T04:40:39Z</time>
      </trkpt>
      <trkpt lat="44.82762" lon="5.39346">
        <ele>931</ele>
        <time>2017-10-19T04:40:56Z</time>
      </trkpt>
      <trkpt lat="44.82784" lon="5.39355">
        <ele>929</ele>
        <time>2017-10-19T04:41:08Z</time>
      </trkpt>
      <trkpt lat="44.82814" lon="5.39371">
        <ele>928</ele>
        <time>2017-10-19T04:41:13Z</time>
      </trkpt>
      <trkpt lat="44.82835" lon="5.39371">
        <ele>938</ele>
        <time>2017-10-19T04:41:23Z</time>
      </trkpt>
      <trkpt lat="44.82862" lon="5.39362">
        <ele>941</ele>
        <time>2017-10-19T04:41:29Z</time>
      </trkpt>
      <trkpt lat="44.82875" lon="5.39364">
        <ele>942</ele>
        <time>2017-10-19T04:41:31Z</time>
      </trkpt>
      <trkpt lat="44.82912" lon="5.39381">
        <ele>938</ele>
        <time>2017-10-19T04:41:43Z</time>
      </trkpt>
      <trkpt lat="44.82928" lon="5.39382">
        <ele>947</ele>
        <time>2017-10-19T04:41:52Z</time>
      </trkpt>
      <trkpt lat="44.82942" lon="5.39381">
        <ele>949</ele>
        <time>2017-10-19T04:41:55Z</time>
      </trkpt>
      <trkpt lat="44.82961" lon="5.3938">
        <ele>952</ele>
        <time>2017-10-19T04:42:04Z</time>
      </trkpt>
      <trkpt lat="44.8298" lon="5.39384">
        <ele>952</ele>
        <time>2017-10-19T04:42:09Z</time>
      </trkpt>
      <trkpt lat="44.83027" lon="5.39397">
        <ele>960</ele>
        <time>2017-10-19T04:42:22Z</time>
      </trkpt>
      <trkpt lat="44.83062" lon="5.39409">
        <ele>962</ele>
        <time>2017-10-19T04:42:24Z</time>
      </trkpt>
      <trkpt lat="44.83094" lon="5.39431">
        <ele>950</ele>
        <time>2017-10-19T04:42:43Z</time>
      </trkpt>
      <trkpt lat="44.83161" lon="5.39451">
        <ele>951</ele>
        <time>2017-10-19T04:42:59Z</time>
      </trkpt>
      <trkpt lat="44.83189" lon="5.39459">
        <ele>958</ele>
        <time>2017-10-19T04:43:13Z</time>
      </trkpt>
      <trkpt lat="44.8321" lon="5.39461">
        <ele>959</ele>
        <time>2017-10-19T04:43:21Z</time>
      </trkpt>
      <trkpt lat="44.83224" lon="5.3947">
        <ele>959</ele>
        <time>2017-10-19T04:43:23Z</time>
      </trkpt>
      <trkpt lat="44.83234" lon="5.39485">
        <ele>959</ele>
        <time>2017-10-19T04:43:34Z</time>
      </trkpt>
      <trkpt lat="44.83239" lon="5.39501">
        <ele>958</ele>
        <time>2017-10-19T04:43:41Z</time>
      </trkpt>
      <trkpt lat="44.83239" lon="5.39519">
        <ele>957</ele>
        <time>2017-10-19T04:43:46Z</time>
      </trkpt>
      <trkpt lat="44.83234" lon="5.39537">
        <ele>957</ele>
        <time>2017-10-19T04:43:50Z</time>
      </trkpt>
      <trkpt lat="44.83222" lon="5.39557">
        <ele>957</ele>
        <time>2017-10-19T04:44:06Z</time>
      </trkpt>
      <trkpt lat="44.83182" lon="5.39612">
        <ele>964</ele>
        <time>2017-10-19T04:44:12Z</time>
      </trkpt>
      <trkpt lat="44.83174" lon="5.39626">
        <ele>967</ele>
        <time>2017-10-19T04:44:17Z</time>
      </trkpt>
      <trkpt lat="44.83167" lon="5.39634">
        <ele>968</ele>
        <time>2017-10-19T04:44:29Z</time>
      </trkpt>
      <trkpt lat="44.83134" lon="5.39653">
        <ele>952</ele>
        <time>2017-10-19T04:44:31Z</time>
      </trkpt>
      <trkpt lat="44.83099" lon="5.39682">
        <ele>965</ele>
        <time>2017-10-19T04:44:37Z</time>
      </trkpt>
      <trkpt lat="44.83054" lon="5.39732">
        <ele>961</ele>
        <time>2017-10-19T04:44:56Z</time>
      </trkpt>
      <trkpt lat="44.83038" lon="5.39746">
        <ele>959</ele>
        <time>2017-10-19T04:45:11Z</time>
      </trkpt>
      <trkpt lat="44.83016" lon="5.39762">
        <ele>974</ele>
        <time>2017-10-19T04:45:21Z</time>
      </trkpt>
      <trkpt lat="44.82966" lon="5.39794">
        <ele>962</ele>
        <time>2017-10-19T04:45:27Z</time>
      </trkpt>
      <trkpt lat="44.82937" lon="5.39805">
        <ele>959</ele>
        <time>2017-10-19T04:45:40Z</time>
      </trkpt>
      <trkpt lat="44.82929" lon="5.39808">
        <ele>959</ele>
        <time>2017-10-19T04:45:54Z</time>
      </trkpt>
      <trkpt lat="44.82924" lon="5.39814">
        <ele>958</ele>
        <time>2017-10-19T04:46:03Z</time>
      </trkpt>
      <trkpt lat="44.82922" lon="5.39824">
        <ele>958</ele>
        <time>2017-10-19T04:46:19Z</time>
      </trkpt>
      <trkpt lat="44.82928" lon="5.39832">
        <ele>959</ele>
        <time>2017-10-19T04:46:25Z</time>
      </trkpt>
      <trkpt lat="44.8294" lon="5.3983">
        <ele>961</ele>
        <time>2017-10-19T04:46:28Z</time>
      </trkpt>
      <trkpt lat="44.82952" lon="5.39819">
        <ele>963</ele>
        <time>2017-10-19T04:46:44Z</time>
      </trkpt>
      <trkpt lat="44.83053" lon="5.39773">
        <ele>985</ele>
        <time>2017-10-19T04:47:00Z</time>
      </trkpt>
      <trkpt lat="44.83072" lon="5.3976">
        <ele>985</ele>
        <time>2017-10-19T04:47:07Z</time>
      </trkpt>
      <trkpt lat="44.83096" lon="5.39737">
        <ele>980</ele>
        <time>2017-10-19T04:47:14Z</time>
      </trkpt>
      <trkpt lat="44.83131" lon="5.39712">
        <ele>979</ele>
        <time>2017-10-19T04:47:17Z</time>
      </trkpt>
      <trkpt lat="44.83147" lon="5.39707">
        <ele>980</ele>
        <time>2017-10-19T04:47:28Z</time>
      </trkpt>
      <trkpt lat="44.83166" lon="5.39705">
        <ele>981</ele>
        <time>2017-10-19T04:47:31Z</time>
      </trkpt>
      <trkpt lat="44.83191" lon="5.39704">
        <ele>997</ele>
        <time>2017-10-19T04:47:46Z</time>
      </trkpt>
      <trkpt lat="44.83198" lon="5.39699">
        <ele>997</ele>
        <time>2017-10-19T04:48:02Z</time>
      </trkpt>
      <trkpt lat="44.83207" lon="5.39687">
        <ele>996</ele>
        <time>2017-10-19T04:48:06Z</time>
      </trkpt>
      <trkpt lat="44.83221" lon="5.39665">
        <ele>980</ele>
        <time>2017-10-19T04:48:24Z</time>
      </trkpt>
      <trkpt lat="44.83232" lon="5.39656">
        <ele>983</ele>
        <time>2017-10-19T04:48:44Z</time>
      </trkpt>
      <trkpt lat="44.83259" lon="5.39642">
        <ele>999</ele>
        <time>2017-10-19T04:48:57Z</time>
      </trkpt>
      <trkpt lat="44.83269" lon="5.39633">
        <ele>1000</ele>
        <time>2017-10-19T04:49:04Z</time>
      </trkpt>
      <trkpt lat="44.83278" lon="5.39618">
        <ele>999</ele>
        <time>2017-10-19T04:49:21Z</time>
      </trkpt>
      <trkpt lat="44.83305" lon="5.3957">
        <ele>990</ele>
        <time>2017-10-19T04:49:26Z</time>
      </trkpt>
      <trkpt lat="44.83346" lon="5.39519">
        <ele>1008</ele>
        <time>2017-10-19T04:49:37Z</time>
      </trkpt>
      <trkpt lat="44.83373" lon="5.39473">
        <ele>1006</ele>
        <time>2017-10-19T04:49:41Z</time>
      </trkpt>
      <trkpt lat="44.83382" lon="5.39453">
        <ele>1007</ele>
        <time>2017-10-19T04:49:59Z</time>
      </trkpt>
      <trkpt lat="44.83388" lon="5.39427">
        <ele>1008</ele>
        <time>2017-10-19T04:50:04Z</time>
      </trkpt>
      <trkpt lat="44.83396" lon="5.39366">
        <ele>1013</ele>
        <time>2017-10-19T04:50:19Z</time>
      </trkpt>
      <trkpt lat="44.83397" lon="5.39315">
        <ele>1029</ele>
        <time>2017-10-19T04:50:26Z</time>
      </trkpt>
      <trkpt lat="44.83394" lon="5.3929">
        <ele>1032</ele>
        <time>2017-10-19T04:50:37Z</time>
      </trkpt>
      <trkpt lat="44.83387" lon="5.39274">
        <ele>1035</ele>
        <time>2017-10-19T04:50:43Z</time>
      </trkpt>
      <trkpt lat="44.83376" lon="5.39261">
        <ele>1035</ele>
        <time>2017-10-19T04:51:03Z</time>
      </trkpt>
      <trkpt lat="44.83364" lon="5.39256">
        <ele>1034</ele>
        <time>2017-10-19T04:51:07Z</time>
      </trkpt>
      <trkpt lat="44.83333" lon="5.39256">
        <ele>1035</ele>
        <time>2017-10-19T04:51:24Z</time>
      </trkpt>
      <trkpt lat="44.83318" lon="5.39253">
        <ele>1031</ele>
        <time>2017-10-19T04:51:36Z</time>
      </trkpt>
      <trkpt lat="44.83308" lon="5.39246">
        <ele>1048</ele>
        <time>2017-10-19T04:51:44Z</time>
      </trkpt>
      <trkpt lat="44.83287" lon="5.39228">
        <ele>1051</ele>
        <time>2017-10-19T04:51:59Z</time>
      </trkpt>
      <trkpt lat="44.83276" lon="5.39225">
        <ele>1051</ele>
        <time>2017-10-19T04:52:11Z</time>
      </trkpt>
      <trkpt lat="44.83269" lon="5.39228">
        <ele>1050</ele>
        <time>2017-10-19T04:52:25Z</time>
      </trkpt>
      <trkpt lat="44.83256" lon="5.39244">
        <ele>1042</ele>
        <time>2017-10-19T04:52:32Z</time>
      </trkpt>
      <trkpt lat="44.83235" lon="5.39272">
        <ele>1027</ele>
        <time>2017-10-19T04:52:47Z</time>
      </trkpt>
      <trkpt lat="44.83222" lon="5.39277">
        <ele>1025</ele>
        <time>2017-10-19T04:53:03Z</time>
      </trkpt>
      <trkpt lat="44.83206" lon="5.39278">
        <ele>1025</ele>
        <time>2017-10-19T04:53:08Z</time>
      </trkpt>
      <trkpt lat="44.83187" lon="5.39267">
        <ele>1029</ele>
        <time>2017-10-19T04:53:26Z</time>
      </trkpt>
      <trkpt lat="44.83173" lon="5.39263">
        <ele>1032</ele>
        <time>2017-10-19T04:53:44Z</time>
      </trkpt>
      <trkpt lat="44.83154" lon="5.3926">
        <ele>1031</ele>
        <time>2017-10-19T04:53:47Z</time>
      </trkpt>
      <trkpt lat="44.8313" lon="5.3926">
        <ele>1026</ele>
        <time>2017-10-19T04:54:06Z</time>
      </trkpt>
      <trkpt lat="44.83095" lon="5.39247">
        <ele>1045</ele>
        <time>2017-10-19T04:54:13Z</time>
      </trkpt>
      <trkpt lat="44.83073" lon="5.39229">
        <ele>1046</ele>
        <time>2017-10-19T04:54:32Z</time>
      </trkpt>
      <trkpt lat="44.83053" lon="5.39225">
        <ele>1048</ele>
        <time>2017-10-19T04:54:50Z</time>
      </trkpt>
      <trkpt lat="44.83036" lon="5.39228">
        <ele>1046</ele>
        <time>2017-10-19T04:54:59Z</time>
      </trkpt>
      <trkpt lat="44.83022" lon="5.39226">
        <ele>1044</ele>
        <time>2017-10-19T04:55:05Z</time>
      </trkpt>
      <trkpt lat="44.8299" lon="5.39198">
        <ele>1041</ele>
        <time>2017-10-19T04:55:25Z</time>
      </trkpt>
      <trkpt lat="44.82936" lon="5.39164">
        <ele>1059</ele>
        <time>2017-10-19T04:55:30Z</time>
      </trkpt>
      <trkpt lat="44.82917" lon="5.39152">
        <ele>1056</ele>
        <time>2017-10-19T04:55:33Z</time>
      </trkpt>
      <trkpt lat="44.82892" lon="5.39144">
        <ele>1052</ele>
        <time>2017-10-19T04:55:49Z</time>
      </trkpt>
      <trkpt lat="44.82878" lon="5.39141">
        <ele>1052</ele>
        <time>2017-10-19T04:56:00Z</time>
      </trkpt>
      <trkpt lat="44.82862" lon="5.39144">
        <ele>1050</ele>
        <time>2017-10-19T04:56:02Z</time>
      </trkpt>
      <trkpt lat="44.82832" lon="5.39147">
        <ele>1037</ele>
        <time>2017-10-19T04:56:20Z</time>
      </trkpt>
      <trkpt lat="44.82817" lon="5.39138">
        <ele>1041</ele>
        <time>2017-10-19T04:56:23Z</time>
      </trkpt>
      <trkpt lat="44.82782" lon="5.3911">
        <ele>1046</ele>
        <time>2017-10-19T04:56:39Z</time>
      </trkpt>
      <trkpt lat="44.82692" lon="5.39065">
        <ele>1059</ele>
        <time>2017-10-19T04:56:53Z</time>
      </trkpt>
      <trkpt lat="44.82664" lon="5.39052">
        <ele>1041</ele>
        <time>2017-10-19T04:57:12Z</time>
      </trkpt>
      <trkpt lat="44.82648" lon="5.39032">
        <ele>1044</ele>
        <time>2017-10-19T04:57:21Z</time>
      </trkpt>
      <trkpt lat="44.82636" lon="5.39009">
        <ele>1046</ele>
        <time>2017-10-19T04:57:34Z</time>
      </trkpt>
      <trkpt lat="44.82619" lon="5.38974">
        <ele>1061</ele>
        <time>2017-10-19T04:57:43Z</time>
      </trkpt>
      <trkpt lat="44.82607" lon="5.38941">
        <ele>1062</ele>
        <time>2017-10-19T04:57:58Z</time>
      </trkpt>
      <trkpt lat="44.8259" lon="5.38895">
        <ele>1074</ele>
        <time>2017-10-19T04:58:16Z</time>
      </trkpt>
      <trkpt lat="44.82567" lon="5.38845">
        <ele>1054</ele>
        <time>2017-10-19T04:58:21Z</time>
      </trkpt>
      <trkpt lat="44.82557" lon="5.38816">
        <ele>1055</ele>
        <time>2017-10-19T04:58:32Z</time>
      </trkpt>
      <trkpt lat="44.82554" lon="5.38795">
        <ele>1053</ele>
        <time>2017-10-19T04:58:45Z</time>
      </trkpt>
      <trkpt lat="44.82557" lon="5.3877">
        <ele>1056</ele>
        <time>2017-10-19T04:58:51Z</time>
      </trkpt>
      <trkpt lat="44.82567" lon="5.38733">
        <ele>1065</ele>
        <time>2017-10-19T04:58:53Z</time>
      </trkpt>
      <trkpt lat="44.82571" lon="5.38703">
        <ele>1065</ele>
        <time>2017-10-19T04:58:57Z</time>
      </trkpt>
      <trkpt lat="44.82567" lon="5.38629">
        <ele>1076</ele>
        <time>2017-10-19T04:59:09Z</time>
      </trkpt>
      <trkpt lat="44.82544" lon="5.38528">
        <ele>1091</ele>
        <time>2017-10-19T04:59:25Z</time>
      </trkpt>
      <trkpt lat="44.82534" lon="5.38504">
        <ele>1090</ele>
        <time>2017-10-19T04:59:35Z</time>
      </trkpt>
      <trkpt lat="44.82522" lon="5.38485">
        <ele>1099</ele>
        <time>2017-10-19T04:59:53Z</time>
      </trkpt>
      <trkpt lat="44.82511" lon="5.38475">
        <ele>1099</ele>
        <time>2017-10-19T05:00:11Z</time>
      </trkpt>
      <trkpt lat="44.82497" lon="5.38465">
        <ele>1076</ele>
        <time>2017-10-19T05:00:26Z</time>
      </trkpt>
      <trkpt lat="44.82469" lon="5.38448">
        <ele>1074</ele>
        <time>2017-10-19T05:00:30Z</time>
      </trkpt>
      <trkpt lat="44.82461" lon="5.38438">
        <ele>1073</ele>
        <time>2017-10-19T05:00:33Z</time>
      </trkpt>
      <trkpt lat="44.82458" lon="5.38423">
        <ele>1074</ele>
        <time>2017-10-19T05:00:52Z</time>
      </trkpt>
      <trkpt lat="44.8246" lon="5.38417">
        <ele>1074</ele>
        <time>2017-10-19T05:01:06Z</time>
      </trkpt>
      <trkpt lat="44.82469" lon="5.38413">
        <ele>1086</ele>
        <time>2017-10-19T05:01:12Z</time>
      </trkpt>
      <trkpt lat="44.82475" lon="5.38417">
        <ele>1080</ele>
        <time>2017-10-19T05:01:21Z</time>
      </trkpt>
      <trkpt lat="44.82485" lon="5.38434">
        <ele>1081</ele>
        <time>2017-10-19T05:01:33Z</time>
      </trkpt>
      <trkpt lat="44.82495" lon="5.38441">
        <ele>1081</ele>
        <time>2017-10-19T05:01:42Z</time>
      </trkpt>
      <trkpt lat="44.82521" lon="5.38447">
        <ele>1106</ele>
        <time>2017-10-19T05:01:54Z</time>
      </trkpt>
      <trkpt lat="44.82535" lon="5.38456">
        <ele>1109</ele>
        <time>2017-10-19T05:01:56Z</time>
      </trkpt>
      <trkpt lat="44.8256" lon="5.38491">
        <ele>1114</ele>
        <time>2017-10-19T05:01:59Z</time>
      </trkpt>
      <trkpt lat="44.82575" lon="5.38534">
        <ele>1099</ele>
        <time>2017-10-19T05:02:16Z</time>
      </trkpt>
      <trkpt lat="44.82586" lon="5.38594">
        <ele>1110</ele>
        <time>2017-10-19T05:02:28Z</time>
      </trkpt>
      <trkpt lat="44.82597" lon="5.38646">
        <ele>1112</ele>
        <time>2017-10-19T05:02:38Z</time>
      </trkpt>
      <trkpt lat="44.82605" lon="5.38699">
        <ele>1108</ele>
        <time>2017-10-19T05:02:41Z</time>
      </trkpt>
      <trkpt lat="44.82603" lon="5.38765">
        <ele>1097</ele>
        <time>2017-10-19T05:02:55Z</time>
      </trkpt>
      <trkpt lat="44.82606" lon="5.38787">
        <ele>1100</ele>
        <time>2017-10-19T05:02:57Z</time>
      </trkpt>
      <trkpt lat="44.8262" lon="5.38814">
        <ele>1103</ele>
        <time>2017-10-19T05:03:12Z</time>
      </trkpt>
      <trkpt lat="44.82636" lon="5.38845">
        <ele>1099</ele>
        <time>2017-10-19T05:03:21Z</time>
      </trkpt>
      <trkpt lat="44.82668" lon="5.38909">
        <ele>1115</ele>
        <time>2017-10-19T05:03:33Z</time>
      </trkpt>
      <trkpt lat="44.82687" lon="5.38947">
        <ele>1106</ele>
        <time>2017-10-19T05:03:48Z</time>
      </trkpt>
      <trkpt lat="44.82698" lon="5.38959">
        <ele>1106</ele>
        <time>2017-10-19T05:04:07Z</time>
      </trkpt>
      <trkpt lat="44.82712" lon="5.3897">
        <ele>1106</ele>
        <time>2017-10-19T05:04:15Z</time>
      </trkpt>
      <trkpt lat="44.82736" lon="5.38981">
        <ele>1108</ele>
        <time>2017-10-19T05:04:35Z</time>
      </trkpt>
      <trkpt lat="44.82792" lon="5.38989">
        <ele>1128</ele>
        <time>2017-10-19T05:04:38Z</time>
      </trkpt>
      <trkpt lat="44.82831" lon="5.38987">
        <ele>1126</ele>
        <time>2017-10-19T05:04:53Z</time>
      </trkpt>
      <trkpt lat="44.82865" lon="5.38978">
        <ele>1146</ele>
        <time>2017-10-19T05:04:57Z</time>
      </trkpt>
      <trkpt lat="44.8291" lon="5.38968">
        <ele>1152</ele>
        <time>2017-10-19T05:05:16Z</time>
      </trkpt>
      <trkpt lat="44.82937" lon="5.38974">
        <ele>1158</ele>
        <time>2017-10-19T05:05:33Z</time>
      </trkpt>
      <trkpt lat="44.83001" lon="5.38988">
        <ele>1157</ele>
        <time>2017-10-19T05:05:51Z</time>
      </trkpt>
      <trkpt lat="44.83039" lon="5.38992">
        <ele>1167</ele>
        <time>2017-10-19T05:06:03Z</time>
      </trkpt>
      <trkpt lat="44.83055" lon="5.38993">
        <ele>1167</ele>
        <time>2017-10-19T05:06:11Z</time>
      </trkpt>
      <trkpt lat="44.83073" lon="5.38987">
        <ele>1165</ele>
        <time>2017-10-19T05:06:17Z</time>
      </trkpt>
      <trkpt lat="44.83094" lon="5.38981">
        <ele>1173</ele>
        <time>2017-10-19T05:06:29Z</time>
      </trkpt>
      <trkpt lat="44.83114" lon="5.38982">
        <ele>1177</ele>
        <time>2017-10-19T05:06:41Z</time>
      </trkpt>
      <trkpt lat="44.83134" lon="5.38982">
        <ele>1178</ele>
        <time>2017-10-19T05:06:46Z</time>
      </trkpt>
      <trkpt lat="44.83154" lon="5.38976">
        <ele>1178</ele>
        <time>2017-10-19T05:07:00Z</time>
      </trkpt>
      <trkpt lat="44.83196" lon="5.38956">
        <ele>1193</ele>
        <time>2017-10-19T05:07:10Z</time>
      </trkpt>
      <trkpt lat="44.83217" lon="5.38948">
        <ele>1198</ele>
        <time>2017-10-19T05:07:17Z</time>
      </trkpt>
      <trkpt lat="44.83235" lon="5.38936">
        <ele>1208</ele>
        <time>2017-10-19T05:07:21Z</time>
      </trkpt>
      <trkpt lat="44.83253" lon="5.38921">
        <ele>1232</ele>
        <time>2017-10-19T05:07:26Z</time>
      </trkpt>
      <trkpt lat="44.83269" lon="5.38915">
        <ele>1259</ele>
        <time>2017-10-19T05:07:45Z</time>
      </trkpt>
      <trkpt lat="44.83293" lon="5.38916">
        <ele>1268</ele>
        <time>2017-10-19T05:07:52Z</time>
      </trkpt>
      <trkpt lat="44.83304" lon="5.38924">
        <ele>1224</ele>
        <time>2017-10-19T05:08:10Z</time>
      </trkpt>
      <trkpt lat="44.8333" lon="5.38965">
        <ele>1202</ele>
        <time>2017-10-19T05:08:20Z</time>
      </trkpt>
      <trkpt lat="44.83341" lon="5.38971">
        <ele>1205</ele>
        <time>2017-10-19T05:08:32Z</time>
      </trkpt>
      <trkpt lat="44.83352" lon="5.38971">
        <ele>1207</ele>
        <time>2017-10-19T05:08:47Z</time>
      </trkpt>
      <trkpt lat="44.83364" lon="5.38969">
        <ele>1209</ele>
        <time>2017-10-19T05:09:01Z</time>
      </trkpt>
      <trkpt lat="44.83372" lon="5.38958">
        <ele>1216</ele>
        <time>2017-10-19T05:09:12Z</time>
      </trkpt>
      <trkpt lat="44.83394" lon="5.3893">
        <ele>1240</ele>
        <time>2017-10-19T05:09:29Z</time>
      </trkpt>
      <trkpt lat="44.83404" lon="5.38924">
        <ele>1252</ele>
        <time>2017-10-19T05:09:36Z</time>
      </trkpt>
      <trkpt lat="44.83421" lon="5.3892">
        <ele>1274</ele>
        <time>2017-10-19T05:09:43Z</time>
      </trkpt>
      <trkpt lat="44.83441" lon="5.38925">
        <ele>1262</ele>
        <time>2017-10-19T05:09:56Z</time>
      </trkpt>
      <trkpt lat="44.83451" lon="5.38932">
        <ele>1260</ele>
        <time>2017-10-19T05:10:11Z</time>
      </trkpt>
      <trkpt lat="44.83466" lon="5.38947">
        <ele>1257</ele>
        <time>2017-10-19T05:10:25Z</time>
      </trkpt>
      <trkpt lat="44.83499" lon="5.38986">
        <ele>1255</ele>
        <time>2017-10-19T05:10:27Z</time>
      </trkpt>
      <trkpt lat="44.83558" lon="5.39058">
        <ele>1213</ele>
        <time>2017-10-19T05:10:29Z</time>
      </trkpt>
      <trkpt lat="44.8363" lon="5.3915">
        <ele>1191</ele>
        <time>2017-10-19T05:10:35Z</time>
      </trkpt>
      <trkpt lat="44.83682" lon="5.3921">
        <ele>1185</ele>
        <time>2017-10-19T05:10:44Z</time>
      </trkpt>
      <trkpt lat="44.83716" lon="5.39251">
        <ele>1170</ele>
        <time>2017-10-19T05:10:47Z</time>
      </trkpt>
      <trkpt lat="44.83755" lon="5.39288">
        <ele>1194</ele>
        <time>2017-10-19T05:11:06Z</time>
      </trkpt>
      <trkpt lat="44.83778" lon="5.39316">
        <ele>1191</ele>
        <time>2017-10-19T05:11:12Z</time>
      </trkpt>
      <trkpt lat="44.83785" lon="5.39337">
        <ele>1184</ele>
        <time>2017-10-19T05:11:14Z</time>
      </trkpt>
      <trkpt lat="44.83787" lon="5.39352">
        <ele>1185</ele>
        <time>2017-10-19T05:11:31Z</time>
      </trkpt>
      <trkpt lat="44.83786" lon="5.3937">
        <ele>1185</ele>
        <time>2017-10-19T05:11:43Z</time>
      </trkpt>
      <trkpt lat="44.83766" lon="5.39422">
        <ele>1179</ele>
        <time>2017-10-19T05:11:46Z</time>
      </trkpt>
      <trkpt lat="44.83742" lon="5.39477">
        <ele>1164</ele>
        <time>2017-10-19T05:11:56Z</time>
      </trkpt>
      <trkpt lat="44.83714" lon="5.39535">
        <ele>1170</ele>
        <time>2017-10-19T05:12:05Z</time>
      </trkpt>
      <trkpt lat="44.83699" lon="5.396">
        <ele>1179</ele>
        <time>2017-10-19T05:12:09Z</time>
      </trkpt>
      <trkpt lat="44.83696" lon="5.39669">
        <ele>1188</ele>
        <time>2017-10-19T05:12:18Z</time>
      </trkpt>
      <trkpt lat="44.8369" lon="5.39687">
        <ele>1188</ele>
        <time>2017-10-19T05:12:27Z</time>
      </trkpt>
      <trkpt lat="44.83669" lon="5.39717">
        <ele>1188</ele>
        <time>2017-10-19T05:12:45Z</time>
      </trkpt>
      <trkpt lat="44.83659" lon="5.39741">
        <ele>1170</ele>
        <time>2017-10-19T05:12:47Z</time>
      </trkpt>
      <trkpt lat="44.83659" lon="5.39752">
        <ele>1178</ele>
        <time>2017-10-19T05:13:05Z</time>
      </trkpt>
      <trkpt lat="44.83662" lon="5.39754">
        <ele>1179</ele>
        <time>2017-10-19T05:13:22Z</time>
      </trkpt>
      <trkpt lat="44.83669" lon="5.39756">
        <ele>1188</ele>
        <time>2017-10-19T05:13:41Z</time>
      </trkpt>
      <trkpt lat="44.83674" lon="5.39752">
        <ele>1189</ele>
        <time>2017-10-19T05:13:59Z</time>
      </trkpt>
      <trkpt lat="44.83677" lon="5.39745">
        <ele>1186</ele>
        <time>2017-10-19T05:14:04Z</time>
      </trkpt>
      <trkpt lat="44.83685" lon="5.39717">
        <ele>1191</ele>
        <time>2017-10-19T05:14:17Z</time>
      </trkpt>
      <trkpt lat="44.83706" lon="5.39683">
        <ele>1193</ele>
        <time>2017-10-19T05:14:25Z</time>
      </trkpt>
      <trkpt lat="44.83712" lon="5.39659">
        <ele>1187</ele>
        <time>2017-10-19T05:14:42Z</time>
      </trkpt>
      <trkpt lat="44.83718" lon="5.39619">
        <ele>1186</ele>
        <time>2017-10-19T05:14:57Z</time>
      </trkpt>
      <trkpt lat="44.83726" lon="5.39587">
        <ele>1188</ele>
        <time>2017-10-19T05:15:07Z</time>
      </trkpt>
      <trkpt lat="44.83738" lon="5.39558">
        <ele>1179</ele>
        <time>2017-10-19T05:15:09Z</time>
      </trkpt>
      <trkpt lat="44.83753" lon="5.39534">
        <ele>1202</ele>
        <time>2017-10-19T05:15:14Z</time>
      </trkpt>
      <trkpt lat="44.83771" lon="5.39512">
        <ele>1200</ele>
        <time>2017-10-19T05:15:23Z</time>
      </trkpt>
      <trkpt lat="44.83782" lon="5.39496">
        <ele>1193</ele>
        <time>2017-10-19T05:15:31Z</time>
      </trkpt>
      <trkpt lat="44.838" lon="5.39462">
        <ele>1196</ele>
        <time>2017-10-19T05:15:46Z</time>
      </trkpt>
      <trkpt lat="44.83825" lon="5.39428">
        <ele>1201</ele>
        <time>2017-10-19T05:15:55Z</time>
      </trkpt>
      <trkpt lat="44.83845" lon="5.39392">
        <ele>1218</ele>
        <time>2017-10-19T05:16:08Z</time>
      </trkpt>
      <trkpt lat="44.83854" lon="5.39374">
        <ele>1221</ele>
        <time>2017-10-19T05:16:12Z</time>
      </trkpt>
      <trkpt lat="44.83859" lon="5.39352">
        <ele>1220</ele>
        <time>2017-10-19T05:16:28Z</time>
      </trkpt>
      <trkpt lat="44.83857" lon="5.39328">
        <ele>1225</ele>
        <time>2017-10-19T05:16:36Z</time>
      </trkpt>
      <trkpt lat="44.83842" lon="5.3928">
        <ele>1232</ele>
        <time>2017-10-19T05:16:42Z</time>
      </trkpt>
      <trkpt lat="44.83759" lon="5.39171">
        <ele>1227</ele>
        <time>2017-10-19T05:16:50Z</time>
      </trkpt>
      <trkpt lat="44.83711" lon="5.39114">
        <ele>1255</ele>
        <time>2017-10-19T05:16:54Z</time>
      </trkpt>
      <trkpt lat="44.83693" lon="5.39097">
        <ele>1258</ele>
        <time>2017-10-19T05:17:13Z</time>
      </trkpt>
      <trkpt lat="44.83694" lon="5.39085">
        <ele>1261</ele>
        <time>2017-10-19T05:17:28Z</time>
      </trkpt>
      <trkpt lat="44.83697" lon="5.3908">
        <ele>1299</ele>
        <time>2017-10-19T05:17:46Z</time>
      </trkpt>
      <trkpt lat="44.83701" lon="5.39078">
        <ele>1302</ele>
        <time>2017-10-19T05:17:52Z</time>
      </trkpt>
      <trkpt lat="44.83705" lon="5.3908">
        <ele>1303</ele>
        <time>2017-10-19T05:18:09Z</time>
      </trkpt>
      <trkpt lat="44.83711" lon="5.39087">
        <ele>1266</ele>
        <time>2017-10-19T05:18:27Z</time>
      </trkpt>
      <trkpt lat="44.83718" lon="5.39102">
        <ele>1264</ele>
        <time>2017-10-19T05:18:46Z</time>
      </trkpt>
      <trkpt lat="44.83743" lon="5.3913">
        <ele>1253</ele>
        <time>2017-10-19T05:18:50Z</time>
      </trkpt>
      <trkpt lat="44.83841" lon="5.3922">
        <ele>1255</ele>
        <time>2017-10-19T05:19:02Z</time>
      </trkpt>
      <trkpt lat="44.8387" lon="5.3925">
        <ele>1239</ele>
        <time>2017-10-19T05:19:14Z</time>
      </trkpt>
      <trkpt lat="44.83888" lon="5.39279">
        <ele>1242</ele>
        <time>2017-10-19T05:19:30Z</time>
      </trkpt>
      <trkpt lat="44.83915" lon="5.39336">
        <ele>1241</ele>
        <time>2017-10-19T05:19:37Z</time>
      </trkpt>
      <trkpt lat="44.83919" lon="5.39354">
        <ele>1254</ele>
        <time>2017-10-19T05:19:47Z</time>
      </trkpt>
      <trkpt lat="44.83917" lon="5.39372">
        <ele>1256</ele>
        <time>2017-10-19T05:20:01Z</time>
      </trkpt>
      <trkpt lat="44.83908" lon="5.39417">
        <ele>1239</ele>
        <time>2017-10-19T05:20:13Z</time>
      </trkpt>
      <trkpt lat="44.83895" lon="5.39448">
        <ele>1237</ele>
        <time>2017-10-19T05:20:25Z</time>
      </trkpt>
      <trkpt lat="44.83883" lon="5.39466">
        <ele>1237</ele>
        <time>2017-10-19T05:20:38Z</time>
      </trkpt>
      <trkpt lat="44.83858" lon="5.39512">
        <ele>1244</ele>
        <time>2017-10-19T05:20:53Z</time>
      </trkpt>
      <trkpt lat="44.8384" lon="5.39563">
        <ele>1248</ele>
        <time>2017-10-19T05:21:01Z</time>
      </trkpt>
      <trkpt lat="44.8382" lon="5.39609">
        <ele>1234</ele>
        <time>2017-10-19T05:21:10Z</time>
      </trkpt>
      <trkpt lat="44.83814" lon="5.39628">
        <ele>1234</ele>
        <time>2017-10-19T05:21:13Z</time>
      </trkpt>
      <trkpt lat="44.83811" lon="5.39659">
        <ele>1240</ele>
        <time>2017-10-19T05:21:18Z</time>
      </trkpt>
      <trkpt lat="44.83811" lon="5.3966">
        <ele>1240</ele>
        <time>2017-10-19T05:21:37Z</time>
      </trkpt>
      <trkpt lat="44.83811" lon="5.3971">
        <ele>1248</ele>
        <time>2017-10-19T05:21:41Z</time>
      </trkpt>
      <trkpt lat="44.83813" lon="5.39733">
        <ele>1253</ele>
        <time>2017-10-19T05:21:53Z</time>
      </trkpt>
      <trkpt lat="44.83832" lon="5.39812">
        <ele>1278</ele>
        <time>2017-10-19T05:22:09Z</time>
      </trkpt>
      <trkpt lat="44.83836" lon="5.39827">
        <ele>1302</ele>
        <time>2017-10-19T05:22:27Z</time>
      </trkpt>
      <trkpt lat="44.8392" lon="5.40124">
        <ele>1429</ele>
        <time>2017-10-19T05:22:31Z</time>
      </trkpt>
      <trkpt lat="44.83964" lon="5.40263">
        <ele>1385</ele>
        <time>2017-10-19T05:22:44Z</time>
      </trkpt>
      <trkpt lat="44.84023" lon="5.40476">
        <ele>1297</ele>
        <time>2017-10-19T05:22:50Z</time>
      </trkpt>
      <trkpt lat="44.84042" lon="5.40543">
        <ele>1268</ele>
        <time>2017-10-19T05:22:56Z</time>
      </trkpt>
      <trkpt lat="44.84048" lon="5.40588">
        <ele>1254</ele>
        <time>2017-10-19T05:23:16Z</time>
      </trkpt>
      <trkpt lat="44.84046" lon="5.40599">
        <ele>1255</ele>
        <time>2017-10-19T05:23:27Z</time>
      </trkpt>
      <trkpt lat="44.84046" lon="5.40602">
        <ele>1255</ele>
        <time>2017-10-19T05:23:36Z</time>
      </trkpt>
      <trkpt lat="44.84048" lon="5.40608">
        <ele>1255</ele>
        <time>2017-10-19T05:23:48Z</time>
      </trkpt>
      <trkpt lat="44.84055" lon="5.40615">
        <ele>1255</ele>
        <time>2017-10-19T05:24:07Z</time>
      </trkpt>
      <trkpt lat="44.84059" lon="5.40615">
        <ele>1255</ele>
        <time>2017-10-19T05:24:17Z</time>
      </trkpt>
      <trkpt lat="44.84062" lon="5.40613">
        <ele>1255</ele>
        <time>2017-10-19T05:24:30Z</time>
      </trkpt>
      <trkpt lat="44.84065" lon="5.40609">
        <ele>1254</ele>
        <time>2017-10-19T05:24:49Z</time>
      </trkpt>
      <trkpt lat="44.84066" lon="5.40607">
        <ele>1254</ele>
        <time>2017-10-19T05:24:52Z</time>
      </trkpt>
      <trkpt lat="44.84082" lon="5.40591">
        <ele>1253</ele>
        <time>2017-10-19T05:24:55Z</time>
      </trkpt>
      <trkpt lat="44.84089" lon="5.40582">
        <ele>1254</ele>
        <time>2017-10-19T05:25:04Z</time>
      </trkpt>
      <trkpt lat="44.84105" lon="5.40575">
        <ele>1257</ele>
        <time>2017-10-19T05:25:14Z</time>
      </trkpt>
      <trkpt lat="44.84189" lon="5.40539">
        <ele>1252</ele>
        <time>2017-10-19T05:25:34Z</time>
      </trkpt>
      <trkpt lat="44.84239" lon="5.40526">
        <ele>1252</ele>
        <time>2017-10-19T05:25:44Z</time>
      </trkpt>
      <trkpt lat="44.84276" lon="5.40516">
        <ele>1247</ele>
        <time>2017-10-19T05:25:56Z</time>
      </trkpt>
      <trkpt lat="44.84343" lon="5.40512">
        <ele>1243</ele>
        <time>2017-10-19T05:26:00Z</time>
      </trkpt>
      <trkpt lat="44.84367" lon="5.40511">
        <ele>1239</ele>
        <time>2017-10-19T05:26:15Z</time>
      </trkpt>
      <trkpt lat="44.84417" lon="5.40504">
        <ele>1241</ele>
        <time>2017-10-19T05:26:26Z</time>
      </trkpt>
      <trkpt lat="44.84454" lon="5.40497">
        <ele>1251</ele>
        <time>2017-10-19T05:26:45Z</time>
      </trkpt>
      <trkpt lat="44.8448" lon="5.40494">
        <ele>1246</ele>
        <time>2017-10-19T05:26:52Z</time>
      </trkpt>
      <trkpt lat="44.84538" lon="5.40492">
        <ele>1242</ele>
        <time>2017-10-19T05:27:00Z</time>
      </trkpt>
      <trkpt lat="44.84607" lon="5.40483">
        <ele>1235</ele>
        <time>2017-10-19T05:27:07Z</time>
      </trkpt>
      <trkpt lat="44.84661" lon="5.40473">
        <ele>1233</ele>
        <time>2017-10-19T05:27:13Z</time>
      </trkpt>
      <trkpt lat="44.8471" lon="5.40473">
        <ele>1227</ele>
        <time>2017-10-19T05:27:33Z</time>
      </trkpt>
      <trkpt lat="44.84735" lon="5.40471">
        <ele>1226</ele>
        <time>2017-10-19T05:27:45Z</time>
      </trkpt>
      <trkpt lat="44.84754" lon="5.40465">
        <ele>1225</ele>
        <time>2017-10-19T05:27:55Z</time>
      </trkpt>
      <trkpt lat="44.84765" lon="5.40466">
        <ele>1225</ele>
        <time>2017-10-19T05:27:57Z</time>
      </trkpt>
      <trkpt lat="44.8478" lon="5.40472">
        <ele>1224</ele>
        <time>2017-10-19T05:28:01Z</time>
      </trkpt>
      <trkpt lat="44.84804" lon="5.40476">
        <ele>1223</ele>
        <time>2017-10-19T05:28:14Z</time>
      </trkpt>
      <trkpt lat="44.84845" lon="5.40478">
        <ele>1221</ele>
        <time>2017-10-19T05:28:33Z</time>
      </trkpt>
      <trkpt lat="44.84869" lon="5.40477">
        <ele>1224</ele>
        <time>2017-10-19T05:28:42Z</time>
      </trkpt>
      <trkpt lat="44.84888" lon="5.40478">
        <ele>1223</ele>
        <time>2017-10-19T05:28:51Z</time>
      </trkpt>
      <trkpt lat="44.8491" lon="5.40483">
        <ele>1219</ele>
        <time>2017-10-19T05:29:01Z</time>
      </trkpt>
      <trkpt lat="44.84935" lon="5.40489">
        <ele>1219</ele>
        <time>2017-10-19T05:29:19Z</time>
      </trkpt>
      <trkpt lat="44.84979" lon="5.40496">
        <ele>1216</ele>
        <time>2017-10-19T05:29:38Z</time>
      </trkpt>
      <trkpt lat="44.85055" lon="5.40503">
        <ele>1194</ele>
        <time>2017-10-19T05:29:49Z</time>
      </trkpt>
      <trkpt lat="44.85114" lon="5.40504">
        <ele>1192</ele>
        <time>2017-10-19T05:30:05Z</time>
      </trkpt>
      <trkpt lat="44.85147" lon="5.40503">
        <ele>1191</ele>
        <time>2017-10-19T05:30:15Z</time>
      </trkpt>
      <trkpt lat="44.85169" lon="5.40501">
        <ele>1197</ele>
        <time>2017-10-19T05:30:33Z</time>
      </trkpt>
      <trkpt lat="44.85184" lon="5.40497">
        <ele>1207</ele>
        <time>2017-10-19T05:30:43Z</time>
      </trkpt>
      <trkpt lat="44.852" lon="5.4049">
        <ele>1209</ele>
        <time>2017-10-19T05:30:48Z</time>
      </trkpt>
      <trkpt lat="44.85217" lon="5.40484">
        <ele>1209</ele>
        <time>2017-10-19T05:31:02Z</time>
      </trkpt>
      <trkpt lat="44.85236" lon="5.40483">
        <ele>1206</ele>
        <time>2017-10-19T05:31:20Z</time>
      </trkpt>
      <trkpt lat="44.85251" lon="5.40485">
        <ele>1203</ele>
        <time>2017-10-19T05:31:32Z</time>
      </trkpt>
      <trkpt lat="44.85267" lon="5.40494">
        <ele>1203</ele>
        <time>2017-10-19T05:31:44Z</time>
      </trkpt>
      <trkpt lat="44.85284" lon="5.40505">
        <ele>1183</ele>
        <time>2017-10-19T05:31:59Z</time>
      </trkpt>
      <trkpt lat="44.85306" lon="5.40513">
        <ele>1183</ele>
        <time>2017-10-19T05:32:15Z</time>
      </trkpt>
      <trkpt lat="44.8533" lon="5.40519">
        <ele>1186</ele>
        <time>2017-10-19T05:32:32Z</time>
      </trkpt>
      <trkpt lat="44.85361" lon="5.40522">
        <ele>1185</ele>
        <time>2017-10-19T05:32:35Z</time>
      </trkpt>
      <trkpt lat="44.85384" lon="5.40528">
        <ele>1184</ele>
        <time>2017-10-19T05:32:41Z</time>
      </trkpt>
      <trkpt lat="44.85412" lon="5.40535">
        <ele>1183</ele>
        <time>2017-10-19T05:32:50Z</time>
      </trkpt>
      <trkpt lat="44.85441" lon="5.40545">
        <ele>1182</ele>
        <time>2017-10-19T05:32:54Z</time>
      </trkpt>
      <trkpt lat="44.85471" lon="5.40551">
        <ele>1181</ele>
        <time>2017-10-19T05:33:03Z</time>
      </trkpt>
      <trkpt lat="44.85505" lon="5.40552">
        <ele>1179</ele>
        <time>2017-10-19T05:33:19Z</time>
      </trkpt>
      <trkpt lat="44.85537" lon="5.40552">
        <ele>1180</ele>
        <time>2017-10-19T05:33:39Z</time>
      </trkpt>
      <trkpt lat="44.8556" lon="5.40548">
        <ele>1180</ele>
        <time>2017-10-19T05:33:42Z</time>
      </trkpt>
      <trkpt lat="44.85592" lon="5.40541">
        <ele>1179</ele>
        <time>2017-10-19T05:33:59Z</time>
      </trkpt>
      <trkpt lat="44.85618" lon="5.40535">
        <ele>1181</ele>
        <time>2017-10-19T05:34:01Z</time>
      </trkpt>
      <trkpt lat="44.85634" lon="5.40538">
        <ele>1180</ele>
        <time>2017-10-19T05:34:17Z</time>
      </trkpt>
      <trkpt lat="44.85671" lon="5.40561">
        <ele>1175</ele>
        <time>2017-10-19T05:34:35Z</time>
      </trkpt>
      <trkpt lat="44.85696" lon="5.40573">
        <ele>1175</ele>
        <time>2017-10-19T05:34:52Z</time>
      </trkpt>
      <trkpt lat="44.85719" lon="5.40582">
        <ele>1175</ele>
        <time>2017-10-19T05:35:05Z</time>
      </trkpt>
      <trkpt lat="44.85739" lon="5.40586">
        <ele>1159</ele>
        <time>2017-10-19T05:35:13Z</time>
      </trkpt>
      <trkpt lat="44.85759" lon="5.40588">
        <ele>1161</ele>
        <time>2017-10-19T05:35:18Z</time>
      </trkpt>
      <trkpt lat="44.85804" lon="5.40587">
        <ele>1160</ele>
        <time>2017-10-19T05:35:38Z</time>
      </trkpt>
      <trkpt lat="44.85816" lon="5.40592">
        <ele>1162</ele>
        <time>2017-10-19T05:35:58Z</time>
      </trkpt>
      <trkpt lat="44.85839" lon="5.40603">
        <ele>1163</ele>
        <time>2017-10-19T05:36:09Z</time>
      </trkpt>
      <trkpt lat="44.85865" lon="5.40617">
        <ele>1158</ele>
        <time>2017-10-19T05:36:26Z</time>
      </trkpt>
      <trkpt lat="44.85885" lon="5.40623">
        <ele>1156</ele>
        <time>2017-10-19T05:36:28Z</time>
      </trkpt>
      <trkpt lat="44.85908" lon="5.40628">
        <ele>1155</ele>
        <time>2017-10-19T05:36:40Z</time>
      </trkpt>
      <trkpt lat="44.85936" lon="5.4063">
        <ele>1159</ele>
        <time>2017-10-19T05:36:47Z</time>
      </trkpt>
      <trkpt lat="44.85957" lon="5.40633">
        <ele>1160</ele>
        <time>2017-10-19T05:36:53Z</time>
      </trkpt>
      <trkpt lat="44.85969" lon="5.4064">
        <ele>1159</ele>
        <time>2017-10-19T05:37:06Z</time>
      </trkpt>
      <trkpt lat="44.85985" lon="5.40654">
        <ele>1154</ele>
        <time>2017-10-19T05:37:10Z</time>
      </trkpt>
      <trkpt lat="44.85999" lon="5.40664">
        <ele>1148</ele>
        <time>2017-10-19T05:37:18Z</time>
      </trkpt>
      <trkpt lat="44.86047" lon="5.40678">
        <ele>1140</ele>
        <time>2017-10-19T05:37:36Z</time>
      </trkpt>
      <trkpt lat="44.8609" lon="5.40692">
        <ele>1146</ele>
        <time>2017-10-19T05:37:49Z</time>
      </trkpt>
      <trkpt lat="44.86111" lon="5.40702">
        <ele>1144</ele>
        <time>2017-10-19T05:38:07Z</time>
      </trkpt>
      <trkpt lat="44.86131" lon="5.40707">
        <ele>1144</ele>
        <time>2017-10-19T05:38:20Z</time>
      </trkpt>
      <trkpt lat="44.86157" lon="5.40713">
        <ele>1144</ele>
        <time>2017-10-19T05:38:25Z</time>
      </trkpt>
      <trkpt lat="44.8618" lon="5.40718">
        <ele>1150</ele>
        <time>2017-10-19T05:38:34Z</time>
      </trkpt>
      <trkpt lat="44.86196" lon="5.40727">
        <ele>1150</ele>
        <time>2017-10-19T05:38:45Z</time>
      </trkpt>
      <trkpt lat="44.86219" lon="5.40744">
        <ele>1149</ele>
        <time>2017-10-19T05:38:56Z</time>
      </trkpt>
      <trkpt lat="44.86237" lon="5.40755">
        <ele>1131</ele>
        <time>2017-10-19T05:39:01Z</time>
      </trkpt>
      <trkpt lat="44.86257" lon="5.40764">
        <ele>1134</ele>
        <time>2017-10-19T05:39:11Z</time>
      </trkpt>
      <trkpt lat="44.86381" lon="5.40814">
        <ele>1132</ele>
        <time>2017-10-19T05:39:17Z</time>
      </trkpt>
      <trkpt lat="44.86416" lon="5.40824">
        <ele>1127</ele>
        <time>2017-10-19T05:39:24Z</time>
      </trkpt>
      <trkpt lat="44.86461" lon="5.40834">
        <ele>1113</ele>
        <time>2017-10-19T05:39:33Z</time>
      </trkpt>
      <trkpt lat="44.86483" lon="5.4084">
        <ele>1117</ele>
        <time>2017-10-19T05:39:48Z</time>
      </trkpt>
      <trkpt lat="44.86505" lon="5.40851">
        <ele>1120</ele>
        <time>2017-10-19T05:40:03Z</time>
      </trkpt>
      <trkpt lat="44.86584" lon="5.40885">
        <ele>1120</ele>
        <time>2017-10-19T05:40:21Z</time>
      </trkpt>
      <trkpt lat="44.86673" lon="5.40911">
        <ele>1113</ele>
        <time>2017-10-19T05:40:41Z</time>
      </trkpt>
      <trkpt lat="44.86698" lon="5.40919">
        <ele>1095</ele>
        <time>2017-10-19T05:40:52Z</time>
      </trkpt>
      <trkpt lat="44.86723" lon="5.40922">
        <ele>1096</ele>
        <time>2017-10-19T05:40:58Z</time>
      </trkpt>
      <trkpt lat="44.86755" lon="5.40924">
        <ele>1105</ele>
        <time>2017-10-19T05:41:17Z</time>
      </trkpt>
      <trkpt lat="44.86775" lon="5.40929">
        <ele>1100</ele>
        <time>2017-10-19T05:41:37Z</time>
      </trkpt>
      <trkpt lat="44.86789" lon="5.40935">
        <ele>1099</ele>
        <time>2017-10-19T05:41:42Z</time>
      </trkpt>
      <trkpt lat="44.86833" lon="5.40964">
        <ele>1093</ele>
        <time>2017-10-19T05:41:54Z</time>
      </trkpt>
      <trkpt lat="44.86854" lon="5.40977">
        <ele>1097</ele>
        <time>2017-10-19T05:42:07Z</time>
      </trkpt>
      <trkpt lat="44.86876" lon="5.40987">
        <ele>1098</ele>
        <time>2017-10-19T05:42:27Z</time>
      </trkpt>
      <trkpt lat="44.86926" lon="5.40999">
        <ele>1096</ele>
        <time>2017-10-19T05:42:36Z</time>
      </trkpt>
      <trkpt lat="44.8696" lon="5.41003">
        <ele>1078</ele>
        <time>2017-10-19T05:42:44Z</time>
      </trkpt>
      <trkpt lat="44.86988" lon="5.41">
        <ele>1084</ele>
        <time>2017-10-19T05:43:00Z</time>
      </trkpt>
      <trkpt lat="44.86993" lon="5.41003">
        <ele>1086</ele>
        <time>2017-10-19T05:43:16Z</time>
      </trkpt>
      <trkpt lat="44.86994" lon="5.4101">
        <ele>1083</ele>
        <time>2017-10-19T05:43:19Z</time>
      </trkpt>
      <trkpt lat="44.86991" lon="5.41018">
        <ele>1080</ele>
        <time>2017-10-19T05:43:26Z</time>
      </trkpt>
      <trkpt lat="44.86981" lon="5.41023">
        <ele>1077</ele>
        <time>2017-10-19T05:43:34Z</time>
      </trkpt>
      <trkpt lat="44.86958" lon="5.41024">
        <ele>1075</ele>
        <time>2017-10-19T05:43:42Z</time>
      </trkpt>
      <trkpt lat="44.86926" lon="5.41023">
        <ele>1076</ele>
        <time>2017-10-19T05:43:52Z</time>
      </trkpt>
      <trkpt lat="44.86891" lon="5.41024">
        <ele>1070</ele>
        <time>2017-10-19T05:44:09Z</time>
      </trkpt>
      <trkpt lat="44.86851" lon="5.4102">
        <ele>1070</ele>
        <time>2017-10-19T05:44:16Z</time>
      </trkpt>
      <trkpt lat="44.86808" lon="5.41011">
        <ele>1066</ele>
        <time>2017-10-19T05:44:33Z</time>
      </trkpt>
      <trkpt lat="44.86766" lon="5.41013">
        <ele>1064</ele>
        <time>2017-10-19T05:44:40Z</time>
      </trkpt>
      <trkpt lat="44.86703" lon="5.41004">
        <ele>1056</ele>
        <time>2017-10-19T05:44:46Z</time>
      </trkpt>
      <trkpt lat="44.86677" lon="5.41003">
        <ele>1059</ele>
        <time>2017-10-19T05:45:04Z</time>
      </trkpt>
      <trkpt lat="44.86656" lon="5.41007">
        <ele>1055</ele>
        <time>2017-10-19T05:45:08Z</time>
      </trkpt>
      <trkpt lat="44.8661" lon="5.41006">
        <ele>1050</ele>
        <time>2017-10-19T05:45:15Z</time>
      </trkpt>
      <trkpt lat="44.86577" lon="5.41">
        <ele>1055</ele>
        <time>2017-10-19T05:45:35Z</time>
      </trkpt>
      <trkpt lat="44.8656" lon="5.41002">
        <ele>1047</ele>
        <time>2017-10-19T05:45:52Z</time>
      </trkpt>
      <trkpt lat="44.86521" lon="5.41008">
        <ele>1044</ele>
        <time>2017-10-19T05:46:09Z</time>
      </trkpt>
      <trkpt lat="44.86495" lon="5.41013">
        <ele>1042</ele>
        <time>2017-10-19T05:46:29Z</time>
      </trkpt>
      <trkpt lat="44.86482" lon="5.4101">
        <ele>1040</ele>
        <time>2017-10-19T05:46:48Z</time>
      </trkpt>
      <trkpt lat="44.86446" lon="5.40992">
        <ele>1060</ele>
        <time>2017-10-19T05:46:50Z</time>
      </trkpt>
      <trkpt lat="44.86407" lon="5.40975">
        <ele>1057</ele>
        <time>2017-10-19T05:47:07Z</time>
      </trkpt>
      <trkpt lat="44.86389" lon="5.4097">
        <ele>1059</ele>
        <time>2017-10-19T05:47:27Z</time>
      </trkpt>
      <trkpt lat="44.86375" lon="5.40973">
        <ele>1058</ele>
        <time>2017-10-19T05:47:34Z</time>
      </trkpt>
      <trkpt lat="44.86323" lon="5.4099">
        <ele>1046</ele>
        <time>2017-10-19T05:47:50Z</time>
      </trkpt>
      <trkpt lat="44.86296" lon="5.40998">
        <ele>1049</ele>
        <time>2017-10-19T05:48:00Z</time>
      </trkpt>
      <trkpt lat="44.86279" lon="5.40997">
        <ele>1049</ele>
        <time>2017-10-19T05:48:13Z</time>
      </trkpt>
      <trkpt lat="44.86258" lon="5.4099">
        <ele>1045</ele>
        <time>2017-10-19T05:48:20Z</time>
      </trkpt>
      <trkpt lat="44.86246" lon="5.40991">
        <ele>1042</ele>
        <time>2017-10-19T05:48:29Z</time>
      </trkpt>
      <trkpt lat="44.86232" lon="5.40999">
        <ele>1042</ele>
        <time>2017-10-19T05:48:46Z</time>
      </trkpt>
      <trkpt lat="44.86217" lon="5.41006">
        <ele>1027</ele>
        <time>2017-10-19T05:48:51Z</time>
      </trkpt>
      <trkpt lat="44.86205" lon="5.41007">
        <ele>1025</ele>
        <time>2017-10-19T05:49:02Z</time>
      </trkpt>
      <trkpt lat="44.86176" lon="5.41">
        <ele>1026</ele>
        <time>2017-10-19T05:49:18Z</time>
      </trkpt>
      <trkpt lat="44.86142" lon="5.4099">
        <ele>1030</ele>
        <time>2017-10-19T05:49:22Z</time>
      </trkpt>
      <trkpt lat="44.86125" lon="5.40983">
        <ele>1029</ele>
        <time>2017-10-19T05:49:42Z</time>
      </trkpt>
      <trkpt lat="44.86119" lon="5.4098">
        <ele>1029</ele>
        <time>2017-10-19T05:49:49Z</time>
      </trkpt>
      <trkpt lat="44.86108" lon="5.40969">
        <ele>1029</ele>
        <time>2017-10-19T05:50:05Z</time>
      </trkpt>
      <trkpt lat="44.86088" lon="5.40949">
        <ele>1033</ele>
        <time>2017-10-19T05:50:15Z</time>
      </trkpt>
      <trkpt lat="44.86066" lon="5.40936">
        <ele>1026</ele>
        <time>2017-10-19T05:50:35Z</time>
      </trkpt>
      <trkpt lat="44.86028" lon="5.40922">
        <ele>1021</ele>
        <time>2017-10-19T05:50:54Z</time>
      </trkpt>
      <trkpt lat="44.86005" lon="5.40911">
        <ele>1029</ele>
        <time>2017-10-19T05:50:56Z</time>
      </trkpt>
      <trkpt lat="44.85951" lon="5.40897">
        <ele>1032</ele>
        <time>2017-10-19T05:51:16Z</time>
      </trkpt>
      <trkpt lat="44.85922" lon="5.40891">
        <ele>1030</ele>
        <time>2017-10-19T05:51:28Z</time>
      </trkpt>
      <trkpt lat="44.85891" lon="5.40888">
        <ele>1030</ele>
        <time>2017-10-19T05:51:44Z</time>
      </trkpt>
      <trkpt lat="44.85884" lon="5.40893">
        <ele>1030</ele>
        <time>2017-10-19T05:51:56Z</time>
      </trkpt>
      <trkpt lat="44.8588" lon="5.40903">
        <ele>1029</ele>
        <time>2017-10-19T05:52:07Z</time>
      </trkpt>
      <trkpt lat="44.8588" lon="5.40914">
        <ele>1027</ele>
        <time>2017-10-19T05:52:16Z</time>
      </trkpt>
      <trkpt lat="44.85882" lon="5.40923">
        <ele>1021</ele>
        <time>2017-10-19T05:52:36Z</time>
      </trkpt>
      <trkpt lat="44.85891" lon="5.40942">
        <ele>1021</ele>
        <time>2017-10-19T05:52:44Z</time>
      </trkpt>
      <trkpt lat="44.85899" lon="5.40952">
        <ele>1021</ele>
        <time>2017-10-19T05:52:58Z</time>
      </trkpt>
      <trkpt lat="44.85938" lon="5.40981">
        <ele>1013</ele>
        <time>2017-10-19T05:53:10Z</time>
      </trkpt>
      <trkpt lat="44.85955" lon="5.40996">
        <ele>1012</ele>
        <time>2017-10-19T05:53:16Z</time>
      </trkpt>
      <trkpt lat="44.85966" lon="5.41006">
        <ele>1011</ele>
        <time>2017-10-19T05:53:28Z</time>
      </trkpt>
      <trkpt lat="44.85984" lon="5.4103">
        <ele>1010</ele>
        <time>2017-10-19T05:53:31Z</time>
      </trkpt>
      <trkpt lat="44.86025" lon="5.41086">
        <ele>1002</ele>
        <time>2017-10-19T05:53:35Z</time>
      </trkpt>
      <trkpt lat="44.86062" lon="5.41137">
        <ele>1000</ele>
        <time>2017-10-19T05:53:50Z</time>
      </trkpt>
      <trkpt lat="44.86083" lon="5.41172">
        <ele>996</ele>
        <time>2017-10-19T05:54:03Z</time>
      </trkpt>
      <trkpt lat="44.861" lon="5.41207">
        <ele>993</ele>
        <time>2017-10-19T05:54:06Z</time>
      </trkpt>
      <trkpt lat="44.8611" lon="5.41221">
        <ele>993</ele>
        <time>2017-10-19T05:54:11Z</time>
      </trkpt>
      <trkpt lat="44.86159" lon="5.4126">
        <ele>987</ele>
        <time>2017-10-19T05:54:28Z</time>
      </trkpt>
      <trkpt lat="44.86203" lon="5.41295">
        <ele>979</ele>
        <time>2017-10-19T05:54:33Z</time>
      </trkpt>
      <trkpt lat="44.86215" lon="5.41311">
        <ele>978</ele>
        <time>2017-10-19T05:54:42Z</time>
      </trkpt>
      <trkpt lat="44.86224" lon="5.41327">
        <ele>977</ele>
        <time>2017-10-19T05:54:55Z</time>
      </trkpt>
      <trkpt lat="44.86229" lon="5.41344">
        <ele>978</ele>
        <time>2017-10-19T05:55:14Z</time>
      </trkpt>
      <trkpt lat="44.86238" lon="5.41388">
        <ele>979</ele>
        <time>2017-10-19T05:55:22Z</time>
      </trkpt>
      <trkpt lat="44.86246" lon="5.41419">
        <ele>976</ele>
        <time>2017-10-19T05:55:29Z</time>
      </trkpt>
      <trkpt lat="44.86256" lon="5.4144">
        <ele>973</ele>
        <time>2017-10-19T05:55:32Z</time>
      </trkpt>
      <trkpt lat="44.86265" lon="5.41451">
        <ele>974</ele>
        <time>2017-10-19T05:55:36Z</time>
      </trkpt>
      <trkpt lat="44.86276" lon="5.41463">
        <ele>974</ele>
        <time>2017-10-19T05:55:39Z</time>
      </trkpt>
      <trkpt lat="44.86297" lon="5.41476">
        <ele>973</ele>
        <time>2017-10-19T05:55:51Z</time>
      </trkpt>
      <trkpt lat="44.86342" lon="5.4149">
        <ele>966</ele>
        <time>2017-10-19T05:55:59Z</time>
      </trkpt>
      <trkpt lat="44.86357" lon="5.41499">
        <ele>963</ele>
        <time>2017-10-19T05:56:01Z</time>
      </trkpt>
      <trkpt lat="44.86378" lon="5.41508">
        <ele>968</ele>
        <time>2017-10-19T05:56:07Z</time>
      </trkpt>
      <trkpt lat="44.86397" lon="5.41519">
        <ele>966</ele>
        <time>2017-10-19T05:56:19Z</time>
      </trkpt>
      <trkpt lat="44.8642" lon="5.41536">
        <ele>961</ele>
        <time>2017-10-19T05:56:22Z</time>
      </trkpt>
      <trkpt lat="44.8644" lon="5.41542">
        <ele>961</ele>
        <time>2017-10-19T05:56:32Z</time>
      </trkpt>
      <trkpt lat="44.86497" lon="5.41552">
        <ele>959</ele>
        <time>2017-10-19T05:56:47Z</time>
      </trkpt>
      <trkpt lat="44.86555" lon="5.41561">
        <ele>952</ele>
        <time>2017-10-19T05:56:49Z</time>
      </trkpt>
      <trkpt lat="44.86596" lon="5.41568">
        <ele>948</ele>
        <time>2017-10-19T05:57:08Z</time>
      </trkpt>
      <trkpt lat="44.86684" lon="5.41578">
        <ele>943</ele>
        <time>2017-10-19T05:57:15Z</time>
      </trkpt>
      <trkpt lat="44.86715" lon="5.41578">
        <ele>941</ele>
        <time>2017-10-19T05:57:28Z</time>
      </trkpt>
      <trkpt lat="44.86744" lon="5.41569">
        <ele>941</ele>
        <time>2017-10-19T05:57:30Z</time>
      </trkpt>
      <trkpt lat="44.86785" lon="5.41559">
        <ele>937</ele>
        <time>2017-10-19T05:57:46Z</time>
      </trkpt>
      <trkpt lat="44.86847" lon="5.41546">
        <ele>933</ele>
        <time>2017-10-19T05:57:49Z</time>
      </trkpt>
      <trkpt lat="44.86862" lon="5.4155">
        <ele>933</ele>
        <time>2017-10-19T05:57:57Z</time>
      </trkpt>
      <trkpt lat="44.86881" lon="5.41562">
        <ele>933</ele>
        <time>2017-10-19T05:58:15Z</time>
      </trkpt>
      <trkpt lat="44.86925" lon="5.41606">
        <ele>933</ele>
        <time>2017-10-19T05:58:35Z</time>
      </trkpt>
      <trkpt lat="44.86956" lon="5.41639">
        <ele>931</ele>
        <time>2017-10-19T05:58:50Z</time>
      </trkpt>
      <trkpt lat="44.86986" lon="5.41665">
        <ele>929</ele>
        <time>2017-10-19T05:58:58Z</time>
      </trkpt>
      <trkpt lat="44.87012" lon="5.41678">
        <ele>927</ele>
        <time>2017-10-19T05:59:17Z</time>
      </trkpt>
      <trkpt lat="44.87043" lon="5.41681">
        <ele>925</ele>
        <time>2017-10-19T05:59:31Z</time>
      </trkpt>
      <trkpt lat="44.87088" lon="5.41681">
        <ele>922</ele>
        <time>2017-10-19T05:59:43Z</time>
      </trkpt>
      <trkpt lat="44.87147" lon="5.41672">
        <ele>922</ele>
        <time>2017-10-19T06:00:01Z</time>
      </trkpt>
      <trkpt lat="44.87169" lon="5.4167">
        <ele>920</ele>
        <time>2017-10-19T06:00:10Z</time>
      </trkpt>
      <trkpt lat="44.87187" lon="5.41671">
        <ele>920</ele>
        <time>2017-10-19T06:00:24Z</time>
      </trkpt>
      <trkpt lat="44.87219" lon="5.41681">
        <ele>918</ele>
        <time>2017-10-19T06:00:33Z</time>
      </trkpt>
      <trkpt lat="44.87237" lon="5.41689">
        <ele>918</ele>
        <time>2017-10-19T06:00:36Z</time>
      </trkpt>
      <trkpt lat="44.87339" lon="5.41729">
        <ele>911</ele>
        <time>2017-10-19T06:00:49Z</time>
      </trkpt>
      <trkpt lat="44.87456" lon="5.41783">
        <ele>906</ele>
        <time>2017-10-19T06:00:52Z</time>
      </trkpt>
      <trkpt lat="44.87521" lon="5.41816">
        <ele>906</ele>
        <time>2017-10-19T06:01:07Z</time>
      </trkpt>
      <trkpt lat="44.87707" lon="5.41881">
        <ele>905</ele>
        <time>2017-10-19T06:01:23Z</time>
      </trkpt>
      <trkpt lat="44.87801" lon="5.4191">
        <ele>904</ele>
        <time>2017-10-19T06:01:31Z</time>
      </trkpt>
      <trkpt lat="44.87869" lon="5.41926">
        <ele>907</ele>
        <time>2017-10-19T06:01:41Z</time>
      </trkpt>
      <trkpt lat="44.87925" lon="5.41933">
        <ele>903</ele>
        <time>2017-10-19T06:01:55Z</time>
      </trkpt>
      <trkpt lat="44.87988" lon="5.41936">
        <ele>901</ele>
        <time>2017-10-19T06:02:05Z</time>
      </trkpt>
      <trkpt lat="44.88066" lon="5.41939">
        <ele>899</ele>
        <time>2017-10-19T06:02:21Z</time>
      </trkpt>
      <trkpt lat="44.88111" lon="5.41944">
        <ele>897</ele>
        <time>2017-10-19T06:02:33Z</time>
      </trkpt>
      <trkpt lat="44.8814" lon="5.41953">
        <ele>897</ele>
        <time>2017-10-19T06:02:47Z</time>
      </trkpt>
      <trkpt lat="44.88196" lon="5.41981">
        <ele>896</ele>
        <time>2017-10-19T06:02:57Z</time>
      </trkpt>
      <trkpt lat="44.88342" lon="5.42054">
        <ele>889</ele>
        <time>2017-10-19T06:03:09Z</time>
      </trkpt>
      <trkpt lat="44.88382" lon="5.42069">
        <ele>887</ele>
        <time>2017-10-19T06:03:26Z</time>
      </trkpt>
      <trkpt lat="44.88404" lon="5.4207">
        <ele>885</ele>
        <time>2017-10-19T06:03:32Z</time>
      </trkpt>
      <trkpt lat="44.88476" lon="5.42067">
        <ele>881</ele>
        <time>2017-10-19T06:03:43Z</time>
      </trkpt>
      <trkpt lat="44.88611" lon="5.42085">
        <ele>875</ele>
        <time>2017-10-19T06:03:50Z</time>
      </trkpt>
      <trkpt lat="44.88945" lon="5.42139">
        <ele>868</ele>
        <time>2017-10-19T06:04:06Z</time>
      </trkpt>
      <trkpt lat="44.88999" lon="5.42147">
        <ele>867</ele>
        <time>2017-10-19T06:04:21Z</time>
      </trkpt>
      <trkpt lat="44.89026" lon="5.42149">
        <ele>865</ele>
        <time>2017-10-19T06:04:29Z</time>
      </trkpt>
      <trkpt lat="44.89077" lon="5.42144">
        <ele>864</ele>
        <time>2017-10-19T06:04:40Z</time>
      </trkpt>
      <trkpt lat="44.89144" lon="5.42136">
        <ele>862</ele>
        <time>2017-10-19T06:04:53Z</time>
      </trkpt>
      <trkpt lat="44.8916" lon="5.42136">
        <ele>862</ele>
        <time>2017-10-19T06:05:03Z</time>
      </trkpt>
      <trkpt lat="44.89182" lon="5.42143">
        <ele>861</ele>
        <time>2017-10-19T06:05:21Z</time>
      </trkpt>
      <trkpt lat="44.89298" lon="5.42203">
        <ele>859</ele>
        <time>2017-10-19T06:05:35Z</time>
      </trkpt>
      <trkpt lat="44.89442" lon="5.42278">
        <ele>854</ele>
        <time>2017-10-19T06:05:45Z</time>
      </trkpt>
      <trkpt lat="44.8951" lon="5.42313">
        <ele>853</ele>
        <time>2017-10-19T06:05:51Z</time>
      </trkpt>
      <trkpt lat="44.8955" lon="5.42336">
        <ele>853</ele>
        <time>2017-10-19T06:05:55Z</time>
      </trkpt>
      <trkpt lat="44.89576" lon="5.42348">
        <ele>852</ele>
        <time>2017-10-19T06:06:10Z</time>
      </trkpt>
      <trkpt lat="44.89603" lon="5.4235">
        <ele>849</ele>
        <time>2017-10-19T06:06:26Z</time>
      </trkpt>
      <trkpt lat="44.89625" lon="5.42351">
        <ele>848</ele>
        <time>2017-10-19T06:06:29Z</time>
      </trkpt>
      <trkpt lat="44.89671" lon="5.42352">
        <ele>847</ele>
        <time>2017-10-19T06:06:41Z</time>
      </trkpt>
      <trkpt lat="44.89687" lon="5.42355">
        <ele>846</ele>
        <time>2017-10-19T06:06:57Z</time>
      </trkpt>
      <trkpt lat="44.89711" lon="5.42367">
        <ele>846</ele>
        <time>2017-10-19T06:06:59Z</time>
      </trkpt>
      <trkpt lat="44.89749" lon="5.42389">
        <ele>846</ele>
        <time>2017-10-19T06:07:04Z</time>
      </trkpt>
      <trkpt lat="44.89788" lon="5.42409">
        <ele>846</ele>
        <time>2017-10-19T06:07:16Z</time>
      </trkpt>
      <trkpt lat="44.89879" lon="5.42453">
        <ele>843</ele>
        <time>2017-10-19T06:07:20Z</time>
      </trkpt>
      <trkpt lat="44.8997" lon="5.42497">
        <ele>842</ele>
        <time>2017-10-19T06:07:36Z</time>
      </trkpt>
      <trkpt lat="44.90057" lon="5.42538">
        <ele>838</ele>
        <time>2017-10-19T06:07:38Z</time>
      </trkpt>
      <trkpt lat="44.90088" lon="5.42546">
        <ele>837</ele>
        <time>2017-10-19T06:07:48Z</time>
      </trkpt>
      <trkpt lat="44.90123" lon="5.4255">
        <ele>837</ele>
        <time>2017-10-19T06:08:07Z</time>
      </trkpt>
      <trkpt lat="44.90243" lon="5.42558">
        <ele>836</ele>
        <time>2017-10-19T06:08:21Z</time>
      </trkpt>
      <trkpt lat="44.90404" lon="5.4257">
        <ele>835</ele>
        <time>2017-10-19T06:08:37Z</time>
      </trkpt>
      <trkpt lat="44.90541" lon="5.4258">
        <ele>843</ele>
        <time>2017-10-19T06:08:43Z</time>
      </trkpt>
      <trkpt lat="44.90573" lon="5.42581">
        <ele>840</ele>
        <time>2017-10-19T06:09:00Z</time>
      </trkpt>
      <trkpt lat="44.90596" lon="5.42577">
        <ele>841</ele>
        <time>2017-10-19T06:09:03Z</time>
      </trkpt>
      <trkpt lat="44.90617" lon="5.42575">
        <ele>844</ele>
        <time>2017-10-19T06:09:18Z</time>
      </trkpt>
      <trkpt lat="44.90634" lon="5.42577">
        <ele>843</ele>
        <time>2017-10-19T06:09:23Z</time>
      </trkpt>
      <trkpt lat="44.90699" lon="5.42599">
        <ele>834</ele>
        <time>2017-10-19T06:09:35Z</time>
      </trkpt>
      <trkpt lat="44.90732" lon="5.42612">
        <ele>833</ele>
        <time>2017-10-19T06:09:50Z</time>
      </trkpt>
      <trkpt lat="44.90762" lon="5.42628">
        <ele>833</ele>
        <time>2017-10-19T06:09:56Z</time>
      </trkpt>
      <trkpt lat="44.90819" lon="5.42663">
        <ele>830</ele>
        <time>2017-10-19T06:10:00Z</time>
      </trkpt>
      <trkpt lat="44.90834" lon="5.4267">
        <ele>828</ele>
        <time>2017-10-19T06:10:12Z</time>
      </trkpt>
      <trkpt lat="44.90857" lon="5.42675">
        <ele>828</ele>
        <time>2017-10-19T06:10:31Z</time>
      </trkpt>
      <trkpt lat="44.90886" lon="5.42674">
        <ele>828</ele>
        <time>2017-10-19T06:10:40Z</time>
      </trkpt>
      <trkpt lat="44.90975" lon="5.42662">
        <ele>831</ele>
        <time>2017-10-19T06:10:52Z</time>
      </trkpt>
      <trkpt lat="44.90995" lon="5.42661">
        <ele>827</ele>
        <time>2017-10-19T06:11:10Z</time>
      </trkpt>
      <trkpt lat="44.91012" lon="5.42663">
        <ele>828</ele>
        <time>2017-10-19T06:11:20Z</time>
      </trkpt>
      <trkpt lat="44.91029" lon="5.42666">
        <ele>830</ele>
        <time>2017-10-19T06:11:32Z</time>
      </trkpt>
      <trkpt lat="44.91112" lon="5.42683">
        <ele>823</ele>
        <time>2017-10-19T06:11:46Z</time>
      </trkpt>
      <trkpt lat="44.91158" lon="5.4269">
        <ele>824</ele>
        <time>2017-10-19T06:11:48Z</time>
      </trkpt>
      <trkpt lat="44.91264" lon="5.42695">
        <ele>821</ele>
        <time>2017-10-19T06:12:06Z</time>
      </trkpt>
      <trkpt lat="44.91325" lon="5.42696">
        <ele>822</ele>
        <time>2017-10-19T06:12:13Z</time>
      </trkpt>
      <trkpt lat="44.91376" lon="5.42698">
        <ele>821</ele>
        <time>2017-10-19T06:12:15Z</time>
      </trkpt>
      <trkpt lat="44.91453" lon="5.4271">
        <ele>821</ele>
        <time>2017-10-19T06:12:29Z</time>
      </trkpt>
      <trkpt lat="44.91637" lon="5.42736">
        <ele>831</ele>
        <time>2017-10-19T06:12:48Z</time>
      </trkpt>
      <trkpt lat="44.91744" lon="5.42752">
        <ele>826</ele>
        <time>2017-10-19T06:13:01Z</time>
      </trkpt>
      <trkpt lat="44.91766" lon="5.42758">
        <ele>824</ele>
        <time>2017-10-19T06:13:14Z</time>
      </trkpt>
      <trkpt lat="44.91804" lon="5.42786">
        <ele>820</ele>
        <time>2017-10-19T06:13:29Z</time>
      </trkpt>
      <trkpt lat="44.91824" lon="5.42799">
        <ele>818</ele>
        <time>2017-10-19T06:13:37Z</time>
      </trkpt>
      <trkpt lat="44.91844" lon="5.4281">
        <ele>818</ele>
        <time>2017-10-19T06:13:39Z</time>
      </trkpt>
      <trkpt lat="44.91899" lon="5.42833">
        <ele>818</ele>
        <time>2017-10-19T06:13:46Z</time>
      </trkpt>
      <trkpt lat="44.91954" lon="5.42849">
        <ele>811</ele>
        <time>2017-10-19T06:14:05Z</time>
      </trkpt>
      <trkpt lat="44.92001" lon="5.4285">
        <ele>810</ele>
        <time>2017-10-19T06:14:14Z</time>
      </trkpt>
      <trkpt lat="44.92051" lon="5.42835">
        <ele>809</ele>
        <time>2017-10-19T06:14:30Z</time>
      </trkpt>
      <trkpt lat="44.92068" lon="5.42831">
        <ele>815</ele>
        <time>2017-10-19T06:14:32Z</time>
      </trkpt>
      <trkpt lat="44.92087" lon="5.4283">
        <ele>812</ele>
        <time>2017-10-19T06:14:45Z</time>
      </trkpt>
      <trkpt lat="44.92138" lon="5.42833">
        <ele>816</ele>
        <time>2017-10-19T06:14:55Z</time>
      </trkpt>
      <trkpt lat="44.92177" lon="5.42831">
        <ele>813</ele>
        <time>2017-10-19T06:15:14Z</time>
      </trkpt>
      <trkpt lat="44.92539" lon="5.42759">
        <ele>801</ele>
        <time>2017-10-19T06:15:33Z</time>
      </trkpt>
      <trkpt lat="44.92582" lon="5.42751">
        <ele>802</ele>
        <time>2017-10-19T06:15:35Z</time>
      </trkpt>
      <trkpt lat="44.92598" lon="5.42749">
        <ele>806</ele>
        <time>2017-10-19T06:15:41Z</time>
      </trkpt>
      <trkpt lat="44.92614" lon="5.42751">
        <ele>800</ele>
        <time>2017-10-19T06:15:57Z</time>
      </trkpt>
      <trkpt lat="44.92731" lon="5.42768">
        <ele>799</ele>
        <time>2017-10-19T06:16:00Z</time>
      </trkpt>
      <trkpt lat="44.92786" lon="5.42774">
        <ele>798</ele>
        <time>2017-10-19T06:16:10Z</time>
      </trkpt>
      <trkpt lat="44.92882" lon="5.42787">
        <ele>795</ele>
        <time>2017-10-19T06:16:18Z</time>
      </trkpt>
      <trkpt lat="44.92958" lon="5.42794">
        <ele>795</ele>
        <time>2017-10-19T06:16:32Z</time>
      </trkpt>
      <trkpt lat="44.93036" lon="5.42803">
        <ele>796</ele>
        <time>2017-10-19T06:16:44Z</time>
      </trkpt>
      <trkpt lat="44.93072" lon="5.42811">
        <ele>795</ele>
        <time>2017-10-19T06:16:51Z</time>
      </trkpt>
      <trkpt lat="44.931" lon="5.42823">
        <ele>796</ele>
        <time>2017-10-19T06:16:59Z</time>
      </trkpt>
      <trkpt lat="44.93135" lon="5.42847">
        <ele>791</ele>
        <time>2017-10-19T06:17:05Z</time>
      </trkpt>
      <trkpt lat="44.93184" lon="5.42885">
        <ele>794</ele>
        <time>2017-10-19T06:17:23Z</time>
      </trkpt>
      <trkpt lat="44.93233" lon="5.42915">
        <ele>796</ele>
        <time>2017-10-19T06:17:42Z</time>
      </trkpt>
      <trkpt lat="44.93282" lon="5.42938">
        <ele>793</ele>
        <time>2017-10-19T06:17:58Z</time>
      </trkpt>
      <trkpt lat="44.93323" lon="5.42955">
        <ele>793</ele>
        <time>2017-10-19T06:18:15Z</time>
      </trkpt>
      <trkpt lat="44.93416" lon="5.42985">
        <ele>794</ele>
        <time>2017-10-19T06:18:18Z</time>
      </trkpt>
      <trkpt lat="44.93464" lon="5.43004">
        <ele>795</ele>
        <time>2017-10-19T06:18:27Z</time>
      </trkpt>
      <trkpt lat="44.935" lon="5.43017">
        <ele>799</ele>
        <time>2017-10-19T06:18:43Z</time>
      </trkpt>
      <trkpt lat="44.9352" lon="5.43023">
        <ele>800</ele>
        <time>2017-10-19T06:18:46Z</time>
      </trkpt>
      <trkpt lat="44.93546" lon="5.43026">
        <ele>801</ele>
        <time>2017-10-19T06:18:52Z</time>
      </trkpt>
      <trkpt lat="44.9363" lon="5.43036">
        <ele>803</ele>
        <time>2017-10-19T06:19:03Z</time>
      </trkpt>
      <trkpt lat="44.93697" lon="5.43042">
        <ele>806</ele>
        <time>2017-10-19T06:19:13Z</time>
      </trkpt>
      <trkpt lat="44.93836" lon="5.43058">
        <ele>812</ele>
        <time>2017-10-19T06:19:29Z</time>
      </trkpt>
      <trkpt lat="44.93893" lon="5.43063">
        <ele>813</ele>
        <time>2017-10-19T06:19:42Z</time>
      </trkpt>
      <trkpt lat="44.93913" lon="5.43064">
        <ele>812</ele>
        <time>2017-10-19T06:19:53Z</time>
      </trkpt>
      <trkpt lat="44.93942" lon="5.43062">
        <ele>815</ele>
        <time>2017-10-19T06:20:03Z</time>
      </trkpt>
      <trkpt lat="44.93982" lon="5.43054">
        <ele>816</ele>
        <time>2017-10-19T06:20:21Z</time>
      </trkpt>
      <trkpt lat="44.94017" lon="5.43051">
        <ele>817</ele>
        <time>2017-10-19T06:20:34Z</time>
      </trkpt>
      <trkpt lat="44.94051" lon="5.43048">
        <ele>817</ele>
        <time>2017-10-19T06:20:39Z</time>
      </trkpt>
      <trkpt lat="44.94088" lon="5.43039">
        <ele>817</ele>
        <time>2017-10-19T06:20:43Z</time>
      </trkpt>
      <trkpt lat="44.94191" lon="5.43008">
        <ele>816</ele>
        <time>2017-10-19T06:20:53Z</time>
      </trkpt>
      <trkpt lat="44.94231" lon="5.42994">
        <ele>820</ele>
        <time>2017-10-19T06:21:04Z</time>
      </trkpt>
      <trkpt lat="44.94268" lon="5.42977">
        <ele>820</ele>
        <time>2017-10-19T06:21:12Z</time>
      </trkpt>
      <trkpt lat="44.94323" lon="5.42948">
        <ele>822</ele>
        <time>2017-10-19T06:21:23Z</time>
      </trkpt>
      <trkpt lat="44.94368" lon="5.42928">
        <ele>822</ele>
        <time>2017-10-19T06:21:27Z</time>
      </trkpt>
      <trkpt lat="44.94401" lon="5.42913">
        <ele>828</ele>
        <time>2017-10-19T06:21:38Z</time>
      </trkpt>
      <trkpt lat="44.94422" lon="5.42911">
        <ele>827</ele>
        <time>2017-10-19T06:21:52Z</time>
      </trkpt>
      <trkpt lat="44.94495" lon="5.42913">
        <ele>827</ele>
        <time>2017-10-19T06:21:54Z</time>
      </trkpt>
      <trkpt lat="44.94702" lon="5.42927">
        <ele>836</ele>
        <time>2017-10-19T06:21:59Z</time>
      </trkpt>
      <trkpt lat="44.94847" lon="5.42938">
        <ele>846</ele>
        <time>2017-10-19T06:22:03Z</time>
      </trkpt>
      <trkpt lat="44.94912" lon="5.42943">
        <ele>846</ele>
        <time>2017-10-19T06:22:16Z</time>
      </trkpt>
      <trkpt lat="44.94941" lon="5.42948">
        <ele>849</ele>
        <time>2017-10-19T06:22:29Z</time>
      </trkpt>
      <trkpt lat="44.94979" lon="5.42961">
        <ele>849</ele>
        <time>2017-10-19T06:22:40Z</time>
      </trkpt>
      <trkpt lat="44.94996" lon="5.42965">
        <ele>849</ele>
        <time>2017-10-19T06:22:54Z</time>
      </trkpt>
      <trkpt lat="44.95032" lon="5.42967">
        <ele>852</ele>
        <time>2017-10-19T06:23:09Z</time>
      </trkpt>
      <trkpt lat="44.95068" lon="5.42965">
        <ele>852</ele>
        <time>2017-10-19T06:23:16Z</time>
      </trkpt>
      <trkpt lat="44.95085" lon="5.42963">
        <ele>854</ele>
        <time>2017-10-19T06:23:32Z</time>
      </trkpt>
      <trkpt lat="44.95101" lon="5.42956">
        <ele>855</ele>
        <time>2017-10-19T06:23:48Z</time>
      </trkpt>
      <trkpt lat="44.95116" lon="5.42945">
        <ele>855</ele>
        <time>2017-10-19T06:23:57Z</time>
      </trkpt>
      <trkpt lat="44.95158" lon="5.42903">
        <ele>860</ele>
        <time>2017-10-19T06:24:13Z</time>
      </trkpt>
      <trkpt lat="44.95174" lon="5.4289">
        <ele>862</ele>
        <time>2017-10-19T06:24:15Z</time>
      </trkpt>
      <trkpt lat="44.9519" lon="5.42879">
        <ele>863</ele>
        <time>2017-10-19T06:24:20Z</time>
      </trkpt>
      <trkpt lat="44.95206" lon="5.42872">
        <ele>863</ele>
        <time>2017-10-19T06:24:30Z</time>
      </trkpt>
      <trkpt lat="44.9524" lon="5.42862">
        <ele>865</ele>
        <time>2017-10-19T06:24:37Z</time>
      </trkpt>
      <trkpt lat="44.95256" lon="5.42856">
        <ele>866</ele>
        <time>2017-10-19T06:24:41Z</time>
      </trkpt>
      <trkpt lat="44.95271" lon="5.42847">
        <ele>866</ele>
        <time>2017-10-19T06:24:50Z</time>
      </trkpt>
      <trkpt lat="44.95281" lon="5.42839">
        <ele>866</ele>
        <time>2017-10-19T06:25:10Z</time>
      </trkpt>
      <trkpt lat="44.9529" lon="5.42826">
        <ele>870</ele>
        <time>2017-10-19T06:25:25Z</time>
      </trkpt>
      <trkpt lat="44.95343" lon="5.42741">
        <ele>871</ele>
        <time>2017-10-19T06:25:40Z</time>
      </trkpt>
      <trkpt lat="44.95384" lon="5.42674">
        <ele>872</ele>
        <time>2017-10-19T06:25:57Z</time>
      </trkpt>
      <trkpt lat="44.95433" lon="5.42614">
        <ele>877</ele>
        <time>2017-10-19T06:26:14Z</time>
      </trkpt>
      <trkpt lat="44.95446" lon="5.42602">
        <ele>877</ele>
        <time>2017-10-19T06:26:19Z</time>
      </trkpt>
      <trkpt lat="44.95464" lon="5.4259">
        <ele>878</ele>
        <time>2017-10-19T06:26:30Z</time>
      </trkpt>
      <trkpt lat="44.95506" lon="5.42568">
        <ele>881</ele>
        <time>2017-10-19T06:26:40Z</time>
      </trkpt>
      <trkpt lat="44.95597" lon="5.42515">
        <ele>878</ele>
        <time>2017-10-19T06:26:46Z</time>
      </trkpt>
      <trkpt lat="44.95623" lon="5.42497">
        <ele>877</ele>
        <time>2017-10-19T06:26:49Z</time>
      </trkpt>
      <trkpt lat="44.95645" lon="5.42473">
        <ele>876</ele>
        <time>2017-10-19T06:26:55Z</time>
      </trkpt>
      <trkpt lat="44.95673" lon="5.42431">
        <ele>870</ele>
        <time>2017-10-19T06:27:10Z</time>
      </trkpt>
      <trkpt lat="44.95689" lon="5.42406">
        <ele>871</ele>
        <time>2017-10-19T06:27:23Z</time>
      </trkpt>
      <trkpt lat="44.95708" lon="5.42383">
        <ele>871</ele>
        <time>2017-10-19T06:27:35Z</time>
      </trkpt>
      <trkpt lat="44.95733" lon="5.42364">
        <ele>870</ele>
        <time>2017-10-19T06:27:55Z</time>
      </trkpt>
      <trkpt lat="44.9579" lon="5.42334">
        <ele>868</ele>
        <time>2017-10-19T06:28:01Z</time>
      </trkpt>
      <trkpt lat="44.95865" lon="5.42296">
        <ele>869</ele>
        <time>2017-10-19T06:28:15Z</time>
      </trkpt>
      <trkpt lat="44.95934" lon="5.42257">
        <ele>868</ele>
        <time>2017-10-19T06:28:32Z</time>
      </trkpt>
      <trkpt lat="44.96015" lon="5.42209">
        <ele>869</ele>
        <time>2017-10-19T06:28:44Z</time>
      </trkpt>
      <trkpt lat="44.96026" lon="5.42201">
        <ele>870</ele>
        <time>2017-10-19T06:28:59Z</time>
      </trkpt>
      <trkpt lat="44.96035" lon="5.4219">
        <ele>870</ele>
        <time>2017-10-19T06:29:16Z</time>
      </trkpt>
      <trkpt lat="44.96043" lon="5.42177">
        <ele>870</ele>
        <time>2017-10-19T06:29:29Z</time>
      </trkpt>
      <trkpt lat="44.96048" lon="5.42162">
        <ele>870</ele>
        <time>2017-10-19T06:29:44Z</time>
      </trkpt>
      <trkpt lat="44.96059" lon="5.42108">
        <ele>871</ele>
        <time>2017-10-19T06:30:02Z</time>
      </trkpt>
      <trkpt lat="44.96067" lon="5.42081">
        <ele>871</ele>
        <time>2017-10-19T06:30:13Z</time>
      </trkpt>
      <trkpt lat="44.96073" lon="5.42071">
        <ele>871</ele>
        <time>2017-10-19T06:30:28Z</time>
      </trkpt>
      <trkpt lat="44.96082" lon="5.42063">
        <ele>870</ele>
        <time>2017-10-19T06:30:35Z</time>
      </trkpt>
      <trkpt lat="44.9613" lon="5.42041">
        <ele>877</ele>
        <time>2017-10-19T06:30:37Z</time>
      </trkpt>
      <trkpt lat="44.96188" lon="5.42011">
        <ele>883</ele>
        <time>2017-10-19T06:30:42Z</time>
      </trkpt>
      <trkpt lat="44.96209" lon="5.42001">
        <ele>884</ele>
        <time>2017-10-19T06:30:58Z</time>
      </trkpt>
      <trkpt lat="44.96229" lon="5.41996">
        <ele>879</ele>
        <time>2017-10-19T06:31:06Z</time>
      </trkpt>
      <trkpt lat="44.9624" lon="5.41995">
        <ele>880</ele>
        <time>2017-10-19T06:31:12Z</time>
      </trkpt>
      <trkpt lat="44.96267" lon="5.41996">
        <ele>884</ele>
        <time>2017-10-19T06:31:22Z</time>
      </trkpt>
      <trkpt lat="44.96283" lon="5.41992">
        <ele>885</ele>
        <time>2017-10-19T06:31:33Z</time>
      </trkpt>
      <trkpt lat="44.96298" lon="5.41984">
        <ele>887</ele>
        <time>2017-10-19T06:31:47Z</time>
      </trkpt>
      <trkpt lat="44.96328" lon="5.41959">
        <ele>887</ele>
        <time>2017-10-19T06:32:05Z</time>
      </trkpt>
      <trkpt lat="44.96352" lon="5.41939">
        <ele>892</ele>
        <time>2017-10-19T06:32:20Z</time>
      </trkpt>
      <trkpt lat="44.96363" lon="5.41933">
        <ele>893</ele>
        <time>2017-10-19T06:32:31Z</time>
      </trkpt>
      <trkpt lat="44.96374" lon="5.41927">
        <ele>894</ele>
        <time>2017-10-19T06:32:42Z</time>
      </trkpt>
      <trkpt lat="44.96419" lon="5.41912">
        <ele>893</ele>
        <time>2017-10-19T06:32:46Z</time>
      </trkpt>
      <trkpt lat="44.96458" lon="5.41901">
        <ele>892</ele>
        <time>2017-10-19T06:33:00Z</time>
      </trkpt>
      <trkpt lat="44.96465" lon="5.419">
        <ele>892</ele>
        <time>2017-10-19T06:33:17Z</time>
      </trkpt>
      <trkpt lat="44.9648" lon="5.41903">
        <ele>892</ele>
        <time>2017-10-19T06:33:23Z</time>
      </trkpt>
      <trkpt lat="44.96609" lon="5.41898">
        <ele>892</ele>
        <time>2017-10-19T06:33:43Z</time>
      </trkpt>
      <trkpt lat="44.9663" lon="5.4189">
        <ele>893</ele>
        <time>2017-10-19T06:34:00Z</time>
      </trkpt>
      <trkpt lat="44.96649" lon="5.4187">
        <ele>892</ele>
        <time>2017-10-19T06:34:03Z</time>
      </trkpt>
      <trkpt lat="44.9666" lon="5.41853">
        <ele>892</ele>
        <time>2017-10-19T06:34:09Z</time>
      </trkpt>
      <trkpt lat="44.96673" lon="5.41818">
        <ele>894</ele>
        <time>2017-10-19T06:34:21Z</time>
      </trkpt>
      <trkpt lat="44.96735" lon="5.41606">
        <ele>888</ele>
        <time>2017-10-19T06:34:28Z</time>
      </trkpt>
      <trkpt lat="44.96737" lon="5.41594">
        <ele>888</ele>
        <time>2017-10-19T06:34:30Z</time>
      </trkpt>
      <trkpt lat="44.96742" lon="5.4156">
        <ele>885</ele>
        <time>2017-10-19T06:34:43Z</time>
      </trkpt>
      <trkpt lat="44.96727" lon="5.41555">
        <ele>885</ele>
        <time>2017-10-19T06:34:55Z</time>
      </trkpt>
    </trkseg>
  </trk>
</gpx>